<?xml version="1.0" encoding="UTF-8" standalone="no" ?>
<gpx xmlns="http://www.topografix.com/GPX/1/1" xmlns:xsi="http://www.w3.org/2001/XMLSchema-instance" xsi:schemaLocation="http://www.topografix.com/GPX/1/1 http://www.topografix.com/GPX/1/1/gpx.xsd" version="1.1" creator="VisuGPX - https://www.visugpx.com">
  <metadata>
    <name>Peygros</name>
    <desc><![CDATA[Peygros track]]></desc>
  </metadata>
  <trk>
    <name><![CDATA[Peygros]]></name>
    <trkseg>
      <trkpt lat="43.64645" lon="6.91936">
        <ele>239.2</ele>
        <time>2014-03-08T12:19:58Z</time>
      </trkpt>
      <trkpt lat="43.64655" lon="6.91921">
        <ele>239.2</ele>
        <time>2014-03-08T12:20:03Z</time>
      </trkpt>
      <trkpt lat="43.64666" lon="6.91916">
        <ele>241.4</ele>
        <time>2014-03-08T12:20:07Z</time>
      </trkpt>
      <trkpt lat="43.64668" lon="6.91914">
        <ele>241.4</ele>
        <time>2014-03-08T12:20:08Z</time>
      </trkpt>
      <trkpt lat="43.64675" lon="6.91904">
        <ele>241.4</ele>
        <time>2014-03-08T12:20:11Z</time>
      </trkpt>
      <trkpt lat="43.64683" lon="6.919">
        <ele>241.8</ele>
        <time>2014-03-08T12:20:13Z</time>
      </trkpt>
      <trkpt lat="43.64687" lon="6.91898">
        <ele>242.2</ele>
        <time>2014-03-08T12:20:14Z</time>
      </trkpt>
      <trkpt lat="43.64691" lon="6.91896">
        <ele>242.8</ele>
        <time>2014-03-08T12:20:15Z</time>
      </trkpt>
      <trkpt lat="43.64696" lon="6.91895">
        <ele>243.2</ele>
        <time>2014-03-08T12:20:16Z</time>
      </trkpt>
      <trkpt lat="43.64701" lon="6.91893">
        <ele>243.6</ele>
        <time>2014-03-08T12:20:17Z</time>
      </trkpt>
      <trkpt lat="43.64715" lon="6.91883">
        <ele>243.6</ele>
        <time>2014-03-08T12:20:21Z</time>
      </trkpt>
      <trkpt lat="43.64729" lon="6.91876">
        <ele>244</ele>
        <time>2014-03-08T12:20:25Z</time>
      </trkpt>
      <trkpt lat="43.64731" lon="6.91874">
        <ele>244.4</ele>
        <time>2014-03-08T12:20:26Z</time>
      </trkpt>
      <trkpt lat="43.64733" lon="6.91872">
        <ele>244.8</ele>
        <time>2014-03-08T12:20:27Z</time>
      </trkpt>
      <trkpt lat="43.64735" lon="6.9187">
        <ele>245.2</ele>
        <time>2014-03-08T12:20:28Z</time>
      </trkpt>
      <trkpt lat="43.64736" lon="6.91868">
        <ele>245.8</ele>
        <time>2014-03-08T12:20:29Z</time>
      </trkpt>
      <trkpt lat="43.64737" lon="6.91867">
        <ele>246.2</ele>
        <time>2014-03-08T12:20:30Z</time>
      </trkpt>
      <trkpt lat="43.64739" lon="6.91865">
        <ele>246.8</ele>
        <time>2014-03-08T12:20:31Z</time>
      </trkpt>
      <trkpt lat="43.6474" lon="6.91864">
        <ele>247.2</ele>
        <time>2014-03-08T12:20:32Z</time>
      </trkpt>
      <trkpt lat="43.64742" lon="6.91862">
        <ele>247.8</ele>
        <time>2014-03-08T12:20:33Z</time>
      </trkpt>
      <trkpt lat="43.64744" lon="6.91861">
        <ele>248.2</ele>
        <time>2014-03-08T12:20:34Z</time>
      </trkpt>
      <trkpt lat="43.64746" lon="6.9186">
        <ele>248.8</ele>
        <time>2014-03-08T12:20:35Z</time>
      </trkpt>
      <trkpt lat="43.64748" lon="6.91859">
        <ele>249.4</ele>
        <time>2014-03-08T12:20:36Z</time>
      </trkpt>
      <trkpt lat="43.64747" lon="6.91857">
        <ele>249.8</ele>
        <time>2014-03-08T12:20:37Z</time>
      </trkpt>
      <trkpt lat="43.64742" lon="6.91854">
        <ele>249.8</ele>
        <time>2014-03-08T12:20:39Z</time>
      </trkpt>
      <trkpt lat="43.64724" lon="6.91853">
        <ele>249.8</ele>
        <time>2014-03-08T12:20:43Z</time>
      </trkpt>
      <trkpt lat="43.64719" lon="6.91852">
        <ele>249.8</ele>
        <time>2014-03-08T12:20:44Z</time>
      </trkpt>
      <trkpt lat="43.64702" lon="6.91848">
        <ele>249.8</ele>
        <time>2014-03-08T12:20:47Z</time>
      </trkpt>
      <trkpt lat="43.64697" lon="6.91846">
        <ele>249.8</ele>
        <time>2014-03-08T12:20:48Z</time>
      </trkpt>
      <trkpt lat="43.64692" lon="6.91843">
        <ele>249.8</ele>
        <time>2014-03-08T12:20:49Z</time>
      </trkpt>
      <trkpt lat="43.64682" lon="6.91836">
        <ele>249.4</ele>
        <time>2014-03-08T12:20:51Z</time>
      </trkpt>
      <trkpt lat="43.64677" lon="6.91831">
        <ele>249</ele>
        <time>2014-03-08T12:20:52Z</time>
      </trkpt>
      <trkpt lat="43.64672" lon="6.91827">
        <ele>248.6</ele>
        <time>2014-03-08T12:20:53Z</time>
      </trkpt>
      <trkpt lat="43.64667" lon="6.91821">
        <ele>248.2</ele>
        <time>2014-03-08T12:20:54Z</time>
      </trkpt>
      <trkpt lat="43.64663" lon="6.91815">
        <ele>247.8</ele>
        <time>2014-03-08T12:20:55Z</time>
      </trkpt>
      <trkpt lat="43.64655" lon="6.91803">
        <ele>247.8</ele>
        <time>2014-03-08T12:20:57Z</time>
      </trkpt>
      <trkpt lat="43.64644" lon="6.91784">
        <ele>247.8</ele>
        <time>2014-03-08T12:21:00Z</time>
      </trkpt>
      <trkpt lat="43.64637" lon="6.91767">
        <ele>247.8</ele>
        <time>2014-03-08T12:21:02Z</time>
      </trkpt>
      <trkpt lat="43.64634" lon="6.91759">
        <ele>247.4</ele>
        <time>2014-03-08T12:21:03Z</time>
      </trkpt>
      <trkpt lat="43.64631" lon="6.91749">
        <ele>247</ele>
        <time>2014-03-08T12:21:04Z</time>
      </trkpt>
      <trkpt lat="43.64627" lon="6.91739">
        <ele>246.6</ele>
        <time>2014-03-08T12:21:05Z</time>
      </trkpt>
      <trkpt lat="43.64624" lon="6.91729">
        <ele>246.2</ele>
        <time>2014-03-08T12:21:06Z</time>
      </trkpt>
      <trkpt lat="43.64622" lon="6.91718">
        <ele>245.8</ele>
        <time>2014-03-08T12:21:07Z</time>
      </trkpt>
      <trkpt lat="43.64614" lon="6.91668">
        <ele>245.8</ele>
        <time>2014-03-08T12:21:12Z</time>
      </trkpt>
      <trkpt lat="43.6461" lon="6.91657">
        <ele>245.8</ele>
        <time>2014-03-08T12:21:13Z</time>
      </trkpt>
      <trkpt lat="43.64606" lon="6.91647">
        <ele>245.2</ele>
        <time>2014-03-08T12:21:14Z</time>
      </trkpt>
      <trkpt lat="43.64601" lon="6.91639">
        <ele>244.8</ele>
        <time>2014-03-08T12:21:15Z</time>
      </trkpt>
      <trkpt lat="43.64596" lon="6.91629">
        <ele>244.4</ele>
        <time>2014-03-08T12:21:16Z</time>
      </trkpt>
      <trkpt lat="43.64591" lon="6.9162">
        <ele>244</ele>
        <time>2014-03-08T12:21:17Z</time>
      </trkpt>
      <trkpt lat="43.64586" lon="6.9161">
        <ele>243.6</ele>
        <time>2014-03-08T12:21:18Z</time>
      </trkpt>
      <trkpt lat="43.64581" lon="6.91601">
        <ele>243.2</ele>
        <time>2014-03-08T12:21:19Z</time>
      </trkpt>
      <trkpt lat="43.64575" lon="6.91593">
        <ele>242.6</ele>
        <time>2014-03-08T12:21:20Z</time>
      </trkpt>
      <trkpt lat="43.64569" lon="6.91585">
        <ele>242.2</ele>
        <time>2014-03-08T12:21:21Z</time>
      </trkpt>
      <trkpt lat="43.64562" lon="6.91578">
        <ele>241.6</ele>
        <time>2014-03-08T12:21:22Z</time>
      </trkpt>
      <trkpt lat="43.64555" lon="6.91572">
        <ele>241.2</ele>
        <time>2014-03-08T12:21:23Z</time>
      </trkpt>
      <trkpt lat="43.64548" lon="6.91566">
        <ele>241.2</ele>
        <time>2014-03-08T12:21:24Z</time>
      </trkpt>
      <trkpt lat="43.64534" lon="6.91556">
        <ele>241.2</ele>
        <time>2014-03-08T12:21:26Z</time>
      </trkpt>
      <trkpt lat="43.64518" lon="6.91549">
        <ele>241.2</ele>
        <time>2014-03-08T12:21:28Z</time>
      </trkpt>
      <trkpt lat="43.64503" lon="6.91543">
        <ele>240.6</ele>
        <time>2014-03-08T12:21:30Z</time>
      </trkpt>
      <trkpt lat="43.64495" lon="6.91543">
        <ele>240.2</ele>
        <time>2014-03-08T12:21:31Z</time>
      </trkpt>
      <trkpt lat="43.64488" lon="6.91542">
        <ele>239.6</ele>
        <time>2014-03-08T12:21:32Z</time>
      </trkpt>
      <trkpt lat="43.6448" lon="6.91541">
        <ele>239.2</ele>
        <time>2014-03-08T12:21:33Z</time>
      </trkpt>
      <trkpt lat="43.64472" lon="6.9154">
        <ele>238.6</ele>
        <time>2014-03-08T12:21:34Z</time>
      </trkpt>
      <trkpt lat="43.64433" lon="6.91537">
        <ele>238.6</ele>
        <time>2014-03-08T12:21:39Z</time>
      </trkpt>
      <trkpt lat="43.64425" lon="6.91535">
        <ele>238.6</ele>
        <time>2014-03-08T12:21:40Z</time>
      </trkpt>
      <trkpt lat="43.64409" lon="6.91529">
        <ele>238.2</ele>
        <time>2014-03-08T12:21:42Z</time>
      </trkpt>
      <trkpt lat="43.64401" lon="6.91526">
        <ele>237.8</ele>
        <time>2014-03-08T12:21:43Z</time>
      </trkpt>
      <trkpt lat="43.64393" lon="6.91521">
        <ele>237.4</ele>
        <time>2014-03-08T12:21:44Z</time>
      </trkpt>
      <trkpt lat="43.64386" lon="6.91517">
        <ele>237</ele>
        <time>2014-03-08T12:21:45Z</time>
      </trkpt>
      <trkpt lat="43.64379" lon="6.91513">
        <ele>236.6</ele>
        <time>2014-03-08T12:21:46Z</time>
      </trkpt>
      <trkpt lat="43.64372" lon="6.91505">
        <ele>236.6</ele>
        <time>2014-03-08T12:21:47Z</time>
      </trkpt>
      <trkpt lat="43.64357" lon="6.91481">
        <ele>236.6</ele>
        <time>2014-03-08T12:21:50Z</time>
      </trkpt>
      <trkpt lat="43.64351" lon="6.91473">
        <ele>236.2</ele>
        <time>2014-03-08T12:21:51Z</time>
      </trkpt>
      <trkpt lat="43.64346" lon="6.91465">
        <ele>235.8</ele>
        <time>2014-03-08T12:21:52Z</time>
      </trkpt>
      <trkpt lat="43.64341" lon="6.9146">
        <ele>235.4</ele>
        <time>2014-03-08T12:21:53Z</time>
      </trkpt>
      <trkpt lat="43.64336" lon="6.91453">
        <ele>234.8</ele>
        <time>2014-03-08T12:21:54Z</time>
      </trkpt>
      <trkpt lat="43.6433" lon="6.91445">
        <ele>234.4</ele>
        <time>2014-03-08T12:21:55Z</time>
      </trkpt>
      <trkpt lat="43.64317" lon="6.91432">
        <ele>234.4</ele>
        <time>2014-03-08T12:21:57Z</time>
      </trkpt>
      <trkpt lat="43.64304" lon="6.91418">
        <ele>234.4</ele>
        <time>2014-03-08T12:21:59Z</time>
      </trkpt>
      <trkpt lat="43.64297" lon="6.91412">
        <ele>234.4</ele>
        <time>2014-03-08T12:22:00Z</time>
      </trkpt>
      <trkpt lat="43.64289" lon="6.91406">
        <ele>234</ele>
        <time>2014-03-08T12:22:01Z</time>
      </trkpt>
      <trkpt lat="43.64282" lon="6.91399">
        <ele>233.4</ele>
        <time>2014-03-08T12:22:02Z</time>
      </trkpt>
      <trkpt lat="43.64274" lon="6.91393">
        <ele>233</ele>
        <time>2014-03-08T12:22:03Z</time>
      </trkpt>
      <trkpt lat="43.64266" lon="6.91386">
        <ele>232.4</ele>
        <time>2014-03-08T12:22:04Z</time>
      </trkpt>
      <trkpt lat="43.64257" lon="6.9138">
        <ele>231.8</ele>
        <time>2014-03-08T12:22:05Z</time>
      </trkpt>
      <trkpt lat="43.64224" lon="6.91361">
        <ele>231.4</ele>
        <time>2014-03-08T12:22:09Z</time>
      </trkpt>
      <trkpt lat="43.64217" lon="6.91355">
        <ele>231</ele>
        <time>2014-03-08T12:22:10Z</time>
      </trkpt>
      <trkpt lat="43.6421" lon="6.91349">
        <ele>230.6</ele>
        <time>2014-03-08T12:22:11Z</time>
      </trkpt>
      <trkpt lat="43.64204" lon="6.91342">
        <ele>230.2</ele>
        <time>2014-03-08T12:22:12Z</time>
      </trkpt>
      <trkpt lat="43.64199" lon="6.91334">
        <ele>229.6</ele>
        <time>2014-03-08T12:22:13Z</time>
      </trkpt>
      <trkpt lat="43.64187" lon="6.91317">
        <ele>229.2</ele>
        <time>2014-03-08T12:22:15Z</time>
      </trkpt>
      <trkpt lat="43.64182" lon="6.91307">
        <ele>228.8</ele>
        <time>2014-03-08T12:22:16Z</time>
      </trkpt>
      <trkpt lat="43.64176" lon="6.91296">
        <ele>228.4</ele>
        <time>2014-03-08T12:22:17Z</time>
      </trkpt>
      <trkpt lat="43.64172" lon="6.91283">
        <ele>228</ele>
        <time>2014-03-08T12:22:18Z</time>
      </trkpt>
      <trkpt lat="43.64168" lon="6.91271">
        <ele>227.6</ele>
        <time>2014-03-08T12:22:19Z</time>
      </trkpt>
      <trkpt lat="43.64161" lon="6.91231">
        <ele>227.6</ele>
        <time>2014-03-08T12:22:22Z</time>
      </trkpt>
      <trkpt lat="43.64166" lon="6.91206">
        <ele>227.6</ele>
        <time>2014-03-08T12:22:24Z</time>
      </trkpt>
      <trkpt lat="43.64174" lon="6.91182">
        <ele>227.6</ele>
        <time>2014-03-08T12:22:26Z</time>
      </trkpt>
      <trkpt lat="43.6418" lon="6.91175">
        <ele>227.6</ele>
        <time>2014-03-08T12:22:27Z</time>
      </trkpt>
      <trkpt lat="43.64195" lon="6.91153">
        <ele>227.6</ele>
        <time>2014-03-08T12:22:30Z</time>
      </trkpt>
      <trkpt lat="43.64198" lon="6.91144">
        <ele>227.6</ele>
        <time>2014-03-08T12:22:31Z</time>
      </trkpt>
      <trkpt lat="43.64192" lon="6.91124">
        <ele>227.6</ele>
        <time>2014-03-08T12:22:33Z</time>
      </trkpt>
      <trkpt lat="43.64178" lon="6.91113">
        <ele>227.6</ele>
        <time>2014-03-08T12:22:35Z</time>
      </trkpt>
      <trkpt lat="43.64169" lon="6.91114">
        <ele>227.2</ele>
        <time>2014-03-08T12:22:36Z</time>
      </trkpt>
      <trkpt lat="43.64161" lon="6.91119">
        <ele>226.8</ele>
        <time>2014-03-08T12:22:37Z</time>
      </trkpt>
      <trkpt lat="43.64154" lon="6.91127">
        <ele>226.4</ele>
        <time>2014-03-08T12:22:38Z</time>
      </trkpt>
      <trkpt lat="43.64149" lon="6.91138">
        <ele>225.8</ele>
        <time>2014-03-08T12:22:39Z</time>
      </trkpt>
      <trkpt lat="43.64145" lon="6.91149">
        <ele>225.4</ele>
        <time>2014-03-08T12:22:40Z</time>
      </trkpt>
      <trkpt lat="43.64132" lon="6.91167">
        <ele>225</ele>
        <time>2014-03-08T12:22:42Z</time>
      </trkpt>
      <trkpt lat="43.64123" lon="6.91171">
        <ele>224.2</ele>
        <time>2014-03-08T12:22:43Z</time>
      </trkpt>
      <trkpt lat="43.64114" lon="6.9117">
        <ele>223.6</ele>
        <time>2014-03-08T12:22:44Z</time>
      </trkpt>
      <trkpt lat="43.64105" lon="6.91167">
        <ele>222.6</ele>
        <time>2014-03-08T12:22:45Z</time>
      </trkpt>
      <trkpt lat="43.64095" lon="6.91162">
        <ele>221.6</ele>
        <time>2014-03-08T12:22:46Z</time>
      </trkpt>
      <trkpt lat="43.64087" lon="6.91156">
        <ele>220.6</ele>
        <time>2014-03-08T12:22:47Z</time>
      </trkpt>
      <trkpt lat="43.64079" lon="6.91152">
        <ele>219.6</ele>
        <time>2014-03-08T12:22:48Z</time>
      </trkpt>
      <trkpt lat="43.6407" lon="6.91154">
        <ele>218.8</ele>
        <time>2014-03-08T12:22:49Z</time>
      </trkpt>
      <trkpt lat="43.6406" lon="6.91154">
        <ele>218.2</ele>
        <time>2014-03-08T12:22:50Z</time>
      </trkpt>
      <trkpt lat="43.64051" lon="6.91154">
        <ele>217.4</ele>
        <time>2014-03-08T12:22:51Z</time>
      </trkpt>
      <trkpt lat="43.64041" lon="6.91155">
        <ele>216.6</ele>
        <time>2014-03-08T12:22:52Z</time>
      </trkpt>
      <trkpt lat="43.64031" lon="6.91155">
        <ele>215.6</ele>
        <time>2014-03-08T12:22:53Z</time>
      </trkpt>
      <trkpt lat="43.64022" lon="6.91155">
        <ele>214.6</ele>
        <time>2014-03-08T12:22:54Z</time>
      </trkpt>
      <trkpt lat="43.64012" lon="6.91154">
        <ele>213.6</ele>
        <time>2014-03-08T12:22:55Z</time>
      </trkpt>
      <trkpt lat="43.64002" lon="6.91153">
        <ele>212.8</ele>
        <time>2014-03-08T12:22:56Z</time>
      </trkpt>
      <trkpt lat="43.63992" lon="6.91152">
        <ele>212</ele>
        <time>2014-03-08T12:22:57Z</time>
      </trkpt>
      <trkpt lat="43.63983" lon="6.9115">
        <ele>211</ele>
        <time>2014-03-08T12:22:58Z</time>
      </trkpt>
      <trkpt lat="43.63974" lon="6.91146">
        <ele>210</ele>
        <time>2014-03-08T12:22:59Z</time>
      </trkpt>
      <trkpt lat="43.63965" lon="6.91143">
        <ele>209</ele>
        <time>2014-03-08T12:23:00Z</time>
      </trkpt>
      <trkpt lat="43.63956" lon="6.91139">
        <ele>208</ele>
        <time>2014-03-08T12:23:01Z</time>
      </trkpt>
      <trkpt lat="43.63948" lon="6.91136">
        <ele>207</ele>
        <time>2014-03-08T12:23:02Z</time>
      </trkpt>
      <trkpt lat="43.63939" lon="6.91131">
        <ele>206.4</ele>
        <time>2014-03-08T12:23:03Z</time>
      </trkpt>
      <trkpt lat="43.63931" lon="6.91127">
        <ele>206</ele>
        <time>2014-03-08T12:23:04Z</time>
      </trkpt>
      <trkpt lat="43.63923" lon="6.91124">
        <ele>205.4</ele>
        <time>2014-03-08T12:23:05Z</time>
      </trkpt>
      <trkpt lat="43.63915" lon="6.9112">
        <ele>205</ele>
        <time>2014-03-08T12:23:06Z</time>
      </trkpt>
      <trkpt lat="43.63907" lon="6.91117">
        <ele>204.4</ele>
        <time>2014-03-08T12:23:07Z</time>
      </trkpt>
      <trkpt lat="43.63898" lon="6.91115">
        <ele>204.4</ele>
        <time>2014-03-08T12:23:08Z</time>
      </trkpt>
      <trkpt lat="43.6389" lon="6.91114">
        <ele>204</ele>
        <time>2014-03-08T12:23:09Z</time>
      </trkpt>
      <trkpt lat="43.63881" lon="6.91115">
        <ele>203.4</ele>
        <time>2014-03-08T12:23:10Z</time>
      </trkpt>
      <trkpt lat="43.63871" lon="6.91115">
        <ele>203</ele>
        <time>2014-03-08T12:23:11Z</time>
      </trkpt>
      <trkpt lat="43.63863" lon="6.91112">
        <ele>202.4</ele>
        <time>2014-03-08T12:23:12Z</time>
      </trkpt>
      <trkpt lat="43.63854" lon="6.91108">
        <ele>201.8</ele>
        <time>2014-03-08T12:23:13Z</time>
      </trkpt>
      <trkpt lat="43.63846" lon="6.91103">
        <ele>201.2</ele>
        <time>2014-03-08T12:23:14Z</time>
      </trkpt>
      <trkpt lat="43.6384" lon="6.91094">
        <ele>200.6</ele>
        <time>2014-03-08T12:23:15Z</time>
      </trkpt>
      <trkpt lat="43.63836" lon="6.91083">
        <ele>200</ele>
        <time>2014-03-08T12:23:16Z</time>
      </trkpt>
      <trkpt lat="43.63834" lon="6.9107">
        <ele>199.4</ele>
        <time>2014-03-08T12:23:17Z</time>
      </trkpt>
      <trkpt lat="43.63832" lon="6.91058">
        <ele>199.4</ele>
        <time>2014-03-08T12:23:18Z</time>
      </trkpt>
      <trkpt lat="43.63831" lon="6.91048">
        <ele>199.4</ele>
        <time>2014-03-08T12:23:19Z</time>
      </trkpt>
      <trkpt lat="43.63822" lon="6.91007">
        <ele>199.4</ele>
        <time>2014-03-08T12:23:23Z</time>
      </trkpt>
      <trkpt lat="43.63804" lon="6.90988">
        <ele>199.4</ele>
        <time>2014-03-08T12:23:26Z</time>
      </trkpt>
      <trkpt lat="43.63782" lon="6.90984">
        <ele>199.4</ele>
        <time>2014-03-08T12:23:29Z</time>
      </trkpt>
      <trkpt lat="43.63776" lon="6.90984">
        <ele>199.4</ele>
        <time>2014-03-08T12:23:30Z</time>
      </trkpt>
      <trkpt lat="43.63749" lon="6.90986">
        <ele>199.8</ele>
        <time>2014-03-08T12:23:34Z</time>
      </trkpt>
      <trkpt lat="43.63742" lon="6.90986">
        <ele>200.2</ele>
        <time>2014-03-08T12:23:35Z</time>
      </trkpt>
      <trkpt lat="43.63735" lon="6.90986">
        <ele>200.6</ele>
        <time>2014-03-08T12:23:36Z</time>
      </trkpt>
      <trkpt lat="43.63729" lon="6.90985">
        <ele>201</ele>
        <time>2014-03-08T12:23:37Z</time>
      </trkpt>
      <trkpt lat="43.63722" lon="6.90986">
        <ele>201.6</ele>
        <time>2014-03-08T12:23:38Z</time>
      </trkpt>
      <trkpt lat="43.63709" lon="6.90989">
        <ele>201.6</ele>
        <time>2014-03-08T12:23:40Z</time>
      </trkpt>
      <trkpt lat="43.63698" lon="6.90995">
        <ele>201.6</ele>
        <time>2014-03-08T12:23:42Z</time>
      </trkpt>
      <trkpt lat="43.63688" lon="6.91004">
        <ele>201.6</ele>
        <time>2014-03-08T12:23:44Z</time>
      </trkpt>
      <trkpt lat="43.63676" lon="6.91022">
        <ele>201.6</ele>
        <time>2014-03-08T12:23:48Z</time>
      </trkpt>
      <trkpt lat="43.63662" lon="6.91055">
        <ele>201.6</ele>
        <time>2014-03-08T12:23:53Z</time>
      </trkpt>
      <trkpt lat="43.6366" lon="6.91063">
        <ele>202</ele>
        <time>2014-03-08T12:23:54Z</time>
      </trkpt>
      <trkpt lat="43.63658" lon="6.91072">
        <ele>202.4</ele>
        <time>2014-03-08T12:23:55Z</time>
      </trkpt>
      <trkpt lat="43.63657" lon="6.91078">
        <ele>203</ele>
        <time>2014-03-08T12:23:56Z</time>
      </trkpt>
      <trkpt lat="43.63655" lon="6.91086">
        <ele>203.4</ele>
        <time>2014-03-08T12:23:57Z</time>
      </trkpt>
      <trkpt lat="43.63654" lon="6.91093">
        <ele>204</ele>
        <time>2014-03-08T12:23:58Z</time>
      </trkpt>
      <trkpt lat="43.63647" lon="6.91115">
        <ele>204</ele>
        <time>2014-03-08T12:24:01Z</time>
      </trkpt>
      <trkpt lat="43.63637" lon="6.91128">
        <ele>204</ele>
        <time>2014-03-08T12:24:03Z</time>
      </trkpt>
      <trkpt lat="43.63619" lon="6.91143">
        <ele>204</ele>
        <time>2014-03-08T12:24:07Z</time>
      </trkpt>
      <trkpt lat="43.63615" lon="6.91144">
        <ele>204.4</ele>
        <time>2014-03-08T12:24:08Z</time>
      </trkpt>
      <trkpt lat="43.6361" lon="6.91146">
        <ele>204.8</ele>
        <time>2014-03-08T12:24:09Z</time>
      </trkpt>
      <trkpt lat="43.63606" lon="6.91148">
        <ele>205.2</ele>
        <time>2014-03-08T12:24:10Z</time>
      </trkpt>
      <trkpt lat="43.63603" lon="6.91149">
        <ele>205.6</ele>
        <time>2014-03-08T12:24:11Z</time>
      </trkpt>
      <trkpt lat="43.63599" lon="6.9115">
        <ele>206</ele>
        <time>2014-03-08T12:24:12Z</time>
      </trkpt>
      <trkpt lat="43.63591" lon="6.91153">
        <ele>206.4</ele>
        <time>2014-03-08T12:24:14Z</time>
      </trkpt>
      <trkpt lat="43.63586" lon="6.91155">
        <ele>206.8</ele>
        <time>2014-03-08T12:24:15Z</time>
      </trkpt>
      <trkpt lat="43.63581" lon="6.91156">
        <ele>207.2</ele>
        <time>2014-03-08T12:24:16Z</time>
      </trkpt>
      <trkpt lat="43.63575" lon="6.91157">
        <ele>207.6</ele>
        <time>2014-03-08T12:24:17Z</time>
      </trkpt>
      <trkpt lat="43.6357" lon="6.91157">
        <ele>208</ele>
        <time>2014-03-08T12:24:18Z</time>
      </trkpt>
      <trkpt lat="43.63565" lon="6.91159">
        <ele>208</ele>
        <time>2014-03-08T12:24:19Z</time>
      </trkpt>
      <trkpt lat="43.63548" lon="6.91164">
        <ele>208</ele>
        <time>2014-03-08T12:24:22Z</time>
      </trkpt>
      <trkpt lat="43.63538" lon="6.91166">
        <ele>208</ele>
        <time>2014-03-08T12:24:24Z</time>
      </trkpt>
      <trkpt lat="43.63516" lon="6.91177">
        <ele>207.6</ele>
        <time>2014-03-08T12:24:28Z</time>
      </trkpt>
      <trkpt lat="43.63509" lon="6.9118">
        <ele>207.2</ele>
        <time>2014-03-08T12:24:29Z</time>
      </trkpt>
      <trkpt lat="43.63502" lon="6.91183">
        <ele>206.8</ele>
        <time>2014-03-08T12:24:30Z</time>
      </trkpt>
      <trkpt lat="43.63495" lon="6.91185">
        <ele>206.4</ele>
        <time>2014-03-08T12:24:31Z</time>
      </trkpt>
      <trkpt lat="43.63488" lon="6.91189">
        <ele>206</ele>
        <time>2014-03-08T12:24:32Z</time>
      </trkpt>
      <trkpt lat="43.63477" lon="6.91198">
        <ele>206</ele>
        <time>2014-03-08T12:24:34Z</time>
      </trkpt>
      <trkpt lat="43.63448" lon="6.91218">
        <ele>206.4</ele>
        <time>2014-03-08T12:24:39Z</time>
      </trkpt>
      <trkpt lat="43.63442" lon="6.91221">
        <ele>206.8</ele>
        <time>2014-03-08T12:24:40Z</time>
      </trkpt>
      <trkpt lat="43.63436" lon="6.91224">
        <ele>207.4</ele>
        <time>2014-03-08T12:24:41Z</time>
      </trkpt>
      <trkpt lat="43.63431" lon="6.91226">
        <ele>207.8</ele>
        <time>2014-03-08T12:24:42Z</time>
      </trkpt>
      <trkpt lat="43.63425" lon="6.91228">
        <ele>208.2</ele>
        <time>2014-03-08T12:24:43Z</time>
      </trkpt>
      <trkpt lat="43.63413" lon="6.91233">
        <ele>208.2</ele>
        <time>2014-03-08T12:24:45Z</time>
      </trkpt>
      <trkpt lat="43.63408" lon="6.91235">
        <ele>208.6</ele>
        <time>2014-03-08T12:24:46Z</time>
      </trkpt>
      <trkpt lat="43.63402" lon="6.91237">
        <ele>209</ele>
        <time>2014-03-08T12:24:47Z</time>
      </trkpt>
      <trkpt lat="43.63396" lon="6.9124">
        <ele>209.4</ele>
        <time>2014-03-08T12:24:48Z</time>
      </trkpt>
      <trkpt lat="43.6339" lon="6.91241">
        <ele>209.8</ele>
        <time>2014-03-08T12:24:49Z</time>
      </trkpt>
      <trkpt lat="43.63384" lon="6.91243">
        <ele>210.4</ele>
        <time>2014-03-08T12:24:50Z</time>
      </trkpt>
      <trkpt lat="43.63371" lon="6.91247">
        <ele>210.4</ele>
        <time>2014-03-08T12:24:52Z</time>
      </trkpt>
      <trkpt lat="43.63351" lon="6.91251">
        <ele>209.8</ele>
        <time>2014-03-08T12:24:55Z</time>
      </trkpt>
      <trkpt lat="43.63344" lon="6.91252">
        <ele>209.4</ele>
        <time>2014-03-08T12:24:56Z</time>
      </trkpt>
      <trkpt lat="43.63338" lon="6.91253">
        <ele>209</ele>
        <time>2014-03-08T12:24:57Z</time>
      </trkpt>
      <trkpt lat="43.6333" lon="6.91252">
        <ele>208.4</ele>
        <time>2014-03-08T12:24:58Z</time>
      </trkpt>
      <trkpt lat="43.63322" lon="6.91252">
        <ele>207.8</ele>
        <time>2014-03-08T12:24:59Z</time>
      </trkpt>
      <trkpt lat="43.63315" lon="6.9125">
        <ele>207.2</ele>
        <time>2014-03-08T12:25:00Z</time>
      </trkpt>
      <trkpt lat="43.63306" lon="6.91248">
        <ele>206.6</ele>
        <time>2014-03-08T12:25:01Z</time>
      </trkpt>
      <trkpt lat="43.63298" lon="6.91246">
        <ele>206</ele>
        <time>2014-03-08T12:25:02Z</time>
      </trkpt>
      <trkpt lat="43.63289" lon="6.91242">
        <ele>205.4</ele>
        <time>2014-03-08T12:25:03Z</time>
      </trkpt>
      <trkpt lat="43.63281" lon="6.91238">
        <ele>204.8</ele>
        <time>2014-03-08T12:25:04Z</time>
      </trkpt>
      <trkpt lat="43.63274" lon="6.91235">
        <ele>204.4</ele>
        <time>2014-03-08T12:25:05Z</time>
      </trkpt>
      <trkpt lat="43.63266" lon="6.91233">
        <ele>203.8</ele>
        <time>2014-03-08T12:25:06Z</time>
      </trkpt>
      <trkpt lat="43.63259" lon="6.9123">
        <ele>203.2</ele>
        <time>2014-03-08T12:25:07Z</time>
      </trkpt>
      <trkpt lat="43.63252" lon="6.91227">
        <ele>203.2</ele>
        <time>2014-03-08T12:25:08Z</time>
      </trkpt>
      <trkpt lat="43.6323" lon="6.91216">
        <ele>202.8</ele>
        <time>2014-03-08T12:25:11Z</time>
      </trkpt>
      <trkpt lat="43.63222" lon="6.91213">
        <ele>202.4</ele>
        <time>2014-03-08T12:25:12Z</time>
      </trkpt>
      <trkpt lat="43.63214" lon="6.91211">
        <ele>202</ele>
        <time>2014-03-08T12:25:13Z</time>
      </trkpt>
      <trkpt lat="43.63206" lon="6.9121">
        <ele>201.4</ele>
        <time>2014-03-08T12:25:14Z</time>
      </trkpt>
      <trkpt lat="43.63199" lon="6.91208">
        <ele>201</ele>
        <time>2014-03-08T12:25:15Z</time>
      </trkpt>
      <trkpt lat="43.63176" lon="6.91201">
        <ele>201</ele>
        <time>2014-03-08T12:25:18Z</time>
      </trkpt>
      <trkpt lat="43.63168" lon="6.91199">
        <ele>200.4</ele>
        <time>2014-03-08T12:25:19Z</time>
      </trkpt>
      <trkpt lat="43.6316" lon="6.91197">
        <ele>200</ele>
        <time>2014-03-08T12:25:20Z</time>
      </trkpt>
      <trkpt lat="43.63152" lon="6.91195">
        <ele>199.4</ele>
        <time>2014-03-08T12:25:21Z</time>
      </trkpt>
      <trkpt lat="43.63144" lon="6.91193">
        <ele>199</ele>
        <time>2014-03-08T12:25:22Z</time>
      </trkpt>
      <trkpt lat="43.63136" lon="6.9119">
        <ele>198.4</ele>
        <time>2014-03-08T12:25:23Z</time>
      </trkpt>
      <trkpt lat="43.63128" lon="6.91189">
        <ele>198</ele>
        <time>2014-03-08T12:25:24Z</time>
      </trkpt>
      <trkpt lat="43.63119" lon="6.91188">
        <ele>197.4</ele>
        <time>2014-03-08T12:25:25Z</time>
      </trkpt>
      <trkpt lat="43.63111" lon="6.91188">
        <ele>197</ele>
        <time>2014-03-08T12:25:26Z</time>
      </trkpt>
      <trkpt lat="43.63103" lon="6.91189">
        <ele>196.6</ele>
        <time>2014-03-08T12:25:27Z</time>
      </trkpt>
      <trkpt lat="43.63094" lon="6.91191">
        <ele>196</ele>
        <time>2014-03-08T12:25:28Z</time>
      </trkpt>
      <trkpt lat="43.63087" lon="6.91194">
        <ele>196</ele>
        <time>2014-03-08T12:25:29Z</time>
      </trkpt>
      <trkpt lat="43.63079" lon="6.91198">
        <ele>196</ele>
        <time>2014-03-08T12:25:30Z</time>
      </trkpt>
      <trkpt lat="43.6306" lon="6.91219">
        <ele>196</ele>
        <time>2014-03-08T12:25:33Z</time>
      </trkpt>
      <trkpt lat="43.63033" lon="6.91259">
        <ele>196</ele>
        <time>2014-03-08T12:25:38Z</time>
      </trkpt>
      <trkpt lat="43.63017" lon="6.91278">
        <ele>196</ele>
        <time>2014-03-08T12:25:41Z</time>
      </trkpt>
      <trkpt lat="43.63008" lon="6.91285">
        <ele>196</ele>
        <time>2014-03-08T12:25:43Z</time>
      </trkpt>
      <trkpt lat="43.6299" lon="6.91292">
        <ele>196.4</ele>
        <time>2014-03-08T12:25:46Z</time>
      </trkpt>
      <trkpt lat="43.62984" lon="6.91295">
        <ele>197</ele>
        <time>2014-03-08T12:25:47Z</time>
      </trkpt>
      <trkpt lat="43.62978" lon="6.91298">
        <ele>197.4</ele>
        <time>2014-03-08T12:25:48Z</time>
      </trkpt>
      <trkpt lat="43.62972" lon="6.91301">
        <ele>197.8</ele>
        <time>2014-03-08T12:25:49Z</time>
      </trkpt>
      <trkpt lat="43.62966" lon="6.91305">
        <ele>198.2</ele>
        <time>2014-03-08T12:25:50Z</time>
      </trkpt>
      <trkpt lat="43.62937" lon="6.9132">
        <ele>198.2</ele>
        <time>2014-03-08T12:25:55Z</time>
      </trkpt>
      <trkpt lat="43.62924" lon="6.91324">
        <ele>198.2</ele>
        <time>2014-03-08T12:25:57Z</time>
      </trkpt>
      <trkpt lat="43.62903" lon="6.9133">
        <ele>198.2</ele>
        <time>2014-03-08T12:26:00Z</time>
      </trkpt>
      <trkpt lat="43.62888" lon="6.91332">
        <ele>197.8</ele>
        <time>2014-03-08T12:26:02Z</time>
      </trkpt>
      <trkpt lat="43.62881" lon="6.91333">
        <ele>197.4</ele>
        <time>2014-03-08T12:26:03Z</time>
      </trkpt>
      <trkpt lat="43.62873" lon="6.91335">
        <ele>197</ele>
        <time>2014-03-08T12:26:04Z</time>
      </trkpt>
      <trkpt lat="43.62865" lon="6.91338">
        <ele>196.4</ele>
        <time>2014-03-08T12:26:05Z</time>
      </trkpt>
      <trkpt lat="43.62858" lon="6.91341">
        <ele>196</ele>
        <time>2014-03-08T12:26:06Z</time>
      </trkpt>
      <trkpt lat="43.62827" lon="6.91356">
        <ele>195.6</ele>
        <time>2014-03-08T12:26:10Z</time>
      </trkpt>
      <trkpt lat="43.62819" lon="6.91359">
        <ele>195.2</ele>
        <time>2014-03-08T12:26:11Z</time>
      </trkpt>
      <trkpt lat="43.62811" lon="6.91361">
        <ele>194.6</ele>
        <time>2014-03-08T12:26:12Z</time>
      </trkpt>
      <trkpt lat="43.62802" lon="6.91362">
        <ele>194</ele>
        <time>2014-03-08T12:26:13Z</time>
      </trkpt>
      <trkpt lat="43.62794" lon="6.91364">
        <ele>193.4</ele>
        <time>2014-03-08T12:26:14Z</time>
      </trkpt>
      <trkpt lat="43.62785" lon="6.91368">
        <ele>192.8</ele>
        <time>2014-03-08T12:26:15Z</time>
      </trkpt>
      <trkpt lat="43.62777" lon="6.91371">
        <ele>192.2</ele>
        <time>2014-03-08T12:26:16Z</time>
      </trkpt>
      <trkpt lat="43.6277" lon="6.91374">
        <ele>191.4</ele>
        <time>2014-03-08T12:26:17Z</time>
      </trkpt>
      <trkpt lat="43.62748" lon="6.91384">
        <ele>191.4</ele>
        <time>2014-03-08T12:26:20Z</time>
      </trkpt>
      <trkpt lat="43.6272" lon="6.91397">
        <ele>191</ele>
        <time>2014-03-08T12:26:24Z</time>
      </trkpt>
      <trkpt lat="43.62713" lon="6.914">
        <ele>190.6</ele>
        <time>2014-03-08T12:26:25Z</time>
      </trkpt>
      <trkpt lat="43.62706" lon="6.91403">
        <ele>190.2</ele>
        <time>2014-03-08T12:26:26Z</time>
      </trkpt>
      <trkpt lat="43.627" lon="6.91406">
        <ele>189.8</ele>
        <time>2014-03-08T12:26:27Z</time>
      </trkpt>
      <trkpt lat="43.62693" lon="6.91409">
        <ele>189.4</ele>
        <time>2014-03-08T12:26:28Z</time>
      </trkpt>
      <trkpt lat="43.62673" lon="6.91414">
        <ele>189.4</ele>
        <time>2014-03-08T12:26:31Z</time>
      </trkpt>
      <trkpt lat="43.62656" lon="6.9142">
        <ele>189.8</ele>
        <time>2014-03-08T12:26:34Z</time>
      </trkpt>
      <trkpt lat="43.6265" lon="6.91422">
        <ele>190.2</ele>
        <time>2014-03-08T12:26:35Z</time>
      </trkpt>
      <trkpt lat="43.62645" lon="6.91425">
        <ele>190.8</ele>
        <time>2014-03-08T12:26:36Z</time>
      </trkpt>
      <trkpt lat="43.62638" lon="6.91428">
        <ele>191.2</ele>
        <time>2014-03-08T12:26:37Z</time>
      </trkpt>
      <trkpt lat="43.62633" lon="6.91432">
        <ele>191.6</ele>
        <time>2014-03-08T12:26:38Z</time>
      </trkpt>
      <trkpt lat="43.62621" lon="6.9144">
        <ele>191.6</ele>
        <time>2014-03-08T12:26:40Z</time>
      </trkpt>
      <trkpt lat="43.62614" lon="6.91444">
        <ele>191.6</ele>
        <time>2014-03-08T12:26:41Z</time>
      </trkpt>
      <trkpt lat="43.62594" lon="6.91455">
        <ele>191</ele>
        <time>2014-03-08T12:26:44Z</time>
      </trkpt>
      <trkpt lat="43.62587" lon="6.91458">
        <ele>190.4</ele>
        <time>2014-03-08T12:26:45Z</time>
      </trkpt>
      <trkpt lat="43.6258" lon="6.91461">
        <ele>190</ele>
        <time>2014-03-08T12:26:46Z</time>
      </trkpt>
      <trkpt lat="43.62573" lon="6.91464">
        <ele>189.4</ele>
        <time>2014-03-08T12:26:47Z</time>
      </trkpt>
      <trkpt lat="43.62565" lon="6.91466">
        <ele>188.8</ele>
        <time>2014-03-08T12:26:48Z</time>
      </trkpt>
      <trkpt lat="43.62526" lon="6.9148">
        <ele>188.2</ele>
        <time>2014-03-08T12:26:53Z</time>
      </trkpt>
      <trkpt lat="43.62518" lon="6.91485">
        <ele>187.6</ele>
        <time>2014-03-08T12:26:54Z</time>
      </trkpt>
      <trkpt lat="43.6251" lon="6.91488">
        <ele>187.2</ele>
        <time>2014-03-08T12:26:55Z</time>
      </trkpt>
      <trkpt lat="43.62503" lon="6.91492">
        <ele>186.4</ele>
        <time>2014-03-08T12:26:56Z</time>
      </trkpt>
      <trkpt lat="43.62496" lon="6.91496">
        <ele>185.8</ele>
        <time>2014-03-08T12:26:57Z</time>
      </trkpt>
      <trkpt lat="43.62489" lon="6.915">
        <ele>185.2</ele>
        <time>2014-03-08T12:26:58Z</time>
      </trkpt>
      <trkpt lat="43.62482" lon="6.91503">
        <ele>184.4</ele>
        <time>2014-03-08T12:26:59Z</time>
      </trkpt>
      <trkpt lat="43.62474" lon="6.91507">
        <ele>183.8</ele>
        <time>2014-03-08T12:27:00Z</time>
      </trkpt>
      <trkpt lat="43.62466" lon="6.91511">
        <ele>183.8</ele>
        <time>2014-03-08T12:27:01Z</time>
      </trkpt>
      <trkpt lat="43.62451" lon="6.91519">
        <ele>183.4</ele>
        <time>2014-03-08T12:27:03Z</time>
      </trkpt>
      <trkpt lat="43.62444" lon="6.91524">
        <ele>183</ele>
        <time>2014-03-08T12:27:04Z</time>
      </trkpt>
      <trkpt lat="43.62437" lon="6.91529">
        <ele>182.6</ele>
        <time>2014-03-08T12:27:05Z</time>
      </trkpt>
      <trkpt lat="43.62429" lon="6.91534">
        <ele>182.2</ele>
        <time>2014-03-08T12:27:06Z</time>
      </trkpt>
      <trkpt lat="43.62422" lon="6.9154">
        <ele>181.6</ele>
        <time>2014-03-08T12:27:07Z</time>
      </trkpt>
      <trkpt lat="43.62414" lon="6.91545">
        <ele>181.2</ele>
        <time>2014-03-08T12:27:08Z</time>
      </trkpt>
      <trkpt lat="43.62406" lon="6.9155">
        <ele>180.6</ele>
        <time>2014-03-08T12:27:09Z</time>
      </trkpt>
      <trkpt lat="43.62398" lon="6.91555">
        <ele>180</ele>
        <time>2014-03-08T12:27:10Z</time>
      </trkpt>
      <trkpt lat="43.6239" lon="6.9156">
        <ele>179.4</ele>
        <time>2014-03-08T12:27:11Z</time>
      </trkpt>
      <trkpt lat="43.62382" lon="6.91565">
        <ele>178.8</ele>
        <time>2014-03-08T12:27:12Z</time>
      </trkpt>
      <trkpt lat="43.62373" lon="6.91571">
        <ele>178</ele>
        <time>2014-03-08T12:27:13Z</time>
      </trkpt>
      <trkpt lat="43.62364" lon="6.91576">
        <ele>177.4</ele>
        <time>2014-03-08T12:27:14Z</time>
      </trkpt>
      <trkpt lat="43.62356" lon="6.91582">
        <ele>176.6</ele>
        <time>2014-03-08T12:27:15Z</time>
      </trkpt>
      <trkpt lat="43.62347" lon="6.91587">
        <ele>175.8</ele>
        <time>2014-03-08T12:27:16Z</time>
      </trkpt>
      <trkpt lat="43.62339" lon="6.91591">
        <ele>175</ele>
        <time>2014-03-08T12:27:17Z</time>
      </trkpt>
      <trkpt lat="43.6233" lon="6.91596">
        <ele>174</ele>
        <time>2014-03-08T12:27:18Z</time>
      </trkpt>
      <trkpt lat="43.62321" lon="6.916">
        <ele>173</ele>
        <time>2014-03-08T12:27:19Z</time>
      </trkpt>
      <trkpt lat="43.62312" lon="6.91604">
        <ele>172</ele>
        <time>2014-03-08T12:27:20Z</time>
      </trkpt>
      <trkpt lat="43.62303" lon="6.91608">
        <ele>170.8</ele>
        <time>2014-03-08T12:27:21Z</time>
      </trkpt>
      <trkpt lat="43.62295" lon="6.91613">
        <ele>169.8</ele>
        <time>2014-03-08T12:27:22Z</time>
      </trkpt>
      <trkpt lat="43.62275" lon="6.91624">
        <ele>169.8</ele>
        <time>2014-03-08T12:27:25Z</time>
      </trkpt>
      <trkpt lat="43.6227" lon="6.91628">
        <ele>169.8</ele>
        <time>2014-03-08T12:27:26Z</time>
      </trkpt>
      <trkpt lat="43.62263" lon="6.9164">
        <ele>169.4</ele>
        <time>2014-03-08T12:27:28Z</time>
      </trkpt>
      <trkpt lat="43.62259" lon="6.91648">
        <ele>168.6</ele>
        <time>2014-03-08T12:27:29Z</time>
      </trkpt>
      <trkpt lat="43.62254" lon="6.91655">
        <ele>167.8</ele>
        <time>2014-03-08T12:27:30Z</time>
      </trkpt>
      <trkpt lat="43.62249" lon="6.91664">
        <ele>166.8</ele>
        <time>2014-03-08T12:27:31Z</time>
      </trkpt>
      <trkpt lat="43.62243" lon="6.91673">
        <ele>165.6</ele>
        <time>2014-03-08T12:27:32Z</time>
      </trkpt>
      <trkpt lat="43.62237" lon="6.91682">
        <ele>164.6</ele>
        <time>2014-03-08T12:27:33Z</time>
      </trkpt>
      <trkpt lat="43.62231" lon="6.91692">
        <ele>163.6</ele>
        <time>2014-03-08T12:27:34Z</time>
      </trkpt>
      <trkpt lat="43.62224" lon="6.91702">
        <ele>162.4</ele>
        <time>2014-03-08T12:27:35Z</time>
      </trkpt>
      <trkpt lat="43.62217" lon="6.91711">
        <ele>161.4</ele>
        <time>2014-03-08T12:27:36Z</time>
      </trkpt>
      <trkpt lat="43.6221" lon="6.91719">
        <ele>160.8</ele>
        <time>2014-03-08T12:27:37Z</time>
      </trkpt>
      <trkpt lat="43.62202" lon="6.91727">
        <ele>160.2</ele>
        <time>2014-03-08T12:27:38Z</time>
      </trkpt>
      <trkpt lat="43.62192" lon="6.91734">
        <ele>159.2</ele>
        <time>2014-03-08T12:27:39Z</time>
      </trkpt>
      <trkpt lat="43.62183" lon="6.9174">
        <ele>158.2</ele>
        <time>2014-03-08T12:27:40Z</time>
      </trkpt>
      <trkpt lat="43.62174" lon="6.91746">
        <ele>157.2</ele>
        <time>2014-03-08T12:27:41Z</time>
      </trkpt>
      <trkpt lat="43.62164" lon="6.91752">
        <ele>156.2</ele>
        <time>2014-03-08T12:27:42Z</time>
      </trkpt>
      <trkpt lat="43.62154" lon="6.91758">
        <ele>155.4</ele>
        <time>2014-03-08T12:27:43Z</time>
      </trkpt>
      <trkpt lat="43.62144" lon="6.91764">
        <ele>154.2</ele>
        <time>2014-03-08T12:27:44Z</time>
      </trkpt>
      <trkpt lat="43.62133" lon="6.9177">
        <ele>153</ele>
        <time>2014-03-08T12:27:45Z</time>
      </trkpt>
      <trkpt lat="43.62124" lon="6.91776">
        <ele>151.8</ele>
        <time>2014-03-08T12:27:46Z</time>
      </trkpt>
      <trkpt lat="43.62113" lon="6.91782">
        <ele>150.6</ele>
        <time>2014-03-08T12:27:47Z</time>
      </trkpt>
      <trkpt lat="43.62103" lon="6.91788">
        <ele>149.4</ele>
        <time>2014-03-08T12:27:48Z</time>
      </trkpt>
      <trkpt lat="43.62092" lon="6.9179">
        <ele>148</ele>
        <time>2014-03-08T12:27:49Z</time>
      </trkpt>
      <trkpt lat="43.62081" lon="6.91788">
        <ele>146.6</ele>
        <time>2014-03-08T12:27:50Z</time>
      </trkpt>
      <trkpt lat="43.6207" lon="6.91785">
        <ele>145.4</ele>
        <time>2014-03-08T12:27:51Z</time>
      </trkpt>
      <trkpt lat="43.62058" lon="6.91782">
        <ele>144</ele>
        <time>2014-03-08T12:27:52Z</time>
      </trkpt>
      <trkpt lat="43.62046" lon="6.91777">
        <ele>142.6</ele>
        <time>2014-03-08T12:27:53Z</time>
      </trkpt>
      <trkpt lat="43.62035" lon="6.91773">
        <ele>141.2</ele>
        <time>2014-03-08T12:27:54Z</time>
      </trkpt>
      <trkpt lat="43.62024" lon="6.9177">
        <ele>139.8</ele>
        <time>2014-03-08T12:27:55Z</time>
      </trkpt>
      <trkpt lat="43.62014" lon="6.91767">
        <ele>138.4</ele>
        <time>2014-03-08T12:27:56Z</time>
      </trkpt>
      <trkpt lat="43.62005" lon="6.91767">
        <ele>137.8</ele>
        <time>2014-03-08T12:27:57Z</time>
      </trkpt>
      <trkpt lat="43.61996" lon="6.91767">
        <ele>137</ele>
        <time>2014-03-08T12:27:58Z</time>
      </trkpt>
      <trkpt lat="43.61988" lon="6.91769">
        <ele>136.2</ele>
        <time>2014-03-08T12:27:59Z</time>
      </trkpt>
      <trkpt lat="43.61979" lon="6.91771">
        <ele>135.6</ele>
        <time>2014-03-08T12:28:00Z</time>
      </trkpt>
      <trkpt lat="43.6197" lon="6.91772">
        <ele>134.8</ele>
        <time>2014-03-08T12:28:01Z</time>
      </trkpt>
      <trkpt lat="43.61961" lon="6.9177">
        <ele>134</ele>
        <time>2014-03-08T12:28:02Z</time>
      </trkpt>
      <trkpt lat="43.61952" lon="6.91769">
        <ele>133</ele>
        <time>2014-03-08T12:28:03Z</time>
      </trkpt>
      <trkpt lat="43.61944" lon="6.91769">
        <ele>132.2</ele>
        <time>2014-03-08T12:28:04Z</time>
      </trkpt>
      <trkpt lat="43.61935" lon="6.91767">
        <ele>131.4</ele>
        <time>2014-03-08T12:28:05Z</time>
      </trkpt>
      <trkpt lat="43.61926" lon="6.91763">
        <ele>130.4</ele>
        <time>2014-03-08T12:28:06Z</time>
      </trkpt>
      <trkpt lat="43.61916" lon="6.91759">
        <ele>129.6</ele>
        <time>2014-03-08T12:28:07Z</time>
      </trkpt>
      <trkpt lat="43.61906" lon="6.91754">
        <ele>128.2</ele>
        <time>2014-03-08T12:28:08Z</time>
      </trkpt>
      <trkpt lat="43.61895" lon="6.91751">
        <ele>127</ele>
        <time>2014-03-08T12:28:09Z</time>
      </trkpt>
      <trkpt lat="43.61884" lon="6.9175">
        <ele>125.6</ele>
        <time>2014-03-08T12:28:10Z</time>
      </trkpt>
      <trkpt lat="43.61873" lon="6.91748">
        <ele>124.2</ele>
        <time>2014-03-08T12:28:11Z</time>
      </trkpt>
      <trkpt lat="43.61863" lon="6.91744">
        <ele>123</ele>
        <time>2014-03-08T12:28:12Z</time>
      </trkpt>
      <trkpt lat="43.61854" lon="6.91739">
        <ele>121.8</ele>
        <time>2014-03-08T12:28:13Z</time>
      </trkpt>
      <trkpt lat="43.61847" lon="6.91732">
        <ele>120.6</ele>
        <time>2014-03-08T12:28:14Z</time>
      </trkpt>
      <trkpt lat="43.61841" lon="6.91725">
        <ele>119.2</ele>
        <time>2014-03-08T12:28:15Z</time>
      </trkpt>
      <trkpt lat="43.61835" lon="6.91718">
        <ele>118.6</ele>
        <time>2014-03-08T12:28:16Z</time>
      </trkpt>
      <trkpt lat="43.61829" lon="6.91713">
        <ele>117.8</ele>
        <time>2014-03-08T12:28:17Z</time>
      </trkpt>
      <trkpt lat="43.61821" lon="6.91711">
        <ele>116.8</ele>
        <time>2014-03-08T12:28:18Z</time>
      </trkpt>
      <trkpt lat="43.61813" lon="6.91709">
        <ele>115.8</ele>
        <time>2014-03-08T12:28:19Z</time>
      </trkpt>
      <trkpt lat="43.61803" lon="6.91708">
        <ele>114.2</ele>
        <time>2014-03-08T12:28:20Z</time>
      </trkpt>
      <trkpt lat="43.61792" lon="6.91706">
        <ele>112.8</ele>
        <time>2014-03-08T12:28:21Z</time>
      </trkpt>
      <trkpt lat="43.61782" lon="6.91704">
        <ele>111.2</ele>
        <time>2014-03-08T12:28:22Z</time>
      </trkpt>
      <trkpt lat="43.61771" lon="6.91701">
        <ele>109.4</ele>
        <time>2014-03-08T12:28:23Z</time>
      </trkpt>
      <trkpt lat="43.6176" lon="6.91698">
        <ele>107.8</ele>
        <time>2014-03-08T12:28:24Z</time>
      </trkpt>
      <trkpt lat="43.61749" lon="6.91696">
        <ele>106.2</ele>
        <time>2014-03-08T12:28:25Z</time>
      </trkpt>
      <trkpt lat="43.61738" lon="6.91693">
        <ele>104.8</ele>
        <time>2014-03-08T12:28:26Z</time>
      </trkpt>
      <trkpt lat="43.61728" lon="6.91691">
        <ele>103.2</ele>
        <time>2014-03-08T12:28:27Z</time>
      </trkpt>
      <trkpt lat="43.61718" lon="6.91689">
        <ele>101.8</ele>
        <time>2014-03-08T12:28:28Z</time>
      </trkpt>
      <trkpt lat="43.61708" lon="6.91685">
        <ele>100.6</ele>
        <time>2014-03-08T12:28:29Z</time>
      </trkpt>
      <trkpt lat="43.61699" lon="6.91681">
        <ele>99</ele>
        <time>2014-03-08T12:28:30Z</time>
      </trkpt>
      <trkpt lat="43.6169" lon="6.91677">
        <ele>97.4</ele>
        <time>2014-03-08T12:28:31Z</time>
      </trkpt>
      <trkpt lat="43.6168" lon="6.91673">
        <ele>95.8</ele>
        <time>2014-03-08T12:28:32Z</time>
      </trkpt>
      <trkpt lat="43.61671" lon="6.91667">
        <ele>94</ele>
        <time>2014-03-08T12:28:33Z</time>
      </trkpt>
      <trkpt lat="43.61662" lon="6.91661">
        <ele>92.4</ele>
        <time>2014-03-08T12:28:34Z</time>
      </trkpt>
      <trkpt lat="43.61652" lon="6.91655">
        <ele>90.8</ele>
        <time>2014-03-08T12:28:35Z</time>
      </trkpt>
      <trkpt lat="43.61642" lon="6.91651">
        <ele>89</ele>
        <time>2014-03-08T12:28:36Z</time>
      </trkpt>
      <trkpt lat="43.61632" lon="6.91646">
        <ele>87.2</ele>
        <time>2014-03-08T12:28:37Z</time>
      </trkpt>
      <trkpt lat="43.61622" lon="6.91642">
        <ele>85.2</ele>
        <time>2014-03-08T12:28:38Z</time>
      </trkpt>
      <trkpt lat="43.6161" lon="6.91638">
        <ele>83</ele>
        <time>2014-03-08T12:28:39Z</time>
      </trkpt>
      <trkpt lat="43.61599" lon="6.91635">
        <ele>80.8</ele>
        <time>2014-03-08T12:28:40Z</time>
      </trkpt>
      <trkpt lat="43.61591" lon="6.91631">
        <ele>78.8</ele>
        <time>2014-03-08T12:28:41Z</time>
      </trkpt>
      <trkpt lat="43.61583" lon="6.91627">
        <ele>76.6</ele>
        <time>2014-03-08T12:28:42Z</time>
      </trkpt>
      <trkpt lat="43.61577" lon="6.91627">
        <ele>74.4</ele>
        <time>2014-03-08T12:28:43Z</time>
      </trkpt>
      <trkpt lat="43.61562" lon="6.91628">
        <ele>74.4</ele>
        <time>2014-03-08T12:28:45Z</time>
      </trkpt>
      <trkpt lat="43.61554" lon="6.91628">
        <ele>74.4</ele>
        <time>2014-03-08T12:28:46Z</time>
      </trkpt>
      <trkpt lat="43.61546" lon="6.91626">
        <ele>73.8</ele>
        <time>2014-03-08T12:28:47Z</time>
      </trkpt>
      <trkpt lat="43.61538" lon="6.9162">
        <ele>73.2</ele>
        <time>2014-03-08T12:28:48Z</time>
      </trkpt>
      <trkpt lat="43.61531" lon="6.91614">
        <ele>72.8</ele>
        <time>2014-03-08T12:28:49Z</time>
      </trkpt>
      <trkpt lat="43.61523" lon="6.91606">
        <ele>72.2</ele>
        <time>2014-03-08T12:28:50Z</time>
      </trkpt>
      <trkpt lat="43.61513" lon="6.91601">
        <ele>71.4</ele>
        <time>2014-03-08T12:28:51Z</time>
      </trkpt>
      <trkpt lat="43.61504" lon="6.91596">
        <ele>70.8</ele>
        <time>2014-03-08T12:28:52Z</time>
      </trkpt>
      <trkpt lat="43.61495" lon="6.9159">
        <ele>69.8</ele>
        <time>2014-03-08T12:28:53Z</time>
      </trkpt>
      <trkpt lat="43.61486" lon="6.91581">
        <ele>68.6</ele>
        <time>2014-03-08T12:28:54Z</time>
      </trkpt>
      <trkpt lat="43.61478" lon="6.91572">
        <ele>67.4</ele>
        <time>2014-03-08T12:28:55Z</time>
      </trkpt>
      <trkpt lat="43.61469" lon="6.91563">
        <ele>66</ele>
        <time>2014-03-08T12:28:56Z</time>
      </trkpt>
      <trkpt lat="43.6146" lon="6.91554">
        <ele>64.4</ele>
        <time>2014-03-08T12:28:57Z</time>
      </trkpt>
      <trkpt lat="43.6145" lon="6.91546">
        <ele>63</ele>
        <time>2014-03-08T12:28:58Z</time>
      </trkpt>
      <trkpt lat="43.61441" lon="6.91539">
        <ele>61.6</ele>
        <time>2014-03-08T12:28:59Z</time>
      </trkpt>
      <trkpt lat="43.61434" lon="6.91532">
        <ele>60.2</ele>
        <time>2014-03-08T12:29:00Z</time>
      </trkpt>
      <trkpt lat="43.61427" lon="6.91527">
        <ele>58.8</ele>
        <time>2014-03-08T12:29:01Z</time>
      </trkpt>
      <trkpt lat="43.61423" lon="6.91525">
        <ele>57.4</ele>
        <time>2014-03-08T12:29:02Z</time>
      </trkpt>
      <trkpt lat="43.61419" lon="6.91523">
        <ele>56</ele>
        <time>2014-03-08T12:29:03Z</time>
      </trkpt>
      <trkpt lat="43.61392" lon="6.91518">
        <ele>56</ele>
        <time>2014-03-08T12:29:08Z</time>
      </trkpt>
      <trkpt lat="43.61358" lon="6.91513">
        <ele>56</ele>
        <time>2014-03-08T12:29:14Z</time>
      </trkpt>
      <trkpt lat="43.61352" lon="6.91514">
        <ele>56.6</ele>
        <time>2014-03-08T12:29:15Z</time>
      </trkpt>
      <trkpt lat="43.61346" lon="6.91515">
        <ele>57</ele>
        <time>2014-03-08T12:29:16Z</time>
      </trkpt>
      <trkpt lat="43.6134" lon="6.91516">
        <ele>57.4</ele>
        <time>2014-03-08T12:29:17Z</time>
      </trkpt>
      <trkpt lat="43.61334" lon="6.91517">
        <ele>58</ele>
        <time>2014-03-08T12:29:18Z</time>
      </trkpt>
      <trkpt lat="43.61328" lon="6.91518">
        <ele>58.4</ele>
        <time>2014-03-08T12:29:19Z</time>
      </trkpt>
      <trkpt lat="43.61322" lon="6.91522">
        <ele>58.4</ele>
        <time>2014-03-08T12:29:20Z</time>
      </trkpt>
      <trkpt lat="43.61306" lon="6.91533">
        <ele>58.4</ele>
        <time>2014-03-08T12:29:23Z</time>
      </trkpt>
      <trkpt lat="43.6129" lon="6.91544">
        <ele>58.4</ele>
        <time>2014-03-08T12:29:26Z</time>
      </trkpt>
      <trkpt lat="43.6128" lon="6.91551">
        <ele>58.4</ele>
        <time>2014-03-08T12:29:28Z</time>
      </trkpt>
      <trkpt lat="43.61264" lon="6.91566">
        <ele>58.4</ele>
        <time>2014-03-08T12:29:31Z</time>
      </trkpt>
      <trkpt lat="43.61256" lon="6.91578">
        <ele>58.4</ele>
        <time>2014-03-08T12:29:33Z</time>
      </trkpt>
      <trkpt lat="43.61241" lon="6.91593">
        <ele>58.4</ele>
        <time>2014-03-08T12:29:36Z</time>
      </trkpt>
      <trkpt lat="43.61234" lon="6.91596">
        <ele>58.4</ele>
        <time>2014-03-08T12:29:37Z</time>
      </trkpt>
      <trkpt lat="43.61219" lon="6.91602">
        <ele>58</ele>
        <time>2014-03-08T12:29:39Z</time>
      </trkpt>
      <trkpt lat="43.61211" lon="6.91605">
        <ele>57.6</ele>
        <time>2014-03-08T12:29:40Z</time>
      </trkpt>
      <trkpt lat="43.61202" lon="6.91608">
        <ele>57</ele>
        <time>2014-03-08T12:29:41Z</time>
      </trkpt>
      <trkpt lat="43.61193" lon="6.91611">
        <ele>56.2</ele>
        <time>2014-03-08T12:29:42Z</time>
      </trkpt>
      <trkpt lat="43.61184" lon="6.91614">
        <ele>55.2</ele>
        <time>2014-03-08T12:29:43Z</time>
      </trkpt>
      <trkpt lat="43.61174" lon="6.91617">
        <ele>54</ele>
        <time>2014-03-08T12:29:44Z</time>
      </trkpt>
      <trkpt lat="43.61164" lon="6.9162">
        <ele>52.8</ele>
        <time>2014-03-08T12:29:45Z</time>
      </trkpt>
      <trkpt lat="43.61154" lon="6.91621">
        <ele>51.6</ele>
        <time>2014-03-08T12:29:46Z</time>
      </trkpt>
      <trkpt lat="43.61144" lon="6.91624">
        <ele>50.2</ele>
        <time>2014-03-08T12:29:47Z</time>
      </trkpt>
      <trkpt lat="43.61134" lon="6.91626">
        <ele>48.8</ele>
        <time>2014-03-08T12:29:48Z</time>
      </trkpt>
      <trkpt lat="43.61124" lon="6.91627">
        <ele>47.4</ele>
        <time>2014-03-08T12:29:49Z</time>
      </trkpt>
      <trkpt lat="43.61114" lon="6.91626">
        <ele>46.2</ele>
        <time>2014-03-08T12:29:50Z</time>
      </trkpt>
      <trkpt lat="43.61104" lon="6.91625">
        <ele>45</ele>
        <time>2014-03-08T12:29:51Z</time>
      </trkpt>
      <trkpt lat="43.61093" lon="6.91624">
        <ele>43.8</ele>
        <time>2014-03-08T12:29:52Z</time>
      </trkpt>
      <trkpt lat="43.61083" lon="6.91622">
        <ele>42.6</ele>
        <time>2014-03-08T12:29:53Z</time>
      </trkpt>
      <trkpt lat="43.61073" lon="6.9162">
        <ele>41.2</ele>
        <time>2014-03-08T12:29:54Z</time>
      </trkpt>
      <trkpt lat="43.61062" lon="6.91618">
        <ele>40</ele>
        <time>2014-03-08T12:29:55Z</time>
      </trkpt>
      <trkpt lat="43.61052" lon="6.91616">
        <ele>38.8</ele>
        <time>2014-03-08T12:29:56Z</time>
      </trkpt>
      <trkpt lat="43.61042" lon="6.91613">
        <ele>37.6</ele>
        <time>2014-03-08T12:29:57Z</time>
      </trkpt>
      <trkpt lat="43.61032" lon="6.9161">
        <ele>36.2</ele>
        <time>2014-03-08T12:29:58Z</time>
      </trkpt>
      <trkpt lat="43.60995" lon="6.91594">
        <ele>35.6</ele>
        <time>2014-03-08T12:30:02Z</time>
      </trkpt>
      <trkpt lat="43.60986" lon="6.9159">
        <ele>35</ele>
        <time>2014-03-08T12:30:03Z</time>
      </trkpt>
      <trkpt lat="43.60979" lon="6.91587">
        <ele>34.4</ele>
        <time>2014-03-08T12:30:04Z</time>
      </trkpt>
      <trkpt lat="43.6097" lon="6.91584">
        <ele>33.8</ele>
        <time>2014-03-08T12:30:05Z</time>
      </trkpt>
      <trkpt lat="43.60962" lon="6.9158">
        <ele>33.2</ele>
        <time>2014-03-08T12:30:06Z</time>
      </trkpt>
      <trkpt lat="43.60936" lon="6.91567">
        <ele>32.8</ele>
        <time>2014-03-08T12:30:09Z</time>
      </trkpt>
      <trkpt lat="43.60927" lon="6.91562">
        <ele>32.2</ele>
        <time>2014-03-08T12:30:10Z</time>
      </trkpt>
      <trkpt lat="43.60918" lon="6.91557">
        <ele>31.6</ele>
        <time>2014-03-08T12:30:11Z</time>
      </trkpt>
      <trkpt lat="43.6091" lon="6.91552">
        <ele>31.2</ele>
        <time>2014-03-08T12:30:12Z</time>
      </trkpt>
      <trkpt lat="43.60901" lon="6.91546">
        <ele>30.6</ele>
        <time>2014-03-08T12:30:13Z</time>
      </trkpt>
      <trkpt lat="43.60884" lon="6.91534">
        <ele>30</ele>
        <time>2014-03-08T12:30:15Z</time>
      </trkpt>
      <trkpt lat="43.60875" lon="6.91528">
        <ele>29.6</ele>
        <time>2014-03-08T12:30:16Z</time>
      </trkpt>
      <trkpt lat="43.60867" lon="6.91521">
        <ele>28.8</ele>
        <time>2014-03-08T12:30:17Z</time>
      </trkpt>
      <trkpt lat="43.6086" lon="6.91515">
        <ele>28</ele>
        <time>2014-03-08T12:30:18Z</time>
      </trkpt>
      <trkpt lat="43.60853" lon="6.91508">
        <ele>27.4</ele>
        <time>2014-03-08T12:30:19Z</time>
      </trkpt>
      <trkpt lat="43.60846" lon="6.91503">
        <ele>26.6</ele>
        <time>2014-03-08T12:30:20Z</time>
      </trkpt>
      <trkpt lat="43.60839" lon="6.91498">
        <ele>25.8</ele>
        <time>2014-03-08T12:30:21Z</time>
      </trkpt>
      <trkpt lat="43.60832" lon="6.91494">
        <ele>25.8</ele>
        <time>2014-03-08T12:30:22Z</time>
      </trkpt>
      <trkpt lat="43.60821" lon="6.91479">
        <ele>25.8</ele>
        <time>2014-03-08T12:30:24Z</time>
      </trkpt>
      <trkpt lat="43.60814" lon="6.91443">
        <ele>25.4</ele>
        <time>2014-03-08T12:30:27Z</time>
      </trkpt>
      <trkpt lat="43.60812" lon="6.91431">
        <ele>24.8</ele>
        <time>2014-03-08T12:30:28Z</time>
      </trkpt>
      <trkpt lat="43.60807" lon="6.9142">
        <ele>24.4</ele>
        <time>2014-03-08T12:30:29Z</time>
      </trkpt>
      <trkpt lat="43.60803" lon="6.91409">
        <ele>24</ele>
        <time>2014-03-08T12:30:30Z</time>
      </trkpt>
      <trkpt lat="43.60799" lon="6.91398">
        <ele>23.2</ele>
        <time>2014-03-08T12:30:31Z</time>
      </trkpt>
      <trkpt lat="43.60796" lon="6.91388">
        <ele>22.6</ele>
        <time>2014-03-08T12:30:32Z</time>
      </trkpt>
      <trkpt lat="43.60793" lon="6.91379">
        <ele>22</ele>
        <time>2014-03-08T12:30:33Z</time>
      </trkpt>
      <trkpt lat="43.6079" lon="6.91369">
        <ele>21.4</ele>
        <time>2014-03-08T12:30:34Z</time>
      </trkpt>
      <trkpt lat="43.60787" lon="6.91359">
        <ele>20.8</ele>
        <time>2014-03-08T12:30:35Z</time>
      </trkpt>
      <trkpt lat="43.60782" lon="6.91352">
        <ele>20.8</ele>
        <time>2014-03-08T12:30:36Z</time>
      </trkpt>
      <trkpt lat="43.60772" lon="6.91336">
        <ele>20.8</ele>
        <time>2014-03-08T12:30:38Z</time>
      </trkpt>
      <trkpt lat="43.60746" lon="6.91318">
        <ele>20.8</ele>
        <time>2014-03-08T12:30:42Z</time>
      </trkpt>
      <trkpt lat="43.6074" lon="6.91315">
        <ele>20.8</ele>
        <time>2014-03-08T12:30:43Z</time>
      </trkpt>
      <trkpt lat="43.60706" lon="6.91301">
        <ele>20.8</ele>
        <time>2014-03-08T12:30:48Z</time>
      </trkpt>
      <trkpt lat="43.60699" lon="6.91299">
        <ele>21.2</ele>
        <time>2014-03-08T12:30:49Z</time>
      </trkpt>
      <trkpt lat="43.60692" lon="6.91297">
        <ele>21.6</ele>
        <time>2014-03-08T12:30:50Z</time>
      </trkpt>
      <trkpt lat="43.60685" lon="6.91296">
        <ele>22</ele>
        <time>2014-03-08T12:30:51Z</time>
      </trkpt>
      <trkpt lat="43.60678" lon="6.91294">
        <ele>22.4</ele>
        <time>2014-03-08T12:30:52Z</time>
      </trkpt>
      <trkpt lat="43.60672" lon="6.91292">
        <ele>22.8</ele>
        <time>2014-03-08T12:30:53Z</time>
      </trkpt>
      <trkpt lat="43.60642" lon="6.91288">
        <ele>22.8</ele>
        <time>2014-03-08T12:30:58Z</time>
      </trkpt>
      <trkpt lat="43.60636" lon="6.91288">
        <ele>22.8</ele>
        <time>2014-03-08T12:30:59Z</time>
      </trkpt>
      <trkpt lat="43.6061" lon="6.91291">
        <ele>22.8</ele>
        <time>2014-03-08T12:31:03Z</time>
      </trkpt>
      <trkpt lat="43.60604" lon="6.91291">
        <ele>22.8</ele>
        <time>2014-03-08T12:31:04Z</time>
      </trkpt>
      <trkpt lat="43.60562" lon="6.91294">
        <ele>22.8</ele>
        <time>2014-03-08T12:31:10Z</time>
      </trkpt>
      <trkpt lat="43.60555" lon="6.91293">
        <ele>22.8</ele>
        <time>2014-03-08T12:31:11Z</time>
      </trkpt>
      <trkpt lat="43.60537" lon="6.9129">
        <ele>22.8</ele>
        <time>2014-03-08T12:31:14Z</time>
      </trkpt>
      <trkpt lat="43.60531" lon="6.91288">
        <ele>22.8</ele>
        <time>2014-03-08T12:31:15Z</time>
      </trkpt>
      <trkpt lat="43.60515" lon="6.91274">
        <ele>22.8</ele>
        <time>2014-03-08T12:31:18Z</time>
      </trkpt>
      <trkpt lat="43.60494" lon="6.91249">
        <ele>22.8</ele>
        <time>2014-03-08T12:31:23Z</time>
      </trkpt>
      <trkpt lat="43.60478" lon="6.91233">
        <ele>22.8</ele>
        <time>2014-03-08T12:31:27Z</time>
      </trkpt>
      <trkpt lat="43.60473" lon="6.91228">
        <ele>22.8</ele>
        <time>2014-03-08T12:31:28Z</time>
      </trkpt>
      <trkpt lat="43.60463" lon="6.91223">
        <ele>22.8</ele>
        <time>2014-03-08T12:31:30Z</time>
      </trkpt>
      <trkpt lat="43.60453" lon="6.9122">
        <ele>22.8</ele>
        <time>2014-03-08T12:31:32Z</time>
      </trkpt>
      <trkpt lat="43.60443" lon="6.91217">
        <ele>23.2</ele>
        <time>2014-03-08T12:31:34Z</time>
      </trkpt>
      <trkpt lat="43.60438" lon="6.91214">
        <ele>23.6</ele>
        <time>2014-03-08T12:31:35Z</time>
      </trkpt>
      <trkpt lat="43.60434" lon="6.91211">
        <ele>24</ele>
        <time>2014-03-08T12:31:36Z</time>
      </trkpt>
      <trkpt lat="43.6043" lon="6.91207">
        <ele>24.4</ele>
        <time>2014-03-08T12:31:37Z</time>
      </trkpt>
      <trkpt lat="43.60427" lon="6.91203">
        <ele>24.8</ele>
        <time>2014-03-08T12:31:38Z</time>
      </trkpt>
      <trkpt lat="43.60423" lon="6.91192">
        <ele>25.4</ele>
        <time>2014-03-08T12:31:40Z</time>
      </trkpt>
      <trkpt lat="43.60422" lon="6.91186">
        <ele>25.8</ele>
        <time>2014-03-08T12:31:41Z</time>
      </trkpt>
      <trkpt lat="43.60421" lon="6.9118">
        <ele>26.4</ele>
        <time>2014-03-08T12:31:42Z</time>
      </trkpt>
      <trkpt lat="43.6042" lon="6.91174">
        <ele>27</ele>
        <time>2014-03-08T12:31:43Z</time>
      </trkpt>
      <trkpt lat="43.60419" lon="6.91168">
        <ele>27.4</ele>
        <time>2014-03-08T12:31:44Z</time>
      </trkpt>
      <trkpt lat="43.60417" lon="6.91156">
        <ele>27.8</ele>
        <time>2014-03-08T12:31:46Z</time>
      </trkpt>
      <trkpt lat="43.60416" lon="6.9115">
        <ele>28.4</ele>
        <time>2014-03-08T12:31:47Z</time>
      </trkpt>
      <trkpt lat="43.60415" lon="6.91145">
        <ele>28.8</ele>
        <time>2014-03-08T12:31:48Z</time>
      </trkpt>
      <trkpt lat="43.60414" lon="6.91141">
        <ele>29.2</ele>
        <time>2014-03-08T12:31:49Z</time>
      </trkpt>
      <trkpt lat="43.60413" lon="6.91136">
        <ele>29.8</ele>
        <time>2014-03-08T12:31:50Z</time>
      </trkpt>
      <trkpt lat="43.60412" lon="6.91127">
        <ele>29.8</ele>
        <time>2014-03-08T12:31:52Z</time>
      </trkpt>
      <trkpt lat="43.60412" lon="6.91121">
        <ele>30.2</ele>
        <time>2014-03-08T12:31:53Z</time>
      </trkpt>
      <trkpt lat="43.60413" lon="6.91116">
        <ele>30.6</ele>
        <time>2014-03-08T12:31:54Z</time>
      </trkpt>
      <trkpt lat="43.60414" lon="6.91111">
        <ele>31</ele>
        <time>2014-03-08T12:31:55Z</time>
      </trkpt>
      <trkpt lat="43.60414" lon="6.91107">
        <ele>31.4</ele>
        <time>2014-03-08T12:31:56Z</time>
      </trkpt>
      <trkpt lat="43.60414" lon="6.91104">
        <ele>31.8</ele>
        <time>2014-03-08T12:31:57Z</time>
      </trkpt>
      <trkpt lat="43.60416" lon="6.91092">
        <ele>31.8</ele>
        <time>2014-03-08T12:32:00Z</time>
      </trkpt>
      <trkpt lat="43.60417" lon="6.91087">
        <ele>32.2</ele>
        <time>2014-03-08T12:32:01Z</time>
      </trkpt>
      <trkpt lat="43.60418" lon="6.91083">
        <ele>32.6</ele>
        <time>2014-03-08T12:32:02Z</time>
      </trkpt>
      <trkpt lat="43.60419" lon="6.91078">
        <ele>33</ele>
        <time>2014-03-08T12:32:03Z</time>
      </trkpt>
      <trkpt lat="43.60419" lon="6.91074">
        <ele>33.4</ele>
        <time>2014-03-08T12:32:04Z</time>
      </trkpt>
      <trkpt lat="43.6042" lon="6.9107">
        <ele>34</ele>
        <time>2014-03-08T12:32:05Z</time>
      </trkpt>
      <trkpt lat="43.60421" lon="6.91065">
        <ele>34</ele>
        <time>2014-03-08T12:32:06Z</time>
      </trkpt>
      <trkpt lat="43.60423" lon="6.91051">
        <ele>34.4</ele>
        <time>2014-03-08T12:32:09Z</time>
      </trkpt>
      <trkpt lat="43.60423" lon="6.91047">
        <ele>35</ele>
        <time>2014-03-08T12:32:10Z</time>
      </trkpt>
      <trkpt lat="43.60422" lon="6.91042">
        <ele>35.4</ele>
        <time>2014-03-08T12:32:11Z</time>
      </trkpt>
      <trkpt lat="43.60422" lon="6.91037">
        <ele>36</ele>
        <time>2014-03-08T12:32:12Z</time>
      </trkpt>
      <trkpt lat="43.60422" lon="6.9103">
        <ele>36.6</ele>
        <time>2014-03-08T12:32:13Z</time>
      </trkpt>
      <trkpt lat="43.60427" lon="6.91008">
        <ele>36.6</ele>
        <time>2014-03-08T12:32:16Z</time>
      </trkpt>
      <trkpt lat="43.6043" lon="6.91005">
        <ele>36.6</ele>
        <time>2014-03-08T12:32:17Z</time>
      </trkpt>
      <trkpt lat="43.60433" lon="6.91005">
        <ele>37</ele>
        <time>2014-03-08T12:32:18Z</time>
      </trkpt>
      <trkpt lat="43.60435" lon="6.91006">
        <ele>37.4</ele>
        <time>2014-03-08T12:32:19Z</time>
      </trkpt>
      <trkpt lat="43.60437" lon="6.91006">
        <ele>37.8</ele>
        <time>2014-03-08T12:32:20Z</time>
      </trkpt>
      <trkpt lat="43.60438" lon="6.91007">
        <ele>38.2</ele>
        <time>2014-03-08T12:32:21Z</time>
      </trkpt>
      <trkpt lat="43.6044" lon="6.91007">
        <ele>38.6</ele>
        <time>2014-03-08T12:32:22Z</time>
      </trkpt>
      <trkpt lat="43.60441" lon="6.91007">
        <ele>39</ele>
        <time>2014-03-08T12:32:23Z</time>
      </trkpt>
      <trkpt lat="43.60443" lon="6.91007">
        <ele>39.6</ele>
        <time>2014-03-08T12:32:24Z</time>
      </trkpt>
      <trkpt lat="43.60444" lon="6.91007">
        <ele>40</ele>
        <time>2014-03-08T12:32:25Z</time>
      </trkpt>
      <trkpt lat="43.60446" lon="6.91006">
        <ele>40.4</ele>
        <time>2014-03-08T12:32:26Z</time>
      </trkpt>
      <trkpt lat="43.60447" lon="6.91006">
        <ele>40.8</ele>
        <time>2014-03-08T12:32:27Z</time>
      </trkpt>
      <trkpt lat="43.60453" lon="6.91004">
        <ele>41.4</ele>
        <time>2014-03-08T12:32:32Z</time>
      </trkpt>
      <trkpt lat="43.60455" lon="6.91005">
        <ele>41.8</ele>
        <time>2014-03-08T12:32:33Z</time>
      </trkpt>
      <trkpt lat="43.60456" lon="6.91004">
        <ele>42.2</ele>
        <time>2014-03-08T12:32:34Z</time>
      </trkpt>
      <trkpt lat="43.60457" lon="6.91004">
        <ele>42.6</ele>
        <time>2014-03-08T12:32:35Z</time>
      </trkpt>
      <trkpt lat="43.60458" lon="6.91004">
        <ele>43.2</ele>
        <time>2014-03-08T12:32:36Z</time>
      </trkpt>
      <trkpt lat="43.60459" lon="6.91004">
        <ele>43.6</ele>
        <time>2014-03-08T12:32:37Z</time>
      </trkpt>
      <trkpt lat="43.60462" lon="6.91003">
        <ele>44.2</ele>
        <time>2014-03-08T12:32:38Z</time>
      </trkpt>
      <trkpt lat="43.60464" lon="6.91003">
        <ele>44.6</ele>
        <time>2014-03-08T12:32:39Z</time>
      </trkpt>
      <trkpt lat="43.60467" lon="6.91004">
        <ele>45.2</ele>
        <time>2014-03-08T12:32:40Z</time>
      </trkpt>
      <trkpt lat="43.60472" lon="6.91004">
        <ele>45.6</ele>
        <time>2014-03-08T12:32:42Z</time>
      </trkpt>
      <trkpt lat="43.60474" lon="6.91003">
        <ele>46</ele>
        <time>2014-03-08T12:32:43Z</time>
      </trkpt>
      <trkpt lat="43.60477" lon="6.91003">
        <ele>46.4</ele>
        <time>2014-03-08T12:32:44Z</time>
      </trkpt>
      <trkpt lat="43.60479" lon="6.91002">
        <ele>46.8</ele>
        <time>2014-03-08T12:32:45Z</time>
      </trkpt>
      <trkpt lat="43.6048" lon="6.91002">
        <ele>47.2</ele>
        <time>2014-03-08T12:32:46Z</time>
      </trkpt>
      <trkpt lat="43.60485" lon="6.91003">
        <ele>47.2</ele>
        <time>2014-03-08T12:32:48Z</time>
      </trkpt>
      <trkpt lat="43.60487" lon="6.91004">
        <ele>47.6</ele>
        <time>2014-03-08T12:32:49Z</time>
      </trkpt>
      <trkpt lat="43.6049" lon="6.91004">
        <ele>48</ele>
        <time>2014-03-08T12:32:50Z</time>
      </trkpt>
      <trkpt lat="43.60493" lon="6.91004">
        <ele>48.4</ele>
        <time>2014-03-08T12:32:51Z</time>
      </trkpt>
      <trkpt lat="43.60495" lon="6.91004">
        <ele>48.8</ele>
        <time>2014-03-08T12:32:52Z</time>
      </trkpt>
      <trkpt lat="43.60498" lon="6.91004">
        <ele>49.2</ele>
        <time>2014-03-08T12:32:53Z</time>
      </trkpt>
      <trkpt lat="43.60505" lon="6.91004">
        <ele>49.8</ele>
        <time>2014-03-08T12:32:56Z</time>
      </trkpt>
      <trkpt lat="43.60507" lon="6.91003">
        <ele>50.2</ele>
        <time>2014-03-08T12:32:57Z</time>
      </trkpt>
      <trkpt lat="43.60508" lon="6.91004">
        <ele>50.6</ele>
        <time>2014-03-08T12:32:58Z</time>
      </trkpt>
      <trkpt lat="43.60509" lon="6.91004">
        <ele>51.2</ele>
        <time>2014-03-08T12:32:59Z</time>
      </trkpt>
      <trkpt lat="43.60511" lon="6.91005">
        <ele>51.6</ele>
        <time>2014-03-08T12:33:00Z</time>
      </trkpt>
      <trkpt lat="43.60512" lon="6.91005">
        <ele>52</ele>
        <time>2014-03-08T12:33:01Z</time>
      </trkpt>
      <trkpt lat="43.60514" lon="6.91005">
        <ele>52.4</ele>
        <time>2014-03-08T12:33:02Z</time>
      </trkpt>
      <trkpt lat="43.60517" lon="6.91006">
        <ele>52.8</ele>
        <time>2014-03-08T12:33:03Z</time>
      </trkpt>
      <trkpt lat="43.60519" lon="6.91007">
        <ele>53.2</ele>
        <time>2014-03-08T12:33:04Z</time>
      </trkpt>
      <trkpt lat="43.60522" lon="6.91007">
        <ele>53.6</ele>
        <time>2014-03-08T12:33:05Z</time>
      </trkpt>
      <trkpt lat="43.60529" lon="6.91007">
        <ele>54.2</ele>
        <time>2014-03-08T12:33:08Z</time>
      </trkpt>
      <trkpt lat="43.60529" lon="6.91007">
        <ele>54.6</ele>
        <time>2014-03-08T12:33:09Z</time>
      </trkpt>
      <trkpt lat="43.60529" lon="6.91007">
        <ele>55</ele>
        <time>2014-03-08T12:33:10Z</time>
      </trkpt>
      <trkpt lat="43.60529" lon="6.91007">
        <ele>55.6</ele>
        <time>2014-03-08T12:33:11Z</time>
      </trkpt>
      <trkpt lat="43.60528" lon="6.91008">
        <ele>56</ele>
        <time>2014-03-08T12:33:12Z</time>
      </trkpt>
      <trkpt lat="43.60529" lon="6.91008">
        <ele>56.4</ele>
        <time>2014-03-08T12:33:14Z</time>
      </trkpt>
      <trkpt lat="43.6053" lon="6.91008">
        <ele>56.8</ele>
        <time>2014-03-08T12:33:15Z</time>
      </trkpt>
      <trkpt lat="43.60531" lon="6.91008">
        <ele>57.2</ele>
        <time>2014-03-08T12:33:16Z</time>
      </trkpt>
      <trkpt lat="43.60534" lon="6.91007">
        <ele>57.6</ele>
        <time>2014-03-08T12:33:17Z</time>
      </trkpt>
      <trkpt lat="43.60537" lon="6.91007">
        <ele>58</ele>
        <time>2014-03-08T12:33:18Z</time>
      </trkpt>
      <trkpt lat="43.60547" lon="6.91009">
        <ele>58.4</ele>
        <time>2014-03-08T12:33:21Z</time>
      </trkpt>
      <trkpt lat="43.60549" lon="6.91009">
        <ele>58.8</ele>
        <time>2014-03-08T12:33:22Z</time>
      </trkpt>
      <trkpt lat="43.60553" lon="6.91009">
        <ele>59.4</ele>
        <time>2014-03-08T12:33:23Z</time>
      </trkpt>
      <trkpt lat="43.60557" lon="6.91009">
        <ele>59.8</ele>
        <time>2014-03-08T12:33:24Z</time>
      </trkpt>
      <trkpt lat="43.6056" lon="6.91009">
        <ele>60.2</ele>
        <time>2014-03-08T12:33:25Z</time>
      </trkpt>
      <trkpt lat="43.60569" lon="6.91009">
        <ele>60.2</ele>
        <time>2014-03-08T12:33:28Z</time>
      </trkpt>
      <trkpt lat="43.60573" lon="6.91009">
        <ele>60.6</ele>
        <time>2014-03-08T12:33:29Z</time>
      </trkpt>
      <trkpt lat="43.60575" lon="6.9101">
        <ele>61</ele>
        <time>2014-03-08T12:33:30Z</time>
      </trkpt>
      <trkpt lat="43.60579" lon="6.9101">
        <ele>61.6</ele>
        <time>2014-03-08T12:33:31Z</time>
      </trkpt>
      <trkpt lat="43.60581" lon="6.91009">
        <ele>62</ele>
        <time>2014-03-08T12:33:32Z</time>
      </trkpt>
      <trkpt lat="43.60584" lon="6.91008">
        <ele>62.4</ele>
        <time>2014-03-08T12:33:33Z</time>
      </trkpt>
      <trkpt lat="43.60592" lon="6.91006">
        <ele>63</ele>
        <time>2014-03-08T12:33:36Z</time>
      </trkpt>
      <trkpt lat="43.60594" lon="6.91006">
        <ele>63.4</ele>
        <time>2014-03-08T12:33:37Z</time>
      </trkpt>
      <trkpt lat="43.60597" lon="6.91005">
        <ele>63.8</ele>
        <time>2014-03-08T12:33:38Z</time>
      </trkpt>
      <trkpt lat="43.60599" lon="6.91004">
        <ele>64.4</ele>
        <time>2014-03-08T12:33:39Z</time>
      </trkpt>
      <trkpt lat="43.60602" lon="6.91003">
        <ele>64.8</ele>
        <time>2014-03-08T12:33:40Z</time>
      </trkpt>
      <trkpt lat="43.60605" lon="6.91003">
        <ele>64.8</ele>
        <time>2014-03-08T12:33:41Z</time>
      </trkpt>
      <trkpt lat="43.60613" lon="6.91004">
        <ele>64.8</ele>
        <time>2014-03-08T12:33:45Z</time>
      </trkpt>
      <trkpt lat="43.60617" lon="6.91005">
        <ele>65.4</ele>
        <time>2014-03-08T12:33:46Z</time>
      </trkpt>
      <trkpt lat="43.6062" lon="6.91006">
        <ele>65.8</ele>
        <time>2014-03-08T12:33:47Z</time>
      </trkpt>
      <trkpt lat="43.60624" lon="6.91007">
        <ele>66.2</ele>
        <time>2014-03-08T12:33:48Z</time>
      </trkpt>
      <trkpt lat="43.60627" lon="6.91007">
        <ele>66.6</ele>
        <time>2014-03-08T12:33:49Z</time>
      </trkpt>
      <trkpt lat="43.6063" lon="6.91008">
        <ele>67</ele>
        <time>2014-03-08T12:33:50Z</time>
      </trkpt>
      <trkpt lat="43.60635" lon="6.9101">
        <ele>67</ele>
        <time>2014-03-08T12:33:52Z</time>
      </trkpt>
      <trkpt lat="43.60654" lon="6.9101">
        <ele>67</ele>
        <time>2014-03-08T12:33:58Z</time>
      </trkpt>
      <trkpt lat="43.60676" lon="6.91012">
        <ele>67</ele>
        <time>2014-03-08T12:34:03Z</time>
      </trkpt>
      <trkpt lat="43.60692" lon="6.9101">
        <ele>67</ele>
        <time>2014-03-08T12:34:06Z</time>
      </trkpt>
      <trkpt lat="43.607" lon="6.91009">
        <ele>67</ele>
        <time>2014-03-08T12:34:08Z</time>
      </trkpt>
      <trkpt lat="43.60713" lon="6.91005">
        <ele>67</ele>
        <time>2014-03-08T12:34:12Z</time>
      </trkpt>
      <trkpt lat="43.60726" lon="6.91">
        <ele>67</ele>
        <time>2014-03-08T12:34:15Z</time>
      </trkpt>
      <trkpt lat="43.6073" lon="6.90998">
        <ele>67</ele>
        <time>2014-03-08T12:34:16Z</time>
      </trkpt>
      <trkpt lat="43.60751" lon="6.90989">
        <ele>67</ele>
        <time>2014-03-08T12:34:22Z</time>
      </trkpt>
      <trkpt lat="43.60754" lon="6.90988">
        <ele>67.4</ele>
        <time>2014-03-08T12:34:23Z</time>
      </trkpt>
      <trkpt lat="43.60757" lon="6.90987">
        <ele>68</ele>
        <time>2014-03-08T12:34:24Z</time>
      </trkpt>
      <trkpt lat="43.6076" lon="6.90986">
        <ele>68.4</ele>
        <time>2014-03-08T12:34:25Z</time>
      </trkpt>
      <trkpt lat="43.60763" lon="6.90985">
        <ele>68.8</ele>
        <time>2014-03-08T12:34:26Z</time>
      </trkpt>
      <trkpt lat="43.60766" lon="6.90983">
        <ele>69.2</ele>
        <time>2014-03-08T12:34:27Z</time>
      </trkpt>
      <trkpt lat="43.60769" lon="6.90981">
        <ele>69.2</ele>
        <time>2014-03-08T12:34:28Z</time>
      </trkpt>
      <trkpt lat="43.60774" lon="6.90976">
        <ele>69.6</ele>
        <time>2014-03-08T12:34:30Z</time>
      </trkpt>
      <trkpt lat="43.60776" lon="6.90973">
        <ele>70</ele>
        <time>2014-03-08T12:34:31Z</time>
      </trkpt>
      <trkpt lat="43.60777" lon="6.90971">
        <ele>70.6</ele>
        <time>2014-03-08T12:34:32Z</time>
      </trkpt>
      <trkpt lat="43.60778" lon="6.9097">
        <ele>71</ele>
        <time>2014-03-08T12:34:33Z</time>
      </trkpt>
      <trkpt lat="43.60778" lon="6.90969">
        <ele>71.4</ele>
        <time>2014-03-08T12:34:34Z</time>
      </trkpt>
      <trkpt lat="43.60781" lon="6.90966">
        <ele>71.8</ele>
        <time>2014-03-08T12:34:36Z</time>
      </trkpt>
      <trkpt lat="43.60783" lon="6.90965">
        <ele>72.2</ele>
        <time>2014-03-08T12:34:37Z</time>
      </trkpt>
      <trkpt lat="43.60785" lon="6.90964">
        <ele>72.6</ele>
        <time>2014-03-08T12:34:38Z</time>
      </trkpt>
      <trkpt lat="43.60787" lon="6.90964">
        <ele>73</ele>
        <time>2014-03-08T12:34:39Z</time>
      </trkpt>
      <trkpt lat="43.6079" lon="6.90964">
        <ele>73.4</ele>
        <time>2014-03-08T12:34:40Z</time>
      </trkpt>
      <trkpt lat="43.60791" lon="6.90964">
        <ele>73.8</ele>
        <time>2014-03-08T12:34:41Z</time>
      </trkpt>
      <trkpt lat="43.60793" lon="6.90964">
        <ele>74.2</ele>
        <time>2014-03-08T12:34:42Z</time>
      </trkpt>
      <trkpt lat="43.60795" lon="6.90963">
        <ele>74.8</ele>
        <time>2014-03-08T12:34:43Z</time>
      </trkpt>
      <trkpt lat="43.60798" lon="6.90962">
        <ele>75.2</ele>
        <time>2014-03-08T12:34:44Z</time>
      </trkpt>
      <trkpt lat="43.608" lon="6.90961">
        <ele>75.6</ele>
        <time>2014-03-08T12:34:45Z</time>
      </trkpt>
      <trkpt lat="43.60802" lon="6.90962">
        <ele>76</ele>
        <time>2014-03-08T12:34:46Z</time>
      </trkpt>
      <trkpt lat="43.60805" lon="6.90962">
        <ele>76.4</ele>
        <time>2014-03-08T12:34:47Z</time>
      </trkpt>
      <trkpt lat="43.60807" lon="6.90962">
        <ele>76.8</ele>
        <time>2014-03-08T12:34:48Z</time>
      </trkpt>
      <trkpt lat="43.60809" lon="6.90963">
        <ele>77.4</ele>
        <time>2014-03-08T12:34:49Z</time>
      </trkpt>
      <trkpt lat="43.60811" lon="6.90963">
        <ele>77.8</ele>
        <time>2014-03-08T12:34:50Z</time>
      </trkpt>
      <trkpt lat="43.60816" lon="6.90963">
        <ele>78.2</ele>
        <time>2014-03-08T12:34:52Z</time>
      </trkpt>
      <trkpt lat="43.60819" lon="6.90964">
        <ele>78.8</ele>
        <time>2014-03-08T12:34:53Z</time>
      </trkpt>
      <trkpt lat="43.60822" lon="6.90965">
        <ele>79.2</ele>
        <time>2014-03-08T12:34:54Z</time>
      </trkpt>
      <trkpt lat="43.60824" lon="6.90966">
        <ele>79.6</ele>
        <time>2014-03-08T12:34:55Z</time>
      </trkpt>
      <trkpt lat="43.60825" lon="6.90966">
        <ele>80.2</ele>
        <time>2014-03-08T12:34:56Z</time>
      </trkpt>
      <trkpt lat="43.60827" lon="6.90965">
        <ele>80.6</ele>
        <time>2014-03-08T12:34:57Z</time>
      </trkpt>
      <trkpt lat="43.6083" lon="6.90965">
        <ele>81</ele>
        <time>2014-03-08T12:34:58Z</time>
      </trkpt>
      <trkpt lat="43.60832" lon="6.90963">
        <ele>81.4</ele>
        <time>2014-03-08T12:34:59Z</time>
      </trkpt>
      <trkpt lat="43.60837" lon="6.90962">
        <ele>81.8</ele>
        <time>2014-03-08T12:35:00Z</time>
      </trkpt>
      <trkpt lat="43.60841" lon="6.90961">
        <ele>82.2</ele>
        <time>2014-03-08T12:35:01Z</time>
      </trkpt>
      <trkpt lat="43.60847" lon="6.90957">
        <ele>82.2</ele>
        <time>2014-03-08T12:35:03Z</time>
      </trkpt>
      <trkpt lat="43.60851" lon="6.90949">
        <ele>82.2</ele>
        <time>2014-03-08T12:35:05Z</time>
      </trkpt>
      <trkpt lat="43.60862" lon="6.90934">
        <ele>82.2</ele>
        <time>2014-03-08T12:35:09Z</time>
      </trkpt>
      <trkpt lat="43.60867" lon="6.90932">
        <ele>82.2</ele>
        <time>2014-03-08T12:35:10Z</time>
      </trkpt>
      <trkpt lat="43.60878" lon="6.90928">
        <ele>82.2</ele>
        <time>2014-03-08T12:35:12Z</time>
      </trkpt>
      <trkpt lat="43.60894" lon="6.90921">
        <ele>82.2</ele>
        <time>2014-03-08T12:35:15Z</time>
      </trkpt>
      <trkpt lat="43.60906" lon="6.90913">
        <ele>82.2</ele>
        <time>2014-03-08T12:35:19Z</time>
      </trkpt>
      <trkpt lat="43.60917" lon="6.90895">
        <ele>82.2</ele>
        <time>2014-03-08T12:35:24Z</time>
      </trkpt>
      <trkpt lat="43.60923" lon="6.90885">
        <ele>82.2</ele>
        <time>2014-03-08T12:35:27Z</time>
      </trkpt>
      <trkpt lat="43.60925" lon="6.90882">
        <ele>82.2</ele>
        <time>2014-03-08T12:35:28Z</time>
      </trkpt>
      <trkpt lat="43.60938" lon="6.90873">
        <ele>82.2</ele>
        <time>2014-03-08T12:35:32Z</time>
      </trkpt>
      <trkpt lat="43.60952" lon="6.90858">
        <ele>82.2</ele>
        <time>2014-03-08T12:35:36Z</time>
      </trkpt>
      <trkpt lat="43.60958" lon="6.90851">
        <ele>82.8</ele>
        <time>2014-03-08T12:35:38Z</time>
      </trkpt>
      <trkpt lat="43.6096" lon="6.90848">
        <ele>83.2</ele>
        <time>2014-03-08T12:35:39Z</time>
      </trkpt>
      <trkpt lat="43.60963" lon="6.90844">
        <ele>83.8</ele>
        <time>2014-03-08T12:35:40Z</time>
      </trkpt>
      <trkpt lat="43.60964" lon="6.9084">
        <ele>84.2</ele>
        <time>2014-03-08T12:35:41Z</time>
      </trkpt>
      <trkpt lat="43.60967" lon="6.90836">
        <ele>84.6</ele>
        <time>2014-03-08T12:35:42Z</time>
      </trkpt>
      <trkpt lat="43.60975" lon="6.90827">
        <ele>85</ele>
        <time>2014-03-08T12:35:45Z</time>
      </trkpt>
      <trkpt lat="43.60977" lon="6.90825">
        <ele>85.4</ele>
        <time>2014-03-08T12:35:46Z</time>
      </trkpt>
      <trkpt lat="43.6098" lon="6.90822">
        <ele>85.8</ele>
        <time>2014-03-08T12:35:47Z</time>
      </trkpt>
      <trkpt lat="43.60983" lon="6.90819">
        <ele>86.2</ele>
        <time>2014-03-08T12:35:48Z</time>
      </trkpt>
      <trkpt lat="43.60985" lon="6.90817">
        <ele>86.6</ele>
        <time>2014-03-08T12:35:49Z</time>
      </trkpt>
      <trkpt lat="43.60988" lon="6.90815">
        <ele>86.6</ele>
        <time>2014-03-08T12:35:50Z</time>
      </trkpt>
      <trkpt lat="43.6099" lon="6.90814">
        <ele>87.2</ele>
        <time>2014-03-08T12:35:51Z</time>
      </trkpt>
      <trkpt lat="43.60993" lon="6.90813">
        <ele>87.6</ele>
        <time>2014-03-08T12:35:52Z</time>
      </trkpt>
      <trkpt lat="43.60998" lon="6.90809">
        <ele>88.4</ele>
        <time>2014-03-08T12:35:54Z</time>
      </trkpt>
      <trkpt lat="43.60999" lon="6.90806">
        <ele>88.8</ele>
        <time>2014-03-08T12:35:55Z</time>
      </trkpt>
      <trkpt lat="43.61001" lon="6.90804">
        <ele>89.2</ele>
        <time>2014-03-08T12:35:56Z</time>
      </trkpt>
      <trkpt lat="43.61003" lon="6.90801">
        <ele>89.6</ele>
        <time>2014-03-08T12:35:57Z</time>
      </trkpt>
      <trkpt lat="43.61009" lon="6.90796">
        <ele>90.2</ele>
        <time>2014-03-08T12:35:59Z</time>
      </trkpt>
      <trkpt lat="43.61014" lon="6.90792">
        <ele>91</ele>
        <time>2014-03-08T12:36:00Z</time>
      </trkpt>
      <trkpt lat="43.61024" lon="6.90784">
        <ele>91.8</ele>
        <time>2014-03-08T12:36:05Z</time>
      </trkpt>
      <trkpt lat="43.61025" lon="6.90783">
        <ele>92.2</ele>
        <time>2014-03-08T12:36:06Z</time>
      </trkpt>
      <trkpt lat="43.61027" lon="6.90781">
        <ele>92.6</ele>
        <time>2014-03-08T12:36:07Z</time>
      </trkpt>
      <trkpt lat="43.61029" lon="6.90779">
        <ele>93</ele>
        <time>2014-03-08T12:36:08Z</time>
      </trkpt>
      <trkpt lat="43.61034" lon="6.90776">
        <ele>93.4</ele>
        <time>2014-03-08T12:36:10Z</time>
      </trkpt>
      <trkpt lat="43.61035" lon="6.90774">
        <ele>93.8</ele>
        <time>2014-03-08T12:36:11Z</time>
      </trkpt>
      <trkpt lat="43.61038" lon="6.90773">
        <ele>94.2</ele>
        <time>2014-03-08T12:36:12Z</time>
      </trkpt>
      <trkpt lat="43.61041" lon="6.90771">
        <ele>94.6</ele>
        <time>2014-03-08T12:36:13Z</time>
      </trkpt>
      <trkpt lat="43.61044" lon="6.90771">
        <ele>95</ele>
        <time>2014-03-08T12:36:14Z</time>
      </trkpt>
      <trkpt lat="43.61059" lon="6.90764">
        <ele>95</ele>
        <time>2014-03-08T12:36:19Z</time>
      </trkpt>
      <trkpt lat="43.61069" lon="6.90761">
        <ele>95.6</ele>
        <time>2014-03-08T12:36:22Z</time>
      </trkpt>
      <trkpt lat="43.61073" lon="6.90761">
        <ele>96</ele>
        <time>2014-03-08T12:36:23Z</time>
      </trkpt>
      <trkpt lat="43.61076" lon="6.9076">
        <ele>96.4</ele>
        <time>2014-03-08T12:36:24Z</time>
      </trkpt>
      <trkpt lat="43.61078" lon="6.9076">
        <ele>97</ele>
        <time>2014-03-08T12:36:25Z</time>
      </trkpt>
      <trkpt lat="43.61081" lon="6.90759">
        <ele>97.4</ele>
        <time>2014-03-08T12:36:26Z</time>
      </trkpt>
      <trkpt lat="43.61084" lon="6.90759">
        <ele>97.8</ele>
        <time>2014-03-08T12:36:28Z</time>
      </trkpt>
      <trkpt lat="43.61086" lon="6.9076">
        <ele>98.2</ele>
        <time>2014-03-08T12:36:29Z</time>
      </trkpt>
      <trkpt lat="43.61087" lon="6.9076">
        <ele>98.6</ele>
        <time>2014-03-08T12:36:30Z</time>
      </trkpt>
      <trkpt lat="43.61089" lon="6.90759">
        <ele>99.2</ele>
        <time>2014-03-08T12:36:31Z</time>
      </trkpt>
      <trkpt lat="43.6109" lon="6.90759">
        <ele>99.6</ele>
        <time>2014-03-08T12:36:32Z</time>
      </trkpt>
      <trkpt lat="43.61095" lon="6.90759">
        <ele>99.6</ele>
        <time>2014-03-08T12:36:35Z</time>
      </trkpt>
      <trkpt lat="43.61097" lon="6.90759">
        <ele>100</ele>
        <time>2014-03-08T12:36:36Z</time>
      </trkpt>
      <trkpt lat="43.61099" lon="6.90759">
        <ele>100.6</ele>
        <time>2014-03-08T12:36:37Z</time>
      </trkpt>
      <trkpt lat="43.61101" lon="6.9076">
        <ele>101</ele>
        <time>2014-03-08T12:36:38Z</time>
      </trkpt>
      <trkpt lat="43.61104" lon="6.90761">
        <ele>101.4</ele>
        <time>2014-03-08T12:36:39Z</time>
      </trkpt>
      <trkpt lat="43.61106" lon="6.90762">
        <ele>102</ele>
        <time>2014-03-08T12:36:40Z</time>
      </trkpt>
      <trkpt lat="43.61109" lon="6.90765">
        <ele>102</ele>
        <time>2014-03-08T12:36:42Z</time>
      </trkpt>
      <trkpt lat="43.61111" lon="6.90766">
        <ele>102.4</ele>
        <time>2014-03-08T12:36:43Z</time>
      </trkpt>
      <trkpt lat="43.61113" lon="6.90767">
        <ele>102.8</ele>
        <time>2014-03-08T12:36:44Z</time>
      </trkpt>
      <trkpt lat="43.61115" lon="6.90769">
        <ele>103.4</ele>
        <time>2014-03-08T12:36:45Z</time>
      </trkpt>
      <trkpt lat="43.61118" lon="6.9077">
        <ele>103.8</ele>
        <time>2014-03-08T12:36:46Z</time>
      </trkpt>
      <trkpt lat="43.61121" lon="6.90771">
        <ele>104.2</ele>
        <time>2014-03-08T12:36:47Z</time>
      </trkpt>
      <trkpt lat="43.61129" lon="6.90774">
        <ele>104.6</ele>
        <time>2014-03-08T12:36:50Z</time>
      </trkpt>
      <trkpt lat="43.61131" lon="6.90776">
        <ele>105.2</ele>
        <time>2014-03-08T12:36:51Z</time>
      </trkpt>
      <trkpt lat="43.61133" lon="6.90778">
        <ele>105.6</ele>
        <time>2014-03-08T12:36:52Z</time>
      </trkpt>
      <trkpt lat="43.61135" lon="6.9078">
        <ele>106</ele>
        <time>2014-03-08T12:36:53Z</time>
      </trkpt>
      <trkpt lat="43.61137" lon="6.90782">
        <ele>106.6</ele>
        <time>2014-03-08T12:36:54Z</time>
      </trkpt>
      <trkpt lat="43.6114" lon="6.90785">
        <ele>106.6</ele>
        <time>2014-03-08T12:36:56Z</time>
      </trkpt>
      <trkpt lat="43.61145" lon="6.90789">
        <ele>107</ele>
        <time>2014-03-08T12:36:59Z</time>
      </trkpt>
      <trkpt lat="43.61146" lon="6.90791">
        <ele>107.4</ele>
        <time>2014-03-08T12:37:00Z</time>
      </trkpt>
      <trkpt lat="43.61148" lon="6.90792">
        <ele>107.8</ele>
        <time>2014-03-08T12:37:01Z</time>
      </trkpt>
      <trkpt lat="43.6115" lon="6.90794">
        <ele>108.4</ele>
        <time>2014-03-08T12:37:02Z</time>
      </trkpt>
      <trkpt lat="43.61153" lon="6.90796">
        <ele>108.8</ele>
        <time>2014-03-08T12:37:03Z</time>
      </trkpt>
      <trkpt lat="43.61161" lon="6.90798">
        <ele>109.2</ele>
        <time>2014-03-08T12:37:06Z</time>
      </trkpt>
      <trkpt lat="43.61164" lon="6.90799">
        <ele>109.6</ele>
        <time>2014-03-08T12:37:07Z</time>
      </trkpt>
      <trkpt lat="43.61166" lon="6.90798">
        <ele>110.2</ele>
        <time>2014-03-08T12:37:08Z</time>
      </trkpt>
      <trkpt lat="43.61173" lon="6.90796">
        <ele>110.6</ele>
        <time>2014-03-08T12:37:11Z</time>
      </trkpt>
      <trkpt lat="43.61175" lon="6.90795">
        <ele>111</ele>
        <time>2014-03-08T12:37:12Z</time>
      </trkpt>
      <trkpt lat="43.61181" lon="6.90795">
        <ele>111.4</ele>
        <time>2014-03-08T12:37:14Z</time>
      </trkpt>
      <trkpt lat="43.61183" lon="6.90795">
        <ele>111.8</ele>
        <time>2014-03-08T12:37:15Z</time>
      </trkpt>
      <trkpt lat="43.61185" lon="6.90796">
        <ele>112.2</ele>
        <time>2014-03-08T12:37:16Z</time>
      </trkpt>
      <trkpt lat="43.61186" lon="6.90801">
        <ele>113.2</ele>
        <time>2014-03-08T12:37:18Z</time>
      </trkpt>
      <trkpt lat="43.61185" lon="6.90803">
        <ele>113.8</ele>
        <time>2014-03-08T12:37:19Z</time>
      </trkpt>
      <trkpt lat="43.61183" lon="6.90806">
        <ele>114.4</ele>
        <time>2014-03-08T12:37:20Z</time>
      </trkpt>
      <trkpt lat="43.61181" lon="6.90808">
        <ele>114.8</ele>
        <time>2014-03-08T12:37:21Z</time>
      </trkpt>
      <trkpt lat="43.61179" lon="6.9081">
        <ele>115.4</ele>
        <time>2014-03-08T12:37:22Z</time>
      </trkpt>
      <trkpt lat="43.61177" lon="6.90812">
        <ele>115.4</ele>
        <time>2014-03-08T12:37:23Z</time>
      </trkpt>
      <trkpt lat="43.61173" lon="6.90815">
        <ele>115.4</ele>
        <time>2014-03-08T12:37:25Z</time>
      </trkpt>
      <trkpt lat="43.61171" lon="6.90822">
        <ele>115.4</ele>
        <time>2014-03-08T12:37:27Z</time>
      </trkpt>
      <trkpt lat="43.61174" lon="6.90828">
        <ele>115.8</ele>
        <time>2014-03-08T12:37:29Z</time>
      </trkpt>
      <trkpt lat="43.61176" lon="6.9083">
        <ele>116.4</ele>
        <time>2014-03-08T12:37:30Z</time>
      </trkpt>
      <trkpt lat="43.61178" lon="6.90833">
        <ele>116.8</ele>
        <time>2014-03-08T12:37:31Z</time>
      </trkpt>
      <trkpt lat="43.6118" lon="6.90835">
        <ele>117.2</ele>
        <time>2014-03-08T12:37:32Z</time>
      </trkpt>
      <trkpt lat="43.61182" lon="6.90837">
        <ele>117.6</ele>
        <time>2014-03-08T12:37:33Z</time>
      </trkpt>
      <trkpt lat="43.61184" lon="6.90839">
        <ele>117.6</ele>
        <time>2014-03-08T12:37:34Z</time>
      </trkpt>
      <trkpt lat="43.61187" lon="6.9084">
        <ele>118</ele>
        <time>2014-03-08T12:37:36Z</time>
      </trkpt>
      <trkpt lat="43.61189" lon="6.90841">
        <ele>118.4</ele>
        <time>2014-03-08T12:37:37Z</time>
      </trkpt>
      <trkpt lat="43.61191" lon="6.90842">
        <ele>118.8</ele>
        <time>2014-03-08T12:37:38Z</time>
      </trkpt>
      <trkpt lat="43.61193" lon="6.90843">
        <ele>119.2</ele>
        <time>2014-03-08T12:37:39Z</time>
      </trkpt>
      <trkpt lat="43.61195" lon="6.90844">
        <ele>119.6</ele>
        <time>2014-03-08T12:37:40Z</time>
      </trkpt>
      <trkpt lat="43.61204" lon="6.90846">
        <ele>120</ele>
        <time>2014-03-08T12:37:44Z</time>
      </trkpt>
      <trkpt lat="43.61206" lon="6.90847">
        <ele>120.4</ele>
        <time>2014-03-08T12:37:45Z</time>
      </trkpt>
      <trkpt lat="43.61208" lon="6.90848">
        <ele>120.8</ele>
        <time>2014-03-08T12:37:46Z</time>
      </trkpt>
      <trkpt lat="43.61211" lon="6.90848">
        <ele>121.2</ele>
        <time>2014-03-08T12:37:47Z</time>
      </trkpt>
      <trkpt lat="43.61213" lon="6.90849">
        <ele>121.6</ele>
        <time>2014-03-08T12:37:48Z</time>
      </trkpt>
      <trkpt lat="43.61219" lon="6.90849">
        <ele>121.6</ele>
        <time>2014-03-08T12:37:50Z</time>
      </trkpt>
      <trkpt lat="43.61227" lon="6.90847">
        <ele>122.2</ele>
        <time>2014-03-08T12:37:53Z</time>
      </trkpt>
      <trkpt lat="43.6123" lon="6.90846">
        <ele>122.6</ele>
        <time>2014-03-08T12:37:54Z</time>
      </trkpt>
      <trkpt lat="43.61232" lon="6.90844">
        <ele>123</ele>
        <time>2014-03-08T12:37:55Z</time>
      </trkpt>
      <trkpt lat="43.61235" lon="6.90842">
        <ele>123.4</ele>
        <time>2014-03-08T12:37:56Z</time>
      </trkpt>
      <trkpt lat="43.61237" lon="6.9084">
        <ele>123.8</ele>
        <time>2014-03-08T12:37:57Z</time>
      </trkpt>
      <trkpt lat="43.61243" lon="6.90834">
        <ele>123.8</ele>
        <time>2014-03-08T12:38:00Z</time>
      </trkpt>
      <trkpt lat="43.61246" lon="6.9083">
        <ele>124.2</ele>
        <time>2014-03-08T12:38:02Z</time>
      </trkpt>
      <trkpt lat="43.61248" lon="6.90828">
        <ele>124.6</ele>
        <time>2014-03-08T12:38:03Z</time>
      </trkpt>
      <trkpt lat="43.6125" lon="6.90827">
        <ele>125.2</ele>
        <time>2014-03-08T12:38:04Z</time>
      </trkpt>
      <trkpt lat="43.61252" lon="6.90826">
        <ele>125.6</ele>
        <time>2014-03-08T12:38:05Z</time>
      </trkpt>
      <trkpt lat="43.61254" lon="6.90825">
        <ele>125.6</ele>
        <time>2014-03-08T12:38:06Z</time>
      </trkpt>
      <trkpt lat="43.61256" lon="6.90824">
        <ele>126</ele>
        <time>2014-03-08T12:38:07Z</time>
      </trkpt>
      <trkpt lat="43.61262" lon="6.90821">
        <ele>126.4</ele>
        <time>2014-03-08T12:38:10Z</time>
      </trkpt>
      <trkpt lat="43.61264" lon="6.90821">
        <ele>126.8</ele>
        <time>2014-03-08T12:38:11Z</time>
      </trkpt>
      <trkpt lat="43.61265" lon="6.9082">
        <ele>127.4</ele>
        <time>2014-03-08T12:38:12Z</time>
      </trkpt>
      <trkpt lat="43.61267" lon="6.9082">
        <ele>127.8</ele>
        <time>2014-03-08T12:38:13Z</time>
      </trkpt>
      <trkpt lat="43.61268" lon="6.90821">
        <ele>128.2</ele>
        <time>2014-03-08T12:38:14Z</time>
      </trkpt>
      <trkpt lat="43.61274" lon="6.90822">
        <ele>128.6</ele>
        <time>2014-03-08T12:38:17Z</time>
      </trkpt>
      <trkpt lat="43.61277" lon="6.90822">
        <ele>129.2</ele>
        <time>2014-03-08T12:38:18Z</time>
      </trkpt>
      <trkpt lat="43.6128" lon="6.90823">
        <ele>129.6</ele>
        <time>2014-03-08T12:38:19Z</time>
      </trkpt>
      <trkpt lat="43.61283" lon="6.90825">
        <ele>130</ele>
        <time>2014-03-08T12:38:20Z</time>
      </trkpt>
      <trkpt lat="43.61285" lon="6.90827">
        <ele>130.4</ele>
        <time>2014-03-08T12:38:21Z</time>
      </trkpt>
      <trkpt lat="43.61289" lon="6.9083">
        <ele>130.8</ele>
        <time>2014-03-08T12:38:23Z</time>
      </trkpt>
      <trkpt lat="43.61291" lon="6.90831">
        <ele>131.2</ele>
        <time>2014-03-08T12:38:24Z</time>
      </trkpt>
      <trkpt lat="43.61293" lon="6.90832">
        <ele>131.6</ele>
        <time>2014-03-08T12:38:25Z</time>
      </trkpt>
      <trkpt lat="43.61295" lon="6.90832">
        <ele>132</ele>
        <time>2014-03-08T12:38:26Z</time>
      </trkpt>
      <trkpt lat="43.61297" lon="6.90832">
        <ele>132.4</ele>
        <time>2014-03-08T12:38:27Z</time>
      </trkpt>
      <trkpt lat="43.61299" lon="6.90832">
        <ele>133</ele>
        <time>2014-03-08T12:38:28Z</time>
      </trkpt>
      <trkpt lat="43.613" lon="6.90832">
        <ele>133.4</ele>
        <time>2014-03-08T12:38:29Z</time>
      </trkpt>
      <trkpt lat="43.61302" lon="6.90831">
        <ele>133.8</ele>
        <time>2014-03-08T12:38:30Z</time>
      </trkpt>
      <trkpt lat="43.61304" lon="6.90831">
        <ele>134.2</ele>
        <time>2014-03-08T12:38:31Z</time>
      </trkpt>
      <trkpt lat="43.61306" lon="6.90831">
        <ele>134.6</ele>
        <time>2014-03-08T12:38:32Z</time>
      </trkpt>
      <trkpt lat="43.61308" lon="6.90831">
        <ele>134.6</ele>
        <time>2014-03-08T12:38:33Z</time>
      </trkpt>
      <trkpt lat="43.6131" lon="6.9083">
        <ele>135</ele>
        <time>2014-03-08T12:38:34Z</time>
      </trkpt>
      <trkpt lat="43.61312" lon="6.90829">
        <ele>135.4</ele>
        <time>2014-03-08T12:38:35Z</time>
      </trkpt>
      <trkpt lat="43.61314" lon="6.90828">
        <ele>135.8</ele>
        <time>2014-03-08T12:38:36Z</time>
      </trkpt>
      <trkpt lat="43.61316" lon="6.90827">
        <ele>136.2</ele>
        <time>2014-03-08T12:38:37Z</time>
      </trkpt>
      <trkpt lat="43.61317" lon="6.90825">
        <ele>136.8</ele>
        <time>2014-03-08T12:38:38Z</time>
      </trkpt>
      <trkpt lat="43.61319" lon="6.90824">
        <ele>137.2</ele>
        <time>2014-03-08T12:38:39Z</time>
      </trkpt>
      <trkpt lat="43.61321" lon="6.90822">
        <ele>137.8</ele>
        <time>2014-03-08T12:38:40Z</time>
      </trkpt>
      <trkpt lat="43.61322" lon="6.90819">
        <ele>138.4</ele>
        <time>2014-03-08T12:38:41Z</time>
      </trkpt>
      <trkpt lat="43.61324" lon="6.90816">
        <ele>138.8</ele>
        <time>2014-03-08T12:38:42Z</time>
      </trkpt>
      <trkpt lat="43.61326" lon="6.90814">
        <ele>138.8</ele>
        <time>2014-03-08T12:38:43Z</time>
      </trkpt>
      <trkpt lat="43.61335" lon="6.90802">
        <ele>138.8</ele>
        <time>2014-03-08T12:38:49Z</time>
      </trkpt>
      <trkpt lat="43.61337" lon="6.90801">
        <ele>139.2</ele>
        <time>2014-03-08T12:38:50Z</time>
      </trkpt>
      <trkpt lat="43.6134" lon="6.908">
        <ele>139.6</ele>
        <time>2014-03-08T12:38:51Z</time>
      </trkpt>
      <trkpt lat="43.61343" lon="6.908">
        <ele>140</ele>
        <time>2014-03-08T12:38:52Z</time>
      </trkpt>
      <trkpt lat="43.61346" lon="6.908">
        <ele>140.4</ele>
        <time>2014-03-08T12:38:53Z</time>
      </trkpt>
      <trkpt lat="43.61349" lon="6.908">
        <ele>140.8</ele>
        <time>2014-03-08T12:38:54Z</time>
      </trkpt>
      <trkpt lat="43.61361" lon="6.908">
        <ele>140.8</ele>
        <time>2014-03-08T12:38:59Z</time>
      </trkpt>
      <trkpt lat="43.61378" lon="6.90784">
        <ele>140.8</ele>
        <time>2014-03-08T12:39:04Z</time>
      </trkpt>
      <trkpt lat="43.61381" lon="6.90781">
        <ele>140.8</ele>
        <time>2014-03-08T12:39:05Z</time>
      </trkpt>
      <trkpt lat="43.61386" lon="6.90781">
        <ele>140.8</ele>
        <time>2014-03-08T12:39:07Z</time>
      </trkpt>
      <trkpt lat="43.61392" lon="6.90783">
        <ele>140.8</ele>
        <time>2014-03-08T12:39:09Z</time>
      </trkpt>
      <trkpt lat="43.61402" lon="6.90784">
        <ele>140.8</ele>
        <time>2014-03-08T12:39:12Z</time>
      </trkpt>
      <trkpt lat="43.61405" lon="6.90782">
        <ele>140.8</ele>
        <time>2014-03-08T12:39:13Z</time>
      </trkpt>
      <trkpt lat="43.6141" lon="6.90777">
        <ele>140.8</ele>
        <time>2014-03-08T12:39:15Z</time>
      </trkpt>
      <trkpt lat="43.61414" lon="6.90771">
        <ele>140.8</ele>
        <time>2014-03-08T12:39:17Z</time>
      </trkpt>
      <trkpt lat="43.61419" lon="6.90763">
        <ele>140.8</ele>
        <time>2014-03-08T12:39:20Z</time>
      </trkpt>
      <trkpt lat="43.61424" lon="6.9076">
        <ele>140.8</ele>
        <time>2014-03-08T12:39:22Z</time>
      </trkpt>
      <trkpt lat="43.6143" lon="6.90759">
        <ele>140.8</ele>
        <time>2014-03-08T12:39:24Z</time>
      </trkpt>
      <trkpt lat="43.61433" lon="6.9076">
        <ele>140.8</ele>
        <time>2014-03-08T12:39:25Z</time>
      </trkpt>
      <trkpt lat="43.61439" lon="6.90764">
        <ele>140.8</ele>
        <time>2014-03-08T12:39:27Z</time>
      </trkpt>
      <trkpt lat="43.61444" lon="6.90771">
        <ele>140.8</ele>
        <time>2014-03-08T12:39:29Z</time>
      </trkpt>
      <trkpt lat="43.61451" lon="6.90789">
        <ele>140.8</ele>
        <time>2014-03-08T12:39:34Z</time>
      </trkpt>
      <trkpt lat="43.61459" lon="6.90809">
        <ele>141.4</ele>
        <time>2014-03-08T12:39:40Z</time>
      </trkpt>
      <trkpt lat="43.6146" lon="6.90812">
        <ele>141.4</ele>
        <time>2014-03-08T12:39:41Z</time>
      </trkpt>
      <trkpt lat="43.61462" lon="6.90815">
        <ele>141.8</ele>
        <time>2014-03-08T12:39:42Z</time>
      </trkpt>
      <trkpt lat="43.61463" lon="6.90818">
        <ele>142.2</ele>
        <time>2014-03-08T12:39:43Z</time>
      </trkpt>
      <trkpt lat="43.61465" lon="6.90822">
        <ele>142.6</ele>
        <time>2014-03-08T12:39:44Z</time>
      </trkpt>
      <trkpt lat="43.61467" lon="6.90825">
        <ele>143.2</ele>
        <time>2014-03-08T12:39:45Z</time>
      </trkpt>
      <trkpt lat="43.6147" lon="6.90827">
        <ele>143.6</ele>
        <time>2014-03-08T12:39:46Z</time>
      </trkpt>
      <trkpt lat="43.61472" lon="6.90829">
        <ele>144</ele>
        <time>2014-03-08T12:39:47Z</time>
      </trkpt>
      <trkpt lat="43.61475" lon="6.9083">
        <ele>144.6</ele>
        <time>2014-03-08T12:39:48Z</time>
      </trkpt>
      <trkpt lat="43.61478" lon="6.90831">
        <ele>145</ele>
        <time>2014-03-08T12:39:49Z</time>
      </trkpt>
      <trkpt lat="43.61481" lon="6.90831">
        <ele>145.4</ele>
        <time>2014-03-08T12:39:50Z</time>
      </trkpt>
      <trkpt lat="43.61484" lon="6.90831">
        <ele>145.8</ele>
        <time>2014-03-08T12:39:51Z</time>
      </trkpt>
      <trkpt lat="43.61486" lon="6.9083">
        <ele>146.4</ele>
        <time>2014-03-08T12:39:52Z</time>
      </trkpt>
      <trkpt lat="43.61489" lon="6.9083">
        <ele>146.8</ele>
        <time>2014-03-08T12:39:53Z</time>
      </trkpt>
      <trkpt lat="43.61492" lon="6.90829">
        <ele>147.2</ele>
        <time>2014-03-08T12:39:54Z</time>
      </trkpt>
      <trkpt lat="43.61495" lon="6.90828">
        <ele>147.8</ele>
        <time>2014-03-08T12:39:55Z</time>
      </trkpt>
      <trkpt lat="43.61497" lon="6.90828">
        <ele>148.4</ele>
        <time>2014-03-08T12:39:56Z</time>
      </trkpt>
      <trkpt lat="43.615" lon="6.90827">
        <ele>148.8</ele>
        <time>2014-03-08T12:39:57Z</time>
      </trkpt>
      <trkpt lat="43.61502" lon="6.90827">
        <ele>149.4</ele>
        <time>2014-03-08T12:39:58Z</time>
      </trkpt>
      <trkpt lat="43.61504" lon="6.90826">
        <ele>150</ele>
        <time>2014-03-08T12:39:59Z</time>
      </trkpt>
      <trkpt lat="43.61511" lon="6.90823">
        <ele>150.4</ele>
        <time>2014-03-08T12:40:02Z</time>
      </trkpt>
      <trkpt lat="43.61513" lon="6.90822">
        <ele>151</ele>
        <time>2014-03-08T12:40:03Z</time>
      </trkpt>
      <trkpt lat="43.61515" lon="6.9082">
        <ele>151.4</ele>
        <time>2014-03-08T12:40:04Z</time>
      </trkpt>
      <trkpt lat="43.61517" lon="6.90819">
        <ele>151.8</ele>
        <time>2014-03-08T12:40:05Z</time>
      </trkpt>
      <trkpt lat="43.61519" lon="6.90817">
        <ele>152.4</ele>
        <time>2014-03-08T12:40:06Z</time>
      </trkpt>
      <trkpt lat="43.61525" lon="6.90814">
        <ele>152.4</ele>
        <time>2014-03-08T12:40:09Z</time>
      </trkpt>
      <trkpt lat="43.61527" lon="6.90815">
        <ele>152.4</ele>
        <time>2014-03-08T12:40:10Z</time>
      </trkpt>
      <trkpt lat="43.61532" lon="6.90823">
        <ele>152.4</ele>
        <time>2014-03-08T12:40:13Z</time>
      </trkpt>
      <trkpt lat="43.61539" lon="6.90837">
        <ele>152.4</ele>
        <time>2014-03-08T12:40:17Z</time>
      </trkpt>
      <trkpt lat="43.61542" lon="6.90842">
        <ele>152.8</ele>
        <time>2014-03-08T12:40:19Z</time>
      </trkpt>
      <trkpt lat="43.61544" lon="6.90845">
        <ele>153.4</ele>
        <time>2014-03-08T12:40:20Z</time>
      </trkpt>
      <trkpt lat="43.61546" lon="6.90848">
        <ele>153.8</ele>
        <time>2014-03-08T12:40:21Z</time>
      </trkpt>
      <trkpt lat="43.61549" lon="6.9085">
        <ele>154.2</ele>
        <time>2014-03-08T12:40:22Z</time>
      </trkpt>
      <trkpt lat="43.61551" lon="6.90852">
        <ele>154.8</ele>
        <time>2014-03-08T12:40:23Z</time>
      </trkpt>
      <trkpt lat="43.61555" lon="6.90857">
        <ele>155.2</ele>
        <time>2014-03-08T12:40:25Z</time>
      </trkpt>
      <trkpt lat="43.61557" lon="6.90859">
        <ele>155.6</ele>
        <time>2014-03-08T12:40:26Z</time>
      </trkpt>
      <trkpt lat="43.61559" lon="6.90862">
        <ele>156.2</ele>
        <time>2014-03-08T12:40:27Z</time>
      </trkpt>
      <trkpt lat="43.61561" lon="6.90864">
        <ele>156.6</ele>
        <time>2014-03-08T12:40:28Z</time>
      </trkpt>
      <trkpt lat="43.61562" lon="6.90867">
        <ele>157.2</ele>
        <time>2014-03-08T12:40:29Z</time>
      </trkpt>
      <trkpt lat="43.61573" lon="6.90873">
        <ele>157.2</ele>
        <time>2014-03-08T12:40:34Z</time>
      </trkpt>
      <trkpt lat="43.61589" lon="6.90872">
        <ele>157.2</ele>
        <time>2014-03-08T12:40:39Z</time>
      </trkpt>
      <trkpt lat="43.61603" lon="6.90876">
        <ele>157.2</ele>
        <time>2014-03-08T12:40:43Z</time>
      </trkpt>
      <trkpt lat="43.61608" lon="6.90881">
        <ele>157.2</ele>
        <time>2014-03-08T12:40:45Z</time>
      </trkpt>
      <trkpt lat="43.61614" lon="6.90891">
        <ele>157.6</ele>
        <time>2014-03-08T12:40:48Z</time>
      </trkpt>
      <trkpt lat="43.61616" lon="6.90894">
        <ele>158</ele>
        <time>2014-03-08T12:40:49Z</time>
      </trkpt>
      <trkpt lat="43.61618" lon="6.90898">
        <ele>158.4</ele>
        <time>2014-03-08T12:40:50Z</time>
      </trkpt>
      <trkpt lat="43.61619" lon="6.90901">
        <ele>159</ele>
        <time>2014-03-08T12:40:51Z</time>
      </trkpt>
      <trkpt lat="43.61621" lon="6.90905">
        <ele>159.4</ele>
        <time>2014-03-08T12:40:52Z</time>
      </trkpt>
      <trkpt lat="43.61623" lon="6.90912">
        <ele>159.4</ele>
        <time>2014-03-08T12:40:54Z</time>
      </trkpt>
      <trkpt lat="43.61625" lon="6.90914">
        <ele>159.8</ele>
        <time>2014-03-08T12:40:55Z</time>
      </trkpt>
      <trkpt lat="43.61627" lon="6.90917">
        <ele>160.2</ele>
        <time>2014-03-08T12:40:56Z</time>
      </trkpt>
      <trkpt lat="43.61629" lon="6.90919">
        <ele>160.6</ele>
        <time>2014-03-08T12:40:57Z</time>
      </trkpt>
      <trkpt lat="43.61631" lon="6.90921">
        <ele>161.2</ele>
        <time>2014-03-08T12:40:58Z</time>
      </trkpt>
      <trkpt lat="43.61633" lon="6.90923">
        <ele>161.6</ele>
        <time>2014-03-08T12:40:59Z</time>
      </trkpt>
      <trkpt lat="43.61645" lon="6.90933">
        <ele>161.6</ele>
        <time>2014-03-08T12:41:04Z</time>
      </trkpt>
      <trkpt lat="43.61656" lon="6.90937">
        <ele>161.6</ele>
        <time>2014-03-08T12:41:07Z</time>
      </trkpt>
      <trkpt lat="43.61667" lon="6.90938">
        <ele>161.2</ele>
        <time>2014-03-08T12:41:09Z</time>
      </trkpt>
      <trkpt lat="43.61672" lon="6.90938">
        <ele>160.6</ele>
        <time>2014-03-08T12:41:10Z</time>
      </trkpt>
      <trkpt lat="43.61678" lon="6.90938">
        <ele>160.2</ele>
        <time>2014-03-08T12:41:11Z</time>
      </trkpt>
      <trkpt lat="43.61685" lon="6.90934">
        <ele>159.8</ele>
        <time>2014-03-08T12:41:12Z</time>
      </trkpt>
      <trkpt lat="43.6169" lon="6.90931">
        <ele>159.4</ele>
        <time>2014-03-08T12:41:13Z</time>
      </trkpt>
      <trkpt lat="43.61696" lon="6.90925">
        <ele>159.4</ele>
        <time>2014-03-08T12:41:15Z</time>
      </trkpt>
      <trkpt lat="43.61703" lon="6.90923">
        <ele>159.8</ele>
        <time>2014-03-08T12:41:19Z</time>
      </trkpt>
      <trkpt lat="43.61705" lon="6.90923">
        <ele>160.2</ele>
        <time>2014-03-08T12:41:20Z</time>
      </trkpt>
      <trkpt lat="43.61707" lon="6.90923">
        <ele>160.6</ele>
        <time>2014-03-08T12:41:21Z</time>
      </trkpt>
      <trkpt lat="43.61709" lon="6.90923">
        <ele>161</ele>
        <time>2014-03-08T12:41:22Z</time>
      </trkpt>
      <trkpt lat="43.61711" lon="6.90922">
        <ele>161.4</ele>
        <time>2014-03-08T12:41:23Z</time>
      </trkpt>
      <trkpt lat="43.61713" lon="6.90923">
        <ele>162</ele>
        <time>2014-03-08T12:41:24Z</time>
      </trkpt>
      <trkpt lat="43.61714" lon="6.90925">
        <ele>162.4</ele>
        <time>2014-03-08T12:41:25Z</time>
      </trkpt>
      <trkpt lat="43.61716" lon="6.90927">
        <ele>162.8</ele>
        <time>2014-03-08T12:41:26Z</time>
      </trkpt>
      <trkpt lat="43.61718" lon="6.90929">
        <ele>163.2</ele>
        <time>2014-03-08T12:41:27Z</time>
      </trkpt>
      <trkpt lat="43.6172" lon="6.90929">
        <ele>163.6</ele>
        <time>2014-03-08T12:41:28Z</time>
      </trkpt>
      <trkpt lat="43.61722" lon="6.9093">
        <ele>163.6</ele>
        <time>2014-03-08T12:41:29Z</time>
      </trkpt>
      <trkpt lat="43.61728" lon="6.90932">
        <ele>164.2</ele>
        <time>2014-03-08T12:41:32Z</time>
      </trkpt>
      <trkpt lat="43.6173" lon="6.90933">
        <ele>164.6</ele>
        <time>2014-03-08T12:41:33Z</time>
      </trkpt>
      <trkpt lat="43.61732" lon="6.90933">
        <ele>165</ele>
        <time>2014-03-08T12:41:34Z</time>
      </trkpt>
      <trkpt lat="43.61733" lon="6.90934">
        <ele>165.4</ele>
        <time>2014-03-08T12:41:35Z</time>
      </trkpt>
      <trkpt lat="43.61736" lon="6.90937">
        <ele>165.8</ele>
        <time>2014-03-08T12:41:36Z</time>
      </trkpt>
      <trkpt lat="43.61747" lon="6.90947">
        <ele>166.2</ele>
        <time>2014-03-08T12:41:40Z</time>
      </trkpt>
      <trkpt lat="43.6175" lon="6.90949">
        <ele>166.8</ele>
        <time>2014-03-08T12:41:41Z</time>
      </trkpt>
      <trkpt lat="43.61752" lon="6.90951">
        <ele>167.2</ele>
        <time>2014-03-08T12:41:42Z</time>
      </trkpt>
      <trkpt lat="43.61754" lon="6.90952">
        <ele>167.6</ele>
        <time>2014-03-08T12:41:43Z</time>
      </trkpt>
      <trkpt lat="43.61755" lon="6.90953">
        <ele>168</ele>
        <time>2014-03-08T12:41:44Z</time>
      </trkpt>
      <trkpt lat="43.61755" lon="6.90957">
        <ele>168.4</ele>
        <time>2014-03-08T12:41:46Z</time>
      </trkpt>
      <trkpt lat="43.61755" lon="6.90959">
        <ele>168.8</ele>
        <time>2014-03-08T12:41:47Z</time>
      </trkpt>
      <trkpt lat="43.61757" lon="6.90959">
        <ele>169.2</ele>
        <time>2014-03-08T12:41:48Z</time>
      </trkpt>
      <trkpt lat="43.61758" lon="6.90958">
        <ele>169.6</ele>
        <time>2014-03-08T12:41:49Z</time>
      </trkpt>
      <trkpt lat="43.61758" lon="6.90959">
        <ele>170.2</ele>
        <time>2014-03-08T12:41:50Z</time>
      </trkpt>
      <trkpt lat="43.6176" lon="6.90959">
        <ele>170.2</ele>
        <time>2014-03-08T12:41:51Z</time>
      </trkpt>
      <trkpt lat="43.61762" lon="6.90959">
        <ele>170.6</ele>
        <time>2014-03-08T12:41:52Z</time>
      </trkpt>
      <trkpt lat="43.61764" lon="6.9096">
        <ele>171</ele>
        <time>2014-03-08T12:41:53Z</time>
      </trkpt>
      <trkpt lat="43.61768" lon="6.9096">
        <ele>171.4</ele>
        <time>2014-03-08T12:41:54Z</time>
      </trkpt>
      <trkpt lat="43.61772" lon="6.90959">
        <ele>172</ele>
        <time>2014-03-08T12:41:55Z</time>
      </trkpt>
      <trkpt lat="43.61775" lon="6.9096">
        <ele>172.4</ele>
        <time>2014-03-08T12:41:56Z</time>
      </trkpt>
      <trkpt lat="43.61781" lon="6.90964">
        <ele>172.8</ele>
        <time>2014-03-08T12:41:58Z</time>
      </trkpt>
      <trkpt lat="43.61783" lon="6.90966">
        <ele>173.4</ele>
        <time>2014-03-08T12:41:59Z</time>
      </trkpt>
      <trkpt lat="43.61786" lon="6.90967">
        <ele>174</ele>
        <time>2014-03-08T12:42:00Z</time>
      </trkpt>
      <trkpt lat="43.61789" lon="6.9097">
        <ele>174.6</ele>
        <time>2014-03-08T12:42:01Z</time>
      </trkpt>
      <trkpt lat="43.61792" lon="6.90971">
        <ele>175</ele>
        <time>2014-03-08T12:42:02Z</time>
      </trkpt>
      <trkpt lat="43.61795" lon="6.90976">
        <ele>175.4</ele>
        <time>2014-03-08T12:42:04Z</time>
      </trkpt>
      <trkpt lat="43.61795" lon="6.90978">
        <ele>175.8</ele>
        <time>2014-03-08T12:42:05Z</time>
      </trkpt>
      <trkpt lat="43.61797" lon="6.9098">
        <ele>176.2</ele>
        <time>2014-03-08T12:42:06Z</time>
      </trkpt>
      <trkpt lat="43.61798" lon="6.90981">
        <ele>176.6</ele>
        <time>2014-03-08T12:42:07Z</time>
      </trkpt>
      <trkpt lat="43.61801" lon="6.90981">
        <ele>177</ele>
        <time>2014-03-08T12:42:08Z</time>
      </trkpt>
      <trkpt lat="43.61807" lon="6.90982">
        <ele>177</ele>
        <time>2014-03-08T12:42:10Z</time>
      </trkpt>
      <trkpt lat="43.61814" lon="6.90981">
        <ele>177</ele>
        <time>2014-03-08T12:42:14Z</time>
      </trkpt>
      <trkpt lat="43.61815" lon="6.9098">
        <ele>177.6</ele>
        <time>2014-03-08T12:42:15Z</time>
      </trkpt>
      <trkpt lat="43.61816" lon="6.9098">
        <ele>178</ele>
        <time>2014-03-08T12:42:16Z</time>
      </trkpt>
      <trkpt lat="43.61817" lon="6.90981">
        <ele>178.6</ele>
        <time>2014-03-08T12:42:17Z</time>
      </trkpt>
      <trkpt lat="43.61818" lon="6.90982">
        <ele>179</ele>
        <time>2014-03-08T12:42:18Z</time>
      </trkpt>
      <trkpt lat="43.61819" lon="6.90982">
        <ele>179.6</ele>
        <time>2014-03-08T12:42:19Z</time>
      </trkpt>
      <trkpt lat="43.61821" lon="6.90982">
        <ele>180</ele>
        <time>2014-03-08T12:42:20Z</time>
      </trkpt>
      <trkpt lat="43.61822" lon="6.90981">
        <ele>180.4</ele>
        <time>2014-03-08T12:42:21Z</time>
      </trkpt>
      <trkpt lat="43.61824" lon="6.90981">
        <ele>180.8</ele>
        <time>2014-03-08T12:42:22Z</time>
      </trkpt>
      <trkpt lat="43.61825" lon="6.9098">
        <ele>181.4</ele>
        <time>2014-03-08T12:42:23Z</time>
      </trkpt>
      <trkpt lat="43.61826" lon="6.90979">
        <ele>181.8</ele>
        <time>2014-03-08T12:42:24Z</time>
      </trkpt>
      <trkpt lat="43.61829" lon="6.90975">
        <ele>181.8</ele>
        <time>2014-03-08T12:42:26Z</time>
      </trkpt>
      <trkpt lat="43.6183" lon="6.90973">
        <ele>182.2</ele>
        <time>2014-03-08T12:42:27Z</time>
      </trkpt>
      <trkpt lat="43.61832" lon="6.9097">
        <ele>182.8</ele>
        <time>2014-03-08T12:42:28Z</time>
      </trkpt>
      <trkpt lat="43.61834" lon="6.90968">
        <ele>183.2</ele>
        <time>2014-03-08T12:42:29Z</time>
      </trkpt>
      <trkpt lat="43.61836" lon="6.90967">
        <ele>183.8</ele>
        <time>2014-03-08T12:42:30Z</time>
      </trkpt>
      <trkpt lat="43.61837" lon="6.90966">
        <ele>184.2</ele>
        <time>2014-03-08T12:42:31Z</time>
      </trkpt>
      <trkpt lat="43.6184" lon="6.90964">
        <ele>184.6</ele>
        <time>2014-03-08T12:42:33Z</time>
      </trkpt>
      <trkpt lat="43.61841" lon="6.90963">
        <ele>185.2</ele>
        <time>2014-03-08T12:42:34Z</time>
      </trkpt>
      <trkpt lat="43.61842" lon="6.90961">
        <ele>185.6</ele>
        <time>2014-03-08T12:42:35Z</time>
      </trkpt>
      <trkpt lat="43.61844" lon="6.90959">
        <ele>186</ele>
        <time>2014-03-08T12:42:36Z</time>
      </trkpt>
      <trkpt lat="43.61845" lon="6.90956">
        <ele>186.6</ele>
        <time>2014-03-08T12:42:37Z</time>
      </trkpt>
      <trkpt lat="43.61851" lon="6.90949">
        <ele>186.6</ele>
        <time>2014-03-08T12:42:41Z</time>
      </trkpt>
      <trkpt lat="43.61852" lon="6.90947">
        <ele>187</ele>
        <time>2014-03-08T12:42:42Z</time>
      </trkpt>
      <trkpt lat="43.61852" lon="6.90945">
        <ele>187.4</ele>
        <time>2014-03-08T12:42:43Z</time>
      </trkpt>
      <trkpt lat="43.61852" lon="6.90943">
        <ele>188</ele>
        <time>2014-03-08T12:42:44Z</time>
      </trkpt>
      <trkpt lat="43.61852" lon="6.9094">
        <ele>188.4</ele>
        <time>2014-03-08T12:42:45Z</time>
      </trkpt>
      <trkpt lat="43.61852" lon="6.90939">
        <ele>188.8</ele>
        <time>2014-03-08T12:42:46Z</time>
      </trkpt>
      <trkpt lat="43.61853" lon="6.90937">
        <ele>189.4</ele>
        <time>2014-03-08T12:42:47Z</time>
      </trkpt>
      <trkpt lat="43.61854" lon="6.90934">
        <ele>189.8</ele>
        <time>2014-03-08T12:42:48Z</time>
      </trkpt>
      <trkpt lat="43.61854" lon="6.90931">
        <ele>190.2</ele>
        <time>2014-03-08T12:42:49Z</time>
      </trkpt>
      <trkpt lat="43.61854" lon="6.90928">
        <ele>190.6</ele>
        <time>2014-03-08T12:42:50Z</time>
      </trkpt>
      <trkpt lat="43.61854" lon="6.90925">
        <ele>191</ele>
        <time>2014-03-08T12:42:51Z</time>
      </trkpt>
      <trkpt lat="43.61854" lon="6.90922">
        <ele>191.4</ele>
        <time>2014-03-08T12:42:52Z</time>
      </trkpt>
      <trkpt lat="43.61855" lon="6.90919">
        <ele>192</ele>
        <time>2014-03-08T12:42:53Z</time>
      </trkpt>
      <trkpt lat="43.61855" lon="6.90917">
        <ele>192.4</ele>
        <time>2014-03-08T12:42:54Z</time>
      </trkpt>
      <trkpt lat="43.61855" lon="6.90914">
        <ele>192.8</ele>
        <time>2014-03-08T12:42:55Z</time>
      </trkpt>
      <trkpt lat="43.61855" lon="6.90912">
        <ele>193.2</ele>
        <time>2014-03-08T12:42:56Z</time>
      </trkpt>
      <trkpt lat="43.61856" lon="6.90909">
        <ele>193.6</ele>
        <time>2014-03-08T12:42:57Z</time>
      </trkpt>
      <trkpt lat="43.61857" lon="6.90907">
        <ele>194.2</ele>
        <time>2014-03-08T12:42:58Z</time>
      </trkpt>
      <trkpt lat="43.61857" lon="6.90904">
        <ele>194.6</ele>
        <time>2014-03-08T12:42:59Z</time>
      </trkpt>
      <trkpt lat="43.61858" lon="6.90901">
        <ele>195</ele>
        <time>2014-03-08T12:43:00Z</time>
      </trkpt>
      <trkpt lat="43.61859" lon="6.90898">
        <ele>195.4</ele>
        <time>2014-03-08T12:43:01Z</time>
      </trkpt>
      <trkpt lat="43.61859" lon="6.90895">
        <ele>195.8</ele>
        <time>2014-03-08T12:43:02Z</time>
      </trkpt>
      <trkpt lat="43.6186" lon="6.90892">
        <ele>196.2</ele>
        <time>2014-03-08T12:43:03Z</time>
      </trkpt>
      <trkpt lat="43.61861" lon="6.90889">
        <ele>196.6</ele>
        <time>2014-03-08T12:43:04Z</time>
      </trkpt>
      <trkpt lat="43.61863" lon="6.90886">
        <ele>197</ele>
        <time>2014-03-08T12:43:05Z</time>
      </trkpt>
      <trkpt lat="43.61864" lon="6.90884">
        <ele>197.4</ele>
        <time>2014-03-08T12:43:06Z</time>
      </trkpt>
      <trkpt lat="43.61866" lon="6.9088">
        <ele>197.4</ele>
        <time>2014-03-08T12:43:08Z</time>
      </trkpt>
      <trkpt lat="43.61867" lon="6.90877">
        <ele>197.4</ele>
        <time>2014-03-08T12:43:09Z</time>
      </trkpt>
      <trkpt lat="43.6187" lon="6.90868">
        <ele>197.4</ele>
        <time>2014-03-08T12:43:13Z</time>
      </trkpt>
      <trkpt lat="43.61871" lon="6.90866">
        <ele>197.8</ele>
        <time>2014-03-08T12:43:14Z</time>
      </trkpt>
      <trkpt lat="43.61872" lon="6.90864">
        <ele>198.2</ele>
        <time>2014-03-08T12:43:15Z</time>
      </trkpt>
      <trkpt lat="43.61872" lon="6.90861">
        <ele>198.6</ele>
        <time>2014-03-08T12:43:16Z</time>
      </trkpt>
      <trkpt lat="43.61873" lon="6.90857">
        <ele>199</ele>
        <time>2014-03-08T12:43:17Z</time>
      </trkpt>
      <trkpt lat="43.61873" lon="6.90855">
        <ele>199.4</ele>
        <time>2014-03-08T12:43:18Z</time>
      </trkpt>
      <trkpt lat="43.61873" lon="6.90852">
        <ele>199.4</ele>
        <time>2014-03-08T12:43:19Z</time>
      </trkpt>
      <trkpt lat="43.61873" lon="6.90849">
        <ele>199.4</ele>
        <time>2014-03-08T12:43:20Z</time>
      </trkpt>
      <trkpt lat="43.61873" lon="6.90842">
        <ele>199.4</ele>
        <time>2014-03-08T12:43:22Z</time>
      </trkpt>
      <trkpt lat="43.61873" lon="6.90837">
        <ele>199.4</ele>
        <time>2014-03-08T12:43:24Z</time>
      </trkpt>
      <trkpt lat="43.61873" lon="6.90817">
        <ele>199.4</ele>
        <time>2014-03-08T12:43:30Z</time>
      </trkpt>
      <trkpt lat="43.61875" lon="6.90815">
        <ele>199.4</ele>
        <time>2014-03-08T12:43:31Z</time>
      </trkpt>
      <trkpt lat="43.61879" lon="6.90807">
        <ele>199.4</ele>
        <time>2014-03-08T12:43:35Z</time>
      </trkpt>
      <trkpt lat="43.6188" lon="6.90804">
        <ele>199.8</ele>
        <time>2014-03-08T12:43:36Z</time>
      </trkpt>
      <trkpt lat="43.61881" lon="6.90802">
        <ele>200.4</ele>
        <time>2014-03-08T12:43:37Z</time>
      </trkpt>
      <trkpt lat="43.61881" lon="6.908">
        <ele>200.8</ele>
        <time>2014-03-08T12:43:38Z</time>
      </trkpt>
      <trkpt lat="43.61882" lon="6.90798">
        <ele>201.2</ele>
        <time>2014-03-08T12:43:39Z</time>
      </trkpt>
      <trkpt lat="43.61883" lon="6.90796">
        <ele>201.6</ele>
        <time>2014-03-08T12:43:40Z</time>
      </trkpt>
      <trkpt lat="43.61884" lon="6.90792">
        <ele>201.6</ele>
        <time>2014-03-08T12:43:42Z</time>
      </trkpt>
      <trkpt lat="43.61886" lon="6.90783">
        <ele>202</ele>
        <time>2014-03-08T12:43:45Z</time>
      </trkpt>
      <trkpt lat="43.61887" lon="6.9078">
        <ele>202.4</ele>
        <time>2014-03-08T12:43:46Z</time>
      </trkpt>
      <trkpt lat="43.61888" lon="6.90777">
        <ele>202.8</ele>
        <time>2014-03-08T12:43:47Z</time>
      </trkpt>
      <trkpt lat="43.61888" lon="6.90774">
        <ele>203.2</ele>
        <time>2014-03-08T12:43:48Z</time>
      </trkpt>
      <trkpt lat="43.61888" lon="6.90771">
        <ele>203.6</ele>
        <time>2014-03-08T12:43:49Z</time>
      </trkpt>
      <trkpt lat="43.61888" lon="6.90757">
        <ele>203.6</ele>
        <time>2014-03-08T12:43:54Z</time>
      </trkpt>
      <trkpt lat="43.61887" lon="6.90749">
        <ele>204</ele>
        <time>2014-03-08T12:43:57Z</time>
      </trkpt>
      <trkpt lat="43.61887" lon="6.90747">
        <ele>204.6</ele>
        <time>2014-03-08T12:43:58Z</time>
      </trkpt>
      <trkpt lat="43.61887" lon="6.90744">
        <ele>205</ele>
        <time>2014-03-08T12:43:59Z</time>
      </trkpt>
      <trkpt lat="43.61887" lon="6.90743">
        <ele>205.4</ele>
        <time>2014-03-08T12:44:00Z</time>
      </trkpt>
      <trkpt lat="43.61886" lon="6.90743">
        <ele>205.8</ele>
        <time>2014-03-08T12:44:01Z</time>
      </trkpt>
      <trkpt lat="43.61884" lon="6.90735">
        <ele>206.2</ele>
        <time>2014-03-08T12:44:04Z</time>
      </trkpt>
      <trkpt lat="43.61884" lon="6.90731">
        <ele>206.6</ele>
        <time>2014-03-08T12:44:05Z</time>
      </trkpt>
      <trkpt lat="43.61883" lon="6.90728">
        <ele>207</ele>
        <time>2014-03-08T12:44:06Z</time>
      </trkpt>
      <trkpt lat="43.61883" lon="6.90725">
        <ele>207.6</ele>
        <time>2014-03-08T12:44:07Z</time>
      </trkpt>
      <trkpt lat="43.61883" lon="6.90723">
        <ele>208</ele>
        <time>2014-03-08T12:44:08Z</time>
      </trkpt>
      <trkpt lat="43.61878" lon="6.90719">
        <ele>208</ele>
        <time>2014-03-08T12:44:11Z</time>
      </trkpt>
      <trkpt lat="43.61876" lon="6.90719">
        <ele>208.4</ele>
        <time>2014-03-08T12:44:12Z</time>
      </trkpt>
      <trkpt lat="43.61874" lon="6.90719">
        <ele>208.8</ele>
        <time>2014-03-08T12:44:13Z</time>
      </trkpt>
      <trkpt lat="43.61872" lon="6.90719">
        <ele>209.4</ele>
        <time>2014-03-08T12:44:14Z</time>
      </trkpt>
      <trkpt lat="43.61871" lon="6.90719">
        <ele>209.8</ele>
        <time>2014-03-08T12:44:15Z</time>
      </trkpt>
      <trkpt lat="43.61869" lon="6.9072">
        <ele>210.2</ele>
        <time>2014-03-08T12:44:16Z</time>
      </trkpt>
      <trkpt lat="43.61864" lon="6.90723">
        <ele>210.2</ele>
        <time>2014-03-08T12:44:19Z</time>
      </trkpt>
      <trkpt lat="43.61862" lon="6.90723">
        <ele>210.8</ele>
        <time>2014-03-08T12:44:20Z</time>
      </trkpt>
      <trkpt lat="43.6186" lon="6.90724">
        <ele>211.2</ele>
        <time>2014-03-08T12:44:21Z</time>
      </trkpt>
      <trkpt lat="43.61858" lon="6.90724">
        <ele>211.6</ele>
        <time>2014-03-08T12:44:22Z</time>
      </trkpt>
      <trkpt lat="43.61856" lon="6.90724">
        <ele>212.2</ele>
        <time>2014-03-08T12:44:23Z</time>
      </trkpt>
      <trkpt lat="43.61855" lon="6.90724">
        <ele>212.6</ele>
        <time>2014-03-08T12:44:24Z</time>
      </trkpt>
      <trkpt lat="43.6185" lon="6.90726">
        <ele>213.2</ele>
        <time>2014-03-08T12:44:27Z</time>
      </trkpt>
      <trkpt lat="43.61848" lon="6.90728">
        <ele>213.6</ele>
        <time>2014-03-08T12:44:28Z</time>
      </trkpt>
      <trkpt lat="43.61846" lon="6.90728">
        <ele>214</ele>
        <time>2014-03-08T12:44:29Z</time>
      </trkpt>
      <trkpt lat="43.61844" lon="6.90729">
        <ele>214.4</ele>
        <time>2014-03-08T12:44:30Z</time>
      </trkpt>
      <trkpt lat="43.61842" lon="6.90729">
        <ele>214.8</ele>
        <time>2014-03-08T12:44:31Z</time>
      </trkpt>
      <trkpt lat="43.61839" lon="6.90729">
        <ele>214.8</ele>
        <time>2014-03-08T12:44:33Z</time>
      </trkpt>
      <trkpt lat="43.61835" lon="6.90729">
        <ele>215.2</ele>
        <time>2014-03-08T12:44:36Z</time>
      </trkpt>
      <trkpt lat="43.61833" lon="6.90729">
        <ele>215.6</ele>
        <time>2014-03-08T12:44:37Z</time>
      </trkpt>
      <trkpt lat="43.61832" lon="6.90728">
        <ele>216</ele>
        <time>2014-03-08T12:44:38Z</time>
      </trkpt>
      <trkpt lat="43.6183" lon="6.90728">
        <ele>216.4</ele>
        <time>2014-03-08T12:44:39Z</time>
      </trkpt>
      <trkpt lat="43.61828" lon="6.90727">
        <ele>216.8</ele>
        <time>2014-03-08T12:44:40Z</time>
      </trkpt>
      <trkpt lat="43.61825" lon="6.90725">
        <ele>217.4</ele>
        <time>2014-03-08T12:44:42Z</time>
      </trkpt>
      <trkpt lat="43.61823" lon="6.90724">
        <ele>217.8</ele>
        <time>2014-03-08T12:44:43Z</time>
      </trkpt>
      <trkpt lat="43.61822" lon="6.90722">
        <ele>218.2</ele>
        <time>2014-03-08T12:44:44Z</time>
      </trkpt>
      <trkpt lat="43.61821" lon="6.90721">
        <ele>218.6</ele>
        <time>2014-03-08T12:44:45Z</time>
      </trkpt>
      <trkpt lat="43.61821" lon="6.90719">
        <ele>219.2</ele>
        <time>2014-03-08T12:44:46Z</time>
      </trkpt>
      <trkpt lat="43.61822" lon="6.90714">
        <ele>219.2</ele>
        <time>2014-03-08T12:44:48Z</time>
      </trkpt>
      <trkpt lat="43.61822" lon="6.90712">
        <ele>219.6</ele>
        <time>2014-03-08T12:44:49Z</time>
      </trkpt>
      <trkpt lat="43.61822" lon="6.90709">
        <ele>220</ele>
        <time>2014-03-08T12:44:50Z</time>
      </trkpt>
      <trkpt lat="43.61822" lon="6.90706">
        <ele>220.6</ele>
        <time>2014-03-08T12:44:51Z</time>
      </trkpt>
      <trkpt lat="43.61822" lon="6.90705">
        <ele>221</ele>
        <time>2014-03-08T12:44:52Z</time>
      </trkpt>
      <trkpt lat="43.61821" lon="6.90703">
        <ele>221.4</ele>
        <time>2014-03-08T12:44:53Z</time>
      </trkpt>
      <trkpt lat="43.61821" lon="6.907">
        <ele>221.4</ele>
        <time>2014-03-08T12:44:54Z</time>
      </trkpt>
      <trkpt lat="43.61822" lon="6.90693">
        <ele>221.4</ele>
        <time>2014-03-08T12:44:57Z</time>
      </trkpt>
      <trkpt lat="43.61823" lon="6.90689">
        <ele>221.4</ele>
        <time>2014-03-08T12:44:59Z</time>
      </trkpt>
      <trkpt lat="43.61824" lon="6.90687">
        <ele>221.8</ele>
        <time>2014-03-08T12:45:00Z</time>
      </trkpt>
      <trkpt lat="43.61824" lon="6.90684">
        <ele>222.2</ele>
        <time>2014-03-08T12:45:01Z</time>
      </trkpt>
      <trkpt lat="43.61825" lon="6.90681">
        <ele>222.6</ele>
        <time>2014-03-08T12:45:02Z</time>
      </trkpt>
      <trkpt lat="43.61825" lon="6.90678">
        <ele>223</ele>
        <time>2014-03-08T12:45:03Z</time>
      </trkpt>
      <trkpt lat="43.61826" lon="6.90676">
        <ele>223.6</ele>
        <time>2014-03-08T12:45:04Z</time>
      </trkpt>
      <trkpt lat="43.61826" lon="6.90673">
        <ele>223.6</ele>
        <time>2014-03-08T12:45:05Z</time>
      </trkpt>
      <trkpt lat="43.61826" lon="6.90671">
        <ele>224</ele>
        <time>2014-03-08T12:45:06Z</time>
      </trkpt>
      <trkpt lat="43.61826" lon="6.90669">
        <ele>224.4</ele>
        <time>2014-03-08T12:45:07Z</time>
      </trkpt>
      <trkpt lat="43.61826" lon="6.90666">
        <ele>224.8</ele>
        <time>2014-03-08T12:45:08Z</time>
      </trkpt>
      <trkpt lat="43.61827" lon="6.90663">
        <ele>225.2</ele>
        <time>2014-03-08T12:45:09Z</time>
      </trkpt>
      <trkpt lat="43.61827" lon="6.90661">
        <ele>225.6</ele>
        <time>2014-03-08T12:45:10Z</time>
      </trkpt>
      <trkpt lat="43.61828" lon="6.90652">
        <ele>225.6</ele>
        <time>2014-03-08T12:45:13Z</time>
      </trkpt>
      <trkpt lat="43.61829" lon="6.90646">
        <ele>225.6</ele>
        <time>2014-03-08T12:45:15Z</time>
      </trkpt>
      <trkpt lat="43.61829" lon="6.9064">
        <ele>226.2</ele>
        <time>2014-03-08T12:45:17Z</time>
      </trkpt>
      <trkpt lat="43.61829" lon="6.90637">
        <ele>226.6</ele>
        <time>2014-03-08T12:45:18Z</time>
      </trkpt>
      <trkpt lat="43.61829" lon="6.90634">
        <ele>227</ele>
        <time>2014-03-08T12:45:19Z</time>
      </trkpt>
      <trkpt lat="43.61829" lon="6.90632">
        <ele>227.4</ele>
        <time>2014-03-08T12:45:20Z</time>
      </trkpt>
      <trkpt lat="43.61829" lon="6.9063">
        <ele>227.8</ele>
        <time>2014-03-08T12:45:21Z</time>
      </trkpt>
      <trkpt lat="43.61831" lon="6.90625">
        <ele>228.2</ele>
        <time>2014-03-08T12:45:24Z</time>
      </trkpt>
      <trkpt lat="43.61831" lon="6.90623">
        <ele>228.8</ele>
        <time>2014-03-08T12:45:25Z</time>
      </trkpt>
      <trkpt lat="43.61831" lon="6.9062">
        <ele>229.2</ele>
        <time>2014-03-08T12:45:26Z</time>
      </trkpt>
      <trkpt lat="43.61831" lon="6.90617">
        <ele>229.6</ele>
        <time>2014-03-08T12:45:27Z</time>
      </trkpt>
      <trkpt lat="43.61831" lon="6.90614">
        <ele>230</ele>
        <time>2014-03-08T12:45:28Z</time>
      </trkpt>
      <trkpt lat="43.6183" lon="6.90604">
        <ele>230.4</ele>
        <time>2014-03-08T12:45:32Z</time>
      </trkpt>
      <trkpt lat="43.61831" lon="6.90601">
        <ele>230.8</ele>
        <time>2014-03-08T12:45:33Z</time>
      </trkpt>
      <trkpt lat="43.61831" lon="6.90599">
        <ele>231.2</ele>
        <time>2014-03-08T12:45:34Z</time>
      </trkpt>
      <trkpt lat="43.61831" lon="6.90596">
        <ele>231.6</ele>
        <time>2014-03-08T12:45:35Z</time>
      </trkpt>
      <trkpt lat="43.61832" lon="6.90594">
        <ele>232</ele>
        <time>2014-03-08T12:45:36Z</time>
      </trkpt>
      <trkpt lat="43.61833" lon="6.90584">
        <ele>232</ele>
        <time>2014-03-08T12:45:40Z</time>
      </trkpt>
      <trkpt lat="43.61835" lon="6.9057">
        <ele>232.4</ele>
        <time>2014-03-08T12:45:45Z</time>
      </trkpt>
      <trkpt lat="43.61835" lon="6.90566">
        <ele>232.8</ele>
        <time>2014-03-08T12:45:46Z</time>
      </trkpt>
      <trkpt lat="43.61835" lon="6.90563">
        <ele>233.2</ele>
        <time>2014-03-08T12:45:47Z</time>
      </trkpt>
      <trkpt lat="43.61836" lon="6.9056">
        <ele>233.6</ele>
        <time>2014-03-08T12:45:48Z</time>
      </trkpt>
      <trkpt lat="43.61837" lon="6.90557">
        <ele>234</ele>
        <time>2014-03-08T12:45:49Z</time>
      </trkpt>
      <trkpt lat="43.61842" lon="6.90542">
        <ele>234</ele>
        <time>2014-03-08T12:45:54Z</time>
      </trkpt>
      <trkpt lat="43.61849" lon="6.90523">
        <ele>234</ele>
        <time>2014-03-08T12:46:00Z</time>
      </trkpt>
      <trkpt lat="43.61852" lon="6.90509">
        <ele>234.6</ele>
        <time>2014-03-08T12:46:04Z</time>
      </trkpt>
      <trkpt lat="43.61853" lon="6.90506">
        <ele>235</ele>
        <time>2014-03-08T12:46:05Z</time>
      </trkpt>
      <trkpt lat="43.61854" lon="6.90503">
        <ele>235.4</ele>
        <time>2014-03-08T12:46:06Z</time>
      </trkpt>
      <trkpt lat="43.61854" lon="6.905">
        <ele>235.8</ele>
        <time>2014-03-08T12:46:07Z</time>
      </trkpt>
      <trkpt lat="43.61854" lon="6.90497">
        <ele>236.2</ele>
        <time>2014-03-08T12:46:08Z</time>
      </trkpt>
      <trkpt lat="43.61854" lon="6.90491">
        <ele>236.6</ele>
        <time>2014-03-08T12:46:10Z</time>
      </trkpt>
      <trkpt lat="43.61854" lon="6.90488">
        <ele>237</ele>
        <time>2014-03-08T12:46:11Z</time>
      </trkpt>
      <trkpt lat="43.61854" lon="6.90485">
        <ele>237.4</ele>
        <time>2014-03-08T12:46:12Z</time>
      </trkpt>
      <trkpt lat="43.61854" lon="6.90482">
        <ele>237.8</ele>
        <time>2014-03-08T12:46:13Z</time>
      </trkpt>
      <trkpt lat="43.61853" lon="6.90479">
        <ele>238.2</ele>
        <time>2014-03-08T12:46:14Z</time>
      </trkpt>
      <trkpt lat="43.61852" lon="6.90467">
        <ele>238.2</ele>
        <time>2014-03-08T12:46:18Z</time>
      </trkpt>
      <trkpt lat="43.61853" lon="6.90461">
        <ele>238.8</ele>
        <time>2014-03-08T12:46:20Z</time>
      </trkpt>
      <trkpt lat="43.61854" lon="6.90458">
        <ele>239.2</ele>
        <time>2014-03-08T12:46:21Z</time>
      </trkpt>
      <trkpt lat="43.61855" lon="6.90456">
        <ele>239.6</ele>
        <time>2014-03-08T12:46:22Z</time>
      </trkpt>
      <trkpt lat="43.61856" lon="6.90453">
        <ele>240</ele>
        <time>2014-03-08T12:46:23Z</time>
      </trkpt>
      <trkpt lat="43.61857" lon="6.90451">
        <ele>240.6</ele>
        <time>2014-03-08T12:46:24Z</time>
      </trkpt>
      <trkpt lat="43.6186" lon="6.90448">
        <ele>241</ele>
        <time>2014-03-08T12:46:26Z</time>
      </trkpt>
      <trkpt lat="43.61862" lon="6.90446">
        <ele>241.4</ele>
        <time>2014-03-08T12:46:27Z</time>
      </trkpt>
      <trkpt lat="43.61864" lon="6.90445">
        <ele>241.8</ele>
        <time>2014-03-08T12:46:28Z</time>
      </trkpt>
      <trkpt lat="43.61867" lon="6.90444">
        <ele>242.2</ele>
        <time>2014-03-08T12:46:29Z</time>
      </trkpt>
      <trkpt lat="43.61869" lon="6.90444">
        <ele>242.6</ele>
        <time>2014-03-08T12:46:30Z</time>
      </trkpt>
      <trkpt lat="43.61878" lon="6.90441">
        <ele>242.6</ele>
        <time>2014-03-08T12:46:35Z</time>
      </trkpt>
      <trkpt lat="43.61888" lon="6.9043">
        <ele>242.6</ele>
        <time>2014-03-08T12:46:40Z</time>
      </trkpt>
      <trkpt lat="43.6189" lon="6.90425">
        <ele>243</ele>
        <time>2014-03-08T12:46:42Z</time>
      </trkpt>
      <trkpt lat="43.61891" lon="6.90423">
        <ele>243.4</ele>
        <time>2014-03-08T12:46:43Z</time>
      </trkpt>
      <trkpt lat="43.61892" lon="6.90421">
        <ele>243.8</ele>
        <time>2014-03-08T12:46:44Z</time>
      </trkpt>
      <trkpt lat="43.61893" lon="6.9042">
        <ele>244.2</ele>
        <time>2014-03-08T12:46:45Z</time>
      </trkpt>
      <trkpt lat="43.61895" lon="6.90419">
        <ele>244.6</ele>
        <time>2014-03-08T12:46:46Z</time>
      </trkpt>
      <trkpt lat="43.61901" lon="6.90415">
        <ele>245.2</ele>
        <time>2014-03-08T12:46:49Z</time>
      </trkpt>
      <trkpt lat="43.61902" lon="6.90413">
        <ele>245.8</ele>
        <time>2014-03-08T12:46:50Z</time>
      </trkpt>
      <trkpt lat="43.61904" lon="6.90412">
        <ele>246.2</ele>
        <time>2014-03-08T12:46:51Z</time>
      </trkpt>
      <trkpt lat="43.61905" lon="6.9041">
        <ele>246.8</ele>
        <time>2014-03-08T12:46:52Z</time>
      </trkpt>
      <trkpt lat="43.61906" lon="6.90409">
        <ele>247.2</ele>
        <time>2014-03-08T12:46:53Z</time>
      </trkpt>
      <trkpt lat="43.61909" lon="6.90405">
        <ele>247.2</ele>
        <time>2014-03-08T12:46:57Z</time>
      </trkpt>
      <trkpt lat="43.61909" lon="6.90405">
        <ele>247.2</ele>
        <time>2014-03-08T12:46:58Z</time>
      </trkpt>
      <trkpt lat="43.61908" lon="6.90404">
        <ele>247.2</ele>
        <time>2014-03-08T12:47:00Z</time>
      </trkpt>
      <trkpt lat="43.619" lon="6.90396">
        <ele>247.2</ele>
        <time>2014-03-08T12:47:06Z</time>
      </trkpt>
      <trkpt lat="43.61899" lon="6.90392">
        <ele>247.6</ele>
        <time>2014-03-08T12:47:10Z</time>
      </trkpt>
      <trkpt lat="43.61899" lon="6.90392">
        <ele>248.2</ele>
        <time>2014-03-08T12:47:11Z</time>
      </trkpt>
      <trkpt lat="43.61898" lon="6.90392">
        <ele>248.6</ele>
        <time>2014-03-08T12:47:12Z</time>
      </trkpt>
      <trkpt lat="43.61898" lon="6.90392">
        <ele>249</ele>
        <time>2014-03-08T12:47:13Z</time>
      </trkpt>
      <trkpt lat="43.61898" lon="6.90392">
        <ele>249.4</ele>
        <time>2014-03-08T12:47:14Z</time>
      </trkpt>
      <trkpt lat="43.61896" lon="6.9039">
        <ele>249.4</ele>
        <time>2014-03-08T12:48:26Z</time>
      </trkpt>
      <trkpt lat="43.61894" lon="6.90387">
        <ele>249.4</ele>
        <time>2014-03-08T12:48:28Z</time>
      </trkpt>
      <trkpt lat="43.61889" lon="6.9038">
        <ele>249.4</ele>
        <time>2014-03-08T12:48:31Z</time>
      </trkpt>
      <trkpt lat="43.61885" lon="6.90375">
        <ele>249.8</ele>
        <time>2014-03-08T12:48:33Z</time>
      </trkpt>
      <trkpt lat="43.61883" lon="6.90373">
        <ele>250.2</ele>
        <time>2014-03-08T12:48:34Z</time>
      </trkpt>
      <trkpt lat="43.61881" lon="6.90371">
        <ele>250.6</ele>
        <time>2014-03-08T12:48:35Z</time>
      </trkpt>
      <trkpt lat="43.6188" lon="6.90369">
        <ele>251</ele>
        <time>2014-03-08T12:48:36Z</time>
      </trkpt>
      <trkpt lat="43.61878" lon="6.90367">
        <ele>251.6</ele>
        <time>2014-03-08T12:48:37Z</time>
      </trkpt>
      <trkpt lat="43.61869" lon="6.90354">
        <ele>252</ele>
        <time>2014-03-08T12:48:43Z</time>
      </trkpt>
      <trkpt lat="43.61868" lon="6.90352">
        <ele>252.4</ele>
        <time>2014-03-08T12:48:44Z</time>
      </trkpt>
      <trkpt lat="43.61866" lon="6.9035">
        <ele>253</ele>
        <time>2014-03-08T12:48:45Z</time>
      </trkpt>
      <trkpt lat="43.61865" lon="6.90348">
        <ele>253.4</ele>
        <time>2014-03-08T12:48:46Z</time>
      </trkpt>
      <trkpt lat="43.61864" lon="6.90346">
        <ele>253.8</ele>
        <time>2014-03-08T12:48:47Z</time>
      </trkpt>
      <trkpt lat="43.61858" lon="6.90338">
        <ele>254.2</ele>
        <time>2014-03-08T12:48:52Z</time>
      </trkpt>
      <trkpt lat="43.61856" lon="6.90336">
        <ele>254.6</ele>
        <time>2014-03-08T12:48:53Z</time>
      </trkpt>
      <trkpt lat="43.61855" lon="6.90335">
        <ele>255.2</ele>
        <time>2014-03-08T12:48:54Z</time>
      </trkpt>
      <trkpt lat="43.61853" lon="6.90333">
        <ele>255.6</ele>
        <time>2014-03-08T12:48:55Z</time>
      </trkpt>
      <trkpt lat="43.61852" lon="6.90331">
        <ele>256</ele>
        <time>2014-03-08T12:48:56Z</time>
      </trkpt>
      <trkpt lat="43.6185" lon="6.90328">
        <ele>256.4</ele>
        <time>2014-03-08T12:48:58Z</time>
      </trkpt>
      <trkpt lat="43.61848" lon="6.90326">
        <ele>257</ele>
        <time>2014-03-08T12:48:59Z</time>
      </trkpt>
      <trkpt lat="43.61847" lon="6.90325">
        <ele>257.4</ele>
        <time>2014-03-08T12:49:00Z</time>
      </trkpt>
      <trkpt lat="43.61846" lon="6.90323">
        <ele>258</ele>
        <time>2014-03-08T12:49:01Z</time>
      </trkpt>
      <trkpt lat="43.61844" lon="6.90321">
        <ele>258.4</ele>
        <time>2014-03-08T12:49:02Z</time>
      </trkpt>
      <trkpt lat="43.61843" lon="6.9032">
        <ele>259</ele>
        <time>2014-03-08T12:49:03Z</time>
      </trkpt>
      <trkpt lat="43.61842" lon="6.90318">
        <ele>259.4</ele>
        <time>2014-03-08T12:49:04Z</time>
      </trkpt>
      <trkpt lat="43.61841" lon="6.90317">
        <ele>260</ele>
        <time>2014-03-08T12:49:05Z</time>
      </trkpt>
      <trkpt lat="43.6184" lon="6.90316">
        <ele>260.4</ele>
        <time>2014-03-08T12:49:06Z</time>
      </trkpt>
      <trkpt lat="43.61836" lon="6.90313">
        <ele>261</ele>
        <time>2014-03-08T12:49:09Z</time>
      </trkpt>
      <trkpt lat="43.61835" lon="6.90312">
        <ele>261.4</ele>
        <time>2014-03-08T12:49:10Z</time>
      </trkpt>
      <trkpt lat="43.61834" lon="6.90311">
        <ele>261.8</ele>
        <time>2014-03-08T12:49:11Z</time>
      </trkpt>
      <trkpt lat="43.61833" lon="6.9031">
        <ele>262.2</ele>
        <time>2014-03-08T12:49:12Z</time>
      </trkpt>
      <trkpt lat="43.61832" lon="6.90309">
        <ele>262.6</ele>
        <time>2014-03-08T12:49:13Z</time>
      </trkpt>
      <trkpt lat="43.61829" lon="6.90307">
        <ele>262.6</ele>
        <time>2014-03-08T12:49:15Z</time>
      </trkpt>
      <trkpt lat="43.61828" lon="6.90306">
        <ele>263.2</ele>
        <time>2014-03-08T12:49:16Z</time>
      </trkpt>
      <trkpt lat="43.61826" lon="6.90305">
        <ele>263.6</ele>
        <time>2014-03-08T12:49:17Z</time>
      </trkpt>
      <trkpt lat="43.61825" lon="6.90305">
        <ele>264</ele>
        <time>2014-03-08T12:49:18Z</time>
      </trkpt>
      <trkpt lat="43.61823" lon="6.90304">
        <ele>264.4</ele>
        <time>2014-03-08T12:49:19Z</time>
      </trkpt>
      <trkpt lat="43.61822" lon="6.90303">
        <ele>264.8</ele>
        <time>2014-03-08T12:49:20Z</time>
      </trkpt>
      <trkpt lat="43.61817" lon="6.90298">
        <ele>265.2</ele>
        <time>2014-03-08T12:49:24Z</time>
      </trkpt>
      <trkpt lat="43.61815" lon="6.90297">
        <ele>265.6</ele>
        <time>2014-03-08T12:49:25Z</time>
      </trkpt>
      <trkpt lat="43.61814" lon="6.90296">
        <ele>266</ele>
        <time>2014-03-08T12:49:26Z</time>
      </trkpt>
      <trkpt lat="43.61812" lon="6.90294">
        <ele>266.4</ele>
        <time>2014-03-08T12:49:27Z</time>
      </trkpt>
      <trkpt lat="43.61811" lon="6.90293">
        <ele>267</ele>
        <time>2014-03-08T12:49:28Z</time>
      </trkpt>
      <trkpt lat="43.61803" lon="6.90288">
        <ele>267.4</ele>
        <time>2014-03-08T12:49:33Z</time>
      </trkpt>
      <trkpt lat="43.61801" lon="6.90287">
        <ele>267.8</ele>
        <time>2014-03-08T12:49:34Z</time>
      </trkpt>
      <trkpt lat="43.618" lon="6.90285">
        <ele>268.2</ele>
        <time>2014-03-08T12:49:35Z</time>
      </trkpt>
      <trkpt lat="43.61798" lon="6.90284">
        <ele>268.6</ele>
        <time>2014-03-08T12:49:36Z</time>
      </trkpt>
      <trkpt lat="43.61797" lon="6.90283">
        <ele>269.2</ele>
        <time>2014-03-08T12:49:37Z</time>
      </trkpt>
      <trkpt lat="43.61792" lon="6.90275">
        <ele>269.2</ele>
        <time>2014-03-08T12:49:41Z</time>
      </trkpt>
      <trkpt lat="43.61786" lon="6.90267">
        <ele>269.6</ele>
        <time>2014-03-08T12:49:45Z</time>
      </trkpt>
      <trkpt lat="43.61785" lon="6.90266">
        <ele>270</ele>
        <time>2014-03-08T12:49:46Z</time>
      </trkpt>
      <trkpt lat="43.61784" lon="6.90264">
        <ele>270.4</ele>
        <time>2014-03-08T12:49:47Z</time>
      </trkpt>
      <trkpt lat="43.61782" lon="6.90263">
        <ele>270.8</ele>
        <time>2014-03-08T12:49:48Z</time>
      </trkpt>
      <trkpt lat="43.6178" lon="6.90261">
        <ele>271.2</ele>
        <time>2014-03-08T12:49:49Z</time>
      </trkpt>
      <trkpt lat="43.61771" lon="6.9025">
        <ele>271.2</ele>
        <time>2014-03-08T12:49:55Z</time>
      </trkpt>
      <trkpt lat="43.61768" lon="6.90247">
        <ele>271.8</ele>
        <time>2014-03-08T12:49:57Z</time>
      </trkpt>
      <trkpt lat="43.61767" lon="6.90245">
        <ele>272.2</ele>
        <time>2014-03-08T12:49:58Z</time>
      </trkpt>
      <trkpt lat="43.61766" lon="6.90244">
        <ele>272.6</ele>
        <time>2014-03-08T12:49:59Z</time>
      </trkpt>
      <trkpt lat="43.61764" lon="6.90242">
        <ele>273</ele>
        <time>2014-03-08T12:50:00Z</time>
      </trkpt>
      <trkpt lat="43.61763" lon="6.9024">
        <ele>273.4</ele>
        <time>2014-03-08T12:50:01Z</time>
      </trkpt>
      <trkpt lat="43.61748" lon="6.90224">
        <ele>273.4</ele>
        <time>2014-03-08T12:50:10Z</time>
      </trkpt>
      <trkpt lat="43.61737" lon="6.90215">
        <ele>273.8</ele>
        <time>2014-03-08T12:50:16Z</time>
      </trkpt>
      <trkpt lat="43.61735" lon="6.90214">
        <ele>274.4</ele>
        <time>2014-03-08T12:50:17Z</time>
      </trkpt>
      <trkpt lat="43.61733" lon="6.90213">
        <ele>274.8</ele>
        <time>2014-03-08T12:50:18Z</time>
      </trkpt>
      <trkpt lat="43.61731" lon="6.90212">
        <ele>275.2</ele>
        <time>2014-03-08T12:50:19Z</time>
      </trkpt>
      <trkpt lat="43.61729" lon="6.90212">
        <ele>275.6</ele>
        <time>2014-03-08T12:50:20Z</time>
      </trkpt>
      <trkpt lat="43.6172" lon="6.9021">
        <ele>276</ele>
        <time>2014-03-08T12:50:25Z</time>
      </trkpt>
      <trkpt lat="43.61718" lon="6.9021">
        <ele>276.6</ele>
        <time>2014-03-08T12:50:26Z</time>
      </trkpt>
      <trkpt lat="43.61716" lon="6.9021">
        <ele>277</ele>
        <time>2014-03-08T12:50:27Z</time>
      </trkpt>
      <trkpt lat="43.61714" lon="6.9021">
        <ele>277.4</ele>
        <time>2014-03-08T12:50:28Z</time>
      </trkpt>
      <trkpt lat="43.61712" lon="6.90211">
        <ele>277.8</ele>
        <time>2014-03-08T12:50:29Z</time>
      </trkpt>
      <trkpt lat="43.61705" lon="6.90213">
        <ele>277.8</ele>
        <time>2014-03-08T12:50:32Z</time>
      </trkpt>
      <trkpt lat="43.61693" lon="6.90213">
        <ele>278.2</ele>
        <time>2014-03-08T12:50:38Z</time>
      </trkpt>
      <trkpt lat="43.61691" lon="6.90213">
        <ele>278.6</ele>
        <time>2014-03-08T12:50:39Z</time>
      </trkpt>
      <trkpt lat="43.6169" lon="6.90213">
        <ele>279</ele>
        <time>2014-03-08T12:50:40Z</time>
      </trkpt>
      <trkpt lat="43.61688" lon="6.90212">
        <ele>279.4</ele>
        <time>2014-03-08T12:50:41Z</time>
      </trkpt>
      <trkpt lat="43.61684" lon="6.90213">
        <ele>279.8</ele>
        <time>2014-03-08T12:50:43Z</time>
      </trkpt>
      <trkpt lat="43.6168" lon="6.90213">
        <ele>279.8</ele>
        <time>2014-03-08T12:50:45Z</time>
      </trkpt>
      <trkpt lat="43.61677" lon="6.90214">
        <ele>280.2</ele>
        <time>2014-03-08T12:50:47Z</time>
      </trkpt>
      <trkpt lat="43.61676" lon="6.90214">
        <ele>280.8</ele>
        <time>2014-03-08T12:50:49Z</time>
      </trkpt>
      <trkpt lat="43.61675" lon="6.90214">
        <ele>281.2</ele>
        <time>2014-03-08T12:50:51Z</time>
      </trkpt>
      <trkpt lat="43.61675" lon="6.90213">
        <ele>281.2</ele>
        <time>2014-03-08T12:50:54Z</time>
      </trkpt>
      <trkpt lat="43.61674" lon="6.90213">
        <ele>281.6</ele>
        <time>2014-03-08T12:50:55Z</time>
      </trkpt>
      <trkpt lat="43.61674" lon="6.90215">
        <ele>282</ele>
        <time>2014-03-08T12:50:57Z</time>
      </trkpt>
      <trkpt lat="43.61675" lon="6.90216">
        <ele>282</ele>
        <time>2014-03-08T12:50:59Z</time>
      </trkpt>
      <trkpt lat="43.61683" lon="6.90213">
        <ele>282</ele>
        <time>2014-03-08T12:51:03Z</time>
      </trkpt>
      <trkpt lat="43.61692" lon="6.90212">
        <ele>281.6</ele>
        <time>2014-03-08T12:51:05Z</time>
      </trkpt>
      <trkpt lat="43.61697" lon="6.90212">
        <ele>281.2</ele>
        <time>2014-03-08T12:51:06Z</time>
      </trkpt>
      <trkpt lat="43.61703" lon="6.90212">
        <ele>280.6</ele>
        <time>2014-03-08T12:51:07Z</time>
      </trkpt>
      <trkpt lat="43.61708" lon="6.90211">
        <ele>280.2</ele>
        <time>2014-03-08T12:51:08Z</time>
      </trkpt>
      <trkpt lat="43.61714" lon="6.90211">
        <ele>279.6</ele>
        <time>2014-03-08T12:51:09Z</time>
      </trkpt>
      <trkpt lat="43.61722" lon="6.90211">
        <ele>279</ele>
        <time>2014-03-08T12:51:10Z</time>
      </trkpt>
      <trkpt lat="43.61729" lon="6.9021">
        <ele>278.4</ele>
        <time>2014-03-08T12:51:11Z</time>
      </trkpt>
      <trkpt lat="43.61733" lon="6.90208">
        <ele>278</ele>
        <time>2014-03-08T12:51:12Z</time>
      </trkpt>
      <trkpt lat="43.61735" lon="6.90205">
        <ele>277.4</ele>
        <time>2014-03-08T12:51:13Z</time>
      </trkpt>
      <trkpt lat="43.61738" lon="6.90185">
        <ele>277.4</ele>
        <time>2014-03-08T12:51:17Z</time>
      </trkpt>
      <trkpt lat="43.61735" lon="6.90177">
        <ele>277.4</ele>
        <time>2014-03-08T12:51:20Z</time>
      </trkpt>
      <trkpt lat="43.61729" lon="6.90175">
        <ele>277.4</ele>
        <time>2014-03-08T12:51:22Z</time>
      </trkpt>
      <trkpt lat="43.6172" lon="6.90171">
        <ele>277</ele>
        <time>2014-03-08T12:51:25Z</time>
      </trkpt>
      <trkpt lat="43.61717" lon="6.9017">
        <ele>276.4</ele>
        <time>2014-03-08T12:51:26Z</time>
      </trkpt>
      <trkpt lat="43.61714" lon="6.90168">
        <ele>276</ele>
        <time>2014-03-08T12:51:27Z</time>
      </trkpt>
      <trkpt lat="43.6171" lon="6.90167">
        <ele>275.6</ele>
        <time>2014-03-08T12:51:28Z</time>
      </trkpt>
      <trkpt lat="43.61707" lon="6.90165">
        <ele>275</ele>
        <time>2014-03-08T12:51:29Z</time>
      </trkpt>
      <trkpt lat="43.61705" lon="6.90162">
        <ele>274.6</ele>
        <time>2014-03-08T12:51:30Z</time>
      </trkpt>
      <trkpt lat="43.61702" lon="6.90159">
        <ele>274</ele>
        <time>2014-03-08T12:51:31Z</time>
      </trkpt>
      <trkpt lat="43.617" lon="6.90156">
        <ele>273.4</ele>
        <time>2014-03-08T12:51:32Z</time>
      </trkpt>
      <trkpt lat="43.61697" lon="6.90153">
        <ele>272.8</ele>
        <time>2014-03-08T12:51:33Z</time>
      </trkpt>
      <trkpt lat="43.61693" lon="6.9015">
        <ele>272</ele>
        <time>2014-03-08T12:51:34Z</time>
      </trkpt>
      <trkpt lat="43.6169" lon="6.90147">
        <ele>271.4</ele>
        <time>2014-03-08T12:51:35Z</time>
      </trkpt>
      <trkpt lat="43.61688" lon="6.90145">
        <ele>270.8</ele>
        <time>2014-03-08T12:51:36Z</time>
      </trkpt>
      <trkpt lat="43.61687" lon="6.90143">
        <ele>270.2</ele>
        <time>2014-03-08T12:51:37Z</time>
      </trkpt>
      <trkpt lat="43.61686" lon="6.90142">
        <ele>269.6</ele>
        <time>2014-03-08T12:51:38Z</time>
      </trkpt>
      <trkpt lat="43.61684" lon="6.90141">
        <ele>269.2</ele>
        <time>2014-03-08T12:51:39Z</time>
      </trkpt>
      <trkpt lat="43.61683" lon="6.90139">
        <ele>268.6</ele>
        <time>2014-03-08T12:51:40Z</time>
      </trkpt>
      <trkpt lat="43.61681" lon="6.90136">
        <ele>268.6</ele>
        <time>2014-03-08T12:51:41Z</time>
      </trkpt>
      <trkpt lat="43.61679" lon="6.90132">
        <ele>268.2</ele>
        <time>2014-03-08T12:51:42Z</time>
      </trkpt>
      <trkpt lat="43.61676" lon="6.90128">
        <ele>267.8</ele>
        <time>2014-03-08T12:51:43Z</time>
      </trkpt>
      <trkpt lat="43.61673" lon="6.90123">
        <ele>267.4</ele>
        <time>2014-03-08T12:51:44Z</time>
      </trkpt>
      <trkpt lat="43.6167" lon="6.90118">
        <ele>267</ele>
        <time>2014-03-08T12:51:45Z</time>
      </trkpt>
      <trkpt lat="43.61667" lon="6.90114">
        <ele>266.2</ele>
        <time>2014-03-08T12:51:46Z</time>
      </trkpt>
      <trkpt lat="43.61663" lon="6.90109">
        <ele>265.6</ele>
        <time>2014-03-08T12:51:47Z</time>
      </trkpt>
      <trkpt lat="43.6166" lon="6.90103">
        <ele>264.8</ele>
        <time>2014-03-08T12:51:48Z</time>
      </trkpt>
      <trkpt lat="43.61656" lon="6.90098">
        <ele>264</ele>
        <time>2014-03-08T12:51:49Z</time>
      </trkpt>
      <trkpt lat="43.61652" lon="6.90094">
        <ele>263</ele>
        <time>2014-03-08T12:51:50Z</time>
      </trkpt>
      <trkpt lat="43.61647" lon="6.90091">
        <ele>262.2</ele>
        <time>2014-03-08T12:51:51Z</time>
      </trkpt>
      <trkpt lat="43.61642" lon="6.90087">
        <ele>261.2</ele>
        <time>2014-03-08T12:51:52Z</time>
      </trkpt>
      <trkpt lat="43.61637" lon="6.90084">
        <ele>260.4</ele>
        <time>2014-03-08T12:51:53Z</time>
      </trkpt>
      <trkpt lat="43.61633" lon="6.90081">
        <ele>259.4</ele>
        <time>2014-03-08T12:51:54Z</time>
      </trkpt>
      <trkpt lat="43.6163" lon="6.90078">
        <ele>258.6</ele>
        <time>2014-03-08T12:51:55Z</time>
      </trkpt>
      <trkpt lat="43.61627" lon="6.90075">
        <ele>257.6</ele>
        <time>2014-03-08T12:51:56Z</time>
      </trkpt>
      <trkpt lat="43.61625" lon="6.90072">
        <ele>256.8</ele>
        <time>2014-03-08T12:51:57Z</time>
      </trkpt>
      <trkpt lat="43.61622" lon="6.90069">
        <ele>256.2</ele>
        <time>2014-03-08T12:51:58Z</time>
      </trkpt>
      <trkpt lat="43.61618" lon="6.90066">
        <ele>255.8</ele>
        <time>2014-03-08T12:51:59Z</time>
      </trkpt>
      <trkpt lat="43.61614" lon="6.90063">
        <ele>255.2</ele>
        <time>2014-03-08T12:52:00Z</time>
      </trkpt>
      <trkpt lat="43.6161" lon="6.9006">
        <ele>254.6</ele>
        <time>2014-03-08T12:52:01Z</time>
      </trkpt>
      <trkpt lat="43.61605" lon="6.90058">
        <ele>254</ele>
        <time>2014-03-08T12:52:02Z</time>
      </trkpt>
      <trkpt lat="43.616" lon="6.90055">
        <ele>253.4</ele>
        <time>2014-03-08T12:52:03Z</time>
      </trkpt>
      <trkpt lat="43.61595" lon="6.90053">
        <ele>252.8</ele>
        <time>2014-03-08T12:52:04Z</time>
      </trkpt>
      <trkpt lat="43.6159" lon="6.90051">
        <ele>252.2</ele>
        <time>2014-03-08T12:52:05Z</time>
      </trkpt>
      <trkpt lat="43.61576" lon="6.90051">
        <ele>252.2</ele>
        <time>2014-03-08T12:52:08Z</time>
      </trkpt>
      <trkpt lat="43.61571" lon="6.90052">
        <ele>252.2</ele>
        <time>2014-03-08T12:52:12Z</time>
      </trkpt>
      <trkpt lat="43.61563" lon="6.90051">
        <ele>252.2</ele>
        <time>2014-03-08T12:52:42Z</time>
      </trkpt>
      <trkpt lat="43.61555" lon="6.90052">
        <ele>252.2</ele>
        <time>2014-03-08T12:52:44Z</time>
      </trkpt>
      <trkpt lat="43.6155" lon="6.90053">
        <ele>252.2</ele>
        <time>2014-03-08T12:52:45Z</time>
      </trkpt>
      <trkpt lat="43.61546" lon="6.90054">
        <ele>251.8</ele>
        <time>2014-03-08T12:52:46Z</time>
      </trkpt>
      <trkpt lat="43.61543" lon="6.90055">
        <ele>251.4</ele>
        <time>2014-03-08T12:52:47Z</time>
      </trkpt>
      <trkpt lat="43.6154" lon="6.90057">
        <ele>251</ele>
        <time>2014-03-08T12:52:48Z</time>
      </trkpt>
      <trkpt lat="43.61537" lon="6.90059">
        <ele>250.6</ele>
        <time>2014-03-08T12:52:49Z</time>
      </trkpt>
      <trkpt lat="43.61535" lon="6.90061">
        <ele>250</ele>
        <time>2014-03-08T12:52:50Z</time>
      </trkpt>
      <trkpt lat="43.61532" lon="6.90062">
        <ele>249.6</ele>
        <time>2014-03-08T12:52:51Z</time>
      </trkpt>
      <trkpt lat="43.61528" lon="6.90062">
        <ele>249</ele>
        <time>2014-03-08T12:52:52Z</time>
      </trkpt>
      <trkpt lat="43.61524" lon="6.90062">
        <ele>248.4</ele>
        <time>2014-03-08T12:52:53Z</time>
      </trkpt>
      <trkpt lat="43.6152" lon="6.90061">
        <ele>247.6</ele>
        <time>2014-03-08T12:52:54Z</time>
      </trkpt>
      <trkpt lat="43.61516" lon="6.90061">
        <ele>247</ele>
        <time>2014-03-08T12:52:55Z</time>
      </trkpt>
      <trkpt lat="43.61512" lon="6.90062">
        <ele>246.2</ele>
        <time>2014-03-08T12:52:56Z</time>
      </trkpt>
      <trkpt lat="43.61508" lon="6.90062">
        <ele>245.4</ele>
        <time>2014-03-08T12:52:57Z</time>
      </trkpt>
      <trkpt lat="43.61504" lon="6.90063">
        <ele>244.8</ele>
        <time>2014-03-08T12:52:58Z</time>
      </trkpt>
      <trkpt lat="43.61499" lon="6.90064">
        <ele>244</ele>
        <time>2014-03-08T12:52:59Z</time>
      </trkpt>
      <trkpt lat="43.61494" lon="6.90064">
        <ele>243.2</ele>
        <time>2014-03-08T12:53:00Z</time>
      </trkpt>
      <trkpt lat="43.61489" lon="6.90064">
        <ele>242.4</ele>
        <time>2014-03-08T12:53:01Z</time>
      </trkpt>
      <trkpt lat="43.61487" lon="6.90064">
        <ele>241.6</ele>
        <time>2014-03-08T12:53:02Z</time>
      </trkpt>
      <trkpt lat="43.61487" lon="6.90064">
        <ele>240.8</ele>
        <time>2014-03-08T12:53:03Z</time>
      </trkpt>
      <trkpt lat="43.61487" lon="6.90064">
        <ele>240.8</ele>
        <time>2014-03-08T12:53:04Z</time>
      </trkpt>
      <trkpt lat="43.61491" lon="6.90062">
        <ele>240.8</ele>
        <time>2014-03-08T12:53:19Z</time>
      </trkpt>
      <trkpt lat="43.61494" lon="6.90065">
        <ele>240.8</ele>
        <time>2014-03-08T12:53:31Z</time>
      </trkpt>
      <trkpt lat="43.61496" lon="6.90065">
        <ele>240.8</ele>
        <time>2014-03-08T12:53:40Z</time>
      </trkpt>
      <trkpt lat="43.61496" lon="6.90064">
        <ele>240.8</ele>
        <time>2014-03-08T12:53:48Z</time>
      </trkpt>
      <trkpt lat="43.61498" lon="6.90064">
        <ele>240.8</ele>
        <time>2014-03-08T12:53:50Z</time>
      </trkpt>
      <trkpt lat="43.61505" lon="6.90063">
        <ele>240.8</ele>
        <time>2014-03-08T12:53:54Z</time>
      </trkpt>
      <trkpt lat="43.61506" lon="6.90063">
        <ele>241.2</ele>
        <time>2014-03-08T12:53:55Z</time>
      </trkpt>
      <trkpt lat="43.61507" lon="6.90062">
        <ele>241.6</ele>
        <time>2014-03-08T12:53:56Z</time>
      </trkpt>
      <trkpt lat="43.61508" lon="6.90062">
        <ele>242</ele>
        <time>2014-03-08T12:53:57Z</time>
      </trkpt>
      <trkpt lat="43.61509" lon="6.90061">
        <ele>242.4</ele>
        <time>2014-03-08T12:53:58Z</time>
      </trkpt>
      <trkpt lat="43.6151" lon="6.90061">
        <ele>242.8</ele>
        <time>2014-03-08T12:53:59Z</time>
      </trkpt>
      <trkpt lat="43.61512" lon="6.90061">
        <ele>242.8</ele>
        <time>2014-03-08T12:54:00Z</time>
      </trkpt>
      <trkpt lat="43.61513" lon="6.9006">
        <ele>242.8</ele>
        <time>2014-03-08T12:54:01Z</time>
      </trkpt>
      <trkpt lat="43.61517" lon="6.90059">
        <ele>242.8</ele>
        <time>2014-03-08T12:54:06Z</time>
      </trkpt>
      <trkpt lat="43.61517" lon="6.90059">
        <ele>243.4</ele>
        <time>2014-03-08T12:54:07Z</time>
      </trkpt>
      <trkpt lat="43.61517" lon="6.90059">
        <ele>243.8</ele>
        <time>2014-03-08T12:54:08Z</time>
      </trkpt>
      <trkpt lat="43.61518" lon="6.90058">
        <ele>244.2</ele>
        <time>2014-03-08T12:54:09Z</time>
      </trkpt>
      <trkpt lat="43.6152" lon="6.90058">
        <ele>244.6</ele>
        <time>2014-03-08T12:54:10Z</time>
      </trkpt>
      <trkpt lat="43.61521" lon="6.90058">
        <ele>245.2</ele>
        <time>2014-03-08T12:54:11Z</time>
      </trkpt>
      <trkpt lat="43.61522" lon="6.90058">
        <ele>245.2</ele>
        <time>2014-03-08T12:54:12Z</time>
      </trkpt>
      <trkpt lat="43.61523" lon="6.90056">
        <ele>245.2</ele>
        <time>2014-03-08T12:54:16Z</time>
      </trkpt>
      <trkpt lat="43.61525" lon="6.90056">
        <ele>245.2</ele>
        <time>2014-03-08T12:54:18Z</time>
      </trkpt>
      <trkpt lat="43.61528" lon="6.90057">
        <ele>245.2</ele>
        <time>2014-03-08T12:54:20Z</time>
      </trkpt>
      <trkpt lat="43.61531" lon="6.90057">
        <ele>245.6</ele>
        <time>2014-03-08T12:54:24Z</time>
      </trkpt>
      <trkpt lat="43.61532" lon="6.90057">
        <ele>246</ele>
        <time>2014-03-08T12:54:25Z</time>
      </trkpt>
      <trkpt lat="43.61534" lon="6.90057">
        <ele>246.4</ele>
        <time>2014-03-08T12:54:26Z</time>
      </trkpt>
      <trkpt lat="43.61535" lon="6.90056">
        <ele>247</ele>
        <time>2014-03-08T12:54:27Z</time>
      </trkpt>
      <trkpt lat="43.61536" lon="6.90056">
        <ele>247.4</ele>
        <time>2014-03-08T12:54:28Z</time>
      </trkpt>
      <trkpt lat="43.61538" lon="6.90055">
        <ele>247.8</ele>
        <time>2014-03-08T12:54:30Z</time>
      </trkpt>
      <trkpt lat="43.61539" lon="6.90055">
        <ele>248.4</ele>
        <time>2014-03-08T12:54:31Z</time>
      </trkpt>
      <trkpt lat="43.6154" lon="6.90055">
        <ele>248.8</ele>
        <time>2014-03-08T12:54:32Z</time>
      </trkpt>
      <trkpt lat="43.61541" lon="6.90055">
        <ele>249.2</ele>
        <time>2014-03-08T12:54:33Z</time>
      </trkpt>
      <trkpt lat="43.61542" lon="6.90054">
        <ele>249.6</ele>
        <time>2014-03-08T12:54:34Z</time>
      </trkpt>
      <trkpt lat="43.61543" lon="6.90054">
        <ele>249.6</ele>
        <time>2014-03-08T12:54:35Z</time>
      </trkpt>
      <trkpt lat="43.61546" lon="6.90051">
        <ele>249.6</ele>
        <time>2014-03-08T12:54:39Z</time>
      </trkpt>
      <trkpt lat="43.61547" lon="6.9005">
        <ele>249.6</ele>
        <time>2014-03-08T12:54:40Z</time>
      </trkpt>
      <trkpt lat="43.6155" lon="6.90049">
        <ele>250.2</ele>
        <time>2014-03-08T12:54:43Z</time>
      </trkpt>
      <trkpt lat="43.61551" lon="6.9005">
        <ele>250.6</ele>
        <time>2014-03-08T12:54:44Z</time>
      </trkpt>
      <trkpt lat="43.61551" lon="6.9005">
        <ele>251</ele>
        <time>2014-03-08T12:54:45Z</time>
      </trkpt>
      <trkpt lat="43.61552" lon="6.9005">
        <ele>251.4</ele>
        <time>2014-03-08T12:54:46Z</time>
      </trkpt>
      <trkpt lat="43.61553" lon="6.9005">
        <ele>251.8</ele>
        <time>2014-03-08T12:54:47Z</time>
      </trkpt>
      <trkpt lat="43.61555" lon="6.90049">
        <ele>251.8</ele>
        <time>2014-03-08T12:54:49Z</time>
      </trkpt>
      <trkpt lat="43.61557" lon="6.90048">
        <ele>251.8</ele>
        <time>2014-03-08T12:54:52Z</time>
      </trkpt>
      <trkpt lat="43.61562" lon="6.90049">
        <ele>251.8</ele>
        <time>2014-03-08T12:54:56Z</time>
      </trkpt>
      <trkpt lat="43.61564" lon="6.90049">
        <ele>252.2</ele>
        <time>2014-03-08T12:54:58Z</time>
      </trkpt>
      <trkpt lat="43.61565" lon="6.90049">
        <ele>252.8</ele>
        <time>2014-03-08T12:54:59Z</time>
      </trkpt>
      <trkpt lat="43.61568" lon="6.9005">
        <ele>253.2</ele>
        <time>2014-03-08T12:55:01Z</time>
      </trkpt>
      <trkpt lat="43.61569" lon="6.9005">
        <ele>253.2</ele>
        <time>2014-03-08T12:55:02Z</time>
      </trkpt>
      <trkpt lat="43.6157" lon="6.90048">
        <ele>253.6</ele>
        <time>2014-03-08T12:55:05Z</time>
      </trkpt>
      <trkpt lat="43.6157" lon="6.90048">
        <ele>254</ele>
        <time>2014-03-08T12:55:06Z</time>
      </trkpt>
      <trkpt lat="43.61567" lon="6.90045">
        <ele>254</ele>
        <time>2014-03-08T12:55:13Z</time>
      </trkpt>
      <trkpt lat="43.61567" lon="6.90044">
        <ele>254</ele>
        <time>2014-03-08T12:55:14Z</time>
      </trkpt>
      <trkpt lat="43.61567" lon="6.90038">
        <ele>253.6</ele>
        <time>2014-03-08T12:55:19Z</time>
      </trkpt>
      <trkpt lat="43.61568" lon="6.90036">
        <ele>253.2</ele>
        <time>2014-03-08T12:55:20Z</time>
      </trkpt>
      <trkpt lat="43.61569" lon="6.90034">
        <ele>252.8</ele>
        <time>2014-03-08T12:55:21Z</time>
      </trkpt>
      <trkpt lat="43.6157" lon="6.90032">
        <ele>252.4</ele>
        <time>2014-03-08T12:55:22Z</time>
      </trkpt>
      <trkpt lat="43.61572" lon="6.9003">
        <ele>251.8</ele>
        <time>2014-03-08T12:55:23Z</time>
      </trkpt>
      <trkpt lat="43.61573" lon="6.9003">
        <ele>251.2</ele>
        <time>2014-03-08T12:55:24Z</time>
      </trkpt>
      <trkpt lat="43.61574" lon="6.90028">
        <ele>250.6</ele>
        <time>2014-03-08T12:55:25Z</time>
      </trkpt>
      <trkpt lat="43.61574" lon="6.90027">
        <ele>250.2</ele>
        <time>2014-03-08T12:55:26Z</time>
      </trkpt>
      <trkpt lat="43.61573" lon="6.90026">
        <ele>249.6</ele>
        <time>2014-03-08T12:55:27Z</time>
      </trkpt>
      <trkpt lat="43.6157" lon="6.90023">
        <ele>249</ele>
        <time>2014-03-08T12:55:29Z</time>
      </trkpt>
      <trkpt lat="43.61567" lon="6.90022">
        <ele>248.6</ele>
        <time>2014-03-08T12:55:30Z</time>
      </trkpt>
      <trkpt lat="43.61565" lon="6.9002">
        <ele>248.2</ele>
        <time>2014-03-08T12:55:31Z</time>
      </trkpt>
      <trkpt lat="43.61564" lon="6.90018">
        <ele>247.8</ele>
        <time>2014-03-08T12:55:32Z</time>
      </trkpt>
      <trkpt lat="43.61562" lon="6.90017">
        <ele>247.2</ele>
        <time>2014-03-08T12:55:33Z</time>
      </trkpt>
      <trkpt lat="43.6156" lon="6.90016">
        <ele>246.8</ele>
        <time>2014-03-08T12:55:34Z</time>
      </trkpt>
      <trkpt lat="43.61558" lon="6.90017">
        <ele>246.2</ele>
        <time>2014-03-08T12:55:35Z</time>
      </trkpt>
      <trkpt lat="43.61555" lon="6.90018">
        <ele>245.6</ele>
        <time>2014-03-08T12:55:36Z</time>
      </trkpt>
      <trkpt lat="43.61552" lon="6.90019">
        <ele>244.8</ele>
        <time>2014-03-08T12:55:37Z</time>
      </trkpt>
      <trkpt lat="43.61549" lon="6.9002">
        <ele>244.2</ele>
        <time>2014-03-08T12:55:38Z</time>
      </trkpt>
      <trkpt lat="43.61546" lon="6.90021">
        <ele>243.4</ele>
        <time>2014-03-08T12:55:39Z</time>
      </trkpt>
      <trkpt lat="43.61544" lon="6.90022">
        <ele>242.8</ele>
        <time>2014-03-08T12:55:40Z</time>
      </trkpt>
      <trkpt lat="43.61541" lon="6.90023">
        <ele>242.8</ele>
        <time>2014-03-08T12:55:41Z</time>
      </trkpt>
      <trkpt lat="43.61539" lon="6.90024">
        <ele>242.8</ele>
        <time>2014-03-08T12:55:42Z</time>
      </trkpt>
      <trkpt lat="43.61533" lon="6.90025">
        <ele>242.4</ele>
        <time>2014-03-08T12:55:45Z</time>
      </trkpt>
      <trkpt lat="43.61532" lon="6.90025">
        <ele>242</ele>
        <time>2014-03-08T12:55:46Z</time>
      </trkpt>
      <trkpt lat="43.6153" lon="6.90024">
        <ele>241.6</ele>
        <time>2014-03-08T12:55:47Z</time>
      </trkpt>
      <trkpt lat="43.6153" lon="6.90023">
        <ele>241.2</ele>
        <time>2014-03-08T12:55:48Z</time>
      </trkpt>
      <trkpt lat="43.61529" lon="6.90021">
        <ele>240.6</ele>
        <time>2014-03-08T12:55:49Z</time>
      </trkpt>
      <trkpt lat="43.61526" lon="6.90016">
        <ele>240.2</ele>
        <time>2014-03-08T12:55:51Z</time>
      </trkpt>
      <trkpt lat="43.61526" lon="6.90014">
        <ele>239.8</ele>
        <time>2014-03-08T12:55:52Z</time>
      </trkpt>
      <trkpt lat="43.61526" lon="6.90013">
        <ele>239.4</ele>
        <time>2014-03-08T12:55:53Z</time>
      </trkpt>
      <trkpt lat="43.61527" lon="6.90011">
        <ele>238.6</ele>
        <time>2014-03-08T12:55:54Z</time>
      </trkpt>
      <trkpt lat="43.61528" lon="6.90008">
        <ele>238</ele>
        <time>2014-03-08T12:55:55Z</time>
      </trkpt>
      <trkpt lat="43.6153" lon="6.90005">
        <ele>237.4</ele>
        <time>2014-03-08T12:55:56Z</time>
      </trkpt>
      <trkpt lat="43.61532" lon="6.90001">
        <ele>236.6</ele>
        <time>2014-03-08T12:55:57Z</time>
      </trkpt>
      <trkpt lat="43.61534" lon="6.89998">
        <ele>236</ele>
        <time>2014-03-08T12:55:58Z</time>
      </trkpt>
      <trkpt lat="43.61536" lon="6.89996">
        <ele>235.2</ele>
        <time>2014-03-08T12:55:59Z</time>
      </trkpt>
      <trkpt lat="43.61538" lon="6.89995">
        <ele>234.6</ele>
        <time>2014-03-08T12:56:00Z</time>
      </trkpt>
      <trkpt lat="43.61539" lon="6.89994">
        <ele>233.8</ele>
        <time>2014-03-08T12:56:01Z</time>
      </trkpt>
      <trkpt lat="43.61547" lon="6.89987">
        <ele>233.8</ele>
        <time>2014-03-08T12:56:05Z</time>
      </trkpt>
      <trkpt lat="43.61559" lon="6.89988">
        <ele>233.8</ele>
        <time>2014-03-08T12:56:09Z</time>
      </trkpt>
      <trkpt lat="43.61568" lon="6.89985">
        <ele>233.8</ele>
        <time>2014-03-08T12:56:12Z</time>
      </trkpt>
      <trkpt lat="43.61575" lon="6.89975">
        <ele>233.8</ele>
        <time>2014-03-08T12:56:16Z</time>
      </trkpt>
      <trkpt lat="43.61586" lon="6.89968">
        <ele>233.4</ele>
        <time>2014-03-08T12:56:20Z</time>
      </trkpt>
      <trkpt lat="43.61588" lon="6.89966">
        <ele>232.8</ele>
        <time>2014-03-08T12:56:21Z</time>
      </trkpt>
      <trkpt lat="43.61589" lon="6.89964">
        <ele>232.4</ele>
        <time>2014-03-08T12:56:22Z</time>
      </trkpt>
      <trkpt lat="43.61591" lon="6.89963">
        <ele>231.6</ele>
        <time>2014-03-08T12:56:23Z</time>
      </trkpt>
      <trkpt lat="43.61594" lon="6.89964">
        <ele>231</ele>
        <time>2014-03-08T12:56:24Z</time>
      </trkpt>
      <trkpt lat="43.61597" lon="6.89965">
        <ele>230.2</ele>
        <time>2014-03-08T12:56:25Z</time>
      </trkpt>
      <trkpt lat="43.61601" lon="6.89966">
        <ele>229.4</ele>
        <time>2014-03-08T12:56:26Z</time>
      </trkpt>
      <trkpt lat="43.61604" lon="6.89966">
        <ele>228.8</ele>
        <time>2014-03-08T12:56:27Z</time>
      </trkpt>
      <trkpt lat="43.61607" lon="6.89967">
        <ele>228.4</ele>
        <time>2014-03-08T12:56:28Z</time>
      </trkpt>
      <trkpt lat="43.61608" lon="6.89968">
        <ele>227.8</ele>
        <time>2014-03-08T12:56:29Z</time>
      </trkpt>
      <trkpt lat="43.6161" lon="6.89969">
        <ele>227.2</ele>
        <time>2014-03-08T12:56:30Z</time>
      </trkpt>
      <trkpt lat="43.61612" lon="6.8997">
        <ele>226.6</ele>
        <time>2014-03-08T12:56:31Z</time>
      </trkpt>
      <trkpt lat="43.61622" lon="6.89965">
        <ele>226</ele>
        <time>2014-03-08T12:56:35Z</time>
      </trkpt>
      <trkpt lat="43.61624" lon="6.89963">
        <ele>225.4</ele>
        <time>2014-03-08T12:56:36Z</time>
      </trkpt>
      <trkpt lat="43.61626" lon="6.89962">
        <ele>224.4</ele>
        <time>2014-03-08T12:56:37Z</time>
      </trkpt>
      <trkpt lat="43.6163" lon="6.89961">
        <ele>223.6</ele>
        <time>2014-03-08T12:56:38Z</time>
      </trkpt>
      <trkpt lat="43.61633" lon="6.8996">
        <ele>222.6</ele>
        <time>2014-03-08T12:56:39Z</time>
      </trkpt>
      <trkpt lat="43.61636" lon="6.89961">
        <ele>221.8</ele>
        <time>2014-03-08T12:56:40Z</time>
      </trkpt>
      <trkpt lat="43.61638" lon="6.89962">
        <ele>221</ele>
        <time>2014-03-08T12:56:41Z</time>
      </trkpt>
      <trkpt lat="43.6164" lon="6.89964">
        <ele>220</ele>
        <time>2014-03-08T12:56:42Z</time>
      </trkpt>
      <trkpt lat="43.61643" lon="6.89966">
        <ele>219.2</ele>
        <time>2014-03-08T12:56:43Z</time>
      </trkpt>
      <trkpt lat="43.61645" lon="6.89967">
        <ele>218.6</ele>
        <time>2014-03-08T12:56:44Z</time>
      </trkpt>
      <trkpt lat="43.61648" lon="6.89966">
        <ele>218</ele>
        <time>2014-03-08T12:56:45Z</time>
      </trkpt>
      <trkpt lat="43.61651" lon="6.89966">
        <ele>217.4</ele>
        <time>2014-03-08T12:56:46Z</time>
      </trkpt>
      <trkpt lat="43.61655" lon="6.89965">
        <ele>216.8</ele>
        <time>2014-03-08T12:56:47Z</time>
      </trkpt>
      <trkpt lat="43.61658" lon="6.89964">
        <ele>216.2</ele>
        <time>2014-03-08T12:56:48Z</time>
      </trkpt>
      <trkpt lat="43.61668" lon="6.89959">
        <ele>216.2</ele>
        <time>2014-03-08T12:56:51Z</time>
      </trkpt>
      <trkpt lat="43.61669" lon="6.89955">
        <ele>215.8</ele>
        <time>2014-03-08T12:56:52Z</time>
      </trkpt>
      <trkpt lat="43.61668" lon="6.89952">
        <ele>215.4</ele>
        <time>2014-03-08T12:56:53Z</time>
      </trkpt>
      <trkpt lat="43.61669" lon="6.89948">
        <ele>214.8</ele>
        <time>2014-03-08T12:56:54Z</time>
      </trkpt>
      <trkpt lat="43.6167" lon="6.89945">
        <ele>214.2</ele>
        <time>2014-03-08T12:56:55Z</time>
      </trkpt>
      <trkpt lat="43.61672" lon="6.89944">
        <ele>213.4</ele>
        <time>2014-03-08T12:56:56Z</time>
      </trkpt>
      <trkpt lat="43.61675" lon="6.89943">
        <ele>212.6</ele>
        <time>2014-03-08T12:56:57Z</time>
      </trkpt>
      <trkpt lat="43.61679" lon="6.89943">
        <ele>211.6</ele>
        <time>2014-03-08T12:56:58Z</time>
      </trkpt>
      <trkpt lat="43.61682" lon="6.89943">
        <ele>210.8</ele>
        <time>2014-03-08T12:56:59Z</time>
      </trkpt>
      <trkpt lat="43.61685" lon="6.89942">
        <ele>210</ele>
        <time>2014-03-08T12:57:00Z</time>
      </trkpt>
      <trkpt lat="43.61686" lon="6.89942">
        <ele>209.2</ele>
        <time>2014-03-08T12:57:01Z</time>
      </trkpt>
      <trkpt lat="43.61688" lon="6.89942">
        <ele>208.4</ele>
        <time>2014-03-08T12:57:02Z</time>
      </trkpt>
      <trkpt lat="43.61689" lon="6.89942">
        <ele>207.6</ele>
        <time>2014-03-08T12:57:03Z</time>
      </trkpt>
      <trkpt lat="43.6169" lon="6.89941">
        <ele>207</ele>
        <time>2014-03-08T12:57:04Z</time>
      </trkpt>
      <trkpt lat="43.6169" lon="6.8994">
        <ele>206.2</ele>
        <time>2014-03-08T12:57:05Z</time>
      </trkpt>
      <trkpt lat="43.61689" lon="6.89937">
        <ele>205.4</ele>
        <time>2014-03-08T12:57:06Z</time>
      </trkpt>
      <trkpt lat="43.61687" lon="6.89935">
        <ele>204.8</ele>
        <time>2014-03-08T12:57:07Z</time>
      </trkpt>
      <trkpt lat="43.61686" lon="6.89933">
        <ele>204.2</ele>
        <time>2014-03-08T12:57:08Z</time>
      </trkpt>
      <trkpt lat="43.61685" lon="6.89931">
        <ele>203.8</ele>
        <time>2014-03-08T12:57:09Z</time>
      </trkpt>
      <trkpt lat="43.61685" lon="6.8993">
        <ele>203.4</ele>
        <time>2014-03-08T12:57:10Z</time>
      </trkpt>
      <trkpt lat="43.61686" lon="6.8993">
        <ele>202.8</ele>
        <time>2014-03-08T12:57:11Z</time>
      </trkpt>
      <trkpt lat="43.61688" lon="6.89929">
        <ele>202.4</ele>
        <time>2014-03-08T12:57:12Z</time>
      </trkpt>
      <trkpt lat="43.6169" lon="6.89929">
        <ele>201.8</ele>
        <time>2014-03-08T12:57:13Z</time>
      </trkpt>
      <trkpt lat="43.61691" lon="6.89927">
        <ele>201.4</ele>
        <time>2014-03-08T12:57:14Z</time>
      </trkpt>
      <trkpt lat="43.61692" lon="6.89926">
        <ele>200.8</ele>
        <time>2014-03-08T12:57:15Z</time>
      </trkpt>
      <trkpt lat="43.61692" lon="6.89924">
        <ele>200.4</ele>
        <time>2014-03-08T12:57:16Z</time>
      </trkpt>
      <trkpt lat="43.6169" lon="6.8992">
        <ele>199.8</ele>
        <time>2014-03-08T12:57:18Z</time>
      </trkpt>
      <trkpt lat="43.61689" lon="6.89919">
        <ele>199.2</ele>
        <time>2014-03-08T12:57:19Z</time>
      </trkpt>
      <trkpt lat="43.61687" lon="6.89917">
        <ele>198.6</ele>
        <time>2014-03-08T12:57:20Z</time>
      </trkpt>
      <trkpt lat="43.61685" lon="6.89915">
        <ele>198</ele>
        <time>2014-03-08T12:57:21Z</time>
      </trkpt>
      <trkpt lat="43.61683" lon="6.89913">
        <ele>197.4</ele>
        <time>2014-03-08T12:57:22Z</time>
      </trkpt>
      <trkpt lat="43.61682" lon="6.89911">
        <ele>196.8</ele>
        <time>2014-03-08T12:57:23Z</time>
      </trkpt>
      <trkpt lat="43.61681" lon="6.89908">
        <ele>196.2</ele>
        <time>2014-03-08T12:57:24Z</time>
      </trkpt>
      <trkpt lat="43.6168" lon="6.89906">
        <ele>195.4</ele>
        <time>2014-03-08T12:57:25Z</time>
      </trkpt>
      <trkpt lat="43.61679" lon="6.89903">
        <ele>194.8</ele>
        <time>2014-03-08T12:57:26Z</time>
      </trkpt>
      <trkpt lat="43.61678" lon="6.899">
        <ele>194.2</ele>
        <time>2014-03-08T12:57:27Z</time>
      </trkpt>
      <trkpt lat="43.61677" lon="6.89898">
        <ele>193.4</ele>
        <time>2014-03-08T12:57:28Z</time>
      </trkpt>
      <trkpt lat="43.61675" lon="6.89896">
        <ele>192.6</ele>
        <time>2014-03-08T12:57:29Z</time>
      </trkpt>
      <trkpt lat="43.61674" lon="6.89894">
        <ele>191.6</ele>
        <time>2014-03-08T12:57:30Z</time>
      </trkpt>
      <trkpt lat="43.61672" lon="6.89892">
        <ele>190.8</ele>
        <time>2014-03-08T12:57:31Z</time>
      </trkpt>
      <trkpt lat="43.61671" lon="6.89891">
        <ele>189.8</ele>
        <time>2014-03-08T12:57:32Z</time>
      </trkpt>
      <trkpt lat="43.61669" lon="6.89891">
        <ele>189</ele>
        <time>2014-03-08T12:57:33Z</time>
      </trkpt>
      <trkpt lat="43.61668" lon="6.8989">
        <ele>188</ele>
        <time>2014-03-08T12:57:34Z</time>
      </trkpt>
      <trkpt lat="43.61667" lon="6.89889">
        <ele>188</ele>
        <time>2014-03-08T12:57:38Z</time>
      </trkpt>
      <trkpt lat="43.61666" lon="6.89889">
        <ele>187.4</ele>
        <time>2014-03-08T12:57:39Z</time>
      </trkpt>
      <trkpt lat="43.61667" lon="6.89888">
        <ele>187</ele>
        <time>2014-03-08T12:57:40Z</time>
      </trkpt>
      <trkpt lat="43.61667" lon="6.89887">
        <ele>186.4</ele>
        <time>2014-03-08T12:57:41Z</time>
      </trkpt>
      <trkpt lat="43.61667" lon="6.89886">
        <ele>185.8</ele>
        <time>2014-03-08T12:57:42Z</time>
      </trkpt>
      <trkpt lat="43.61668" lon="6.89885">
        <ele>185.4</ele>
        <time>2014-03-08T12:57:43Z</time>
      </trkpt>
      <trkpt lat="43.6167" lon="6.89884">
        <ele>185.4</ele>
        <time>2014-03-08T12:57:46Z</time>
      </trkpt>
      <trkpt lat="43.61674" lon="6.89886">
        <ele>185.4</ele>
        <time>2014-03-08T12:57:49Z</time>
      </trkpt>
      <trkpt lat="43.61684" lon="6.89889">
        <ele>185.4</ele>
        <time>2014-03-08T12:57:55Z</time>
      </trkpt>
      <trkpt lat="43.61697" lon="6.89892">
        <ele>185.4</ele>
        <time>2014-03-08T12:58:00Z</time>
      </trkpt>
      <trkpt lat="43.61703" lon="6.89895">
        <ele>185.4</ele>
        <time>2014-03-08T12:58:02Z</time>
      </trkpt>
      <trkpt lat="43.61709" lon="6.89896">
        <ele>185.4</ele>
        <time>2014-03-08T12:58:04Z</time>
      </trkpt>
      <trkpt lat="43.61716" lon="6.89892">
        <ele>185.4</ele>
        <time>2014-03-08T12:58:06Z</time>
      </trkpt>
      <trkpt lat="43.61719" lon="6.89888">
        <ele>184.8</ele>
        <time>2014-03-08T12:58:07Z</time>
      </trkpt>
      <trkpt lat="43.61723" lon="6.89883">
        <ele>184.4</ele>
        <time>2014-03-08T12:58:08Z</time>
      </trkpt>
      <trkpt lat="43.61727" lon="6.89878">
        <ele>184</ele>
        <time>2014-03-08T12:58:09Z</time>
      </trkpt>
      <trkpt lat="43.61731" lon="6.89872">
        <ele>183.4</ele>
        <time>2014-03-08T12:58:10Z</time>
      </trkpt>
      <trkpt lat="43.61739" lon="6.89857">
        <ele>183</ele>
        <time>2014-03-08T12:58:11Z</time>
      </trkpt>
      <trkpt lat="43.61743" lon="6.89849">
        <ele>182.4</ele>
        <time>2014-03-08T12:58:12Z</time>
      </trkpt>
      <trkpt lat="43.61744" lon="6.89841">
        <ele>182</ele>
        <time>2014-03-08T12:58:13Z</time>
      </trkpt>
      <trkpt lat="43.61745" lon="6.89834">
        <ele>181.4</ele>
        <time>2014-03-08T12:58:14Z</time>
      </trkpt>
      <trkpt lat="43.61744" lon="6.89827">
        <ele>180.8</ele>
        <time>2014-03-08T12:58:15Z</time>
      </trkpt>
      <trkpt lat="43.61744" lon="6.8982">
        <ele>180.4</ele>
        <time>2014-03-08T12:58:16Z</time>
      </trkpt>
      <trkpt lat="43.61744" lon="6.89813">
        <ele>180.4</ele>
        <time>2014-03-08T12:58:17Z</time>
      </trkpt>
      <trkpt lat="43.61744" lon="6.89808">
        <ele>180.4</ele>
        <time>2014-03-08T12:58:18Z</time>
      </trkpt>
      <trkpt lat="43.61746" lon="6.89785">
        <ele>180.4</ele>
        <time>2014-03-08T12:58:23Z</time>
      </trkpt>
      <trkpt lat="43.61749" lon="6.89775">
        <ele>180.4</ele>
        <time>2014-03-08T12:58:26Z</time>
      </trkpt>
      <trkpt lat="43.61754" lon="6.89769">
        <ele>180.4</ele>
        <time>2014-03-08T12:58:28Z</time>
      </trkpt>
      <trkpt lat="43.61764" lon="6.89765">
        <ele>180.8</ele>
        <time>2014-03-08T12:58:31Z</time>
      </trkpt>
      <trkpt lat="43.61767" lon="6.89765">
        <ele>181.2</ele>
        <time>2014-03-08T12:58:32Z</time>
      </trkpt>
      <trkpt lat="43.6177" lon="6.89765">
        <ele>181.8</ele>
        <time>2014-03-08T12:58:33Z</time>
      </trkpt>
      <trkpt lat="43.61772" lon="6.89765">
        <ele>182.2</ele>
        <time>2014-03-08T12:58:34Z</time>
      </trkpt>
      <trkpt lat="43.61774" lon="6.89764">
        <ele>182.8</ele>
        <time>2014-03-08T12:58:35Z</time>
      </trkpt>
      <trkpt lat="43.61777" lon="6.89764">
        <ele>182.8</ele>
        <time>2014-03-08T12:58:36Z</time>
      </trkpt>
      <trkpt lat="43.61803" lon="6.89761">
        <ele>182.8</ele>
        <time>2014-03-08T12:58:44Z</time>
      </trkpt>
      <trkpt lat="43.61821" lon="6.89762">
        <ele>182.8</ele>
        <time>2014-03-08T12:58:49Z</time>
      </trkpt>
      <trkpt lat="43.6183" lon="6.89758">
        <ele>182.8</ele>
        <time>2014-03-08T12:58:52Z</time>
      </trkpt>
      <trkpt lat="43.61834" lon="6.89757">
        <ele>182.8</ele>
        <time>2014-03-08T12:58:53Z</time>
      </trkpt>
      <trkpt lat="43.61839" lon="6.89753">
        <ele>183.2</ele>
        <time>2014-03-08T12:58:55Z</time>
      </trkpt>
      <trkpt lat="43.61841" lon="6.89751">
        <ele>183.6</ele>
        <time>2014-03-08T12:58:56Z</time>
      </trkpt>
      <trkpt lat="43.61844" lon="6.89749">
        <ele>184</ele>
        <time>2014-03-08T12:58:57Z</time>
      </trkpt>
      <trkpt lat="43.61846" lon="6.89746">
        <ele>184.4</ele>
        <time>2014-03-08T12:58:58Z</time>
      </trkpt>
      <trkpt lat="43.61849" lon="6.89744">
        <ele>184.8</ele>
        <time>2014-03-08T12:58:59Z</time>
      </trkpt>
      <trkpt lat="43.61855" lon="6.89741">
        <ele>184.8</ele>
        <time>2014-03-08T12:59:01Z</time>
      </trkpt>
      <trkpt lat="43.61873" lon="6.89741">
        <ele>184.8</ele>
        <time>2014-03-08T12:59:07Z</time>
      </trkpt>
      <trkpt lat="43.61881" lon="6.89741">
        <ele>185.2</ele>
        <time>2014-03-08T12:59:10Z</time>
      </trkpt>
      <trkpt lat="43.61883" lon="6.89741">
        <ele>185.8</ele>
        <time>2014-03-08T12:59:11Z</time>
      </trkpt>
      <trkpt lat="43.61886" lon="6.8974">
        <ele>186.2</ele>
        <time>2014-03-08T12:59:12Z</time>
      </trkpt>
      <trkpt lat="43.61889" lon="6.8974">
        <ele>186.6</ele>
        <time>2014-03-08T12:59:13Z</time>
      </trkpt>
      <trkpt lat="43.61892" lon="6.89739">
        <ele>187</ele>
        <time>2014-03-08T12:59:14Z</time>
      </trkpt>
      <trkpt lat="43.61905" lon="6.89735">
        <ele>187</ele>
        <time>2014-03-08T12:59:18Z</time>
      </trkpt>
      <trkpt lat="43.61915" lon="6.89732">
        <ele>187</ele>
        <time>2014-03-08T12:59:22Z</time>
      </trkpt>
      <trkpt lat="43.61933" lon="6.89729">
        <ele>187.4</ele>
        <time>2014-03-08T12:59:27Z</time>
      </trkpt>
      <trkpt lat="43.61937" lon="6.89728">
        <ele>188</ele>
        <time>2014-03-08T12:59:28Z</time>
      </trkpt>
      <trkpt lat="43.6194" lon="6.89727">
        <ele>188.4</ele>
        <time>2014-03-08T12:59:29Z</time>
      </trkpt>
      <trkpt lat="43.61943" lon="6.89727">
        <ele>188.8</ele>
        <time>2014-03-08T12:59:30Z</time>
      </trkpt>
      <trkpt lat="43.61947" lon="6.89726">
        <ele>189.2</ele>
        <time>2014-03-08T12:59:31Z</time>
      </trkpt>
      <trkpt lat="43.61954" lon="6.89723">
        <ele>189.2</ele>
        <time>2014-03-08T12:59:33Z</time>
      </trkpt>
      <trkpt lat="43.61971" lon="6.89712">
        <ele>189.2</ele>
        <time>2014-03-08T12:59:38Z</time>
      </trkpt>
      <trkpt lat="43.61983" lon="6.89703">
        <ele>189.6</ele>
        <time>2014-03-08T12:59:42Z</time>
      </trkpt>
      <trkpt lat="43.61987" lon="6.89701">
        <ele>190.2</ele>
        <time>2014-03-08T12:59:43Z</time>
      </trkpt>
      <trkpt lat="43.6199" lon="6.897">
        <ele>190.6</ele>
        <time>2014-03-08T12:59:44Z</time>
      </trkpt>
      <trkpt lat="43.61994" lon="6.89698">
        <ele>191</ele>
        <time>2014-03-08T12:59:45Z</time>
      </trkpt>
      <trkpt lat="43.61997" lon="6.89697">
        <ele>191.4</ele>
        <time>2014-03-08T12:59:46Z</time>
      </trkpt>
      <trkpt lat="43.62006" lon="6.89691">
        <ele>191.4</ele>
        <time>2014-03-08T12:59:49Z</time>
      </trkpt>
      <trkpt lat="43.62015" lon="6.89687">
        <ele>191.8</ele>
        <time>2014-03-08T12:59:52Z</time>
      </trkpt>
      <trkpt lat="43.62018" lon="6.89686">
        <ele>192.2</ele>
        <time>2014-03-08T12:59:53Z</time>
      </trkpt>
      <trkpt lat="43.62021" lon="6.89684">
        <ele>192.8</ele>
        <time>2014-03-08T12:59:54Z</time>
      </trkpt>
      <trkpt lat="43.62024" lon="6.89683">
        <ele>193.2</ele>
        <time>2014-03-08T12:59:55Z</time>
      </trkpt>
      <trkpt lat="43.62027" lon="6.89682">
        <ele>193.6</ele>
        <time>2014-03-08T12:59:56Z</time>
      </trkpt>
      <trkpt lat="43.62042" lon="6.89678">
        <ele>194</ele>
        <time>2014-03-08T13:00:01Z</time>
      </trkpt>
      <trkpt lat="43.62045" lon="6.89678">
        <ele>194.4</ele>
        <time>2014-03-08T13:00:02Z</time>
      </trkpt>
      <trkpt lat="43.62049" lon="6.89677">
        <ele>194.8</ele>
        <time>2014-03-08T13:00:03Z</time>
      </trkpt>
      <trkpt lat="43.62052" lon="6.89677">
        <ele>195.2</ele>
        <time>2014-03-08T13:00:04Z</time>
      </trkpt>
      <trkpt lat="43.62055" lon="6.89677">
        <ele>195.6</ele>
        <time>2014-03-08T13:00:05Z</time>
      </trkpt>
      <trkpt lat="43.62066" lon="6.89676">
        <ele>195.6</ele>
        <time>2014-03-08T13:00:08Z</time>
      </trkpt>
      <trkpt lat="43.62085" lon="6.8967">
        <ele>195.6</ele>
        <time>2014-03-08T13:00:15Z</time>
      </trkpt>
      <trkpt lat="43.62102" lon="6.89666">
        <ele>196.2</ele>
        <time>2014-03-08T13:00:20Z</time>
      </trkpt>
      <trkpt lat="43.62105" lon="6.89666">
        <ele>196.6</ele>
        <time>2014-03-08T13:00:21Z</time>
      </trkpt>
      <trkpt lat="43.62108" lon="6.89665">
        <ele>197</ele>
        <time>2014-03-08T13:00:22Z</time>
      </trkpt>
      <trkpt lat="43.62111" lon="6.89665">
        <ele>197.4</ele>
        <time>2014-03-08T13:00:23Z</time>
      </trkpt>
      <trkpt lat="43.62114" lon="6.89664">
        <ele>197.8</ele>
        <time>2014-03-08T13:00:24Z</time>
      </trkpt>
      <trkpt lat="43.6212" lon="6.89663">
        <ele>197.8</ele>
        <time>2014-03-08T13:00:26Z</time>
      </trkpt>
      <trkpt lat="43.62135" lon="6.89659">
        <ele>197.8</ele>
        <time>2014-03-08T13:00:31Z</time>
      </trkpt>
      <trkpt lat="43.62159" lon="6.89659">
        <ele>198.2</ele>
        <time>2014-03-08T13:00:38Z</time>
      </trkpt>
      <trkpt lat="43.62162" lon="6.89659">
        <ele>198.6</ele>
        <time>2014-03-08T13:00:39Z</time>
      </trkpt>
      <trkpt lat="43.62165" lon="6.89659">
        <ele>199</ele>
        <time>2014-03-08T13:00:40Z</time>
      </trkpt>
      <trkpt lat="43.62169" lon="6.8966">
        <ele>199.4</ele>
        <time>2014-03-08T13:00:41Z</time>
      </trkpt>
      <trkpt lat="43.62172" lon="6.8966">
        <ele>199.8</ele>
        <time>2014-03-08T13:00:42Z</time>
      </trkpt>
      <trkpt lat="43.62184" lon="6.89659">
        <ele>199.8</ele>
        <time>2014-03-08T13:00:46Z</time>
      </trkpt>
      <trkpt lat="43.622" lon="6.89652">
        <ele>199.8</ele>
        <time>2014-03-08T13:00:51Z</time>
      </trkpt>
      <trkpt lat="43.62212" lon="6.89632">
        <ele>199.8</ele>
        <time>2014-03-08T13:00:57Z</time>
      </trkpt>
      <trkpt lat="43.62221" lon="6.89619">
        <ele>199.8</ele>
        <time>2014-03-08T13:01:01Z</time>
      </trkpt>
      <trkpt lat="43.6223" lon="6.89608">
        <ele>200.2</ele>
        <time>2014-03-08T13:01:05Z</time>
      </trkpt>
      <trkpt lat="43.62232" lon="6.89606">
        <ele>200.6</ele>
        <time>2014-03-08T13:01:06Z</time>
      </trkpt>
      <trkpt lat="43.62233" lon="6.89603">
        <ele>201.2</ele>
        <time>2014-03-08T13:01:07Z</time>
      </trkpt>
      <trkpt lat="43.62236" lon="6.89601">
        <ele>201.6</ele>
        <time>2014-03-08T13:01:08Z</time>
      </trkpt>
      <trkpt lat="43.62238" lon="6.89598">
        <ele>202</ele>
        <time>2014-03-08T13:01:09Z</time>
      </trkpt>
      <trkpt lat="43.62244" lon="6.89592">
        <ele>202</ele>
        <time>2014-03-08T13:01:12Z</time>
      </trkpt>
      <trkpt lat="43.62246" lon="6.8959">
        <ele>202.4</ele>
        <time>2014-03-08T13:01:13Z</time>
      </trkpt>
      <trkpt lat="43.62248" lon="6.89588">
        <ele>202.8</ele>
        <time>2014-03-08T13:01:14Z</time>
      </trkpt>
      <trkpt lat="43.6225" lon="6.89585">
        <ele>203.2</ele>
        <time>2014-03-08T13:01:15Z</time>
      </trkpt>
      <trkpt lat="43.62252" lon="6.89582">
        <ele>203.6</ele>
        <time>2014-03-08T13:01:16Z</time>
      </trkpt>
      <trkpt lat="43.62254" lon="6.8958">
        <ele>204.2</ele>
        <time>2014-03-08T13:01:17Z</time>
      </trkpt>
      <trkpt lat="43.62256" lon="6.89577">
        <ele>204.2</ele>
        <time>2014-03-08T13:01:18Z</time>
      </trkpt>
      <trkpt lat="43.62262" lon="6.89569">
        <ele>204.2</ele>
        <time>2014-03-08T13:01:21Z</time>
      </trkpt>
      <trkpt lat="43.62266" lon="6.89564">
        <ele>204.2</ele>
        <time>2014-03-08T13:01:23Z</time>
      </trkpt>
      <trkpt lat="43.62266" lon="6.89561">
        <ele>204.6</ele>
        <time>2014-03-08T13:01:24Z</time>
      </trkpt>
      <trkpt lat="43.62267" lon="6.89558">
        <ele>205</ele>
        <time>2014-03-08T13:01:25Z</time>
      </trkpt>
      <trkpt lat="43.62268" lon="6.89555">
        <ele>205.4</ele>
        <time>2014-03-08T13:01:26Z</time>
      </trkpt>
      <trkpt lat="43.62269" lon="6.89551">
        <ele>205.8</ele>
        <time>2014-03-08T13:01:27Z</time>
      </trkpt>
      <trkpt lat="43.6227" lon="6.89547">
        <ele>206.2</ele>
        <time>2014-03-08T13:01:28Z</time>
      </trkpt>
      <trkpt lat="43.62273" lon="6.89531">
        <ele>206.6</ele>
        <time>2014-03-08T13:01:32Z</time>
      </trkpt>
      <trkpt lat="43.62274" lon="6.89527">
        <ele>207</ele>
        <time>2014-03-08T13:01:33Z</time>
      </trkpt>
      <trkpt lat="43.62274" lon="6.89524">
        <ele>207.4</ele>
        <time>2014-03-08T13:01:34Z</time>
      </trkpt>
      <trkpt lat="43.62275" lon="6.8952">
        <ele>207.8</ele>
        <time>2014-03-08T13:01:35Z</time>
      </trkpt>
      <trkpt lat="43.62276" lon="6.89516">
        <ele>208.2</ele>
        <time>2014-03-08T13:01:36Z</time>
      </trkpt>
      <trkpt lat="43.62277" lon="6.89512">
        <ele>208.2</ele>
        <time>2014-03-08T13:01:37Z</time>
      </trkpt>
      <trkpt lat="43.62282" lon="6.89487">
        <ele>208.6</ele>
        <time>2014-03-08T13:01:44Z</time>
      </trkpt>
      <trkpt lat="43.62283" lon="6.89483">
        <ele>209</ele>
        <time>2014-03-08T13:01:45Z</time>
      </trkpt>
      <trkpt lat="43.62284" lon="6.89479">
        <ele>209.4</ele>
        <time>2014-03-08T13:01:46Z</time>
      </trkpt>
      <trkpt lat="43.62285" lon="6.89475">
        <ele>210</ele>
        <time>2014-03-08T13:01:47Z</time>
      </trkpt>
      <trkpt lat="43.62286" lon="6.89471">
        <ele>210.4</ele>
        <time>2014-03-08T13:01:48Z</time>
      </trkpt>
      <trkpt lat="43.62289" lon="6.89462">
        <ele>210.4</ele>
        <time>2014-03-08T13:01:51Z</time>
      </trkpt>
      <trkpt lat="43.62291" lon="6.89453">
        <ele>210.8</ele>
        <time>2014-03-08T13:01:54Z</time>
      </trkpt>
      <trkpt lat="43.62293" lon="6.89449">
        <ele>211.2</ele>
        <time>2014-03-08T13:01:55Z</time>
      </trkpt>
      <trkpt lat="43.62294" lon="6.89446">
        <ele>211.6</ele>
        <time>2014-03-08T13:01:56Z</time>
      </trkpt>
      <trkpt lat="43.62295" lon="6.89443">
        <ele>212</ele>
        <time>2014-03-08T13:01:57Z</time>
      </trkpt>
      <trkpt lat="43.62296" lon="6.89439">
        <ele>212.4</ele>
        <time>2014-03-08T13:01:58Z</time>
      </trkpt>
      <trkpt lat="43.62298" lon="6.8943">
        <ele>212.8</ele>
        <time>2014-03-08T13:02:01Z</time>
      </trkpt>
      <trkpt lat="43.62299" lon="6.89427">
        <ele>213.4</ele>
        <time>2014-03-08T13:02:02Z</time>
      </trkpt>
      <trkpt lat="43.623" lon="6.89424">
        <ele>213.8</ele>
        <time>2014-03-08T13:02:03Z</time>
      </trkpt>
      <trkpt lat="43.62301" lon="6.89421">
        <ele>214.2</ele>
        <time>2014-03-08T13:02:04Z</time>
      </trkpt>
      <trkpt lat="43.62302" lon="6.89418">
        <ele>214.6</ele>
        <time>2014-03-08T13:02:05Z</time>
      </trkpt>
      <trkpt lat="43.62307" lon="6.89406">
        <ele>215.2</ele>
        <time>2014-03-08T13:02:09Z</time>
      </trkpt>
      <trkpt lat="43.62309" lon="6.89403">
        <ele>215.6</ele>
        <time>2014-03-08T13:02:10Z</time>
      </trkpt>
      <trkpt lat="43.6231" lon="6.894">
        <ele>216.2</ele>
        <time>2014-03-08T13:02:11Z</time>
      </trkpt>
      <trkpt lat="43.62311" lon="6.89397">
        <ele>216.6</ele>
        <time>2014-03-08T13:02:12Z</time>
      </trkpt>
      <trkpt lat="43.62312" lon="6.89395">
        <ele>217</ele>
        <time>2014-03-08T13:02:13Z</time>
      </trkpt>
      <trkpt lat="43.62313" lon="6.89393">
        <ele>217</ele>
        <time>2014-03-08T13:02:14Z</time>
      </trkpt>
      <trkpt lat="43.62314" lon="6.8939">
        <ele>217.6</ele>
        <time>2014-03-08T13:02:15Z</time>
      </trkpt>
      <trkpt lat="43.62316" lon="6.89388">
        <ele>218</ele>
        <time>2014-03-08T13:02:16Z</time>
      </trkpt>
      <trkpt lat="43.62317" lon="6.89385">
        <ele>218.4</ele>
        <time>2014-03-08T13:02:17Z</time>
      </trkpt>
      <trkpt lat="43.62319" lon="6.89383">
        <ele>218.8</ele>
        <time>2014-03-08T13:02:18Z</time>
      </trkpt>
      <trkpt lat="43.6232" lon="6.8938">
        <ele>219.2</ele>
        <time>2014-03-08T13:02:19Z</time>
      </trkpt>
      <trkpt lat="43.62323" lon="6.89372">
        <ele>219.6</ele>
        <time>2014-03-08T13:02:22Z</time>
      </trkpt>
      <trkpt lat="43.62324" lon="6.8937">
        <ele>220.2</ele>
        <time>2014-03-08T13:02:23Z</time>
      </trkpt>
      <trkpt lat="43.62325" lon="6.89367">
        <ele>220.6</ele>
        <time>2014-03-08T13:02:24Z</time>
      </trkpt>
      <trkpt lat="43.62327" lon="6.89364">
        <ele>221</ele>
        <time>2014-03-08T13:02:25Z</time>
      </trkpt>
      <trkpt lat="43.62328" lon="6.89362">
        <ele>221.4</ele>
        <time>2014-03-08T13:02:26Z</time>
      </trkpt>
      <trkpt lat="43.62332" lon="6.89354">
        <ele>221.4</ele>
        <time>2014-03-08T13:02:29Z</time>
      </trkpt>
      <trkpt lat="43.62334" lon="6.89351">
        <ele>222</ele>
        <time>2014-03-08T13:02:30Z</time>
      </trkpt>
      <trkpt lat="43.62335" lon="6.89347">
        <ele>222.4</ele>
        <time>2014-03-08T13:02:31Z</time>
      </trkpt>
      <trkpt lat="43.62337" lon="6.89344">
        <ele>223</ele>
        <time>2014-03-08T13:02:32Z</time>
      </trkpt>
      <trkpt lat="43.62338" lon="6.89341">
        <ele>223.4</ele>
        <time>2014-03-08T13:02:33Z</time>
      </trkpt>
      <trkpt lat="43.62339" lon="6.89338">
        <ele>223.8</ele>
        <time>2014-03-08T13:02:34Z</time>
      </trkpt>
      <trkpt lat="43.62345" lon="6.89324">
        <ele>223.8</ele>
        <time>2014-03-08T13:02:39Z</time>
      </trkpt>
      <trkpt lat="43.62347" lon="6.89321">
        <ele>224.4</ele>
        <time>2014-03-08T13:02:40Z</time>
      </trkpt>
      <trkpt lat="43.62348" lon="6.89318">
        <ele>224.8</ele>
        <time>2014-03-08T13:02:41Z</time>
      </trkpt>
      <trkpt lat="43.6235" lon="6.89315">
        <ele>225.4</ele>
        <time>2014-03-08T13:02:42Z</time>
      </trkpt>
      <trkpt lat="43.62352" lon="6.89313">
        <ele>225.8</ele>
        <time>2014-03-08T13:02:43Z</time>
      </trkpt>
      <trkpt lat="43.62354" lon="6.8931">
        <ele>226.2</ele>
        <time>2014-03-08T13:02:44Z</time>
      </trkpt>
      <trkpt lat="43.62355" lon="6.89307">
        <ele>226.2</ele>
        <time>2014-03-08T13:02:45Z</time>
      </trkpt>
      <trkpt lat="43.62362" lon="6.89296">
        <ele>226.8</ele>
        <time>2014-03-08T13:02:49Z</time>
      </trkpt>
      <trkpt lat="43.62363" lon="6.89294">
        <ele>227.2</ele>
        <time>2014-03-08T13:02:50Z</time>
      </trkpt>
      <trkpt lat="43.62365" lon="6.89291">
        <ele>227.6</ele>
        <time>2014-03-08T13:02:51Z</time>
      </trkpt>
      <trkpt lat="43.62367" lon="6.89288">
        <ele>228</ele>
        <time>2014-03-08T13:02:52Z</time>
      </trkpt>
      <trkpt lat="43.62368" lon="6.89286">
        <ele>228.4</ele>
        <time>2014-03-08T13:02:53Z</time>
      </trkpt>
      <trkpt lat="43.62373" lon="6.89279">
        <ele>229</ele>
        <time>2014-03-08T13:02:56Z</time>
      </trkpt>
      <trkpt lat="43.62374" lon="6.89277">
        <ele>229.4</ele>
        <time>2014-03-08T13:02:57Z</time>
      </trkpt>
      <trkpt lat="43.62376" lon="6.89275">
        <ele>229.8</ele>
        <time>2014-03-08T13:02:58Z</time>
      </trkpt>
      <trkpt lat="43.62377" lon="6.89273">
        <ele>230.4</ele>
        <time>2014-03-08T13:02:59Z</time>
      </trkpt>
      <trkpt lat="43.62379" lon="6.89271">
        <ele>230.8</ele>
        <time>2014-03-08T13:03:00Z</time>
      </trkpt>
      <trkpt lat="43.62385" lon="6.89261">
        <ele>231.2</ele>
        <time>2014-03-08T13:03:04Z</time>
      </trkpt>
      <trkpt lat="43.62387" lon="6.89259">
        <ele>231.8</ele>
        <time>2014-03-08T13:03:05Z</time>
      </trkpt>
      <trkpt lat="43.62388" lon="6.89257">
        <ele>232.2</ele>
        <time>2014-03-08T13:03:06Z</time>
      </trkpt>
      <trkpt lat="43.6239" lon="6.89254">
        <ele>232.6</ele>
        <time>2014-03-08T13:03:07Z</time>
      </trkpt>
      <trkpt lat="43.62392" lon="6.89252">
        <ele>233.2</ele>
        <time>2014-03-08T13:03:08Z</time>
      </trkpt>
      <trkpt lat="43.62396" lon="6.89247">
        <ele>233.2</ele>
        <time>2014-03-08T13:03:10Z</time>
      </trkpt>
      <trkpt lat="43.62402" lon="6.89241">
        <ele>233.6</ele>
        <time>2014-03-08T13:03:13Z</time>
      </trkpt>
      <trkpt lat="43.62404" lon="6.89238">
        <ele>234</ele>
        <time>2014-03-08T13:03:14Z</time>
      </trkpt>
      <trkpt lat="43.62406" lon="6.89235">
        <ele>234.6</ele>
        <time>2014-03-08T13:03:15Z</time>
      </trkpt>
      <trkpt lat="43.62408" lon="6.89232">
        <ele>235</ele>
        <time>2014-03-08T13:03:16Z</time>
      </trkpt>
      <trkpt lat="43.62409" lon="6.8923">
        <ele>235.4</ele>
        <time>2014-03-08T13:03:17Z</time>
      </trkpt>
      <trkpt lat="43.62416" lon="6.89216">
        <ele>236</ele>
        <time>2014-03-08T13:03:22Z</time>
      </trkpt>
      <trkpt lat="43.62418" lon="6.89213">
        <ele>236.4</ele>
        <time>2014-03-08T13:03:23Z</time>
      </trkpt>
      <trkpt lat="43.62419" lon="6.89211">
        <ele>236.8</ele>
        <time>2014-03-08T13:03:24Z</time>
      </trkpt>
      <trkpt lat="43.62421" lon="6.89208">
        <ele>237.2</ele>
        <time>2014-03-08T13:03:25Z</time>
      </trkpt>
      <trkpt lat="43.62422" lon="6.89205">
        <ele>237.6</ele>
        <time>2014-03-08T13:03:26Z</time>
      </trkpt>
      <trkpt lat="43.62427" lon="6.89187">
        <ele>237.6</ele>
        <time>2014-03-08T13:03:32Z</time>
      </trkpt>
      <trkpt lat="43.62429" lon="6.89181">
        <ele>238</ele>
        <time>2014-03-08T13:03:34Z</time>
      </trkpt>
      <trkpt lat="43.62431" lon="6.89177">
        <ele>238.4</ele>
        <time>2014-03-08T13:03:35Z</time>
      </trkpt>
      <trkpt lat="43.62432" lon="6.89174">
        <ele>239</ele>
        <time>2014-03-08T13:03:36Z</time>
      </trkpt>
      <trkpt lat="43.62433" lon="6.8917">
        <ele>239.4</ele>
        <time>2014-03-08T13:03:37Z</time>
      </trkpt>
      <trkpt lat="43.62435" lon="6.89167">
        <ele>239.8</ele>
        <time>2014-03-08T13:03:38Z</time>
      </trkpt>
      <trkpt lat="43.62438" lon="6.89161">
        <ele>239.8</ele>
        <time>2014-03-08T13:03:40Z</time>
      </trkpt>
      <trkpt lat="43.62443" lon="6.89153">
        <ele>240.2</ele>
        <time>2014-03-08T13:03:43Z</time>
      </trkpt>
      <trkpt lat="43.62444" lon="6.8915">
        <ele>240.6</ele>
        <time>2014-03-08T13:03:44Z</time>
      </trkpt>
      <trkpt lat="43.62446" lon="6.89148">
        <ele>241</ele>
        <time>2014-03-08T13:03:45Z</time>
      </trkpt>
      <trkpt lat="43.62448" lon="6.89145">
        <ele>241.4</ele>
        <time>2014-03-08T13:03:46Z</time>
      </trkpt>
      <trkpt lat="43.62449" lon="6.89142">
        <ele>241.8</ele>
        <time>2014-03-08T13:03:47Z</time>
      </trkpt>
      <trkpt lat="43.62456" lon="6.89131">
        <ele>242.4</ele>
        <time>2014-03-08T13:03:51Z</time>
      </trkpt>
      <trkpt lat="43.62458" lon="6.89128">
        <ele>242.8</ele>
        <time>2014-03-08T13:03:52Z</time>
      </trkpt>
      <trkpt lat="43.62459" lon="6.89126">
        <ele>243.2</ele>
        <time>2014-03-08T13:03:53Z</time>
      </trkpt>
      <trkpt lat="43.62461" lon="6.89123">
        <ele>243.8</ele>
        <time>2014-03-08T13:03:54Z</time>
      </trkpt>
      <trkpt lat="43.62462" lon="6.8912">
        <ele>244.2</ele>
        <time>2014-03-08T13:03:55Z</time>
      </trkpt>
      <trkpt lat="43.62468" lon="6.89109">
        <ele>244.2</ele>
        <time>2014-03-08T13:03:59Z</time>
      </trkpt>
      <trkpt lat="43.6247" lon="6.89106">
        <ele>244.6</ele>
        <time>2014-03-08T13:04:00Z</time>
      </trkpt>
      <trkpt lat="43.62471" lon="6.89103">
        <ele>245</ele>
        <time>2014-03-08T13:04:01Z</time>
      </trkpt>
      <trkpt lat="43.62473" lon="6.891">
        <ele>245.4</ele>
        <time>2014-03-08T13:04:02Z</time>
      </trkpt>
      <trkpt lat="43.62474" lon="6.89098">
        <ele>245.8</ele>
        <time>2014-03-08T13:04:03Z</time>
      </trkpt>
      <trkpt lat="43.62476" lon="6.89095">
        <ele>246.2</ele>
        <time>2014-03-08T13:04:04Z</time>
      </trkpt>
      <trkpt lat="43.62479" lon="6.8909">
        <ele>246.2</ele>
        <time>2014-03-08T13:04:06Z</time>
      </trkpt>
      <trkpt lat="43.62487" lon="6.89077">
        <ele>246.6</ele>
        <time>2014-03-08T13:04:11Z</time>
      </trkpt>
      <trkpt lat="43.62489" lon="6.89074">
        <ele>247.2</ele>
        <time>2014-03-08T13:04:12Z</time>
      </trkpt>
      <trkpt lat="43.62491" lon="6.89071">
        <ele>247.6</ele>
        <time>2014-03-08T13:04:13Z</time>
      </trkpt>
      <trkpt lat="43.62493" lon="6.89069">
        <ele>248</ele>
        <time>2014-03-08T13:04:14Z</time>
      </trkpt>
      <trkpt lat="43.62494" lon="6.89066">
        <ele>248.4</ele>
        <time>2014-03-08T13:04:15Z</time>
      </trkpt>
      <trkpt lat="43.62503" lon="6.89054">
        <ele>248.4</ele>
        <time>2014-03-08T13:04:19Z</time>
      </trkpt>
      <trkpt lat="43.6252" lon="6.89029">
        <ele>248.4</ele>
        <time>2014-03-08T13:04:27Z</time>
      </trkpt>
      <trkpt lat="43.62528" lon="6.89013">
        <ele>248.4</ele>
        <time>2014-03-08T13:04:31Z</time>
      </trkpt>
      <trkpt lat="43.62531" lon="6.89005">
        <ele>248.4</ele>
        <time>2014-03-08T13:04:33Z</time>
      </trkpt>
      <trkpt lat="43.62543" lon="6.88978">
        <ele>248.4</ele>
        <time>2014-03-08T13:04:40Z</time>
      </trkpt>
      <trkpt lat="43.6255" lon="6.88952">
        <ele>248.8</ele>
        <time>2014-03-08T13:04:46Z</time>
      </trkpt>
      <trkpt lat="43.62551" lon="6.88948">
        <ele>249.2</ele>
        <time>2014-03-08T13:04:47Z</time>
      </trkpt>
      <trkpt lat="43.62552" lon="6.88944">
        <ele>249.8</ele>
        <time>2014-03-08T13:04:48Z</time>
      </trkpt>
      <trkpt lat="43.62552" lon="6.88939">
        <ele>250.2</ele>
        <time>2014-03-08T13:04:49Z</time>
      </trkpt>
      <trkpt lat="43.62553" lon="6.88935">
        <ele>250.6</ele>
        <time>2014-03-08T13:04:50Z</time>
      </trkpt>
      <trkpt lat="43.62554" lon="6.88927">
        <ele>251</ele>
        <time>2014-03-08T13:04:52Z</time>
      </trkpt>
      <trkpt lat="43.62554" lon="6.88922">
        <ele>251.4</ele>
        <time>2014-03-08T13:04:53Z</time>
      </trkpt>
      <trkpt lat="43.62555" lon="6.88918">
        <ele>252</ele>
        <time>2014-03-08T13:04:54Z</time>
      </trkpt>
      <trkpt lat="43.62555" lon="6.88914">
        <ele>252.4</ele>
        <time>2014-03-08T13:04:55Z</time>
      </trkpt>
      <trkpt lat="43.62556" lon="6.8891">
        <ele>252.8</ele>
        <time>2014-03-08T13:04:56Z</time>
      </trkpt>
      <trkpt lat="43.62557" lon="6.88882">
        <ele>252.8</ele>
        <time>2014-03-08T13:05:03Z</time>
      </trkpt>
      <trkpt lat="43.62558" lon="6.88869">
        <ele>253.2</ele>
        <time>2014-03-08T13:05:06Z</time>
      </trkpt>
      <trkpt lat="43.62558" lon="6.88865">
        <ele>253.6</ele>
        <time>2014-03-08T13:05:07Z</time>
      </trkpt>
      <trkpt lat="43.62558" lon="6.8886">
        <ele>254</ele>
        <time>2014-03-08T13:05:08Z</time>
      </trkpt>
      <trkpt lat="43.62558" lon="6.88856">
        <ele>254.4</ele>
        <time>2014-03-08T13:05:09Z</time>
      </trkpt>
      <trkpt lat="43.62558" lon="6.88851">
        <ele>254.8</ele>
        <time>2014-03-08T13:05:10Z</time>
      </trkpt>
      <trkpt lat="43.62555" lon="6.8882">
        <ele>254.8</ele>
        <time>2014-03-08T13:05:17Z</time>
      </trkpt>
      <trkpt lat="43.62553" lon="6.88808">
        <ele>255.2</ele>
        <time>2014-03-08T13:05:20Z</time>
      </trkpt>
      <trkpt lat="43.62552" lon="6.88804">
        <ele>255.8</ele>
        <time>2014-03-08T13:05:21Z</time>
      </trkpt>
      <trkpt lat="43.62552" lon="6.888">
        <ele>256.2</ele>
        <time>2014-03-08T13:05:22Z</time>
      </trkpt>
      <trkpt lat="43.62551" lon="6.88796">
        <ele>256.6</ele>
        <time>2014-03-08T13:05:23Z</time>
      </trkpt>
      <trkpt lat="43.62551" lon="6.88791">
        <ele>257</ele>
        <time>2014-03-08T13:05:24Z</time>
      </trkpt>
      <trkpt lat="43.6255" lon="6.88786">
        <ele>257</ele>
        <time>2014-03-08T13:05:25Z</time>
      </trkpt>
      <trkpt lat="43.62541" lon="6.88735">
        <ele>257</ele>
        <time>2014-03-08T13:05:36Z</time>
      </trkpt>
      <trkpt lat="43.62529" lon="6.88699">
        <ele>257</ele>
        <time>2014-03-08T13:05:44Z</time>
      </trkpt>
      <trkpt lat="43.62519" lon="6.88681">
        <ele>257</ele>
        <time>2014-03-08T13:05:49Z</time>
      </trkpt>
      <trkpt lat="43.62506" lon="6.88681">
        <ele>257</ele>
        <time>2014-03-08T13:05:53Z</time>
      </trkpt>
      <trkpt lat="43.62503" lon="6.88682">
        <ele>257</ele>
        <time>2014-03-08T13:05:54Z</time>
      </trkpt>
      <trkpt lat="43.62486" lon="6.88696">
        <ele>257</ele>
        <time>2014-03-08T13:06:00Z</time>
      </trkpt>
      <trkpt lat="43.62477" lon="6.88713">
        <ele>257</ele>
        <time>2014-03-08T13:06:05Z</time>
      </trkpt>
      <trkpt lat="43.62477" lon="6.88722">
        <ele>257.4</ele>
        <time>2014-03-08T13:06:07Z</time>
      </trkpt>
      <trkpt lat="43.62478" lon="6.88727">
        <ele>257.8</ele>
        <time>2014-03-08T13:06:08Z</time>
      </trkpt>
      <trkpt lat="43.62478" lon="6.88731">
        <ele>258.2</ele>
        <time>2014-03-08T13:06:09Z</time>
      </trkpt>
      <trkpt lat="43.62479" lon="6.88736">
        <ele>258.6</ele>
        <time>2014-03-08T13:06:10Z</time>
      </trkpt>
      <trkpt lat="43.62479" lon="6.88741">
        <ele>259</ele>
        <time>2014-03-08T13:06:11Z</time>
      </trkpt>
      <trkpt lat="43.62478" lon="6.88745">
        <ele>259</ele>
        <time>2014-03-08T13:06:12Z</time>
      </trkpt>
      <trkpt lat="43.62476" lon="6.88749">
        <ele>259</ele>
        <time>2014-03-08T13:06:13Z</time>
      </trkpt>
      <trkpt lat="43.6246" lon="6.88752">
        <ele>259</ele>
        <time>2014-03-08T13:06:18Z</time>
      </trkpt>
      <trkpt lat="43.62449" lon="6.8875">
        <ele>259</ele>
        <time>2014-03-08T13:06:21Z</time>
      </trkpt>
      <trkpt lat="43.62446" lon="6.88751">
        <ele>259</ele>
        <time>2014-03-08T13:06:22Z</time>
      </trkpt>
      <trkpt lat="43.62441" lon="6.88766">
        <ele>259</ele>
        <time>2014-03-08T13:06:26Z</time>
      </trkpt>
      <trkpt lat="43.62442" lon="6.88771">
        <ele>259</ele>
        <time>2014-03-08T13:06:27Z</time>
      </trkpt>
      <trkpt lat="43.62444" lon="6.88804">
        <ele>259</ele>
        <time>2014-03-08T13:06:34Z</time>
      </trkpt>
      <trkpt lat="43.6244" lon="6.88831">
        <ele>259.4</ele>
        <time>2014-03-08T13:06:40Z</time>
      </trkpt>
      <trkpt lat="43.62439" lon="6.88835">
        <ele>260</ele>
        <time>2014-03-08T13:06:41Z</time>
      </trkpt>
      <trkpt lat="43.62437" lon="6.8884">
        <ele>260.4</ele>
        <time>2014-03-08T13:06:42Z</time>
      </trkpt>
      <trkpt lat="43.62436" lon="6.88844">
        <ele>260.8</ele>
        <time>2014-03-08T13:06:43Z</time>
      </trkpt>
      <trkpt lat="43.62434" lon="6.88848">
        <ele>261.2</ele>
        <time>2014-03-08T13:06:44Z</time>
      </trkpt>
      <trkpt lat="43.62429" lon="6.8886">
        <ele>261.2</ele>
        <time>2014-03-08T13:06:47Z</time>
      </trkpt>
      <trkpt lat="43.6242" lon="6.88878">
        <ele>261.2</ele>
        <time>2014-03-08T13:06:52Z</time>
      </trkpt>
      <trkpt lat="43.62408" lon="6.889">
        <ele>261.2</ele>
        <time>2014-03-08T13:06:58Z</time>
      </trkpt>
      <trkpt lat="43.62393" lon="6.88923">
        <ele>261.2</ele>
        <time>2014-03-08T13:07:04Z</time>
      </trkpt>
      <trkpt lat="43.6237" lon="6.88931">
        <ele>261.2</ele>
        <time>2014-03-08T13:07:10Z</time>
      </trkpt>
      <trkpt lat="43.62351" lon="6.88931">
        <ele>261.2</ele>
        <time>2014-03-08T13:07:15Z</time>
      </trkpt>
      <trkpt lat="43.62321" lon="6.88936">
        <ele>261.2</ele>
        <time>2014-03-08T13:07:24Z</time>
      </trkpt>
      <trkpt lat="43.62313" lon="6.88942">
        <ele>261.2</ele>
        <time>2014-03-08T13:07:28Z</time>
      </trkpt>
      <trkpt lat="43.62313" lon="6.88942">
        <ele>261.2</ele>
        <time>2014-03-08T13:07:29Z</time>
      </trkpt>
      <trkpt lat="43.62315" lon="6.88942">
        <ele>261.2</ele>
        <time>2014-03-08T13:07:31Z</time>
      </trkpt>
      <trkpt lat="43.62324" lon="6.88938">
        <ele>261.2</ele>
        <time>2014-03-08T13:07:34Z</time>
      </trkpt>
      <trkpt lat="43.62333" lon="6.88935">
        <ele>261.2</ele>
        <time>2014-03-08T13:07:36Z</time>
      </trkpt>
      <trkpt lat="43.62364" lon="6.88928">
        <ele>261.2</ele>
        <time>2014-03-08T13:07:43Z</time>
      </trkpt>
      <trkpt lat="43.62371" lon="6.88927">
        <ele>261.2</ele>
        <time>2014-03-08T13:07:45Z</time>
      </trkpt>
      <trkpt lat="43.62373" lon="6.88928">
        <ele>261.2</ele>
        <time>2014-03-08T13:07:46Z</time>
      </trkpt>
      <trkpt lat="43.62374" lon="6.88938">
        <ele>260.8</ele>
        <time>2014-03-08T13:07:49Z</time>
      </trkpt>
      <trkpt lat="43.62373" lon="6.88943">
        <ele>260.2</ele>
        <time>2014-03-08T13:07:50Z</time>
      </trkpt>
      <trkpt lat="43.62371" lon="6.88947">
        <ele>259.8</ele>
        <time>2014-03-08T13:07:51Z</time>
      </trkpt>
      <trkpt lat="43.62369" lon="6.88952">
        <ele>259.4</ele>
        <time>2014-03-08T13:07:52Z</time>
      </trkpt>
      <trkpt lat="43.62367" lon="6.88957">
        <ele>259</ele>
        <time>2014-03-08T13:07:53Z</time>
      </trkpt>
      <trkpt lat="43.62365" lon="6.88962">
        <ele>259</ele>
        <time>2014-03-08T13:07:54Z</time>
      </trkpt>
      <trkpt lat="43.62363" lon="6.88967">
        <ele>259</ele>
        <time>2014-03-08T13:07:55Z</time>
      </trkpt>
      <trkpt lat="43.62356" lon="6.88991">
        <ele>259</ele>
        <time>2014-03-08T13:07:59Z</time>
      </trkpt>
      <trkpt lat="43.62355" lon="6.88998">
        <ele>259</ele>
        <time>2014-03-08T13:08:00Z</time>
      </trkpt>
      <trkpt lat="43.62348" lon="6.89021">
        <ele>259</ele>
        <time>2014-03-08T13:08:03Z</time>
      </trkpt>
      <trkpt lat="43.62329" lon="6.8903">
        <ele>259</ele>
        <time>2014-03-08T13:08:07Z</time>
      </trkpt>
      <trkpt lat="43.62322" lon="6.89049">
        <ele>259</ele>
        <time>2014-03-08T13:08:11Z</time>
      </trkpt>
      <trkpt lat="43.62325" lon="6.89057">
        <ele>259</ele>
        <time>2014-03-08T13:08:13Z</time>
      </trkpt>
      <trkpt lat="43.62333" lon="6.89063">
        <ele>258.4</ele>
        <time>2014-03-08T13:08:15Z</time>
      </trkpt>
      <trkpt lat="43.62336" lon="6.89066">
        <ele>258</ele>
        <time>2014-03-08T13:08:16Z</time>
      </trkpt>
      <trkpt lat="43.62339" lon="6.8907">
        <ele>257.4</ele>
        <time>2014-03-08T13:08:17Z</time>
      </trkpt>
      <trkpt lat="43.6234" lon="6.89075">
        <ele>257</ele>
        <time>2014-03-08T13:08:18Z</time>
      </trkpt>
      <trkpt lat="43.62341" lon="6.8908">
        <ele>256.4</ele>
        <time>2014-03-08T13:08:19Z</time>
      </trkpt>
      <trkpt lat="43.62341" lon="6.89087">
        <ele>256</ele>
        <time>2014-03-08T13:08:20Z</time>
      </trkpt>
      <trkpt lat="43.62343" lon="6.89093">
        <ele>255.4</ele>
        <time>2014-03-08T13:08:21Z</time>
      </trkpt>
      <trkpt lat="43.62345" lon="6.89099">
        <ele>254.6</ele>
        <time>2014-03-08T13:08:22Z</time>
      </trkpt>
      <trkpt lat="43.62348" lon="6.89104">
        <ele>254</ele>
        <time>2014-03-08T13:08:23Z</time>
      </trkpt>
      <trkpt lat="43.62351" lon="6.89107">
        <ele>253.4</ele>
        <time>2014-03-08T13:08:24Z</time>
      </trkpt>
      <trkpt lat="43.62355" lon="6.89109">
        <ele>252.6</ele>
        <time>2014-03-08T13:08:25Z</time>
      </trkpt>
      <trkpt lat="43.62358" lon="6.8911">
        <ele>252</ele>
        <time>2014-03-08T13:08:26Z</time>
      </trkpt>
      <trkpt lat="43.62364" lon="6.89113">
        <ele>251.4</ele>
        <time>2014-03-08T13:08:28Z</time>
      </trkpt>
      <trkpt lat="43.62368" lon="6.89115">
        <ele>251</ele>
        <time>2014-03-08T13:08:29Z</time>
      </trkpt>
      <trkpt lat="43.62371" lon="6.89118">
        <ele>250.6</ele>
        <time>2014-03-08T13:08:30Z</time>
      </trkpt>
      <trkpt lat="43.62374" lon="6.8912">
        <ele>250</ele>
        <time>2014-03-08T13:08:31Z</time>
      </trkpt>
      <trkpt lat="43.62375" lon="6.89122">
        <ele>249.6</ele>
        <time>2014-03-08T13:08:32Z</time>
      </trkpt>
      <trkpt lat="43.62376" lon="6.89122">
        <ele>249.6</ele>
        <time>2014-03-08T13:08:33Z</time>
      </trkpt>
      <trkpt lat="43.62371" lon="6.89121">
        <ele>249.6</ele>
        <time>2014-03-08T13:08:39Z</time>
      </trkpt>
      <trkpt lat="43.62368" lon="6.8912">
        <ele>249.6</ele>
        <time>2014-03-08T13:08:45Z</time>
      </trkpt>
      <trkpt lat="43.62359" lon="6.89112">
        <ele>249.6</ele>
        <time>2014-03-08T13:08:50Z</time>
      </trkpt>
      <trkpt lat="43.62357" lon="6.89111">
        <ele>249.6</ele>
        <time>2014-03-08T13:08:51Z</time>
      </trkpt>
      <trkpt lat="43.62354" lon="6.89111">
        <ele>249.6</ele>
        <time>2014-03-08T13:08:53Z</time>
      </trkpt>
      <trkpt lat="43.62354" lon="6.89127">
        <ele>249.6</ele>
        <time>2014-03-08T13:08:58Z</time>
      </trkpt>
      <trkpt lat="43.62352" lon="6.89131">
        <ele>249.6</ele>
        <time>2014-03-08T13:08:59Z</time>
      </trkpt>
      <trkpt lat="43.62345" lon="6.89139">
        <ele>249.6</ele>
        <time>2014-03-08T13:09:02Z</time>
      </trkpt>
      <trkpt lat="43.62343" lon="6.89142">
        <ele>249.6</ele>
        <time>2014-03-08T13:09:03Z</time>
      </trkpt>
      <trkpt lat="43.6234" lon="6.89152">
        <ele>249.6</ele>
        <time>2014-03-08T13:09:06Z</time>
      </trkpt>
      <trkpt lat="43.62341" lon="6.89162">
        <ele>249.6</ele>
        <time>2014-03-08T13:09:09Z</time>
      </trkpt>
      <trkpt lat="43.62341" lon="6.89166">
        <ele>249.2</ele>
        <time>2014-03-08T13:09:10Z</time>
      </trkpt>
      <trkpt lat="43.62342" lon="6.8917">
        <ele>248.8</ele>
        <time>2014-03-08T13:09:11Z</time>
      </trkpt>
      <trkpt lat="43.62342" lon="6.89174">
        <ele>248.4</ele>
        <time>2014-03-08T13:09:12Z</time>
      </trkpt>
      <trkpt lat="43.62342" lon="6.89178">
        <ele>247.8</ele>
        <time>2014-03-08T13:09:13Z</time>
      </trkpt>
      <trkpt lat="43.62342" lon="6.89182">
        <ele>247</ele>
        <time>2014-03-08T13:09:14Z</time>
      </trkpt>
      <trkpt lat="43.62342" lon="6.89187">
        <ele>246.2</ele>
        <time>2014-03-08T13:09:15Z</time>
      </trkpt>
      <trkpt lat="43.62341" lon="6.89192">
        <ele>245.4</ele>
        <time>2014-03-08T13:09:16Z</time>
      </trkpt>
      <trkpt lat="43.62339" lon="6.89196">
        <ele>244.6</ele>
        <time>2014-03-08T13:09:17Z</time>
      </trkpt>
      <trkpt lat="43.62336" lon="6.89199">
        <ele>243.8</ele>
        <time>2014-03-08T13:09:18Z</time>
      </trkpt>
      <trkpt lat="43.62332" lon="6.89201">
        <ele>243</ele>
        <time>2014-03-08T13:09:19Z</time>
      </trkpt>
      <trkpt lat="43.62329" lon="6.89202">
        <ele>242.4</ele>
        <time>2014-03-08T13:09:20Z</time>
      </trkpt>
      <trkpt lat="43.62326" lon="6.89204">
        <ele>241.6</ele>
        <time>2014-03-08T13:09:21Z</time>
      </trkpt>
      <trkpt lat="43.62324" lon="6.89206">
        <ele>240.8</ele>
        <time>2014-03-08T13:09:22Z</time>
      </trkpt>
      <trkpt lat="43.62319" lon="6.89211">
        <ele>240.8</ele>
        <time>2014-03-08T13:09:24Z</time>
      </trkpt>
      <trkpt lat="43.62299" lon="6.89225">
        <ele>240.8</ele>
        <time>2014-03-08T13:09:30Z</time>
      </trkpt>
      <trkpt lat="43.62288" lon="6.89232">
        <ele>240.8</ele>
        <time>2014-03-08T13:09:33Z</time>
      </trkpt>
      <trkpt lat="43.62266" lon="6.89245">
        <ele>240.8</ele>
        <time>2014-03-08T13:09:39Z</time>
      </trkpt>
      <trkpt lat="43.6225" lon="6.89258">
        <ele>240.8</ele>
        <time>2014-03-08T13:09:44Z</time>
      </trkpt>
      <trkpt lat="43.62237" lon="6.89266">
        <ele>240.8</ele>
        <time>2014-03-08T13:09:48Z</time>
      </trkpt>
      <trkpt lat="43.62218" lon="6.89272">
        <ele>240.8</ele>
        <time>2014-03-08T13:09:53Z</time>
      </trkpt>
      <trkpt lat="43.62211" lon="6.89277">
        <ele>241.4</ele>
        <time>2014-03-08T13:09:55Z</time>
      </trkpt>
      <trkpt lat="43.62207" lon="6.89279">
        <ele>241.8</ele>
        <time>2014-03-08T13:09:56Z</time>
      </trkpt>
      <trkpt lat="43.62204" lon="6.89281">
        <ele>242.2</ele>
        <time>2014-03-08T13:09:57Z</time>
      </trkpt>
      <trkpt lat="43.622" lon="6.89283">
        <ele>242.6</ele>
        <time>2014-03-08T13:09:58Z</time>
      </trkpt>
      <trkpt lat="43.62196" lon="6.89284">
        <ele>243</ele>
        <time>2014-03-08T13:09:59Z</time>
      </trkpt>
      <trkpt lat="43.62192" lon="6.89286">
        <ele>243</ele>
        <time>2014-03-08T13:10:00Z</time>
      </trkpt>
      <trkpt lat="43.62175" lon="6.89294">
        <ele>243</ele>
        <time>2014-03-08T13:10:05Z</time>
      </trkpt>
      <trkpt lat="43.62172" lon="6.89304">
        <ele>243</ele>
        <time>2014-03-08T13:10:09Z</time>
      </trkpt>
      <trkpt lat="43.62165" lon="6.89311">
        <ele>243</ele>
        <time>2014-03-08T13:10:12Z</time>
      </trkpt>
      <trkpt lat="43.62159" lon="6.89317">
        <ele>242.4</ele>
        <time>2014-03-08T13:10:15Z</time>
      </trkpt>
      <trkpt lat="43.62156" lon="6.89318">
        <ele>242</ele>
        <time>2014-03-08T13:10:16Z</time>
      </trkpt>
      <trkpt lat="43.62153" lon="6.89319">
        <ele>241.4</ele>
        <time>2014-03-08T13:10:17Z</time>
      </trkpt>
      <trkpt lat="43.6215" lon="6.8932">
        <ele>241</ele>
        <time>2014-03-08T13:10:18Z</time>
      </trkpt>
      <trkpt lat="43.62147" lon="6.8932">
        <ele>240.4</ele>
        <time>2014-03-08T13:10:19Z</time>
      </trkpt>
      <trkpt lat="43.6214" lon="6.89327">
        <ele>240.4</ele>
        <time>2014-03-08T13:10:23Z</time>
      </trkpt>
      <trkpt lat="43.62129" lon="6.89331">
        <ele>240.4</ele>
        <time>2014-03-08T13:10:27Z</time>
      </trkpt>
      <trkpt lat="43.6212" lon="6.89332">
        <ele>240.4</ele>
        <time>2014-03-08T13:10:30Z</time>
      </trkpt>
      <trkpt lat="43.62117" lon="6.89335">
        <ele>240</ele>
        <time>2014-03-08T13:10:31Z</time>
      </trkpt>
      <trkpt lat="43.62114" lon="6.89339">
        <ele>239.4</ele>
        <time>2014-03-08T13:10:32Z</time>
      </trkpt>
      <trkpt lat="43.62111" lon="6.89342">
        <ele>239</ele>
        <time>2014-03-08T13:10:33Z</time>
      </trkpt>
      <trkpt lat="43.62108" lon="6.89344">
        <ele>238.2</ele>
        <time>2014-03-08T13:10:34Z</time>
      </trkpt>
      <trkpt lat="43.62105" lon="6.89344">
        <ele>237.6</ele>
        <time>2014-03-08T13:10:35Z</time>
      </trkpt>
      <trkpt lat="43.62102" lon="6.89344">
        <ele>236.8</ele>
        <time>2014-03-08T13:10:36Z</time>
      </trkpt>
      <trkpt lat="43.62099" lon="6.89343">
        <ele>236.2</ele>
        <time>2014-03-08T13:10:37Z</time>
      </trkpt>
      <trkpt lat="43.62097" lon="6.89343">
        <ele>235.4</ele>
        <time>2014-03-08T13:10:38Z</time>
      </trkpt>
      <trkpt lat="43.62094" lon="6.89342">
        <ele>235.4</ele>
        <time>2014-03-08T13:10:39Z</time>
      </trkpt>
      <trkpt lat="43.62091" lon="6.89339">
        <ele>235.4</ele>
        <time>2014-03-08T13:10:41Z</time>
      </trkpt>
      <trkpt lat="43.62087" lon="6.89336">
        <ele>235.4</ele>
        <time>2014-03-08T13:10:43Z</time>
      </trkpt>
      <trkpt lat="43.62081" lon="6.89334">
        <ele>236</ele>
        <time>2014-03-08T13:10:45Z</time>
      </trkpt>
      <trkpt lat="43.62078" lon="6.89333">
        <ele>236.4</ele>
        <time>2014-03-08T13:10:46Z</time>
      </trkpt>
      <trkpt lat="43.62076" lon="6.89331">
        <ele>236.8</ele>
        <time>2014-03-08T13:10:47Z</time>
      </trkpt>
      <trkpt lat="43.62073" lon="6.8933">
        <ele>237.2</ele>
        <time>2014-03-08T13:10:48Z</time>
      </trkpt>
      <trkpt lat="43.6207" lon="6.8933">
        <ele>237.6</ele>
        <time>2014-03-08T13:10:49Z</time>
      </trkpt>
      <trkpt lat="43.62057" lon="6.89338">
        <ele>237.6</ele>
        <time>2014-03-08T13:10:53Z</time>
      </trkpt>
      <trkpt lat="43.62054" lon="6.89352">
        <ele>237.6</ele>
        <time>2014-03-08T13:10:57Z</time>
      </trkpt>
      <trkpt lat="43.62053" lon="6.89356">
        <ele>237</ele>
        <time>2014-03-08T13:10:58Z</time>
      </trkpt>
      <trkpt lat="43.62051" lon="6.89358">
        <ele>236.4</ele>
        <time>2014-03-08T13:10:59Z</time>
      </trkpt>
      <trkpt lat="43.62048" lon="6.89359">
        <ele>235.8</ele>
        <time>2014-03-08T13:11:00Z</time>
      </trkpt>
      <trkpt lat="43.62045" lon="6.8936">
        <ele>235.2</ele>
        <time>2014-03-08T13:11:01Z</time>
      </trkpt>
      <trkpt lat="43.62042" lon="6.89361">
        <ele>234.6</ele>
        <time>2014-03-08T13:11:02Z</time>
      </trkpt>
      <trkpt lat="43.62039" lon="6.89363">
        <ele>234.6</ele>
        <time>2014-03-08T13:11:03Z</time>
      </trkpt>
      <trkpt lat="43.62037" lon="6.89367">
        <ele>234</ele>
        <time>2014-03-08T13:11:04Z</time>
      </trkpt>
      <trkpt lat="43.62034" lon="6.8937">
        <ele>233.6</ele>
        <time>2014-03-08T13:11:05Z</time>
      </trkpt>
      <trkpt lat="43.62031" lon="6.89373">
        <ele>232.6</ele>
        <time>2014-03-08T13:11:06Z</time>
      </trkpt>
      <trkpt lat="43.62027" lon="6.89374">
        <ele>231.8</ele>
        <time>2014-03-08T13:11:07Z</time>
      </trkpt>
      <trkpt lat="43.62023" lon="6.89374">
        <ele>230.8</ele>
        <time>2014-03-08T13:11:08Z</time>
      </trkpt>
      <trkpt lat="43.62018" lon="6.89374">
        <ele>229.8</ele>
        <time>2014-03-08T13:11:09Z</time>
      </trkpt>
      <trkpt lat="43.62014" lon="6.89375">
        <ele>229</ele>
        <time>2014-03-08T13:11:10Z</time>
      </trkpt>
      <trkpt lat="43.62012" lon="6.89377">
        <ele>228</ele>
        <time>2014-03-08T13:11:11Z</time>
      </trkpt>
      <trkpt lat="43.6201" lon="6.89381">
        <ele>227</ele>
        <time>2014-03-08T13:11:12Z</time>
      </trkpt>
      <trkpt lat="43.62009" lon="6.89385">
        <ele>226.2</ele>
        <time>2014-03-08T13:11:13Z</time>
      </trkpt>
      <trkpt lat="43.62007" lon="6.89388">
        <ele>225.2</ele>
        <time>2014-03-08T13:11:14Z</time>
      </trkpt>
      <trkpt lat="43.62006" lon="6.89388">
        <ele>224.4</ele>
        <time>2014-03-08T13:11:15Z</time>
      </trkpt>
      <trkpt lat="43.62003" lon="6.89387">
        <ele>223.6</ele>
        <time>2014-03-08T13:11:16Z</time>
      </trkpt>
      <trkpt lat="43.62" lon="6.89387">
        <ele>222.8</ele>
        <time>2014-03-08T13:11:17Z</time>
      </trkpt>
      <trkpt lat="43.61998" lon="6.89388">
        <ele>221.8</ele>
        <time>2014-03-08T13:11:18Z</time>
      </trkpt>
      <trkpt lat="43.61996" lon="6.8939">
        <ele>221.4</ele>
        <time>2014-03-08T13:11:19Z</time>
      </trkpt>
      <trkpt lat="43.61996" lon="6.89392">
        <ele>221</ele>
        <time>2014-03-08T13:11:20Z</time>
      </trkpt>
      <trkpt lat="43.61996" lon="6.89393">
        <ele>220.4</ele>
        <time>2014-03-08T13:11:21Z</time>
      </trkpt>
      <trkpt lat="43.61996" lon="6.89393">
        <ele>220</ele>
        <time>2014-03-08T13:11:22Z</time>
      </trkpt>
      <trkpt lat="43.61996" lon="6.89392">
        <ele>219.6</ele>
        <time>2014-03-08T13:11:23Z</time>
      </trkpt>
      <trkpt lat="43.61998" lon="6.89394">
        <ele>219.6</ele>
        <time>2014-03-08T13:11:28Z</time>
      </trkpt>
      <trkpt lat="43.61999" lon="6.89393">
        <ele>219.6</ele>
        <time>2014-03-08T13:11:29Z</time>
      </trkpt>
      <trkpt lat="43.61999" lon="6.8939">
        <ele>219.6</ele>
        <time>2014-03-08T13:11:34Z</time>
      </trkpt>
      <trkpt lat="43.61999" lon="6.89391">
        <ele>219.6</ele>
        <time>2014-03-08T13:11:45Z</time>
      </trkpt>
      <trkpt lat="43.61998" lon="6.89392">
        <ele>219.6</ele>
        <time>2014-03-08T13:11:49Z</time>
      </trkpt>
      <trkpt lat="43.61998" lon="6.89393">
        <ele>219.6</ele>
        <time>2014-03-08T13:11:51Z</time>
      </trkpt>
      <trkpt lat="43.61996" lon="6.89392">
        <ele>219.6</ele>
        <time>2014-03-08T13:11:57Z</time>
      </trkpt>
      <trkpt lat="43.61996" lon="6.89392">
        <ele>219.6</ele>
        <time>2014-03-08T13:12:06Z</time>
      </trkpt>
      <trkpt lat="43.61995" lon="6.89393">
        <ele>219.6</ele>
        <time>2014-03-08T13:12:07Z</time>
      </trkpt>
      <trkpt lat="43.61995" lon="6.89394">
        <ele>219.6</ele>
        <time>2014-03-08T13:12:11Z</time>
      </trkpt>
      <trkpt lat="43.61996" lon="6.89392">
        <ele>219.6</ele>
        <time>2014-03-08T13:16:04Z</time>
      </trkpt>
      <trkpt lat="43.61995" lon="6.8939">
        <ele>219.6</ele>
        <time>2014-03-08T13:16:06Z</time>
      </trkpt>
      <trkpt lat="43.61994" lon="6.89387">
        <ele>219.6</ele>
        <time>2014-03-08T13:16:10Z</time>
      </trkpt>
      <trkpt lat="43.61992" lon="6.89386">
        <ele>219.2</ele>
        <time>2014-03-08T13:16:12Z</time>
      </trkpt>
      <trkpt lat="43.6199" lon="6.89385">
        <ele>218.8</ele>
        <time>2014-03-08T13:16:13Z</time>
      </trkpt>
      <trkpt lat="43.61989" lon="6.89384">
        <ele>218.4</ele>
        <time>2014-03-08T13:16:14Z</time>
      </trkpt>
      <trkpt lat="43.61987" lon="6.89383">
        <ele>218</ele>
        <time>2014-03-08T13:16:15Z</time>
      </trkpt>
      <trkpt lat="43.61985" lon="6.89382">
        <ele>217.4</ele>
        <time>2014-03-08T13:16:16Z</time>
      </trkpt>
      <trkpt lat="43.61983" lon="6.89379">
        <ele>217</ele>
        <time>2014-03-08T13:16:17Z</time>
      </trkpt>
      <trkpt lat="43.6198" lon="6.89377">
        <ele>216.4</ele>
        <time>2014-03-08T13:16:18Z</time>
      </trkpt>
      <trkpt lat="43.61978" lon="6.89373">
        <ele>215.8</ele>
        <time>2014-03-08T13:16:19Z</time>
      </trkpt>
      <trkpt lat="43.61975" lon="6.89371">
        <ele>215.4</ele>
        <time>2014-03-08T13:16:20Z</time>
      </trkpt>
      <trkpt lat="43.61973" lon="6.89369">
        <ele>215</ele>
        <time>2014-03-08T13:16:21Z</time>
      </trkpt>
      <trkpt lat="43.61971" lon="6.89367">
        <ele>214.6</ele>
        <time>2014-03-08T13:16:22Z</time>
      </trkpt>
      <trkpt lat="43.61968" lon="6.89366">
        <ele>214.2</ele>
        <time>2014-03-08T13:16:23Z</time>
      </trkpt>
      <trkpt lat="43.61966" lon="6.89366">
        <ele>213.8</ele>
        <time>2014-03-08T13:16:24Z</time>
      </trkpt>
      <trkpt lat="43.61962" lon="6.89366">
        <ele>213</ele>
        <time>2014-03-08T13:16:25Z</time>
      </trkpt>
      <trkpt lat="43.61959" lon="6.89368">
        <ele>212.4</ele>
        <time>2014-03-08T13:16:26Z</time>
      </trkpt>
      <trkpt lat="43.61955" lon="6.89371">
        <ele>211.8</ele>
        <time>2014-03-08T13:16:27Z</time>
      </trkpt>
      <trkpt lat="43.61953" lon="6.89376">
        <ele>211</ele>
        <time>2014-03-08T13:16:28Z</time>
      </trkpt>
      <trkpt lat="43.61951" lon="6.89382">
        <ele>210.4</ele>
        <time>2014-03-08T13:16:29Z</time>
      </trkpt>
      <trkpt lat="43.6195" lon="6.89388">
        <ele>209.6</ele>
        <time>2014-03-08T13:16:30Z</time>
      </trkpt>
      <trkpt lat="43.6195" lon="6.89394">
        <ele>208.8</ele>
        <time>2014-03-08T13:16:31Z</time>
      </trkpt>
      <trkpt lat="43.61949" lon="6.894">
        <ele>208</ele>
        <time>2014-03-08T13:16:32Z</time>
      </trkpt>
      <trkpt lat="43.61947" lon="6.89414">
        <ele>207.6</ele>
        <time>2014-03-08T13:16:34Z</time>
      </trkpt>
      <trkpt lat="43.61945" lon="6.8942">
        <ele>207.2</ele>
        <time>2014-03-08T13:16:35Z</time>
      </trkpt>
      <trkpt lat="43.61943" lon="6.89427">
        <ele>206.8</ele>
        <time>2014-03-08T13:16:36Z</time>
      </trkpt>
      <trkpt lat="43.61941" lon="6.89433">
        <ele>206.4</ele>
        <time>2014-03-08T13:16:37Z</time>
      </trkpt>
      <trkpt lat="43.61938" lon="6.89438">
        <ele>206</ele>
        <time>2014-03-08T13:16:38Z</time>
      </trkpt>
      <trkpt lat="43.61921" lon="6.89452">
        <ele>205.4</ele>
        <time>2014-03-08T13:16:41Z</time>
      </trkpt>
      <trkpt lat="43.61917" lon="6.89457">
        <ele>205</ele>
        <time>2014-03-08T13:16:42Z</time>
      </trkpt>
      <trkpt lat="43.61915" lon="6.89463">
        <ele>204.6</ele>
        <time>2014-03-08T13:16:43Z</time>
      </trkpt>
      <trkpt lat="43.61917" lon="6.89468">
        <ele>204.2</ele>
        <time>2014-03-08T13:16:44Z</time>
      </trkpt>
      <trkpt lat="43.61918" lon="6.89472">
        <ele>203.6</ele>
        <time>2014-03-08T13:16:45Z</time>
      </trkpt>
      <trkpt lat="43.61926" lon="6.89478">
        <ele>203.2</ele>
        <time>2014-03-08T13:16:48Z</time>
      </trkpt>
      <trkpt lat="43.61928" lon="6.89479">
        <ele>202.8</ele>
        <time>2014-03-08T13:16:49Z</time>
      </trkpt>
      <trkpt lat="43.6193" lon="6.89479">
        <ele>202.4</ele>
        <time>2014-03-08T13:16:50Z</time>
      </trkpt>
      <trkpt lat="43.6193" lon="6.89479">
        <ele>202</ele>
        <time>2014-03-08T13:16:51Z</time>
      </trkpt>
      <trkpt lat="43.6193" lon="6.89479">
        <ele>201.4</ele>
        <time>2014-03-08T13:16:52Z</time>
      </trkpt>
      <trkpt lat="43.61928" lon="6.89477">
        <ele>201.4</ele>
        <time>2014-03-08T13:16:54Z</time>
      </trkpt>
      <trkpt lat="43.61927" lon="6.89476">
        <ele>201.4</ele>
        <time>2014-03-08T13:16:55Z</time>
      </trkpt>
      <trkpt lat="43.61923" lon="6.89474">
        <ele>201.4</ele>
        <time>2014-03-08T13:16:58Z</time>
      </trkpt>
      <trkpt lat="43.61922" lon="6.89469">
        <ele>201.4</ele>
        <time>2014-03-08T13:17:01Z</time>
      </trkpt>
      <trkpt lat="43.61921" lon="6.89463">
        <ele>201.4</ele>
        <time>2014-03-08T13:17:04Z</time>
      </trkpt>
      <trkpt lat="43.6192" lon="6.8946">
        <ele>201.4</ele>
        <time>2014-03-08T13:17:06Z</time>
      </trkpt>
      <trkpt lat="43.61919" lon="6.89459">
        <ele>201.4</ele>
        <time>2014-03-08T13:17:07Z</time>
      </trkpt>
      <trkpt lat="43.61917" lon="6.89457">
        <ele>201.4</ele>
        <time>2014-03-08T13:17:10Z</time>
      </trkpt>
      <trkpt lat="43.61917" lon="6.89458">
        <ele>202</ele>
        <time>2014-03-08T13:17:11Z</time>
      </trkpt>
      <trkpt lat="43.61917" lon="6.89458">
        <ele>202.4</ele>
        <time>2014-03-08T13:17:12Z</time>
      </trkpt>
      <trkpt lat="43.61916" lon="6.89459">
        <ele>202.8</ele>
        <time>2014-03-08T13:17:13Z</time>
      </trkpt>
      <trkpt lat="43.61915" lon="6.89459">
        <ele>203.2</ele>
        <time>2014-03-08T13:17:14Z</time>
      </trkpt>
      <trkpt lat="43.61914" lon="6.89458">
        <ele>203.6</ele>
        <time>2014-03-08T13:17:15Z</time>
      </trkpt>
      <trkpt lat="43.61908" lon="6.89457">
        <ele>203.6</ele>
        <time>2014-03-08T13:17:18Z</time>
      </trkpt>
      <trkpt lat="43.61907" lon="6.8946">
        <ele>203.2</ele>
        <time>2014-03-08T13:17:19Z</time>
      </trkpt>
      <trkpt lat="43.61906" lon="6.89463">
        <ele>202.6</ele>
        <time>2014-03-08T13:17:20Z</time>
      </trkpt>
      <trkpt lat="43.61906" lon="6.89468">
        <ele>202.2</ele>
        <time>2014-03-08T13:17:21Z</time>
      </trkpt>
      <trkpt lat="43.61907" lon="6.89473">
        <ele>201.6</ele>
        <time>2014-03-08T13:17:22Z</time>
      </trkpt>
      <trkpt lat="43.61908" lon="6.89477">
        <ele>201</ele>
        <time>2014-03-08T13:17:23Z</time>
      </trkpt>
      <trkpt lat="43.61908" lon="6.8948">
        <ele>200.4</ele>
        <time>2014-03-08T13:17:24Z</time>
      </trkpt>
      <trkpt lat="43.61908" lon="6.89481">
        <ele>199.8</ele>
        <time>2014-03-08T13:17:25Z</time>
      </trkpt>
      <trkpt lat="43.61907" lon="6.89482">
        <ele>199.2</ele>
        <time>2014-03-08T13:17:26Z</time>
      </trkpt>
      <trkpt lat="43.61905" lon="6.89483">
        <ele>198.6</ele>
        <time>2014-03-08T13:17:27Z</time>
      </trkpt>
      <trkpt lat="43.61904" lon="6.89484">
        <ele>198</ele>
        <time>2014-03-08T13:17:28Z</time>
      </trkpt>
      <trkpt lat="43.61903" lon="6.89486">
        <ele>197.4</ele>
        <time>2014-03-08T13:17:29Z</time>
      </trkpt>
      <trkpt lat="43.61902" lon="6.89488">
        <ele>197</ele>
        <time>2014-03-08T13:17:30Z</time>
      </trkpt>
      <trkpt lat="43.61901" lon="6.8949">
        <ele>196.4</ele>
        <time>2014-03-08T13:17:31Z</time>
      </trkpt>
      <trkpt lat="43.61901" lon="6.89492">
        <ele>196</ele>
        <time>2014-03-08T13:17:32Z</time>
      </trkpt>
      <trkpt lat="43.619" lon="6.89493">
        <ele>195.4</ele>
        <time>2014-03-08T13:17:33Z</time>
      </trkpt>
      <trkpt lat="43.619" lon="6.89493">
        <ele>194.8</ele>
        <time>2014-03-08T13:17:34Z</time>
      </trkpt>
      <trkpt lat="43.61901" lon="6.89491">
        <ele>194.8</ele>
        <time>2014-03-08T13:17:40Z</time>
      </trkpt>
      <trkpt lat="43.61903" lon="6.89484">
        <ele>194.8</ele>
        <time>2014-03-08T13:17:45Z</time>
      </trkpt>
      <trkpt lat="43.61903" lon="6.89482">
        <ele>194.8</ele>
        <time>2014-03-08T13:17:46Z</time>
      </trkpt>
      <trkpt lat="43.61905" lon="6.8948">
        <ele>194.8</ele>
        <time>2014-03-08T13:17:49Z</time>
      </trkpt>
      <trkpt lat="43.61908" lon="6.89479">
        <ele>194.8</ele>
        <time>2014-03-08T13:17:51Z</time>
      </trkpt>
      <trkpt lat="43.61908" lon="6.89478">
        <ele>195.4</ele>
        <time>2014-03-08T13:17:52Z</time>
      </trkpt>
      <trkpt lat="43.61908" lon="6.89477">
        <ele>195.8</ele>
        <time>2014-03-08T13:17:53Z</time>
      </trkpt>
      <trkpt lat="43.61908" lon="6.89475">
        <ele>196.2</ele>
        <time>2014-03-08T13:17:54Z</time>
      </trkpt>
      <trkpt lat="43.61908" lon="6.89474">
        <ele>196.6</ele>
        <time>2014-03-08T13:17:55Z</time>
      </trkpt>
      <trkpt lat="43.61907" lon="6.89473">
        <ele>197</ele>
        <time>2014-03-08T13:17:56Z</time>
      </trkpt>
      <trkpt lat="43.61907" lon="6.89472">
        <ele>197.4</ele>
        <time>2014-03-08T13:17:57Z</time>
      </trkpt>
      <trkpt lat="43.61907" lon="6.89472">
        <ele>197.8</ele>
        <time>2014-03-08T13:17:58Z</time>
      </trkpt>
      <trkpt lat="43.61906" lon="6.89471">
        <ele>198.2</ele>
        <time>2014-03-08T13:17:59Z</time>
      </trkpt>
      <trkpt lat="43.61906" lon="6.8947">
        <ele>198.6</ele>
        <time>2014-03-08T13:18:00Z</time>
      </trkpt>
      <trkpt lat="43.61906" lon="6.89469">
        <ele>199</ele>
        <time>2014-03-08T13:18:01Z</time>
      </trkpt>
      <trkpt lat="43.61907" lon="6.89464">
        <ele>199</ele>
        <time>2014-03-08T13:18:04Z</time>
      </trkpt>
      <trkpt lat="43.61907" lon="6.89461">
        <ele>199</ele>
        <time>2014-03-08T13:18:06Z</time>
      </trkpt>
      <trkpt lat="43.61911" lon="6.89458">
        <ele>199.6</ele>
        <time>2014-03-08T13:18:11Z</time>
      </trkpt>
      <trkpt lat="43.61912" lon="6.89458">
        <ele>200</ele>
        <time>2014-03-08T13:18:12Z</time>
      </trkpt>
      <trkpt lat="43.61913" lon="6.89458">
        <ele>200.6</ele>
        <time>2014-03-08T13:18:13Z</time>
      </trkpt>
      <trkpt lat="43.61913" lon="6.89459">
        <ele>201</ele>
        <time>2014-03-08T13:18:14Z</time>
      </trkpt>
      <trkpt lat="43.61914" lon="6.8946">
        <ele>201.6</ele>
        <time>2014-03-08T13:18:15Z</time>
      </trkpt>
      <trkpt lat="43.61917" lon="6.8946">
        <ele>201.6</ele>
        <time>2014-03-08T13:18:18Z</time>
      </trkpt>
      <trkpt lat="43.61918" lon="6.89452">
        <ele>202</ele>
        <time>2014-03-08T13:18:22Z</time>
      </trkpt>
      <trkpt lat="43.61918" lon="6.8945">
        <ele>202.4</ele>
        <time>2014-03-08T13:18:23Z</time>
      </trkpt>
      <trkpt lat="43.61919" lon="6.89449">
        <ele>202.8</ele>
        <time>2014-03-08T13:18:24Z</time>
      </trkpt>
      <trkpt lat="43.6192" lon="6.89447">
        <ele>203.2</ele>
        <time>2014-03-08T13:18:25Z</time>
      </trkpt>
      <trkpt lat="43.61921" lon="6.89446">
        <ele>203.8</ele>
        <time>2014-03-08T13:18:26Z</time>
      </trkpt>
      <trkpt lat="43.61922" lon="6.89444">
        <ele>203.8</ele>
        <time>2014-03-08T13:18:27Z</time>
      </trkpt>
      <trkpt lat="43.61922" lon="6.8944">
        <ele>203.8</ele>
        <time>2014-03-08T13:18:29Z</time>
      </trkpt>
      <trkpt lat="43.61922" lon="6.89439">
        <ele>204.2</ele>
        <time>2014-03-08T13:18:30Z</time>
      </trkpt>
      <trkpt lat="43.61921" lon="6.89438">
        <ele>204.6</ele>
        <time>2014-03-08T13:18:31Z</time>
      </trkpt>
      <trkpt lat="43.6192" lon="6.89437">
        <ele>205</ele>
        <time>2014-03-08T13:18:32Z</time>
      </trkpt>
      <trkpt lat="43.61919" lon="6.89436">
        <ele>205.4</ele>
        <time>2014-03-08T13:18:33Z</time>
      </trkpt>
      <trkpt lat="43.61917" lon="6.89435">
        <ele>205.8</ele>
        <time>2014-03-08T13:18:34Z</time>
      </trkpt>
      <trkpt lat="43.61912" lon="6.89432">
        <ele>205.8</ele>
        <time>2014-03-08T13:18:36Z</time>
      </trkpt>
      <trkpt lat="43.61905" lon="6.89433">
        <ele>205.4</ele>
        <time>2014-03-08T13:18:38Z</time>
      </trkpt>
      <trkpt lat="43.61901" lon="6.89435">
        <ele>205</ele>
        <time>2014-03-08T13:18:39Z</time>
      </trkpt>
      <trkpt lat="43.61898" lon="6.89438">
        <ele>204.6</ele>
        <time>2014-03-08T13:18:40Z</time>
      </trkpt>
      <trkpt lat="43.61894" lon="6.8944">
        <ele>204</ele>
        <time>2014-03-08T13:18:41Z</time>
      </trkpt>
      <trkpt lat="43.61891" lon="6.89443">
        <ele>203.4</ele>
        <time>2014-03-08T13:18:42Z</time>
      </trkpt>
      <trkpt lat="43.61887" lon="6.89446">
        <ele>202.6</ele>
        <time>2014-03-08T13:18:43Z</time>
      </trkpt>
      <trkpt lat="43.61884" lon="6.89448">
        <ele>202</ele>
        <time>2014-03-08T13:18:44Z</time>
      </trkpt>
      <trkpt lat="43.6188" lon="6.89451">
        <ele>201.2</ele>
        <time>2014-03-08T13:18:45Z</time>
      </trkpt>
      <trkpt lat="43.61876" lon="6.89454">
        <ele>200.4</ele>
        <time>2014-03-08T13:18:46Z</time>
      </trkpt>
      <trkpt lat="43.61872" lon="6.89457">
        <ele>199.6</ele>
        <time>2014-03-08T13:18:47Z</time>
      </trkpt>
      <trkpt lat="43.61867" lon="6.89461">
        <ele>198.8</ele>
        <time>2014-03-08T13:18:48Z</time>
      </trkpt>
      <trkpt lat="43.61863" lon="6.89464">
        <ele>197.8</ele>
        <time>2014-03-08T13:18:49Z</time>
      </trkpt>
      <trkpt lat="43.61859" lon="6.89468">
        <ele>197</ele>
        <time>2014-03-08T13:18:50Z</time>
      </trkpt>
      <trkpt lat="43.61854" lon="6.89471">
        <ele>196.2</ele>
        <time>2014-03-08T13:18:51Z</time>
      </trkpt>
      <trkpt lat="43.6185" lon="6.89473">
        <ele>195.2</ele>
        <time>2014-03-08T13:18:52Z</time>
      </trkpt>
      <trkpt lat="43.61846" lon="6.89474">
        <ele>194.4</ele>
        <time>2014-03-08T13:18:53Z</time>
      </trkpt>
      <trkpt lat="43.61842" lon="6.89474">
        <ele>193.8</ele>
        <time>2014-03-08T13:18:54Z</time>
      </trkpt>
      <trkpt lat="43.61837" lon="6.89473">
        <ele>193</ele>
        <time>2014-03-08T13:18:55Z</time>
      </trkpt>
      <trkpt lat="43.61832" lon="6.89471">
        <ele>192.2</ele>
        <time>2014-03-08T13:18:56Z</time>
      </trkpt>
      <trkpt lat="43.61827" lon="6.8947">
        <ele>191.4</ele>
        <time>2014-03-08T13:18:57Z</time>
      </trkpt>
      <trkpt lat="43.61818" lon="6.89473">
        <ele>191.4</ele>
        <time>2014-03-08T13:18:59Z</time>
      </trkpt>
      <trkpt lat="43.61815" lon="6.89473">
        <ele>191</ele>
        <time>2014-03-08T13:19:00Z</time>
      </trkpt>
      <trkpt lat="43.61812" lon="6.89473">
        <ele>190.6</ele>
        <time>2014-03-08T13:19:01Z</time>
      </trkpt>
      <trkpt lat="43.61809" lon="6.89471">
        <ele>190.2</ele>
        <time>2014-03-08T13:19:02Z</time>
      </trkpt>
      <trkpt lat="43.61806" lon="6.89469">
        <ele>189.8</ele>
        <time>2014-03-08T13:19:03Z</time>
      </trkpt>
      <trkpt lat="43.61804" lon="6.89467">
        <ele>189.2</ele>
        <time>2014-03-08T13:19:04Z</time>
      </trkpt>
      <trkpt lat="43.61799" lon="6.89467">
        <ele>189.2</ele>
        <time>2014-03-08T13:19:06Z</time>
      </trkpt>
      <trkpt lat="43.61798" lon="6.89468">
        <ele>188.8</ele>
        <time>2014-03-08T13:19:07Z</time>
      </trkpt>
      <trkpt lat="43.61797" lon="6.89467">
        <ele>188.2</ele>
        <time>2014-03-08T13:19:08Z</time>
      </trkpt>
      <trkpt lat="43.61796" lon="6.89466">
        <ele>187.6</ele>
        <time>2014-03-08T13:19:09Z</time>
      </trkpt>
      <trkpt lat="43.61794" lon="6.89463">
        <ele>187</ele>
        <time>2014-03-08T13:19:10Z</time>
      </trkpt>
      <trkpt lat="43.61792" lon="6.89461">
        <ele>186.6</ele>
        <time>2014-03-08T13:19:11Z</time>
      </trkpt>
      <trkpt lat="43.61787" lon="6.89456">
        <ele>186</ele>
        <time>2014-03-08T13:19:13Z</time>
      </trkpt>
      <trkpt lat="43.61784" lon="6.89454">
        <ele>185.4</ele>
        <time>2014-03-08T13:19:14Z</time>
      </trkpt>
      <trkpt lat="43.61782" lon="6.89453">
        <ele>184.8</ele>
        <time>2014-03-08T13:19:15Z</time>
      </trkpt>
      <trkpt lat="43.61779" lon="6.89451">
        <ele>184.4</ele>
        <time>2014-03-08T13:19:16Z</time>
      </trkpt>
      <trkpt lat="43.61776" lon="6.8945">
        <ele>183.8</ele>
        <time>2014-03-08T13:19:17Z</time>
      </trkpt>
      <trkpt lat="43.61773" lon="6.89448">
        <ele>183.2</ele>
        <time>2014-03-08T13:19:18Z</time>
      </trkpt>
      <trkpt lat="43.61771" lon="6.89446">
        <ele>182.4</ele>
        <time>2014-03-08T13:19:19Z</time>
      </trkpt>
      <trkpt lat="43.61767" lon="6.89443">
        <ele>181.6</ele>
        <time>2014-03-08T13:19:20Z</time>
      </trkpt>
      <trkpt lat="43.61764" lon="6.89441">
        <ele>181</ele>
        <time>2014-03-08T13:19:21Z</time>
      </trkpt>
      <trkpt lat="43.61759" lon="6.89439">
        <ele>180.2</ele>
        <time>2014-03-08T13:19:22Z</time>
      </trkpt>
      <trkpt lat="43.61755" lon="6.89439">
        <ele>179.4</ele>
        <time>2014-03-08T13:19:23Z</time>
      </trkpt>
      <trkpt lat="43.61752" lon="6.8944">
        <ele>178.6</ele>
        <time>2014-03-08T13:19:24Z</time>
      </trkpt>
      <trkpt lat="43.61749" lon="6.89441">
        <ele>178</ele>
        <time>2014-03-08T13:19:25Z</time>
      </trkpt>
      <trkpt lat="43.61747" lon="6.89441">
        <ele>177.6</ele>
        <time>2014-03-08T13:19:26Z</time>
      </trkpt>
      <trkpt lat="43.61744" lon="6.89442">
        <ele>177.2</ele>
        <time>2014-03-08T13:19:27Z</time>
      </trkpt>
      <trkpt lat="43.61742" lon="6.89443">
        <ele>176.8</ele>
        <time>2014-03-08T13:19:28Z</time>
      </trkpt>
      <trkpt lat="43.61739" lon="6.89442">
        <ele>176.2</ele>
        <time>2014-03-08T13:19:29Z</time>
      </trkpt>
      <trkpt lat="43.61736" lon="6.89441">
        <ele>175.8</ele>
        <time>2014-03-08T13:19:30Z</time>
      </trkpt>
      <trkpt lat="43.61734" lon="6.8944">
        <ele>175.2</ele>
        <time>2014-03-08T13:19:31Z</time>
      </trkpt>
      <trkpt lat="43.61733" lon="6.8944">
        <ele>174.8</ele>
        <time>2014-03-08T13:19:32Z</time>
      </trkpt>
      <trkpt lat="43.61732" lon="6.89441">
        <ele>174.2</ele>
        <time>2014-03-08T13:19:33Z</time>
      </trkpt>
      <trkpt lat="43.6173" lon="6.89444">
        <ele>173.8</ele>
        <time>2014-03-08T13:19:34Z</time>
      </trkpt>
      <trkpt lat="43.61728" lon="6.89447">
        <ele>173.4</ele>
        <time>2014-03-08T13:19:35Z</time>
      </trkpt>
      <trkpt lat="43.61726" lon="6.89451">
        <ele>172.6</ele>
        <time>2014-03-08T13:19:36Z</time>
      </trkpt>
      <trkpt lat="43.61724" lon="6.89455">
        <ele>172</ele>
        <time>2014-03-08T13:19:37Z</time>
      </trkpt>
      <trkpt lat="43.61723" lon="6.89459">
        <ele>171.4</ele>
        <time>2014-03-08T13:19:38Z</time>
      </trkpt>
      <trkpt lat="43.61722" lon="6.89462">
        <ele>170.6</ele>
        <time>2014-03-08T13:19:39Z</time>
      </trkpt>
      <trkpt lat="43.61721" lon="6.89464">
        <ele>170</ele>
        <time>2014-03-08T13:19:40Z</time>
      </trkpt>
      <trkpt lat="43.6172" lon="6.89463">
        <ele>169.6</ele>
        <time>2014-03-08T13:19:41Z</time>
      </trkpt>
      <trkpt lat="43.61719" lon="6.89461">
        <ele>169</ele>
        <time>2014-03-08T13:19:42Z</time>
      </trkpt>
      <trkpt lat="43.61717" lon="6.89458">
        <ele>168.4</ele>
        <time>2014-03-08T13:19:43Z</time>
      </trkpt>
      <trkpt lat="43.61715" lon="6.89454">
        <ele>167.8</ele>
        <time>2014-03-08T13:19:44Z</time>
      </trkpt>
      <trkpt lat="43.61712" lon="6.89444">
        <ele>167.8</ele>
        <time>2014-03-08T13:19:46Z</time>
      </trkpt>
      <trkpt lat="43.61712" lon="6.89439">
        <ele>167.4</ele>
        <time>2014-03-08T13:19:47Z</time>
      </trkpt>
      <trkpt lat="43.61711" lon="6.89434">
        <ele>167</ele>
        <time>2014-03-08T13:19:48Z</time>
      </trkpt>
      <trkpt lat="43.61711" lon="6.89429">
        <ele>166.6</ele>
        <time>2014-03-08T13:19:49Z</time>
      </trkpt>
      <trkpt lat="43.6171" lon="6.89424">
        <ele>166</ele>
        <time>2014-03-08T13:19:50Z</time>
      </trkpt>
      <trkpt lat="43.61708" lon="6.89423">
        <ele>165.2</ele>
        <time>2014-03-08T13:19:51Z</time>
      </trkpt>
      <trkpt lat="43.61705" lon="6.89423">
        <ele>164.6</ele>
        <time>2014-03-08T13:19:52Z</time>
      </trkpt>
      <trkpt lat="43.61703" lon="6.89422">
        <ele>163.8</ele>
        <time>2014-03-08T13:19:53Z</time>
      </trkpt>
      <trkpt lat="43.61701" lon="6.8942">
        <ele>163.2</ele>
        <time>2014-03-08T13:19:54Z</time>
      </trkpt>
      <trkpt lat="43.61701" lon="6.89418">
        <ele>162.4</ele>
        <time>2014-03-08T13:19:55Z</time>
      </trkpt>
      <trkpt lat="43.61699" lon="6.89415">
        <ele>161.6</ele>
        <time>2014-03-08T13:19:56Z</time>
      </trkpt>
      <trkpt lat="43.61697" lon="6.89415">
        <ele>161</ele>
        <time>2014-03-08T13:19:57Z</time>
      </trkpt>
      <trkpt lat="43.61695" lon="6.89417">
        <ele>160.2</ele>
        <time>2014-03-08T13:19:58Z</time>
      </trkpt>
      <trkpt lat="43.61691" lon="6.89421">
        <ele>159.6</ele>
        <time>2014-03-08T13:19:59Z</time>
      </trkpt>
      <trkpt lat="43.61689" lon="6.89425">
        <ele>158.8</ele>
        <time>2014-03-08T13:20:00Z</time>
      </trkpt>
      <trkpt lat="43.61686" lon="6.8943">
        <ele>158.4</ele>
        <time>2014-03-08T13:20:01Z</time>
      </trkpt>
      <trkpt lat="43.61684" lon="6.89433">
        <ele>158</ele>
        <time>2014-03-08T13:20:02Z</time>
      </trkpt>
      <trkpt lat="43.61683" lon="6.89434">
        <ele>157.4</ele>
        <time>2014-03-08T13:20:03Z</time>
      </trkpt>
      <trkpt lat="43.61683" lon="6.89435">
        <ele>157</ele>
        <time>2014-03-08T13:20:04Z</time>
      </trkpt>
      <trkpt lat="43.61683" lon="6.89433">
        <ele>156.4</ele>
        <time>2014-03-08T13:20:05Z</time>
      </trkpt>
      <trkpt lat="43.61683" lon="6.8943">
        <ele>156</ele>
        <time>2014-03-08T13:20:06Z</time>
      </trkpt>
      <trkpt lat="43.61683" lon="6.89426">
        <ele>155.6</ele>
        <time>2014-03-08T13:20:07Z</time>
      </trkpt>
      <trkpt lat="43.61682" lon="6.89421">
        <ele>155.2</ele>
        <time>2014-03-08T13:20:08Z</time>
      </trkpt>
      <trkpt lat="43.61681" lon="6.89415">
        <ele>154.8</ele>
        <time>2014-03-08T13:20:09Z</time>
      </trkpt>
      <trkpt lat="43.61681" lon="6.89409">
        <ele>154.2</ele>
        <time>2014-03-08T13:20:10Z</time>
      </trkpt>
      <trkpt lat="43.61682" lon="6.89404">
        <ele>153.8</ele>
        <time>2014-03-08T13:20:11Z</time>
      </trkpt>
      <trkpt lat="43.61684" lon="6.894">
        <ele>153.2</ele>
        <time>2014-03-08T13:20:12Z</time>
      </trkpt>
      <trkpt lat="43.61686" lon="6.89396">
        <ele>152.6</ele>
        <time>2014-03-08T13:20:13Z</time>
      </trkpt>
      <trkpt lat="43.61687" lon="6.89393">
        <ele>152</ele>
        <time>2014-03-08T13:20:14Z</time>
      </trkpt>
      <trkpt lat="43.61687" lon="6.8939">
        <ele>151.6</ele>
        <time>2014-03-08T13:20:15Z</time>
      </trkpt>
      <trkpt lat="43.61686" lon="6.89387">
        <ele>151.2</ele>
        <time>2014-03-08T13:20:16Z</time>
      </trkpt>
      <trkpt lat="43.61684" lon="6.89384">
        <ele>150.8</ele>
        <time>2014-03-08T13:20:17Z</time>
      </trkpt>
      <trkpt lat="43.61681" lon="6.89382">
        <ele>150.4</ele>
        <time>2014-03-08T13:20:18Z</time>
      </trkpt>
      <trkpt lat="43.61678" lon="6.8938">
        <ele>150</ele>
        <time>2014-03-08T13:20:19Z</time>
      </trkpt>
      <trkpt lat="43.61675" lon="6.89378">
        <ele>150</ele>
        <time>2014-03-08T13:20:20Z</time>
      </trkpt>
      <trkpt lat="43.61672" lon="6.89378">
        <ele>150</ele>
        <time>2014-03-08T13:20:21Z</time>
      </trkpt>
      <trkpt lat="43.61669" lon="6.89378">
        <ele>150</ele>
        <time>2014-03-08T13:20:22Z</time>
      </trkpt>
      <trkpt lat="43.61667" lon="6.89378">
        <ele>149.4</ele>
        <time>2014-03-08T13:20:23Z</time>
      </trkpt>
      <trkpt lat="43.61665" lon="6.89378">
        <ele>149</ele>
        <time>2014-03-08T13:20:24Z</time>
      </trkpt>
      <trkpt lat="43.61663" lon="6.89377">
        <ele>148.6</ele>
        <time>2014-03-08T13:20:25Z</time>
      </trkpt>
      <trkpt lat="43.6166" lon="6.89377">
        <ele>148</ele>
        <time>2014-03-08T13:20:26Z</time>
      </trkpt>
      <trkpt lat="43.61657" lon="6.89377">
        <ele>147.6</ele>
        <time>2014-03-08T13:20:27Z</time>
      </trkpt>
      <trkpt lat="43.61653" lon="6.89377">
        <ele>147</ele>
        <time>2014-03-08T13:20:28Z</time>
      </trkpt>
      <trkpt lat="43.61649" lon="6.89377">
        <ele>146.6</ele>
        <time>2014-03-08T13:20:29Z</time>
      </trkpt>
      <trkpt lat="43.61645" lon="6.89377">
        <ele>146</ele>
        <time>2014-03-08T13:20:30Z</time>
      </trkpt>
      <trkpt lat="43.61641" lon="6.89375">
        <ele>145.6</ele>
        <time>2014-03-08T13:20:31Z</time>
      </trkpt>
      <trkpt lat="43.61637" lon="6.89375">
        <ele>145</ele>
        <time>2014-03-08T13:20:32Z</time>
      </trkpt>
      <trkpt lat="43.61633" lon="6.89374">
        <ele>145</ele>
        <time>2014-03-08T13:20:33Z</time>
      </trkpt>
      <trkpt lat="43.61629" lon="6.89375">
        <ele>144.6</ele>
        <time>2014-03-08T13:20:34Z</time>
      </trkpt>
      <trkpt lat="43.61626" lon="6.89375">
        <ele>144</ele>
        <time>2014-03-08T13:20:35Z</time>
      </trkpt>
      <trkpt lat="43.61622" lon="6.89375">
        <ele>143.6</ele>
        <time>2014-03-08T13:20:36Z</time>
      </trkpt>
      <trkpt lat="43.61619" lon="6.89377">
        <ele>143</ele>
        <time>2014-03-08T13:20:37Z</time>
      </trkpt>
      <trkpt lat="43.61616" lon="6.89378">
        <ele>142.6</ele>
        <time>2014-03-08T13:20:38Z</time>
      </trkpt>
      <trkpt lat="43.61613" lon="6.89381">
        <ele>142.6</ele>
        <time>2014-03-08T13:20:39Z</time>
      </trkpt>
      <trkpt lat="43.61607" lon="6.89391">
        <ele>142.6</ele>
        <time>2014-03-08T13:20:41Z</time>
      </trkpt>
      <trkpt lat="43.61603" lon="6.89396">
        <ele>142.2</ele>
        <time>2014-03-08T13:20:42Z</time>
      </trkpt>
      <trkpt lat="43.61599" lon="6.89401">
        <ele>141.6</ele>
        <time>2014-03-08T13:20:43Z</time>
      </trkpt>
      <trkpt lat="43.61595" lon="6.89405">
        <ele>141.2</ele>
        <time>2014-03-08T13:20:44Z</time>
      </trkpt>
      <trkpt lat="43.6159" lon="6.89407">
        <ele>140.8</ele>
        <time>2014-03-08T13:20:45Z</time>
      </trkpt>
      <trkpt lat="43.61585" lon="6.89408">
        <ele>140.2</ele>
        <time>2014-03-08T13:20:46Z</time>
      </trkpt>
      <trkpt lat="43.61575" lon="6.89415">
        <ele>139.8</ele>
        <time>2014-03-08T13:20:48Z</time>
      </trkpt>
      <trkpt lat="43.61571" lon="6.89422">
        <ele>139.2</ele>
        <time>2014-03-08T13:20:49Z</time>
      </trkpt>
      <trkpt lat="43.61567" lon="6.89427">
        <ele>138.8</ele>
        <time>2014-03-08T13:20:50Z</time>
      </trkpt>
      <trkpt lat="43.61562" lon="6.89431">
        <ele>138.2</ele>
        <time>2014-03-08T13:20:51Z</time>
      </trkpt>
      <trkpt lat="43.61556" lon="6.89432">
        <ele>137.8</ele>
        <time>2014-03-08T13:20:52Z</time>
      </trkpt>
      <trkpt lat="43.61543" lon="6.8943">
        <ele>137.8</ele>
        <time>2014-03-08T13:20:54Z</time>
      </trkpt>
      <trkpt lat="43.61538" lon="6.89429">
        <ele>137.8</ele>
        <time>2014-03-08T13:20:55Z</time>
      </trkpt>
      <trkpt lat="43.61527" lon="6.89434">
        <ele>137.8</ele>
        <time>2014-03-08T13:20:58Z</time>
      </trkpt>
      <trkpt lat="43.61523" lon="6.89436">
        <ele>137.8</ele>
        <time>2014-03-08T13:20:59Z</time>
      </trkpt>
      <trkpt lat="43.61518" lon="6.89436">
        <ele>137.8</ele>
        <time>2014-03-08T13:21:00Z</time>
      </trkpt>
      <trkpt lat="43.6151" lon="6.89431">
        <ele>137.4</ele>
        <time>2014-03-08T13:21:02Z</time>
      </trkpt>
      <trkpt lat="43.61506" lon="6.8943">
        <ele>137</ele>
        <time>2014-03-08T13:21:03Z</time>
      </trkpt>
      <trkpt lat="43.61502" lon="6.8943">
        <ele>136.6</ele>
        <time>2014-03-08T13:21:04Z</time>
      </trkpt>
      <trkpt lat="43.61498" lon="6.89432">
        <ele>136</ele>
        <time>2014-03-08T13:21:05Z</time>
      </trkpt>
      <trkpt lat="43.61494" lon="6.89433">
        <ele>135.4</ele>
        <time>2014-03-08T13:21:06Z</time>
      </trkpt>
      <trkpt lat="43.6149" lon="6.89434">
        <ele>134.8</ele>
        <time>2014-03-08T13:21:07Z</time>
      </trkpt>
      <trkpt lat="43.61486" lon="6.89436">
        <ele>134.2</ele>
        <time>2014-03-08T13:21:08Z</time>
      </trkpt>
      <trkpt lat="43.61481" lon="6.89439">
        <ele>133.6</ele>
        <time>2014-03-08T13:21:09Z</time>
      </trkpt>
      <trkpt lat="43.61478" lon="6.89443">
        <ele>133.6</ele>
        <time>2014-03-08T13:21:10Z</time>
      </trkpt>
      <trkpt lat="43.6147" lon="6.89451">
        <ele>133.6</ele>
        <time>2014-03-08T13:21:13Z</time>
      </trkpt>
      <trkpt lat="43.61467" lon="6.89452">
        <ele>133.6</ele>
        <time>2014-03-08T13:21:14Z</time>
      </trkpt>
      <trkpt lat="43.61464" lon="6.89453">
        <ele>133</ele>
        <time>2014-03-08T13:21:15Z</time>
      </trkpt>
      <trkpt lat="43.61463" lon="6.89457">
        <ele>132.4</ele>
        <time>2014-03-08T13:21:16Z</time>
      </trkpt>
      <trkpt lat="43.61462" lon="6.89461">
        <ele>131.8</ele>
        <time>2014-03-08T13:21:17Z</time>
      </trkpt>
      <trkpt lat="43.61462" lon="6.89465">
        <ele>131</ele>
        <time>2014-03-08T13:21:18Z</time>
      </trkpt>
      <trkpt lat="43.61461" lon="6.89468">
        <ele>130.2</ele>
        <time>2014-03-08T13:21:19Z</time>
      </trkpt>
      <trkpt lat="43.61458" lon="6.89468">
        <ele>129.4</ele>
        <time>2014-03-08T13:21:20Z</time>
      </trkpt>
      <trkpt lat="43.61455" lon="6.89466">
        <ele>128.6</ele>
        <time>2014-03-08T13:21:21Z</time>
      </trkpt>
      <trkpt lat="43.61451" lon="6.89463">
        <ele>127.6</ele>
        <time>2014-03-08T13:21:22Z</time>
      </trkpt>
      <trkpt lat="43.61447" lon="6.8946">
        <ele>126.8</ele>
        <time>2014-03-08T13:21:23Z</time>
      </trkpt>
      <trkpt lat="43.61444" lon="6.89457">
        <ele>125.8</ele>
        <time>2014-03-08T13:21:24Z</time>
      </trkpt>
      <trkpt lat="43.61441" lon="6.89455">
        <ele>125</ele>
        <time>2014-03-08T13:21:25Z</time>
      </trkpt>
      <trkpt lat="43.61438" lon="6.89453">
        <ele>124.4</ele>
        <time>2014-03-08T13:21:26Z</time>
      </trkpt>
      <trkpt lat="43.61436" lon="6.89452">
        <ele>124</ele>
        <time>2014-03-08T13:21:27Z</time>
      </trkpt>
      <trkpt lat="43.61434" lon="6.89451">
        <ele>123.6</ele>
        <time>2014-03-08T13:21:28Z</time>
      </trkpt>
      <trkpt lat="43.61431" lon="6.89452">
        <ele>122.8</ele>
        <time>2014-03-08T13:21:29Z</time>
      </trkpt>
      <trkpt lat="43.61428" lon="6.89453">
        <ele>122.2</ele>
        <time>2014-03-08T13:21:30Z</time>
      </trkpt>
      <trkpt lat="43.61425" lon="6.89454">
        <ele>121.2</ele>
        <time>2014-03-08T13:21:31Z</time>
      </trkpt>
      <trkpt lat="43.61423" lon="6.89455">
        <ele>120.4</ele>
        <time>2014-03-08T13:21:32Z</time>
      </trkpt>
      <trkpt lat="43.6142" lon="6.89454">
        <ele>119.6</ele>
        <time>2014-03-08T13:21:33Z</time>
      </trkpt>
      <trkpt lat="43.61417" lon="6.89453">
        <ele>118.6</ele>
        <time>2014-03-08T13:21:34Z</time>
      </trkpt>
      <trkpt lat="43.61413" lon="6.8945">
        <ele>117.6</ele>
        <time>2014-03-08T13:21:35Z</time>
      </trkpt>
      <trkpt lat="43.6141" lon="6.89448">
        <ele>116.8</ele>
        <time>2014-03-08T13:21:36Z</time>
      </trkpt>
      <trkpt lat="43.61407" lon="6.89447">
        <ele>116</ele>
        <time>2014-03-08T13:21:37Z</time>
      </trkpt>
      <trkpt lat="43.61405" lon="6.89446">
        <ele>115.2</ele>
        <time>2014-03-08T13:21:38Z</time>
      </trkpt>
      <trkpt lat="43.61403" lon="6.89446">
        <ele>114.4</ele>
        <time>2014-03-08T13:21:39Z</time>
      </trkpt>
      <trkpt lat="43.61402" lon="6.89447">
        <ele>113.6</ele>
        <time>2014-03-08T13:21:40Z</time>
      </trkpt>
      <trkpt lat="43.61399" lon="6.89447">
        <ele>112.8</ele>
        <time>2014-03-08T13:21:41Z</time>
      </trkpt>
      <trkpt lat="43.61396" lon="6.89447">
        <ele>112</ele>
        <time>2014-03-08T13:21:42Z</time>
      </trkpt>
      <trkpt lat="43.61391" lon="6.89447">
        <ele>111</ele>
        <time>2014-03-08T13:21:43Z</time>
      </trkpt>
      <trkpt lat="43.61386" lon="6.89447">
        <ele>110</ele>
        <time>2014-03-08T13:21:44Z</time>
      </trkpt>
      <trkpt lat="43.61381" lon="6.89446">
        <ele>109</ele>
        <time>2014-03-08T13:21:45Z</time>
      </trkpt>
      <trkpt lat="43.61375" lon="6.89444">
        <ele>108</ele>
        <time>2014-03-08T13:21:46Z</time>
      </trkpt>
      <trkpt lat="43.6137" lon="6.89442">
        <ele>107</ele>
        <time>2014-03-08T13:21:47Z</time>
      </trkpt>
      <trkpt lat="43.61365" lon="6.89439">
        <ele>106</ele>
        <time>2014-03-08T13:21:48Z</time>
      </trkpt>
      <trkpt lat="43.61361" lon="6.89437">
        <ele>104.8</ele>
        <time>2014-03-08T13:21:49Z</time>
      </trkpt>
      <trkpt lat="43.61357" lon="6.89436">
        <ele>103.8</ele>
        <time>2014-03-08T13:21:50Z</time>
      </trkpt>
      <trkpt lat="43.61353" lon="6.89435">
        <ele>102.8</ele>
        <time>2014-03-08T13:21:51Z</time>
      </trkpt>
      <trkpt lat="43.6135" lon="6.89434">
        <ele>102</ele>
        <time>2014-03-08T13:21:52Z</time>
      </trkpt>
      <trkpt lat="43.61347" lon="6.89433">
        <ele>101</ele>
        <time>2014-03-08T13:21:53Z</time>
      </trkpt>
      <trkpt lat="43.61343" lon="6.89432">
        <ele>100.2</ele>
        <time>2014-03-08T13:21:54Z</time>
      </trkpt>
      <trkpt lat="43.61339" lon="6.89432">
        <ele>99.4</ele>
        <time>2014-03-08T13:21:55Z</time>
      </trkpt>
      <trkpt lat="43.61335" lon="6.89431">
        <ele>98.6</ele>
        <time>2014-03-08T13:21:56Z</time>
      </trkpt>
      <trkpt lat="43.61331" lon="6.8943">
        <ele>97.6</ele>
        <time>2014-03-08T13:21:57Z</time>
      </trkpt>
      <trkpt lat="43.61328" lon="6.89429">
        <ele>96.6</ele>
        <time>2014-03-08T13:21:58Z</time>
      </trkpt>
      <trkpt lat="43.61325" lon="6.89428">
        <ele>95.4</ele>
        <time>2014-03-08T13:21:59Z</time>
      </trkpt>
      <trkpt lat="43.61322" lon="6.89427">
        <ele>94.6</ele>
        <time>2014-03-08T13:22:00Z</time>
      </trkpt>
      <trkpt lat="43.6132" lon="6.89426">
        <ele>93.6</ele>
        <time>2014-03-08T13:22:01Z</time>
      </trkpt>
      <trkpt lat="43.61316" lon="6.89424">
        <ele>92.6</ele>
        <time>2014-03-08T13:22:02Z</time>
      </trkpt>
      <trkpt lat="43.61313" lon="6.89423">
        <ele>91.8</ele>
        <time>2014-03-08T13:22:03Z</time>
      </trkpt>
      <trkpt lat="43.6131" lon="6.89422">
        <ele>91</ele>
        <time>2014-03-08T13:22:04Z</time>
      </trkpt>
      <trkpt lat="43.61307" lon="6.8942">
        <ele>90</ele>
        <time>2014-03-08T13:22:05Z</time>
      </trkpt>
      <trkpt lat="43.61304" lon="6.89417">
        <ele>89.2</ele>
        <time>2014-03-08T13:22:06Z</time>
      </trkpt>
      <trkpt lat="43.61301" lon="6.89415">
        <ele>88.2</ele>
        <time>2014-03-08T13:22:07Z</time>
      </trkpt>
      <trkpt lat="43.613" lon="6.89414">
        <ele>87.4</ele>
        <time>2014-03-08T13:22:08Z</time>
      </trkpt>
      <trkpt lat="43.61299" lon="6.89415">
        <ele>86.8</ele>
        <time>2014-03-08T13:22:09Z</time>
      </trkpt>
      <trkpt lat="43.61299" lon="6.89419">
        <ele>86.2</ele>
        <time>2014-03-08T13:22:10Z</time>
      </trkpt>
      <trkpt lat="43.61298" lon="6.89422">
        <ele>85.6</ele>
        <time>2014-03-08T13:22:11Z</time>
      </trkpt>
      <trkpt lat="43.61297" lon="6.89423">
        <ele>84.8</ele>
        <time>2014-03-08T13:22:12Z</time>
      </trkpt>
      <trkpt lat="43.61296" lon="6.89421">
        <ele>84.2</ele>
        <time>2014-03-08T13:22:13Z</time>
      </trkpt>
      <trkpt lat="43.61294" lon="6.89417">
        <ele>84.2</ele>
        <time>2014-03-08T13:22:14Z</time>
      </trkpt>
      <trkpt lat="43.61291" lon="6.89413">
        <ele>83.8</ele>
        <time>2014-03-08T13:22:15Z</time>
      </trkpt>
      <trkpt lat="43.61289" lon="6.89409">
        <ele>83.4</ele>
        <time>2014-03-08T13:22:16Z</time>
      </trkpt>
      <trkpt lat="43.61286" lon="6.89408">
        <ele>83</ele>
        <time>2014-03-08T13:22:17Z</time>
      </trkpt>
      <trkpt lat="43.61282" lon="6.89409">
        <ele>82.6</ele>
        <time>2014-03-08T13:22:18Z</time>
      </trkpt>
      <trkpt lat="43.6128" lon="6.89411">
        <ele>82</ele>
        <time>2014-03-08T13:22:19Z</time>
      </trkpt>
      <trkpt lat="43.61277" lon="6.89413">
        <ele>81.6</ele>
        <time>2014-03-08T13:22:20Z</time>
      </trkpt>
      <trkpt lat="43.61276" lon="6.89415">
        <ele>81</ele>
        <time>2014-03-08T13:22:21Z</time>
      </trkpt>
      <trkpt lat="43.61275" lon="6.89414">
        <ele>80.6</ele>
        <time>2014-03-08T13:22:22Z</time>
      </trkpt>
      <trkpt lat="43.61273" lon="6.89411">
        <ele>80</ele>
        <time>2014-03-08T13:22:23Z</time>
      </trkpt>
      <trkpt lat="43.61272" lon="6.89407">
        <ele>79.4</ele>
        <time>2014-03-08T13:22:24Z</time>
      </trkpt>
      <trkpt lat="43.61271" lon="6.89401">
        <ele>78.8</ele>
        <time>2014-03-08T13:22:25Z</time>
      </trkpt>
      <trkpt lat="43.61271" lon="6.89393">
        <ele>78.4</ele>
        <time>2014-03-08T13:22:26Z</time>
      </trkpt>
      <trkpt lat="43.61271" lon="6.89387">
        <ele>77.6</ele>
        <time>2014-03-08T13:22:27Z</time>
      </trkpt>
      <trkpt lat="43.61272" lon="6.89381">
        <ele>77</ele>
        <time>2014-03-08T13:22:28Z</time>
      </trkpt>
      <trkpt lat="43.61273" lon="6.89377">
        <ele>76.4</ele>
        <time>2014-03-08T13:22:29Z</time>
      </trkpt>
      <trkpt lat="43.61274" lon="6.89374">
        <ele>75.8</ele>
        <time>2014-03-08T13:22:30Z</time>
      </trkpt>
      <trkpt lat="43.61275" lon="6.89371">
        <ele>75.2</ele>
        <time>2014-03-08T13:22:31Z</time>
      </trkpt>
      <trkpt lat="43.61276" lon="6.89367">
        <ele>74.6</ele>
        <time>2014-03-08T13:22:32Z</time>
      </trkpt>
      <trkpt lat="43.61277" lon="6.89363">
        <ele>74.2</ele>
        <time>2014-03-08T13:22:33Z</time>
      </trkpt>
      <trkpt lat="43.61277" lon="6.89357">
        <ele>73.6</ele>
        <time>2014-03-08T13:22:34Z</time>
      </trkpt>
      <trkpt lat="43.61277" lon="6.89351">
        <ele>73</ele>
        <time>2014-03-08T13:22:35Z</time>
      </trkpt>
      <trkpt lat="43.61277" lon="6.89344">
        <ele>72.4</ele>
        <time>2014-03-08T13:22:36Z</time>
      </trkpt>
      <trkpt lat="43.61277" lon="6.89339">
        <ele>72</ele>
        <time>2014-03-08T13:22:37Z</time>
      </trkpt>
      <trkpt lat="43.61277" lon="6.89335">
        <ele>71.2</ele>
        <time>2014-03-08T13:22:38Z</time>
      </trkpt>
      <trkpt lat="43.61277" lon="6.89332">
        <ele>70.6</ele>
        <time>2014-03-08T13:22:39Z</time>
      </trkpt>
      <trkpt lat="43.61277" lon="6.89329">
        <ele>70</ele>
        <time>2014-03-08T13:22:40Z</time>
      </trkpt>
      <trkpt lat="43.61278" lon="6.89326">
        <ele>69.2</ele>
        <time>2014-03-08T13:22:41Z</time>
      </trkpt>
      <trkpt lat="43.61279" lon="6.89322">
        <ele>68.6</ele>
        <time>2014-03-08T13:22:42Z</time>
      </trkpt>
      <trkpt lat="43.61281" lon="6.89319">
        <ele>67.8</ele>
        <time>2014-03-08T13:22:43Z</time>
      </trkpt>
      <trkpt lat="43.61282" lon="6.89316">
        <ele>67.2</ele>
        <time>2014-03-08T13:22:44Z</time>
      </trkpt>
      <trkpt lat="43.61283" lon="6.89314">
        <ele>66.6</ele>
        <time>2014-03-08T13:22:45Z</time>
      </trkpt>
      <trkpt lat="43.61283" lon="6.89312">
        <ele>66</ele>
        <time>2014-03-08T13:22:46Z</time>
      </trkpt>
      <trkpt lat="43.61282" lon="6.89311">
        <ele>65.6</ele>
        <time>2014-03-08T13:22:47Z</time>
      </trkpt>
      <trkpt lat="43.6128" lon="6.8931">
        <ele>65.2</ele>
        <time>2014-03-08T13:22:48Z</time>
      </trkpt>
      <trkpt lat="43.61278" lon="6.8931">
        <ele>64.6</ele>
        <time>2014-03-08T13:22:49Z</time>
      </trkpt>
      <trkpt lat="43.61276" lon="6.89312">
        <ele>64</ele>
        <time>2014-03-08T13:22:50Z</time>
      </trkpt>
      <trkpt lat="43.61274" lon="6.89315">
        <ele>63.4</ele>
        <time>2014-03-08T13:22:51Z</time>
      </trkpt>
      <trkpt lat="43.61271" lon="6.89316">
        <ele>62.8</ele>
        <time>2014-03-08T13:22:52Z</time>
      </trkpt>
      <trkpt lat="43.61268" lon="6.89317">
        <ele>62.2</ele>
        <time>2014-03-08T13:22:53Z</time>
      </trkpt>
      <trkpt lat="43.61266" lon="6.89316">
        <ele>61.4</ele>
        <time>2014-03-08T13:22:54Z</time>
      </trkpt>
      <trkpt lat="43.61264" lon="6.89317">
        <ele>60.6</ele>
        <time>2014-03-08T13:22:55Z</time>
      </trkpt>
      <trkpt lat="43.61263" lon="6.89317">
        <ele>60</ele>
        <time>2014-03-08T13:22:56Z</time>
      </trkpt>
      <trkpt lat="43.61262" lon="6.89316">
        <ele>59.2</ele>
        <time>2014-03-08T13:22:57Z</time>
      </trkpt>
      <trkpt lat="43.61262" lon="6.89313">
        <ele>58.4</ele>
        <time>2014-03-08T13:22:58Z</time>
      </trkpt>
      <trkpt lat="43.61262" lon="6.8931">
        <ele>57.8</ele>
        <time>2014-03-08T13:22:59Z</time>
      </trkpt>
      <trkpt lat="43.61263" lon="6.89306">
        <ele>57.2</ele>
        <time>2014-03-08T13:23:00Z</time>
      </trkpt>
      <trkpt lat="43.61264" lon="6.89303">
        <ele>56.6</ele>
        <time>2014-03-08T13:23:01Z</time>
      </trkpt>
      <trkpt lat="43.61265" lon="6.893">
        <ele>56</ele>
        <time>2014-03-08T13:23:02Z</time>
      </trkpt>
      <trkpt lat="43.61266" lon="6.89296">
        <ele>55.4</ele>
        <time>2014-03-08T13:23:03Z</time>
      </trkpt>
      <trkpt lat="43.61267" lon="6.89292">
        <ele>54.6</ele>
        <time>2014-03-08T13:23:04Z</time>
      </trkpt>
      <trkpt lat="43.61267" lon="6.89288">
        <ele>54</ele>
        <time>2014-03-08T13:23:05Z</time>
      </trkpt>
      <trkpt lat="43.61268" lon="6.89284">
        <ele>53.4</ele>
        <time>2014-03-08T13:23:06Z</time>
      </trkpt>
      <trkpt lat="43.6127" lon="6.89281">
        <ele>52.6</ele>
        <time>2014-03-08T13:23:07Z</time>
      </trkpt>
      <trkpt lat="43.61273" lon="6.89279">
        <ele>52</ele>
        <time>2014-03-08T13:23:08Z</time>
      </trkpt>
      <trkpt lat="43.61275" lon="6.89277">
        <ele>51.2</ele>
        <time>2014-03-08T13:23:09Z</time>
      </trkpt>
      <trkpt lat="43.61277" lon="6.89276">
        <ele>50.4</ele>
        <time>2014-03-08T13:23:10Z</time>
      </trkpt>
      <trkpt lat="43.61278" lon="6.89274">
        <ele>49.6</ele>
        <time>2014-03-08T13:23:11Z</time>
      </trkpt>
      <trkpt lat="43.61278" lon="6.89273">
        <ele>48.8</ele>
        <time>2014-03-08T13:23:12Z</time>
      </trkpt>
      <trkpt lat="43.61277" lon="6.89271">
        <ele>48</ele>
        <time>2014-03-08T13:23:13Z</time>
      </trkpt>
      <trkpt lat="43.61275" lon="6.8927">
        <ele>47.4</ele>
        <time>2014-03-08T13:23:14Z</time>
      </trkpt>
      <trkpt lat="43.61271" lon="6.8927">
        <ele>46.8</ele>
        <time>2014-03-08T13:23:15Z</time>
      </trkpt>
      <trkpt lat="43.61268" lon="6.89271">
        <ele>46.2</ele>
        <time>2014-03-08T13:23:16Z</time>
      </trkpt>
      <trkpt lat="43.61265" lon="6.89273">
        <ele>45.4</ele>
        <time>2014-03-08T13:23:17Z</time>
      </trkpt>
      <trkpt lat="43.61262" lon="6.89275">
        <ele>44.6</ele>
        <time>2014-03-08T13:23:18Z</time>
      </trkpt>
      <trkpt lat="43.61259" lon="6.89276">
        <ele>43.6</ele>
        <time>2014-03-08T13:23:19Z</time>
      </trkpt>
      <trkpt lat="43.61256" lon="6.89276">
        <ele>42.8</ele>
        <time>2014-03-08T13:23:20Z</time>
      </trkpt>
      <trkpt lat="43.61253" lon="6.89277">
        <ele>41.8</ele>
        <time>2014-03-08T13:23:21Z</time>
      </trkpt>
      <trkpt lat="43.6125" lon="6.89277">
        <ele>41</ele>
        <time>2014-03-08T13:23:22Z</time>
      </trkpt>
      <trkpt lat="43.61247" lon="6.89276">
        <ele>40.2</ele>
        <time>2014-03-08T13:23:23Z</time>
      </trkpt>
      <trkpt lat="43.61245" lon="6.89275">
        <ele>39.4</ele>
        <time>2014-03-08T13:23:24Z</time>
      </trkpt>
      <trkpt lat="43.61243" lon="6.89276">
        <ele>38.6</ele>
        <time>2014-03-08T13:23:25Z</time>
      </trkpt>
      <trkpt lat="43.61241" lon="6.89276">
        <ele>37.8</ele>
        <time>2014-03-08T13:23:26Z</time>
      </trkpt>
      <trkpt lat="43.61239" lon="6.89277">
        <ele>37</ele>
        <time>2014-03-08T13:23:27Z</time>
      </trkpt>
      <trkpt lat="43.61237" lon="6.89278">
        <ele>36.4</ele>
        <time>2014-03-08T13:23:28Z</time>
      </trkpt>
      <trkpt lat="43.61235" lon="6.89279">
        <ele>35.8</ele>
        <time>2014-03-08T13:23:29Z</time>
      </trkpt>
      <trkpt lat="43.61232" lon="6.89278">
        <ele>35.2</ele>
        <time>2014-03-08T13:23:30Z</time>
      </trkpt>
      <trkpt lat="43.61231" lon="6.89277">
        <ele>34.6</ele>
        <time>2014-03-08T13:23:31Z</time>
      </trkpt>
      <trkpt lat="43.61229" lon="6.89276">
        <ele>33.8</ele>
        <time>2014-03-08T13:23:32Z</time>
      </trkpt>
      <trkpt lat="43.61227" lon="6.89276">
        <ele>33</ele>
        <time>2014-03-08T13:23:33Z</time>
      </trkpt>
      <trkpt lat="43.61226" lon="6.89275">
        <ele>32.2</ele>
        <time>2014-03-08T13:23:34Z</time>
      </trkpt>
      <trkpt lat="43.61225" lon="6.89273">
        <ele>31.6</ele>
        <time>2014-03-08T13:23:35Z</time>
      </trkpt>
      <trkpt lat="43.61224" lon="6.89269">
        <ele>30.8</ele>
        <time>2014-03-08T13:23:36Z</time>
      </trkpt>
      <trkpt lat="43.61224" lon="6.89265">
        <ele>30</ele>
        <time>2014-03-08T13:23:37Z</time>
      </trkpt>
      <trkpt lat="43.61223" lon="6.89262">
        <ele>29.2</ele>
        <time>2014-03-08T13:23:38Z</time>
      </trkpt>
      <trkpt lat="43.61221" lon="6.89261">
        <ele>28.6</ele>
        <time>2014-03-08T13:23:39Z</time>
      </trkpt>
      <trkpt lat="43.61219" lon="6.89262">
        <ele>27.8</ele>
        <time>2014-03-08T13:23:40Z</time>
      </trkpt>
      <trkpt lat="43.61217" lon="6.89264">
        <ele>27.2</ele>
        <time>2014-03-08T13:23:41Z</time>
      </trkpt>
      <trkpt lat="43.61216" lon="6.89266">
        <ele>26.6</ele>
        <time>2014-03-08T13:23:42Z</time>
      </trkpt>
      <trkpt lat="43.61215" lon="6.89269">
        <ele>26.2</ele>
        <time>2014-03-08T13:23:43Z</time>
      </trkpt>
      <trkpt lat="43.61215" lon="6.89271">
        <ele>25.6</ele>
        <time>2014-03-08T13:23:44Z</time>
      </trkpt>
      <trkpt lat="43.61215" lon="6.89273">
        <ele>25</ele>
        <time>2014-03-08T13:23:45Z</time>
      </trkpt>
      <trkpt lat="43.61214" lon="6.89279">
        <ele>25</ele>
        <time>2014-03-08T13:23:47Z</time>
      </trkpt>
      <trkpt lat="43.61214" lon="6.89282">
        <ele>25</ele>
        <time>2014-03-08T13:23:48Z</time>
      </trkpt>
      <trkpt lat="43.61215" lon="6.89297">
        <ele>25</ele>
        <time>2014-03-08T13:23:52Z</time>
      </trkpt>
      <trkpt lat="43.61218" lon="6.89312">
        <ele>25</ele>
        <time>2014-03-08T13:23:57Z</time>
      </trkpt>
      <trkpt lat="43.61218" lon="6.89332">
        <ele>25</ele>
        <time>2014-03-08T13:24:03Z</time>
      </trkpt>
      <trkpt lat="43.61217" lon="6.89349">
        <ele>25</ele>
        <time>2014-03-08T13:24:07Z</time>
      </trkpt>
      <trkpt lat="43.6122" lon="6.89373">
        <ele>-62.2</ele>
        <time>2014-03-08T13:24:21Z</time>
      </trkpt>
      <trkpt lat="43.61219" lon="6.89376">
        <ele>-71</ele>
        <time>2014-03-08T13:24:28Z</time>
      </trkpt>
      <trkpt lat="43.61211" lon="6.89388">
        <ele>-71</ele>
        <time>2014-03-08T13:24:43Z</time>
      </trkpt>
      <trkpt lat="43.61206" lon="6.89398">
        <ele>-71</ele>
        <time>2014-03-08T13:24:48Z</time>
      </trkpt>
      <trkpt lat="43.61196" lon="6.89422">
        <ele>-71</ele>
        <time>2014-03-08T13:24:54Z</time>
      </trkpt>
      <trkpt lat="43.61181" lon="6.89444">
        <ele>-71</ele>
        <time>2014-03-08T13:24:59Z</time>
      </trkpt>
      <trkpt lat="43.61175" lon="6.89449">
        <ele>-70.4</ele>
        <time>2014-03-08T13:25:01Z</time>
      </trkpt>
      <trkpt lat="43.61172" lon="6.89452">
        <ele>-69.2</ele>
        <time>2014-03-08T13:25:02Z</time>
      </trkpt>
      <trkpt lat="43.61168" lon="6.89455">
        <ele>-67.8</ele>
        <time>2014-03-08T13:25:03Z</time>
      </trkpt>
      <trkpt lat="43.61161" lon="6.8946">
        <ele>-66</ele>
        <time>2014-03-08T13:25:05Z</time>
      </trkpt>
      <trkpt lat="43.61157" lon="6.89463">
        <ele>-64</ele>
        <time>2014-03-08T13:25:06Z</time>
      </trkpt>
      <trkpt lat="43.61153" lon="6.89466">
        <ele>-62</ele>
        <time>2014-03-08T13:25:07Z</time>
      </trkpt>
      <trkpt lat="43.61149" lon="6.89469">
        <ele>-59.6</ele>
        <time>2014-03-08T13:25:08Z</time>
      </trkpt>
      <trkpt lat="43.61145" lon="6.89472">
        <ele>-57.4</ele>
        <time>2014-03-08T13:25:09Z</time>
      </trkpt>
      <trkpt lat="43.61142" lon="6.89475">
        <ele>-55</ele>
        <time>2014-03-08T13:25:10Z</time>
      </trkpt>
      <trkpt lat="43.61138" lon="6.89478">
        <ele>-52.6</ele>
        <time>2014-03-08T13:25:11Z</time>
      </trkpt>
      <trkpt lat="43.61134" lon="6.89482">
        <ele>-50.2</ele>
        <time>2014-03-08T13:25:12Z</time>
      </trkpt>
      <trkpt lat="43.6113" lon="6.89485">
        <ele>-48</ele>
        <time>2014-03-08T13:25:13Z</time>
      </trkpt>
      <trkpt lat="43.61126" lon="6.89488">
        <ele>-45.6</ele>
        <time>2014-03-08T13:25:14Z</time>
      </trkpt>
      <trkpt lat="43.61122" lon="6.89491">
        <ele>-43.6</ele>
        <time>2014-03-08T13:25:15Z</time>
      </trkpt>
      <trkpt lat="43.61118" lon="6.89494">
        <ele>-41.6</ele>
        <time>2014-03-08T13:25:16Z</time>
      </trkpt>
      <trkpt lat="43.61114" lon="6.89497">
        <ele>-39.6</ele>
        <time>2014-03-08T13:25:17Z</time>
      </trkpt>
      <trkpt lat="43.6111" lon="6.895">
        <ele>-37.6</ele>
        <time>2014-03-08T13:25:18Z</time>
      </trkpt>
      <trkpt lat="43.61106" lon="6.89503">
        <ele>-35.6</ele>
        <time>2014-03-08T13:25:19Z</time>
      </trkpt>
      <trkpt lat="43.61103" lon="6.89505">
        <ele>-33.6</ele>
        <time>2014-03-08T13:25:20Z</time>
      </trkpt>
      <trkpt lat="43.61099" lon="6.89507">
        <ele>-31.6</ele>
        <time>2014-03-08T13:25:21Z</time>
      </trkpt>
      <trkpt lat="43.61096" lon="6.89509">
        <ele>-29.8</ele>
        <time>2014-03-08T13:25:22Z</time>
      </trkpt>
      <trkpt lat="43.61092" lon="6.89511">
        <ele>-27.8</ele>
        <time>2014-03-08T13:25:23Z</time>
      </trkpt>
      <trkpt lat="43.61089" lon="6.89514">
        <ele>-26</ele>
        <time>2014-03-08T13:25:24Z</time>
      </trkpt>
      <trkpt lat="43.61086" lon="6.89516">
        <ele>-24.2</ele>
        <time>2014-03-08T13:25:25Z</time>
      </trkpt>
      <trkpt lat="43.61082" lon="6.89519">
        <ele>-22.6</ele>
        <time>2014-03-08T13:25:26Z</time>
      </trkpt>
      <trkpt lat="43.61078" lon="6.89521">
        <ele>-21</ele>
        <time>2014-03-08T13:25:27Z</time>
      </trkpt>
      <trkpt lat="43.61075" lon="6.89524">
        <ele>-19.4</ele>
        <time>2014-03-08T13:25:28Z</time>
      </trkpt>
      <trkpt lat="43.61071" lon="6.89527">
        <ele>-18</ele>
        <time>2014-03-08T13:25:29Z</time>
      </trkpt>
      <trkpt lat="43.61067" lon="6.8953">
        <ele>-16.4</ele>
        <time>2014-03-08T13:25:30Z</time>
      </trkpt>
      <trkpt lat="43.61063" lon="6.89532">
        <ele>-15.2</ele>
        <time>2014-03-08T13:25:31Z</time>
      </trkpt>
      <trkpt lat="43.61059" lon="6.89535">
        <ele>-13.8</ele>
        <time>2014-03-08T13:25:32Z</time>
      </trkpt>
      <trkpt lat="43.61054" lon="6.89538">
        <ele>-12.4</ele>
        <time>2014-03-08T13:25:33Z</time>
      </trkpt>
      <trkpt lat="43.6105" lon="6.8954">
        <ele>-11.4</ele>
        <time>2014-03-08T13:25:34Z</time>
      </trkpt>
      <trkpt lat="43.61046" lon="6.89543">
        <ele>-10.4</ele>
        <time>2014-03-08T13:25:35Z</time>
      </trkpt>
      <trkpt lat="43.61042" lon="6.89546">
        <ele>-9.4</ele>
        <time>2014-03-08T13:25:36Z</time>
      </trkpt>
      <trkpt lat="43.61038" lon="6.89548">
        <ele>-8.6</ele>
        <time>2014-03-08T13:25:37Z</time>
      </trkpt>
      <trkpt lat="43.61034" lon="6.89551">
        <ele>-7.6</ele>
        <time>2014-03-08T13:25:38Z</time>
      </trkpt>
      <trkpt lat="43.6103" lon="6.89554">
        <ele>-6.6</ele>
        <time>2014-03-08T13:25:39Z</time>
      </trkpt>
      <trkpt lat="43.61027" lon="6.89556">
        <ele>-5.6</ele>
        <time>2014-03-08T13:25:40Z</time>
      </trkpt>
      <trkpt lat="43.61023" lon="6.89559">
        <ele>-4.6</ele>
        <time>2014-03-08T13:25:41Z</time>
      </trkpt>
      <trkpt lat="43.61019" lon="6.89562">
        <ele>-3.8</ele>
        <time>2014-03-08T13:25:42Z</time>
      </trkpt>
      <trkpt lat="43.61015" lon="6.89565">
        <ele>-2.8</ele>
        <time>2014-03-08T13:25:43Z</time>
      </trkpt>
      <trkpt lat="43.61011" lon="6.89568">
        <ele>-2</ele>
        <time>2014-03-08T13:25:44Z</time>
      </trkpt>
      <trkpt lat="43.61008" lon="6.89571">
        <ele>-1.2</ele>
        <time>2014-03-08T13:25:45Z</time>
      </trkpt>
      <trkpt lat="43.61004" lon="6.89574">
        <ele>-0.4</ele>
        <time>2014-03-08T13:25:46Z</time>
      </trkpt>
      <trkpt lat="43.61" lon="6.89577">
        <ele>0.2</ele>
        <time>2014-03-08T13:25:47Z</time>
      </trkpt>
      <trkpt lat="43.60996" lon="6.8958">
        <ele>1</ele>
        <time>2014-03-08T13:25:48Z</time>
      </trkpt>
      <trkpt lat="43.60992" lon="6.89583">
        <ele>1.6</ele>
        <time>2014-03-08T13:25:49Z</time>
      </trkpt>
      <trkpt lat="43.60988" lon="6.89586">
        <ele>2.2</ele>
        <time>2014-03-08T13:25:50Z</time>
      </trkpt>
      <trkpt lat="43.60984" lon="6.8959">
        <ele>2.8</ele>
        <time>2014-03-08T13:25:51Z</time>
      </trkpt>
      <trkpt lat="43.6098" lon="6.89593">
        <ele>3.4</ele>
        <time>2014-03-08T13:25:52Z</time>
      </trkpt>
      <trkpt lat="43.60976" lon="6.89597">
        <ele>4</ele>
        <time>2014-03-08T13:25:53Z</time>
      </trkpt>
      <trkpt lat="43.6097" lon="6.89603">
        <ele>4.6</ele>
        <time>2014-03-08T13:25:54Z</time>
      </trkpt>
      <trkpt lat="43.60965" lon="6.89609">
        <ele>5</ele>
        <time>2014-03-08T13:25:55Z</time>
      </trkpt>
      <trkpt lat="43.60961" lon="6.89614">
        <ele>5.4</ele>
        <time>2014-03-08T13:25:56Z</time>
      </trkpt>
      <trkpt lat="43.60958" lon="6.89618">
        <ele>5.8</ele>
        <time>2014-03-08T13:25:57Z</time>
      </trkpt>
      <trkpt lat="43.60955" lon="6.89623">
        <ele>6.4</ele>
        <time>2014-03-08T13:25:58Z</time>
      </trkpt>
      <trkpt lat="43.60954" lon="6.89626">
        <ele>6.8</ele>
        <time>2014-03-08T13:25:59Z</time>
      </trkpt>
      <trkpt lat="43.60952" lon="6.89631">
        <ele>6.8</ele>
        <time>2014-03-08T13:26:00Z</time>
      </trkpt>
      <trkpt lat="43.60949" lon="6.89635">
        <ele>7.2</ele>
        <time>2014-03-08T13:26:01Z</time>
      </trkpt>
      <trkpt lat="43.60946" lon="6.89639">
        <ele>7.6</ele>
        <time>2014-03-08T13:26:02Z</time>
      </trkpt>
      <trkpt lat="43.60943" lon="6.89643">
        <ele>8</ele>
        <time>2014-03-08T13:26:03Z</time>
      </trkpt>
      <trkpt lat="43.60941" lon="6.89647">
        <ele>8.6</ele>
        <time>2014-03-08T13:26:04Z</time>
      </trkpt>
      <trkpt lat="43.6094" lon="6.89651">
        <ele>9</ele>
        <time>2014-03-08T13:26:05Z</time>
      </trkpt>
      <trkpt lat="43.60938" lon="6.89656">
        <ele>9</ele>
        <time>2014-03-08T13:26:06Z</time>
      </trkpt>
      <trkpt lat="43.60931" lon="6.89672">
        <ele>9.4</ele>
        <time>2014-03-08T13:26:09Z</time>
      </trkpt>
      <trkpt lat="43.60928" lon="6.89678">
        <ele>10</ele>
        <time>2014-03-08T13:26:10Z</time>
      </trkpt>
      <trkpt lat="43.60925" lon="6.89685">
        <ele>10.4</ele>
        <time>2014-03-08T13:26:11Z</time>
      </trkpt>
      <trkpt lat="43.60922" lon="6.89691">
        <ele>10.8</ele>
        <time>2014-03-08T13:26:12Z</time>
      </trkpt>
      <trkpt lat="43.6092" lon="6.89698">
        <ele>11.2</ele>
        <time>2014-03-08T13:26:13Z</time>
      </trkpt>
      <trkpt lat="43.60918" lon="6.89703">
        <ele>11.2</ele>
        <time>2014-03-08T13:26:14Z</time>
      </trkpt>
      <trkpt lat="43.60916" lon="6.89708">
        <ele>11.2</ele>
        <time>2014-03-08T13:26:15Z</time>
      </trkpt>
      <trkpt lat="43.60913" lon="6.89712">
        <ele>11.4</ele>
        <time>2014-03-08T13:26:16Z</time>
      </trkpt>
      <trkpt lat="43.60911" lon="6.89715">
        <ele>10.4</ele>
        <time>2014-03-08T13:26:17Z</time>
      </trkpt>
      <trkpt lat="43.60909" lon="6.8972">
        <ele>10.4</ele>
        <time>2014-03-08T13:26:18Z</time>
      </trkpt>
      <trkpt lat="43.60899" lon="6.89741">
        <ele>10.4</ele>
        <time>2014-03-08T13:26:22Z</time>
      </trkpt>
      <trkpt lat="43.60884" lon="6.89771">
        <ele>10.4</ele>
        <time>2014-03-08T13:26:28Z</time>
      </trkpt>
      <trkpt lat="43.60874" lon="6.89786">
        <ele>10.4</ele>
        <time>2014-03-08T13:26:31Z</time>
      </trkpt>
      <trkpt lat="43.60866" lon="6.89794">
        <ele>10.4</ele>
        <time>2014-03-08T13:26:33Z</time>
      </trkpt>
      <trkpt lat="43.60853" lon="6.89806">
        <ele>10.4</ele>
        <time>2014-03-08T13:26:36Z</time>
      </trkpt>
      <trkpt lat="43.60849" lon="6.8981">
        <ele>10.4</ele>
        <time>2014-03-08T13:26:37Z</time>
      </trkpt>
      <trkpt lat="43.60841" lon="6.89818">
        <ele>10.4</ele>
        <time>2014-03-08T13:26:39Z</time>
      </trkpt>
      <trkpt lat="43.6083" lon="6.8983">
        <ele>10.4</ele>
        <time>2014-03-08T13:26:42Z</time>
      </trkpt>
      <trkpt lat="43.60822" lon="6.89839">
        <ele>10.4</ele>
        <time>2014-03-08T13:26:44Z</time>
      </trkpt>
      <trkpt lat="43.60818" lon="6.89842">
        <ele>10.4</ele>
        <time>2014-03-08T13:26:45Z</time>
      </trkpt>
      <trkpt lat="43.6081" lon="6.8985">
        <ele>10.4</ele>
        <time>2014-03-08T13:26:47Z</time>
      </trkpt>
      <trkpt lat="43.60804" lon="6.8986">
        <ele>10.4</ele>
        <time>2014-03-08T13:26:49Z</time>
      </trkpt>
      <trkpt lat="43.60802" lon="6.89866">
        <ele>10.4</ele>
        <time>2014-03-08T13:26:50Z</time>
      </trkpt>
      <trkpt lat="43.60798" lon="6.8988">
        <ele>10.4</ele>
        <time>2014-03-08T13:26:52Z</time>
      </trkpt>
      <trkpt lat="43.60792" lon="6.89902">
        <ele>10.4</ele>
        <time>2014-03-08T13:26:55Z</time>
      </trkpt>
      <trkpt lat="43.60788" lon="6.89913">
        <ele>10.4</ele>
        <time>2014-03-08T13:26:57Z</time>
      </trkpt>
      <trkpt lat="43.6078" lon="6.89927">
        <ele>10.4</ele>
        <time>2014-03-08T13:27:00Z</time>
      </trkpt>
      <trkpt lat="43.60772" lon="6.89942">
        <ele>10.4</ele>
        <time>2014-03-08T13:27:03Z</time>
      </trkpt>
      <trkpt lat="43.60766" lon="6.89951">
        <ele>10.4</ele>
        <time>2014-03-08T13:27:05Z</time>
      </trkpt>
      <trkpt lat="43.60756" lon="6.89964">
        <ele>10.4</ele>
        <time>2014-03-08T13:27:08Z</time>
      </trkpt>
      <trkpt lat="43.60733" lon="6.90012">
        <ele>10.4</ele>
        <time>2014-03-08T13:27:16Z</time>
      </trkpt>
      <trkpt lat="43.60722" lon="6.90035">
        <ele>10.4</ele>
        <time>2014-03-08T13:27:20Z</time>
      </trkpt>
      <trkpt lat="43.60716" lon="6.90047">
        <ele>10.4</ele>
        <time>2014-03-08T13:27:22Z</time>
      </trkpt>
      <trkpt lat="43.60705" lon="6.90066">
        <ele>10.4</ele>
        <time>2014-03-08T13:27:26Z</time>
      </trkpt>
      <trkpt lat="43.60696" lon="6.90081">
        <ele>10.4</ele>
        <time>2014-03-08T13:27:29Z</time>
      </trkpt>
      <trkpt lat="43.60686" lon="6.90094">
        <ele>10.4</ele>
        <time>2014-03-08T13:27:32Z</time>
      </trkpt>
      <trkpt lat="43.60682" lon="6.90098">
        <ele>10.4</ele>
        <time>2014-03-08T13:27:33Z</time>
      </trkpt>
      <trkpt lat="43.60671" lon="6.90109">
        <ele>10.4</ele>
        <time>2014-03-08T13:27:36Z</time>
      </trkpt>
      <trkpt lat="43.60666" lon="6.90119">
        <ele>10.4</ele>
        <time>2014-03-08T13:27:38Z</time>
      </trkpt>
      <trkpt lat="43.60663" lon="6.90131">
        <ele>10.4</ele>
        <time>2014-03-08T13:27:40Z</time>
      </trkpt>
      <trkpt lat="43.60661" lon="6.90144">
        <ele>10.4</ele>
        <time>2014-03-08T13:27:42Z</time>
      </trkpt>
      <trkpt lat="43.60665" lon="6.90169">
        <ele>10.4</ele>
        <time>2014-03-08T13:27:46Z</time>
      </trkpt>
      <trkpt lat="43.60667" lon="6.90189">
        <ele>10.4</ele>
        <time>2014-03-08T13:27:50Z</time>
      </trkpt>
      <trkpt lat="43.60668" lon="6.90195">
        <ele>10.4</ele>
        <time>2014-03-08T13:27:51Z</time>
      </trkpt>
      <trkpt lat="43.60669" lon="6.90207">
        <ele>10.4</ele>
        <time>2014-03-08T13:27:53Z</time>
      </trkpt>
      <trkpt lat="43.60669" lon="6.90214">
        <ele>10.4</ele>
        <time>2014-03-08T13:27:54Z</time>
      </trkpt>
      <trkpt lat="43.60671" lon="6.90234">
        <ele>10.4</ele>
        <time>2014-03-08T13:27:57Z</time>
      </trkpt>
      <trkpt lat="43.60674" lon="6.90248">
        <ele>10.4</ele>
        <time>2014-03-08T13:27:59Z</time>
      </trkpt>
      <trkpt lat="43.60678" lon="6.90264">
        <ele>10.4</ele>
        <time>2014-03-08T13:28:02Z</time>
      </trkpt>
      <trkpt lat="43.60678" lon="6.90274">
        <ele>10.4</ele>
        <time>2014-03-08T13:28:04Z</time>
      </trkpt>
      <trkpt lat="43.60677" lon="6.90278">
        <ele>10.4</ele>
        <time>2014-03-08T13:28:05Z</time>
      </trkpt>
      <trkpt lat="43.60667" lon="6.90293">
        <ele>10.4</ele>
        <time>2014-03-08T13:28:08Z</time>
      </trkpt>
      <trkpt lat="43.60659" lon="6.90304">
        <ele>10.4</ele>
        <time>2014-03-08T13:28:10Z</time>
      </trkpt>
      <trkpt lat="43.60647" lon="6.90323">
        <ele>10.8</ele>
        <time>2014-03-08T13:28:14Z</time>
      </trkpt>
      <trkpt lat="43.60645" lon="6.90328">
        <ele>11.2</ele>
        <time>2014-03-08T13:28:15Z</time>
      </trkpt>
      <trkpt lat="43.60642" lon="6.90332">
        <ele>11.6</ele>
        <time>2014-03-08T13:28:16Z</time>
      </trkpt>
      <trkpt lat="43.6064" lon="6.90336">
        <ele>12</ele>
        <time>2014-03-08T13:28:17Z</time>
      </trkpt>
      <trkpt lat="43.60638" lon="6.90339">
        <ele>12.6</ele>
        <time>2014-03-08T13:28:18Z</time>
      </trkpt>
      <trkpt lat="43.60637" lon="6.90341">
        <ele>13</ele>
        <time>2014-03-08T13:28:19Z</time>
      </trkpt>
      <trkpt lat="43.60636" lon="6.90343">
        <ele>13.4</ele>
        <time>2014-03-08T13:28:20Z</time>
      </trkpt>
      <trkpt lat="43.60635" lon="6.90346">
        <ele>13.8</ele>
        <time>2014-03-08T13:28:21Z</time>
      </trkpt>
      <trkpt lat="43.60635" lon="6.90349">
        <ele>14.2</ele>
        <time>2014-03-08T13:28:22Z</time>
      </trkpt>
      <trkpt lat="43.60634" lon="6.90352">
        <ele>14.6</ele>
        <time>2014-03-08T13:28:23Z</time>
      </trkpt>
      <trkpt lat="43.60631" lon="6.90359">
        <ele>14.6</ele>
        <time>2014-03-08T13:28:25Z</time>
      </trkpt>
      <trkpt lat="43.60628" lon="6.90362">
        <ele>15</ele>
        <time>2014-03-08T13:28:26Z</time>
      </trkpt>
      <trkpt lat="43.60626" lon="6.90365">
        <ele>15.4</ele>
        <time>2014-03-08T13:28:27Z</time>
      </trkpt>
      <trkpt lat="43.60624" lon="6.90368">
        <ele>15.8</ele>
        <time>2014-03-08T13:28:28Z</time>
      </trkpt>
      <trkpt lat="43.60623" lon="6.90371">
        <ele>16.4</ele>
        <time>2014-03-08T13:28:29Z</time>
      </trkpt>
      <trkpt lat="43.60622" lon="6.90373">
        <ele>16.8</ele>
        <time>2014-03-08T13:28:30Z</time>
      </trkpt>
      <trkpt lat="43.6062" lon="6.90378">
        <ele>17.2</ele>
        <time>2014-03-08T13:28:32Z</time>
      </trkpt>
      <trkpt lat="43.60619" lon="6.90381">
        <ele>17.6</ele>
        <time>2014-03-08T13:28:33Z</time>
      </trkpt>
      <trkpt lat="43.60618" lon="6.90383">
        <ele>18</ele>
        <time>2014-03-08T13:28:34Z</time>
      </trkpt>
      <trkpt lat="43.60617" lon="6.90385">
        <ele>18.4</ele>
        <time>2014-03-08T13:28:35Z</time>
      </trkpt>
      <trkpt lat="43.60615" lon="6.90388">
        <ele>18.8</ele>
        <time>2014-03-08T13:28:36Z</time>
      </trkpt>
      <trkpt lat="43.60605" lon="6.90404">
        <ele>18.8</ele>
        <time>2014-03-08T13:28:41Z</time>
      </trkpt>
      <trkpt lat="43.60598" lon="6.90411">
        <ele>19.2</ele>
        <time>2014-03-08T13:28:44Z</time>
      </trkpt>
      <trkpt lat="43.60596" lon="6.90413">
        <ele>19.8</ele>
        <time>2014-03-08T13:28:45Z</time>
      </trkpt>
      <trkpt lat="43.60594" lon="6.90415">
        <ele>20.2</ele>
        <time>2014-03-08T13:28:46Z</time>
      </trkpt>
      <trkpt lat="43.60592" lon="6.90418">
        <ele>20.6</ele>
        <time>2014-03-08T13:28:47Z</time>
      </trkpt>
      <trkpt lat="43.6059" lon="6.90421">
        <ele>21.2</ele>
        <time>2014-03-08T13:28:48Z</time>
      </trkpt>
      <trkpt lat="43.60584" lon="6.90428">
        <ele>21.2</ele>
        <time>2014-03-08T13:28:51Z</time>
      </trkpt>
      <trkpt lat="43.60578" lon="6.90445">
        <ele>21.2</ele>
        <time>2014-03-08T13:28:56Z</time>
      </trkpt>
      <trkpt lat="43.60576" lon="6.90451">
        <ele>21.6</ele>
        <time>2014-03-08T13:28:58Z</time>
      </trkpt>
      <trkpt lat="43.60574" lon="6.90458">
        <ele>22.2</ele>
        <time>2014-03-08T13:29:00Z</time>
      </trkpt>
      <trkpt lat="43.60571" lon="6.90463">
        <ele>22.6</ele>
        <time>2014-03-08T13:29:02Z</time>
      </trkpt>
      <trkpt lat="43.6057" lon="6.90465">
        <ele>22.6</ele>
        <time>2014-03-08T13:29:03Z</time>
      </trkpt>
      <trkpt lat="43.60567" lon="6.90474">
        <ele>23.2</ele>
        <time>2014-03-08T13:29:07Z</time>
      </trkpt>
      <trkpt lat="43.60562" lon="6.90486">
        <ele>23.6</ele>
        <time>2014-03-08T13:29:09Z</time>
      </trkpt>
      <trkpt lat="43.60561" lon="6.9049">
        <ele>23.6</ele>
        <time>2014-03-08T13:29:10Z</time>
      </trkpt>
      <trkpt lat="43.60556" lon="6.90502">
        <ele>24.2</ele>
        <time>2014-03-08T13:29:13Z</time>
      </trkpt>
      <trkpt lat="43.60552" lon="6.9051">
        <ele>24.6</ele>
        <time>2014-03-08T13:29:15Z</time>
      </trkpt>
      <trkpt lat="43.60549" lon="6.90517">
        <ele>25</ele>
        <time>2014-03-08T13:29:17Z</time>
      </trkpt>
      <trkpt lat="43.60546" lon="6.90521">
        <ele>25.6</ele>
        <time>2014-03-08T13:29:19Z</time>
      </trkpt>
      <trkpt lat="43.60543" lon="6.90525">
        <ele>25.6</ele>
        <time>2014-03-08T13:29:20Z</time>
      </trkpt>
      <trkpt lat="43.60542" lon="6.90528">
        <ele>26</ele>
        <time>2014-03-08T13:29:21Z</time>
      </trkpt>
      <trkpt lat="43.60533" lon="6.90543">
        <ele>26</ele>
        <time>2014-03-08T13:29:25Z</time>
      </trkpt>
      <trkpt lat="43.60529" lon="6.90548">
        <ele>26.6</ele>
        <time>2014-03-08T13:29:27Z</time>
      </trkpt>
      <trkpt lat="43.60526" lon="6.90554">
        <ele>27</ele>
        <time>2014-03-08T13:29:29Z</time>
      </trkpt>
      <trkpt lat="43.60524" lon="6.90562">
        <ele>27.4</ele>
        <time>2014-03-08T13:29:31Z</time>
      </trkpt>
      <trkpt lat="43.60521" lon="6.90572">
        <ele>27.8</ele>
        <time>2014-03-08T13:29:33Z</time>
      </trkpt>
      <trkpt lat="43.60517" lon="6.90582">
        <ele>28.4</ele>
        <time>2014-03-08T13:29:35Z</time>
      </trkpt>
      <trkpt lat="43.60514" lon="6.90591">
        <ele>28.4</ele>
        <time>2014-03-08T13:29:37Z</time>
      </trkpt>
      <trkpt lat="43.60505" lon="6.90609">
        <ele>28.4</ele>
        <time>2014-03-08T13:29:42Z</time>
      </trkpt>
      <trkpt lat="43.60504" lon="6.90614">
        <ele>28.8</ele>
        <time>2014-03-08T13:29:43Z</time>
      </trkpt>
      <trkpt lat="43.60502" lon="6.90621">
        <ele>29.2</ele>
        <time>2014-03-08T13:29:45Z</time>
      </trkpt>
      <trkpt lat="43.60499" lon="6.90626">
        <ele>29.6</ele>
        <time>2014-03-08T13:29:47Z</time>
      </trkpt>
      <trkpt lat="43.60497" lon="6.90629">
        <ele>29.6</ele>
        <time>2014-03-08T13:29:48Z</time>
      </trkpt>
      <trkpt lat="43.60495" lon="6.90632">
        <ele>30</ele>
        <time>2014-03-08T13:29:49Z</time>
      </trkpt>
      <trkpt lat="43.60491" lon="6.90639">
        <ele>30.4</ele>
        <time>2014-03-08T13:29:51Z</time>
      </trkpt>
      <trkpt lat="43.60489" lon="6.90643">
        <ele>30.4</ele>
        <time>2014-03-08T13:29:52Z</time>
      </trkpt>
      <trkpt lat="43.60488" lon="6.90648">
        <ele>30.8</ele>
        <time>2014-03-08T13:29:53Z</time>
      </trkpt>
      <trkpt lat="43.60486" lon="6.90656">
        <ele>31.2</ele>
        <time>2014-03-08T13:29:55Z</time>
      </trkpt>
      <trkpt lat="43.60483" lon="6.90664">
        <ele>31.6</ele>
        <time>2014-03-08T13:29:57Z</time>
      </trkpt>
      <trkpt lat="43.60481" lon="6.90673">
        <ele>32</ele>
        <time>2014-03-08T13:29:59Z</time>
      </trkpt>
      <trkpt lat="43.60479" lon="6.90677">
        <ele>32</ele>
        <time>2014-03-08T13:30:00Z</time>
      </trkpt>
      <trkpt lat="43.60477" lon="6.90681">
        <ele>32.4</ele>
        <time>2014-03-08T13:30:01Z</time>
      </trkpt>
      <trkpt lat="43.6047" lon="6.90697">
        <ele>33</ele>
        <time>2014-03-08T13:30:05Z</time>
      </trkpt>
      <trkpt lat="43.60468" lon="6.90701">
        <ele>33</ele>
        <time>2014-03-08T13:30:06Z</time>
      </trkpt>
      <trkpt lat="43.60466" lon="6.90704">
        <ele>33.4</ele>
        <time>2014-03-08T13:30:07Z</time>
      </trkpt>
      <trkpt lat="43.60463" lon="6.90712">
        <ele>34</ele>
        <time>2014-03-08T13:30:09Z</time>
      </trkpt>
      <trkpt lat="43.6046" lon="6.90721">
        <ele>34.4</ele>
        <time>2014-03-08T13:30:11Z</time>
      </trkpt>
      <trkpt lat="43.60457" lon="6.90729">
        <ele>35</ele>
        <time>2014-03-08T13:30:13Z</time>
      </trkpt>
      <trkpt lat="43.60454" lon="6.90737">
        <ele>35.4</ele>
        <time>2014-03-08T13:30:15Z</time>
      </trkpt>
      <trkpt lat="43.60451" lon="6.90745">
        <ele>35.8</ele>
        <time>2014-03-08T13:30:17Z</time>
      </trkpt>
      <trkpt lat="43.60448" lon="6.90753">
        <ele>36.2</ele>
        <time>2014-03-08T13:30:19Z</time>
      </trkpt>
      <trkpt lat="43.60447" lon="6.90757">
        <ele>36.2</ele>
        <time>2014-03-08T13:30:20Z</time>
      </trkpt>
      <trkpt lat="43.60444" lon="6.90769">
        <ele>36.6</ele>
        <time>2014-03-08T13:30:23Z</time>
      </trkpt>
      <trkpt lat="43.60441" lon="6.90777">
        <ele>37</ele>
        <time>2014-03-08T13:30:25Z</time>
      </trkpt>
      <trkpt lat="43.6044" lon="6.90782">
        <ele>37</ele>
        <time>2014-03-08T13:30:26Z</time>
      </trkpt>
      <trkpt lat="43.60431" lon="6.90811">
        <ele>37</ele>
        <time>2014-03-08T13:30:32Z</time>
      </trkpt>
      <trkpt lat="43.60426" lon="6.90832">
        <ele>37</ele>
        <time>2014-03-08T13:30:36Z</time>
      </trkpt>
      <trkpt lat="43.60424" lon="6.90836">
        <ele>37</ele>
        <time>2014-03-08T13:30:37Z</time>
      </trkpt>
      <trkpt lat="43.60419" lon="6.90856">
        <ele>37</ele>
        <time>2014-03-08T13:30:41Z</time>
      </trkpt>
      <trkpt lat="43.60415" lon="6.90892">
        <ele>37</ele>
        <time>2014-03-08T13:30:47Z</time>
      </trkpt>
      <trkpt lat="43.60415" lon="6.90898">
        <ele>37</ele>
        <time>2014-03-08T13:30:48Z</time>
      </trkpt>
      <trkpt lat="43.60413" lon="6.90916">
        <ele>37</ele>
        <time>2014-03-08T13:30:51Z</time>
      </trkpt>
      <trkpt lat="43.60412" lon="6.90922">
        <ele>37</ele>
        <time>2014-03-08T13:30:52Z</time>
      </trkpt>
      <trkpt lat="43.60405" lon="6.90939">
        <ele>37</ele>
        <time>2014-03-08T13:30:56Z</time>
      </trkpt>
      <trkpt lat="43.60404" lon="6.90942">
        <ele>37</ele>
        <time>2014-03-08T13:30:57Z</time>
      </trkpt>
      <trkpt lat="43.60404" lon="6.90953">
        <ele>37</ele>
        <time>2014-03-08T13:30:59Z</time>
      </trkpt>
      <trkpt lat="43.60406" lon="6.90968">
        <ele>36.4</ele>
        <time>2014-03-08T13:31:01Z</time>
      </trkpt>
      <trkpt lat="43.60407" lon="6.90985">
        <ele>35.8</ele>
        <time>2014-03-08T13:31:03Z</time>
      </trkpt>
      <trkpt lat="43.60409" lon="6.91002">
        <ele>35</ele>
        <time>2014-03-08T13:31:05Z</time>
      </trkpt>
      <trkpt lat="43.60411" lon="6.91019">
        <ele>34.2</ele>
        <time>2014-03-08T13:31:07Z</time>
      </trkpt>
      <trkpt lat="43.60412" lon="6.91038">
        <ele>33</ele>
        <time>2014-03-08T13:31:09Z</time>
      </trkpt>
      <trkpt lat="43.60412" lon="6.91048">
        <ele>33</ele>
        <time>2014-03-08T13:31:10Z</time>
      </trkpt>
      <trkpt lat="43.60413" lon="6.9106">
        <ele>32</ele>
        <time>2014-03-08T13:31:11Z</time>
      </trkpt>
      <trkpt lat="43.60414" lon="6.91082">
        <ele>31</ele>
        <time>2014-03-08T13:31:13Z</time>
      </trkpt>
      <trkpt lat="43.60415" lon="6.91104">
        <ele>29.8</ele>
        <time>2014-03-08T13:31:15Z</time>
      </trkpt>
      <trkpt lat="43.60417" lon="6.91125">
        <ele>28.6</ele>
        <time>2014-03-08T13:31:17Z</time>
      </trkpt>
      <trkpt lat="43.60419" lon="6.91146">
        <ele>27.4</ele>
        <time>2014-03-08T13:31:19Z</time>
      </trkpt>
      <trkpt lat="43.6042" lon="6.91157">
        <ele>27.4</ele>
        <time>2014-03-08T13:31:20Z</time>
      </trkpt>
      <trkpt lat="43.60421" lon="6.91168">
        <ele>26.2</ele>
        <time>2014-03-08T13:31:21Z</time>
      </trkpt>
      <trkpt lat="43.6043" lon="6.91187">
        <ele>25.2</ele>
        <time>2014-03-08T13:31:23Z</time>
      </trkpt>
      <trkpt lat="43.60437" lon="6.91195">
        <ele>25.2</ele>
        <time>2014-03-08T13:31:24Z</time>
      </trkpt>
      <trkpt lat="43.60445" lon="6.91201">
        <ele>24.2</ele>
        <time>2014-03-08T13:31:25Z</time>
      </trkpt>
      <trkpt lat="43.60463" lon="6.91209">
        <ele>23.2</ele>
        <time>2014-03-08T13:31:27Z</time>
      </trkpt>
      <trkpt lat="43.60478" lon="6.91221">
        <ele>22.4</ele>
        <time>2014-03-08T13:31:29Z</time>
      </trkpt>
      <trkpt lat="43.60492" lon="6.91238">
        <ele>21.6</ele>
        <time>2014-03-08T13:31:31Z</time>
      </trkpt>
      <trkpt lat="43.60506" lon="6.91254">
        <ele>20.4</ele>
        <time>2014-03-08T13:31:33Z</time>
      </trkpt>
      <trkpt lat="43.60517" lon="6.91274">
        <ele>19.4</ele>
        <time>2014-03-08T13:31:35Z</time>
      </trkpt>
      <trkpt lat="43.6053" lon="6.91287">
        <ele>18.4</ele>
        <time>2014-03-08T13:31:37Z</time>
      </trkpt>
      <trkpt lat="43.60536" lon="6.91293">
        <ele>18.4</ele>
        <time>2014-03-08T13:31:38Z</time>
      </trkpt>
      <trkpt lat="43.60542" lon="6.91296">
        <ele>17.4</ele>
        <time>2014-03-08T13:31:39Z</time>
      </trkpt>
      <trkpt lat="43.60553" lon="6.913">
        <ele>17.4</ele>
        <time>2014-03-08T13:31:41Z</time>
      </trkpt>
      <trkpt lat="43.60558" lon="6.913">
        <ele>17.4</ele>
        <time>2014-03-08T13:31:42Z</time>
      </trkpt>
      <trkpt lat="43.60564" lon="6.91298">
        <ele>16.2</ele>
        <time>2014-03-08T13:31:43Z</time>
      </trkpt>
      <trkpt lat="43.60574" lon="6.91297">
        <ele>16.2</ele>
        <time>2014-03-08T13:31:45Z</time>
      </trkpt>
      <trkpt lat="43.60583" lon="6.91295">
        <ele>16.2</ele>
        <time>2014-03-08T13:31:47Z</time>
      </trkpt>
      <trkpt lat="43.606" lon="6.91293">
        <ele>16.2</ele>
        <time>2014-03-08T13:31:50Z</time>
      </trkpt>
      <trkpt lat="43.60627" lon="6.91293">
        <ele>16.2</ele>
        <time>2014-03-08T13:31:55Z</time>
      </trkpt>
      <trkpt lat="43.60642" lon="6.91294">
        <ele>16.2</ele>
        <time>2014-03-08T13:31:58Z</time>
      </trkpt>
      <trkpt lat="43.6065" lon="6.91296">
        <ele>16.2</ele>
        <time>2014-03-08T13:32:00Z</time>
      </trkpt>
      <trkpt lat="43.60663" lon="6.91296">
        <ele>16.2</ele>
        <time>2014-03-08T13:32:03Z</time>
      </trkpt>
      <trkpt lat="43.60669" lon="6.91296">
        <ele>16.2</ele>
        <time>2014-03-08T13:32:04Z</time>
      </trkpt>
      <trkpt lat="43.60687" lon="6.91298">
        <ele>16.2</ele>
        <time>2014-03-08T13:32:07Z</time>
      </trkpt>
      <trkpt lat="43.60702" lon="6.91308">
        <ele>16.2</ele>
        <time>2014-03-08T13:32:10Z</time>
      </trkpt>
      <trkpt lat="43.60735" lon="6.91326">
        <ele>16.2</ele>
        <time>2014-03-08T13:32:16Z</time>
      </trkpt>
      <trkpt lat="43.60757" lon="6.91339">
        <ele>16.2</ele>
        <time>2014-03-08T13:32:20Z</time>
      </trkpt>
      <trkpt lat="43.60767" lon="6.91348">
        <ele>16.2</ele>
        <time>2014-03-08T13:32:22Z</time>
      </trkpt>
      <trkpt lat="43.60777" lon="6.91363">
        <ele>16.2</ele>
        <time>2014-03-08T13:32:25Z</time>
      </trkpt>
      <trkpt lat="43.60782" lon="6.91375">
        <ele>16.2</ele>
        <time>2014-03-08T13:32:27Z</time>
      </trkpt>
      <trkpt lat="43.60791" lon="6.91412">
        <ele>16.2</ele>
        <time>2014-03-08T13:32:32Z</time>
      </trkpt>
      <trkpt lat="43.60795" lon="6.91424">
        <ele>16.2</ele>
        <time>2014-03-08T13:32:34Z</time>
      </trkpt>
      <trkpt lat="43.608" lon="6.91437">
        <ele>16.2</ele>
        <time>2014-03-08T13:32:36Z</time>
      </trkpt>
      <trkpt lat="43.60809" lon="6.91461">
        <ele>16.8</ele>
        <time>2014-03-08T13:32:40Z</time>
      </trkpt>
      <trkpt lat="43.6081" lon="6.9147">
        <ele>16.8</ele>
        <time>2014-03-08T13:32:41Z</time>
      </trkpt>
      <trkpt lat="43.6081" lon="6.91477">
        <ele>17.2</ele>
        <time>2014-03-08T13:32:42Z</time>
      </trkpt>
      <trkpt lat="43.60809" lon="6.91492">
        <ele>17.6</ele>
        <time>2014-03-08T13:32:44Z</time>
      </trkpt>
      <trkpt lat="43.60808" lon="6.91498">
        <ele>17.6</ele>
        <time>2014-03-08T13:32:45Z</time>
      </trkpt>
      <trkpt lat="43.60808" lon="6.91504">
        <ele>18.2</ele>
        <time>2014-03-08T13:32:46Z</time>
      </trkpt>
      <trkpt lat="43.60816" lon="6.91511">
        <ele>18.8</ele>
        <time>2014-03-08T13:32:48Z</time>
      </trkpt>
      <trkpt lat="43.60826" lon="6.91509">
        <ele>19.4</ele>
        <time>2014-03-08T13:32:50Z</time>
      </trkpt>
      <trkpt lat="43.60832" lon="6.91506">
        <ele>19.4</ele>
        <time>2014-03-08T13:32:51Z</time>
      </trkpt>
      <trkpt lat="43.60838" lon="6.91505">
        <ele>20</ele>
        <time>2014-03-08T13:32:52Z</time>
      </trkpt>
      <trkpt lat="43.60846" lon="6.91507">
        <ele>20.6</ele>
        <time>2014-03-08T13:32:54Z</time>
      </trkpt>
      <trkpt lat="43.60852" lon="6.91514">
        <ele>21.2</ele>
        <time>2014-03-08T13:32:56Z</time>
      </trkpt>
      <trkpt lat="43.60855" lon="6.91518">
        <ele>21.2</ele>
        <time>2014-03-08T13:32:57Z</time>
      </trkpt>
      <trkpt lat="43.6087" lon="6.91532">
        <ele>21.2</ele>
        <time>2014-03-08T13:33:01Z</time>
      </trkpt>
      <trkpt lat="43.60873" lon="6.91535">
        <ele>21.6</ele>
        <time>2014-03-08T13:33:02Z</time>
      </trkpt>
      <trkpt lat="43.6088" lon="6.91541">
        <ele>22.2</ele>
        <time>2014-03-08T13:33:04Z</time>
      </trkpt>
      <trkpt lat="43.60887" lon="6.91546">
        <ele>22.8</ele>
        <time>2014-03-08T13:33:06Z</time>
      </trkpt>
      <trkpt lat="43.60895" lon="6.91551">
        <ele>23.4</ele>
        <time>2014-03-08T13:33:08Z</time>
      </trkpt>
      <trkpt lat="43.60902" lon="6.91556">
        <ele>23.8</ele>
        <time>2014-03-08T13:33:10Z</time>
      </trkpt>
      <trkpt lat="43.60909" lon="6.9156">
        <ele>24.4</ele>
        <time>2014-03-08T13:33:12Z</time>
      </trkpt>
      <trkpt lat="43.60916" lon="6.91564">
        <ele>24.8</ele>
        <time>2014-03-08T13:33:14Z</time>
      </trkpt>
      <trkpt lat="43.60923" lon="6.91568">
        <ele>25.4</ele>
        <time>2014-03-08T13:33:16Z</time>
      </trkpt>
      <trkpt lat="43.60927" lon="6.91569">
        <ele>25.4</ele>
        <time>2014-03-08T13:33:17Z</time>
      </trkpt>
      <trkpt lat="43.60932" lon="6.91571">
        <ele>25.8</ele>
        <time>2014-03-08T13:33:18Z</time>
      </trkpt>
      <trkpt lat="43.6094" lon="6.91574">
        <ele>26.4</ele>
        <time>2014-03-08T13:33:20Z</time>
      </trkpt>
      <trkpt lat="43.60948" lon="6.91577">
        <ele>26.8</ele>
        <time>2014-03-08T13:33:22Z</time>
      </trkpt>
      <trkpt lat="43.60956" lon="6.91581">
        <ele>27.2</ele>
        <time>2014-03-08T13:33:24Z</time>
      </trkpt>
      <trkpt lat="43.60964" lon="6.91583">
        <ele>27.6</ele>
        <time>2014-03-08T13:33:26Z</time>
      </trkpt>
      <trkpt lat="43.60971" lon="6.91587">
        <ele>28.2</ele>
        <time>2014-03-08T13:33:28Z</time>
      </trkpt>
      <trkpt lat="43.60979" lon="6.9159">
        <ele>28.6</ele>
        <time>2014-03-08T13:33:30Z</time>
      </trkpt>
      <trkpt lat="43.60986" lon="6.91592">
        <ele>29</ele>
        <time>2014-03-08T13:33:32Z</time>
      </trkpt>
      <trkpt lat="43.60992" lon="6.91594">
        <ele>29.4</ele>
        <time>2014-03-08T13:33:34Z</time>
      </trkpt>
      <trkpt lat="43.60998" lon="6.91596">
        <ele>29.8</ele>
        <time>2014-03-08T13:33:36Z</time>
      </trkpt>
      <trkpt lat="43.61001" lon="6.91597">
        <ele>29.8</ele>
        <time>2014-03-08T13:33:37Z</time>
      </trkpt>
      <trkpt lat="43.61002" lon="6.91599">
        <ele>30.4</ele>
        <time>2014-03-08T13:33:38Z</time>
      </trkpt>
      <trkpt lat="43.61009" lon="6.91601">
        <ele>30.8</ele>
        <time>2014-03-08T13:33:40Z</time>
      </trkpt>
      <trkpt lat="43.61016" lon="6.91604">
        <ele>31.2</ele>
        <time>2014-03-08T13:33:42Z</time>
      </trkpt>
      <trkpt lat="43.61019" lon="6.91605">
        <ele>31.2</ele>
        <time>2014-03-08T13:33:43Z</time>
      </trkpt>
      <trkpt lat="43.61021" lon="6.91606">
        <ele>31.6</ele>
        <time>2014-03-08T13:33:44Z</time>
      </trkpt>
      <trkpt lat="43.61024" lon="6.91609">
        <ele>31.6</ele>
        <time>2014-03-08T13:33:45Z</time>
      </trkpt>
      <trkpt lat="43.61026" lon="6.9161">
        <ele>32</ele>
        <time>2014-03-08T13:33:46Z</time>
      </trkpt>
      <trkpt lat="43.61032" lon="6.91614">
        <ele>32.4</ele>
        <time>2014-03-08T13:33:48Z</time>
      </trkpt>
      <trkpt lat="43.61036" lon="6.91616">
        <ele>32.4</ele>
        <time>2014-03-08T13:33:49Z</time>
      </trkpt>
      <trkpt lat="43.6104" lon="6.91619">
        <ele>33</ele>
        <time>2014-03-08T13:33:50Z</time>
      </trkpt>
      <trkpt lat="43.61048" lon="6.91624">
        <ele>33.4</ele>
        <time>2014-03-08T13:33:52Z</time>
      </trkpt>
      <trkpt lat="43.61053" lon="6.91623">
        <ele>33.4</ele>
        <time>2014-03-08T13:33:53Z</time>
      </trkpt>
      <trkpt lat="43.61058" lon="6.91623">
        <ele>34</ele>
        <time>2014-03-08T13:33:54Z</time>
      </trkpt>
      <trkpt lat="43.61068" lon="6.91621">
        <ele>34.4</ele>
        <time>2014-03-08T13:33:56Z</time>
      </trkpt>
      <trkpt lat="43.61075" lon="6.9162">
        <ele>35</ele>
        <time>2014-03-08T13:33:58Z</time>
      </trkpt>
      <trkpt lat="43.61081" lon="6.91621">
        <ele>35.6</ele>
        <time>2014-03-08T13:34:00Z</time>
      </trkpt>
      <trkpt lat="43.61089" lon="6.91621">
        <ele>36.2</ele>
        <time>2014-03-08T13:34:02Z</time>
      </trkpt>
      <trkpt lat="43.61095" lon="6.91622">
        <ele>36.8</ele>
        <time>2014-03-08T13:34:04Z</time>
      </trkpt>
      <trkpt lat="43.61101" lon="6.91622">
        <ele>37.2</ele>
        <time>2014-03-08T13:34:06Z</time>
      </trkpt>
      <trkpt lat="43.61107" lon="6.91622">
        <ele>37.8</ele>
        <time>2014-03-08T13:34:08Z</time>
      </trkpt>
      <trkpt lat="43.6111" lon="6.91622">
        <ele>37.8</ele>
        <time>2014-03-08T13:34:09Z</time>
      </trkpt>
      <trkpt lat="43.61113" lon="6.91622">
        <ele>38.4</ele>
        <time>2014-03-08T13:34:10Z</time>
      </trkpt>
      <trkpt lat="43.61119" lon="6.91621">
        <ele>39.2</ele>
        <time>2014-03-08T13:34:12Z</time>
      </trkpt>
      <trkpt lat="43.61126" lon="6.91619">
        <ele>39.8</ele>
        <time>2014-03-08T13:34:14Z</time>
      </trkpt>
      <trkpt lat="43.61129" lon="6.91618">
        <ele>39.8</ele>
        <time>2014-03-08T13:34:15Z</time>
      </trkpt>
      <trkpt lat="43.61132" lon="6.91617">
        <ele>40.6</ele>
        <time>2014-03-08T13:34:16Z</time>
      </trkpt>
      <trkpt lat="43.61137" lon="6.91614">
        <ele>41.2</ele>
        <time>2014-03-08T13:34:18Z</time>
      </trkpt>
      <trkpt lat="43.61142" lon="6.91613">
        <ele>41.8</ele>
        <time>2014-03-08T13:34:20Z</time>
      </trkpt>
      <trkpt lat="43.61148" lon="6.91611">
        <ele>42.4</ele>
        <time>2014-03-08T13:34:22Z</time>
      </trkpt>
      <trkpt lat="43.61154" lon="6.91611">
        <ele>42.8</ele>
        <time>2014-03-08T13:34:24Z</time>
      </trkpt>
      <trkpt lat="43.61159" lon="6.9161">
        <ele>42.8</ele>
        <time>2014-03-08T13:34:26Z</time>
      </trkpt>
      <trkpt lat="43.61162" lon="6.9161">
        <ele>43.2</ele>
        <time>2014-03-08T13:34:27Z</time>
      </trkpt>
      <trkpt lat="43.61173" lon="6.91606">
        <ele>43.8</ele>
        <time>2014-03-08T13:34:31Z</time>
      </trkpt>
      <trkpt lat="43.61179" lon="6.91606">
        <ele>44.4</ele>
        <time>2014-03-08T13:34:33Z</time>
      </trkpt>
      <trkpt lat="43.61185" lon="6.91604">
        <ele>45</ele>
        <time>2014-03-08T13:34:35Z</time>
      </trkpt>
      <trkpt lat="43.6119" lon="6.91602">
        <ele>45.8</ele>
        <time>2014-03-08T13:34:37Z</time>
      </trkpt>
      <trkpt lat="43.61195" lon="6.916">
        <ele>46.4</ele>
        <time>2014-03-08T13:34:39Z</time>
      </trkpt>
      <trkpt lat="43.61199" lon="6.91598">
        <ele>47</ele>
        <time>2014-03-08T13:34:41Z</time>
      </trkpt>
      <trkpt lat="43.61204" lon="6.91596">
        <ele>47.6</ele>
        <time>2014-03-08T13:34:43Z</time>
      </trkpt>
      <trkpt lat="43.61209" lon="6.91594">
        <ele>48.4</ele>
        <time>2014-03-08T13:34:45Z</time>
      </trkpt>
      <trkpt lat="43.61216" lon="6.91593">
        <ele>49</ele>
        <time>2014-03-08T13:34:47Z</time>
      </trkpt>
      <trkpt lat="43.61222" lon="6.91592">
        <ele>49.6</ele>
        <time>2014-03-08T13:34:49Z</time>
      </trkpt>
      <trkpt lat="43.61229" lon="6.91589">
        <ele>50.2</ele>
        <time>2014-03-08T13:34:51Z</time>
      </trkpt>
      <trkpt lat="43.61231" lon="6.91587">
        <ele>50.2</ele>
        <time>2014-03-08T13:34:52Z</time>
      </trkpt>
      <trkpt lat="43.61233" lon="6.91586">
        <ele>50.8</ele>
        <time>2014-03-08T13:34:53Z</time>
      </trkpt>
      <trkpt lat="43.61238" lon="6.91581">
        <ele>51.4</ele>
        <time>2014-03-08T13:34:55Z</time>
      </trkpt>
      <trkpt lat="43.61239" lon="6.91578">
        <ele>51.4</ele>
        <time>2014-03-08T13:34:56Z</time>
      </trkpt>
      <trkpt lat="43.61241" lon="6.91575">
        <ele>51.8</ele>
        <time>2014-03-08T13:34:57Z</time>
      </trkpt>
      <trkpt lat="43.61244" lon="6.91573">
        <ele>51.8</ele>
        <time>2014-03-08T13:34:58Z</time>
      </trkpt>
      <trkpt lat="43.61247" lon="6.9157">
        <ele>52.2</ele>
        <time>2014-03-08T13:34:59Z</time>
      </trkpt>
      <trkpt lat="43.61252" lon="6.91565">
        <ele>52.8</ele>
        <time>2014-03-08T13:35:01Z</time>
      </trkpt>
      <trkpt lat="43.61257" lon="6.9156">
        <ele>53.2</ele>
        <time>2014-03-08T13:35:03Z</time>
      </trkpt>
      <trkpt lat="43.6127" lon="6.91554">
        <ele>53.2</ele>
        <time>2014-03-08T13:35:07Z</time>
      </trkpt>
      <trkpt lat="43.61286" lon="6.91546">
        <ele>53.2</ele>
        <time>2014-03-08T13:35:11Z</time>
      </trkpt>
      <trkpt lat="43.61311" lon="6.9153">
        <ele>53.2</ele>
        <time>2014-03-08T13:35:17Z</time>
      </trkpt>
      <trkpt lat="43.61315" lon="6.91527">
        <ele>53.2</ele>
        <time>2014-03-08T13:35:18Z</time>
      </trkpt>
      <trkpt lat="43.61328" lon="6.91519">
        <ele>53.2</ele>
        <time>2014-03-08T13:35:21Z</time>
      </trkpt>
      <trkpt lat="43.61343" lon="6.91516">
        <ele>53.2</ele>
        <time>2014-03-08T13:35:24Z</time>
      </trkpt>
      <trkpt lat="43.61348" lon="6.91516">
        <ele>53.2</ele>
        <time>2014-03-08T13:35:25Z</time>
      </trkpt>
      <trkpt lat="43.61359" lon="6.91517">
        <ele>53.2</ele>
        <time>2014-03-08T13:35:27Z</time>
      </trkpt>
      <trkpt lat="43.61376" lon="6.91518">
        <ele>53.2</ele>
        <time>2014-03-08T13:35:30Z</time>
      </trkpt>
      <trkpt lat="43.61381" lon="6.91519">
        <ele>53.2</ele>
        <time>2014-03-08T13:35:31Z</time>
      </trkpt>
      <trkpt lat="43.61397" lon="6.91524">
        <ele>53.2</ele>
        <time>2014-03-08T13:35:34Z</time>
      </trkpt>
      <trkpt lat="43.61414" lon="6.91528">
        <ele>53.2</ele>
        <time>2014-03-08T13:35:37Z</time>
      </trkpt>
      <trkpt lat="43.61425" lon="6.91531">
        <ele>53.2</ele>
        <time>2014-03-08T13:35:39Z</time>
      </trkpt>
      <trkpt lat="43.61444" lon="6.91544">
        <ele>53.2</ele>
        <time>2014-03-08T13:35:44Z</time>
      </trkpt>
      <trkpt lat="43.61451" lon="6.91553">
        <ele>53.2</ele>
        <time>2014-03-08T13:35:48Z</time>
      </trkpt>
      <trkpt lat="43.61453" lon="6.91554">
        <ele>53.2</ele>
        <time>2014-03-08T13:35:49Z</time>
      </trkpt>
      <trkpt lat="43.61458" lon="6.91559">
        <ele>53.2</ele>
        <time>2014-03-08T13:35:52Z</time>
      </trkpt>
      <trkpt lat="43.6146" lon="6.91562">
        <ele>53.8</ele>
        <time>2014-03-08T13:35:53Z</time>
      </trkpt>
      <trkpt lat="43.61463" lon="6.91566">
        <ele>54.2</ele>
        <time>2014-03-08T13:35:55Z</time>
      </trkpt>
      <trkpt lat="43.61467" lon="6.91571">
        <ele>54.8</ele>
        <time>2014-03-08T13:35:57Z</time>
      </trkpt>
      <trkpt lat="43.61471" lon="6.91575">
        <ele>55.4</ele>
        <time>2014-03-08T13:35:59Z</time>
      </trkpt>
      <trkpt lat="43.61474" lon="6.91579">
        <ele>56</ele>
        <time>2014-03-08T13:36:01Z</time>
      </trkpt>
      <trkpt lat="43.61479" lon="6.91583">
        <ele>56.6</ele>
        <time>2014-03-08T13:36:03Z</time>
      </trkpt>
      <trkpt lat="43.61481" lon="6.91585">
        <ele>56.6</ele>
        <time>2014-03-08T13:36:04Z</time>
      </trkpt>
      <trkpt lat="43.61483" lon="6.91586">
        <ele>57.2</ele>
        <time>2014-03-08T13:36:05Z</time>
      </trkpt>
      <trkpt lat="43.61488" lon="6.91591">
        <ele>58</ele>
        <time>2014-03-08T13:36:07Z</time>
      </trkpt>
      <trkpt lat="43.61493" lon="6.91596">
        <ele>58.6</ele>
        <time>2014-03-08T13:36:09Z</time>
      </trkpt>
      <trkpt lat="43.61499" lon="6.91599">
        <ele>59.2</ele>
        <time>2014-03-08T13:36:11Z</time>
      </trkpt>
      <trkpt lat="43.61505" lon="6.91603">
        <ele>60</ele>
        <time>2014-03-08T13:36:13Z</time>
      </trkpt>
      <trkpt lat="43.61507" lon="6.91605">
        <ele>60</ele>
        <time>2014-03-08T13:36:14Z</time>
      </trkpt>
      <trkpt lat="43.61509" lon="6.91607">
        <ele>60.6</ele>
        <time>2014-03-08T13:36:15Z</time>
      </trkpt>
      <trkpt lat="43.61514" lon="6.91611">
        <ele>61.4</ele>
        <time>2014-03-08T13:36:17Z</time>
      </trkpt>
      <trkpt lat="43.6152" lon="6.91614">
        <ele>61.8</ele>
        <time>2014-03-08T13:36:19Z</time>
      </trkpt>
      <trkpt lat="43.61525" lon="6.91619">
        <ele>62.4</ele>
        <time>2014-03-08T13:36:21Z</time>
      </trkpt>
      <trkpt lat="43.61528" lon="6.91624">
        <ele>63</ele>
        <time>2014-03-08T13:36:23Z</time>
      </trkpt>
      <trkpt lat="43.61533" lon="6.91628">
        <ele>63.8</ele>
        <time>2014-03-08T13:36:25Z</time>
      </trkpt>
      <trkpt lat="43.61538" lon="6.91632">
        <ele>64.4</ele>
        <time>2014-03-08T13:36:27Z</time>
      </trkpt>
      <trkpt lat="43.61541" lon="6.91633">
        <ele>64.4</ele>
        <time>2014-03-08T13:36:28Z</time>
      </trkpt>
      <trkpt lat="43.61543" lon="6.91635">
        <ele>65.2</ele>
        <time>2014-03-08T13:36:29Z</time>
      </trkpt>
      <trkpt lat="43.6155" lon="6.91637">
        <ele>65.8</ele>
        <time>2014-03-08T13:36:33Z</time>
      </trkpt>
      <trkpt lat="43.61551" lon="6.91637">
        <ele>65.8</ele>
        <time>2014-03-08T13:36:34Z</time>
      </trkpt>
      <trkpt lat="43.61553" lon="6.91636">
        <ele>66.4</ele>
        <time>2014-03-08T13:36:35Z</time>
      </trkpt>
      <trkpt lat="43.61557" lon="6.91636">
        <ele>67</ele>
        <time>2014-03-08T13:36:37Z</time>
      </trkpt>
      <trkpt lat="43.6156" lon="6.91636">
        <ele>67</ele>
        <time>2014-03-08T13:36:38Z</time>
      </trkpt>
      <trkpt lat="43.61563" lon="6.91636">
        <ele>67.8</ele>
        <time>2014-03-08T13:36:39Z</time>
      </trkpt>
      <trkpt lat="43.6157" lon="6.91637">
        <ele>68.4</ele>
        <time>2014-03-08T13:36:41Z</time>
      </trkpt>
      <trkpt lat="43.61574" lon="6.91638">
        <ele>69</ele>
        <time>2014-03-08T13:36:43Z</time>
      </trkpt>
      <trkpt lat="43.61587" lon="6.9164">
        <ele>69</ele>
        <time>2014-03-08T13:36:49Z</time>
      </trkpt>
      <trkpt lat="43.6159" lon="6.9164">
        <ele>69.4</ele>
        <time>2014-03-08T13:36:51Z</time>
      </trkpt>
      <trkpt lat="43.61594" lon="6.9164">
        <ele>70</ele>
        <time>2014-03-08T13:36:53Z</time>
      </trkpt>
      <trkpt lat="43.61596" lon="6.91639">
        <ele>70</ele>
        <time>2014-03-08T13:36:54Z</time>
      </trkpt>
      <trkpt lat="43.61599" lon="6.91639">
        <ele>70.4</ele>
        <time>2014-03-08T13:36:55Z</time>
      </trkpt>
      <trkpt lat="43.61601" lon="6.91638">
        <ele>70.4</ele>
        <time>2014-03-08T13:36:56Z</time>
      </trkpt>
      <trkpt lat="43.61603" lon="6.91638">
        <ele>71.2</ele>
        <time>2014-03-08T13:36:57Z</time>
      </trkpt>
      <trkpt lat="43.61605" lon="6.91638">
        <ele>71.2</ele>
        <time>2014-03-08T13:36:58Z</time>
      </trkpt>
      <trkpt lat="43.61606" lon="6.91638">
        <ele>71.8</ele>
        <time>2014-03-08T13:36:59Z</time>
      </trkpt>
      <trkpt lat="43.6161" lon="6.91639">
        <ele>72.4</ele>
        <time>2014-03-08T13:37:01Z</time>
      </trkpt>
      <trkpt lat="43.61612" lon="6.91639">
        <ele>72.4</ele>
        <time>2014-03-08T13:37:02Z</time>
      </trkpt>
      <trkpt lat="43.61615" lon="6.91639">
        <ele>73</ele>
        <time>2014-03-08T13:37:03Z</time>
      </trkpt>
      <trkpt lat="43.6162" lon="6.9164">
        <ele>73.6</ele>
        <time>2014-03-08T13:37:05Z</time>
      </trkpt>
      <trkpt lat="43.61624" lon="6.91639">
        <ele>74.2</ele>
        <time>2014-03-08T13:37:07Z</time>
      </trkpt>
      <trkpt lat="43.61626" lon="6.9164">
        <ele>74.8</ele>
        <time>2014-03-08T13:37:09Z</time>
      </trkpt>
      <trkpt lat="43.61628" lon="6.91641">
        <ele>75.2</ele>
        <time>2014-03-08T13:37:11Z</time>
      </trkpt>
      <trkpt lat="43.61631" lon="6.91641">
        <ele>76</ele>
        <time>2014-03-08T13:37:13Z</time>
      </trkpt>
      <trkpt lat="43.61632" lon="6.91641">
        <ele>76.6</ele>
        <time>2014-03-08T13:37:15Z</time>
      </trkpt>
      <trkpt lat="43.61635" lon="6.91641">
        <ele>77.4</ele>
        <time>2014-03-08T13:37:17Z</time>
      </trkpt>
      <trkpt lat="43.61638" lon="6.91642">
        <ele>78</ele>
        <time>2014-03-08T13:37:19Z</time>
      </trkpt>
      <trkpt lat="43.6164" lon="6.91644">
        <ele>78.6</ele>
        <time>2014-03-08T13:37:21Z</time>
      </trkpt>
      <trkpt lat="43.61642" lon="6.91646">
        <ele>79.2</ele>
        <time>2014-03-08T13:37:23Z</time>
      </trkpt>
      <trkpt lat="43.61644" lon="6.91649">
        <ele>79.8</ele>
        <time>2014-03-08T13:37:25Z</time>
      </trkpt>
      <trkpt lat="43.61646" lon="6.9165">
        <ele>79.8</ele>
        <time>2014-03-08T13:37:26Z</time>
      </trkpt>
      <trkpt lat="43.61647" lon="6.91651">
        <ele>80.4</ele>
        <time>2014-03-08T13:37:27Z</time>
      </trkpt>
      <trkpt lat="43.61649" lon="6.91653">
        <ele>81</ele>
        <time>2014-03-08T13:37:29Z</time>
      </trkpt>
      <trkpt lat="43.61651" lon="6.91655">
        <ele>81.6</ele>
        <time>2014-03-08T13:37:31Z</time>
      </trkpt>
      <trkpt lat="43.61655" lon="6.91656">
        <ele>82.2</ele>
        <time>2014-03-08T13:37:33Z</time>
      </trkpt>
      <trkpt lat="43.61659" lon="6.91656">
        <ele>82.8</ele>
        <time>2014-03-08T13:37:35Z</time>
      </trkpt>
      <trkpt lat="43.61662" lon="6.91658">
        <ele>83.4</ele>
        <time>2014-03-08T13:37:37Z</time>
      </trkpt>
      <trkpt lat="43.61666" lon="6.91662">
        <ele>84</ele>
        <time>2014-03-08T13:37:39Z</time>
      </trkpt>
      <trkpt lat="43.61669" lon="6.91663">
        <ele>84</ele>
        <time>2014-03-08T13:37:40Z</time>
      </trkpt>
      <trkpt lat="43.61671" lon="6.91664">
        <ele>84.6</ele>
        <time>2014-03-08T13:37:41Z</time>
      </trkpt>
      <trkpt lat="43.61676" lon="6.91665">
        <ele>85.2</ele>
        <time>2014-03-08T13:37:43Z</time>
      </trkpt>
      <trkpt lat="43.61681" lon="6.91667">
        <ele>85.6</ele>
        <time>2014-03-08T13:37:45Z</time>
      </trkpt>
      <trkpt lat="43.61685" lon="6.91669">
        <ele>86.2</ele>
        <time>2014-03-08T13:37:47Z</time>
      </trkpt>
      <trkpt lat="43.61689" lon="6.91671">
        <ele>86.8</ele>
        <time>2014-03-08T13:37:49Z</time>
      </trkpt>
      <trkpt lat="43.61692" lon="6.91671">
        <ele>87.2</ele>
        <time>2014-03-08T13:37:51Z</time>
      </trkpt>
      <trkpt lat="43.61697" lon="6.91672">
        <ele>87.8</ele>
        <time>2014-03-08T13:37:53Z</time>
      </trkpt>
      <trkpt lat="43.61701" lon="6.91673">
        <ele>88.4</ele>
        <time>2014-03-08T13:37:55Z</time>
      </trkpt>
      <trkpt lat="43.61704" lon="6.91674">
        <ele>88.4</ele>
        <time>2014-03-08T13:37:56Z</time>
      </trkpt>
      <trkpt lat="43.61705" lon="6.91674">
        <ele>89</ele>
        <time>2014-03-08T13:37:57Z</time>
      </trkpt>
      <trkpt lat="43.61708" lon="6.91676">
        <ele>89.6</ele>
        <time>2014-03-08T13:37:59Z</time>
      </trkpt>
      <trkpt lat="43.61712" lon="6.91679">
        <ele>90.2</ele>
        <time>2014-03-08T13:38:01Z</time>
      </trkpt>
      <trkpt lat="43.61719" lon="6.91681">
        <ele>90.6</ele>
        <time>2014-03-08T13:38:05Z</time>
      </trkpt>
      <trkpt lat="43.61722" lon="6.91679">
        <ele>91.2</ele>
        <time>2014-03-08T13:38:07Z</time>
      </trkpt>
      <trkpt lat="43.61725" lon="6.91679">
        <ele>91.6</ele>
        <time>2014-03-08T13:38:09Z</time>
      </trkpt>
      <trkpt lat="43.61727" lon="6.9168">
        <ele>92.2</ele>
        <time>2014-03-08T13:38:11Z</time>
      </trkpt>
      <trkpt lat="43.61729" lon="6.91681">
        <ele>92.8</ele>
        <time>2014-03-08T13:38:13Z</time>
      </trkpt>
      <trkpt lat="43.61732" lon="6.91683">
        <ele>93.2</ele>
        <time>2014-03-08T13:38:15Z</time>
      </trkpt>
      <trkpt lat="43.61735" lon="6.91684">
        <ele>93.8</ele>
        <time>2014-03-08T13:38:17Z</time>
      </trkpt>
      <trkpt lat="43.61737" lon="6.91683">
        <ele>94.4</ele>
        <time>2014-03-08T13:38:19Z</time>
      </trkpt>
      <trkpt lat="43.6174" lon="6.91684">
        <ele>95.2</ele>
        <time>2014-03-08T13:38:21Z</time>
      </trkpt>
      <trkpt lat="43.61743" lon="6.91685">
        <ele>95.8</ele>
        <time>2014-03-08T13:38:23Z</time>
      </trkpt>
      <trkpt lat="43.61745" lon="6.91686">
        <ele>95.8</ele>
        <time>2014-03-08T13:38:24Z</time>
      </trkpt>
      <trkpt lat="43.61747" lon="6.91687">
        <ele>96.4</ele>
        <time>2014-03-08T13:38:25Z</time>
      </trkpt>
      <trkpt lat="43.61751" lon="6.91688">
        <ele>97.2</ele>
        <time>2014-03-08T13:38:27Z</time>
      </trkpt>
      <trkpt lat="43.61753" lon="6.9169">
        <ele>97.2</ele>
        <time>2014-03-08T13:38:28Z</time>
      </trkpt>
      <trkpt lat="43.61757" lon="6.9169">
        <ele>97.6</ele>
        <time>2014-03-08T13:38:29Z</time>
      </trkpt>
      <trkpt lat="43.61762" lon="6.91693">
        <ele>98</ele>
        <time>2014-03-08T13:38:31Z</time>
      </trkpt>
      <trkpt lat="43.61765" lon="6.91693">
        <ele>98</ele>
        <time>2014-03-08T13:38:32Z</time>
      </trkpt>
      <trkpt lat="43.61771" lon="6.91693">
        <ele>98</ele>
        <time>2014-03-08T13:38:35Z</time>
      </trkpt>
      <trkpt lat="43.61773" lon="6.91693">
        <ele>98.4</ele>
        <time>2014-03-08T13:38:36Z</time>
      </trkpt>
      <trkpt lat="43.61777" lon="6.91694">
        <ele>99</ele>
        <time>2014-03-08T13:38:38Z</time>
      </trkpt>
      <trkpt lat="43.6178" lon="6.91696">
        <ele>99.8</ele>
        <time>2014-03-08T13:38:40Z</time>
      </trkpt>
      <trkpt lat="43.61782" lon="6.91697">
        <ele>99.8</ele>
        <time>2014-03-08T13:38:41Z</time>
      </trkpt>
      <trkpt lat="43.61784" lon="6.91697">
        <ele>100.4</ele>
        <time>2014-03-08T13:38:42Z</time>
      </trkpt>
      <trkpt lat="43.61788" lon="6.91697">
        <ele>101.2</ele>
        <time>2014-03-08T13:38:44Z</time>
      </trkpt>
      <trkpt lat="43.61791" lon="6.91697">
        <ele>101.2</ele>
        <time>2014-03-08T13:38:45Z</time>
      </trkpt>
      <trkpt lat="43.61794" lon="6.91697">
        <ele>102</ele>
        <time>2014-03-08T13:38:46Z</time>
      </trkpt>
      <trkpt lat="43.61798" lon="6.91699">
        <ele>102.6</ele>
        <time>2014-03-08T13:38:48Z</time>
      </trkpt>
      <trkpt lat="43.61802" lon="6.917">
        <ele>103.4</ele>
        <time>2014-03-08T13:38:50Z</time>
      </trkpt>
      <trkpt lat="43.61807" lon="6.91703">
        <ele>104</ele>
        <time>2014-03-08T13:38:52Z</time>
      </trkpt>
      <trkpt lat="43.61811" lon="6.91704">
        <ele>104.6</ele>
        <time>2014-03-08T13:38:54Z</time>
      </trkpt>
      <trkpt lat="43.61814" lon="6.91706">
        <ele>105.2</ele>
        <time>2014-03-08T13:38:56Z</time>
      </trkpt>
      <trkpt lat="43.61817" lon="6.91708">
        <ele>105.6</ele>
        <time>2014-03-08T13:38:58Z</time>
      </trkpt>
      <trkpt lat="43.61819" lon="6.9171">
        <ele>106.2</ele>
        <time>2014-03-08T13:39:00Z</time>
      </trkpt>
      <trkpt lat="43.61821" lon="6.91711">
        <ele>106.2</ele>
        <time>2014-03-08T13:39:01Z</time>
      </trkpt>
      <trkpt lat="43.61823" lon="6.91713">
        <ele>106.8</ele>
        <time>2014-03-08T13:39:02Z</time>
      </trkpt>
      <trkpt lat="43.61827" lon="6.91716">
        <ele>107.4</ele>
        <time>2014-03-08T13:39:04Z</time>
      </trkpt>
      <trkpt lat="43.6183" lon="6.91718">
        <ele>107.8</ele>
        <time>2014-03-08T13:39:06Z</time>
      </trkpt>
      <trkpt lat="43.61833" lon="6.91721">
        <ele>108.4</ele>
        <time>2014-03-08T13:39:08Z</time>
      </trkpt>
      <trkpt lat="43.61837" lon="6.91725">
        <ele>108.8</ele>
        <time>2014-03-08T13:39:10Z</time>
      </trkpt>
      <trkpt lat="43.6184" lon="6.91731">
        <ele>109.2</ele>
        <time>2014-03-08T13:39:12Z</time>
      </trkpt>
      <trkpt lat="43.61845" lon="6.91736">
        <ele>109.6</ele>
        <time>2014-03-08T13:39:14Z</time>
      </trkpt>
      <trkpt lat="43.61849" lon="6.91738">
        <ele>110.2</ele>
        <time>2014-03-08T13:39:16Z</time>
      </trkpt>
      <trkpt lat="43.61852" lon="6.9174">
        <ele>110.8</ele>
        <time>2014-03-08T13:39:18Z</time>
      </trkpt>
      <trkpt lat="43.61853" lon="6.9174">
        <ele>110.8</ele>
        <time>2014-03-08T13:39:19Z</time>
      </trkpt>
      <trkpt lat="43.61854" lon="6.91741">
        <ele>111.6</ele>
        <time>2014-03-08T13:39:20Z</time>
      </trkpt>
      <trkpt lat="43.61855" lon="6.91742">
        <ele>111.6</ele>
        <time>2014-03-08T13:39:21Z</time>
      </trkpt>
      <trkpt lat="43.61856" lon="6.91742">
        <ele>112.4</ele>
        <time>2014-03-08T13:39:22Z</time>
      </trkpt>
      <trkpt lat="43.61859" lon="6.91744">
        <ele>113</ele>
        <time>2014-03-08T13:39:24Z</time>
      </trkpt>
      <trkpt lat="43.61863" lon="6.91743">
        <ele>113.6</ele>
        <time>2014-03-08T13:39:26Z</time>
      </trkpt>
      <trkpt lat="43.61867" lon="6.91743">
        <ele>114.2</ele>
        <time>2014-03-08T13:39:28Z</time>
      </trkpt>
      <trkpt lat="43.6187" lon="6.91743">
        <ele>114.2</ele>
        <time>2014-03-08T13:39:29Z</time>
      </trkpt>
      <trkpt lat="43.61872" lon="6.91743">
        <ele>114.8</ele>
        <time>2014-03-08T13:39:30Z</time>
      </trkpt>
      <trkpt lat="43.61875" lon="6.91742">
        <ele>115.2</ele>
        <time>2014-03-08T13:39:32Z</time>
      </trkpt>
      <trkpt lat="43.61878" lon="6.91742">
        <ele>115.8</ele>
        <time>2014-03-08T13:39:34Z</time>
      </trkpt>
      <trkpt lat="43.61879" lon="6.91743">
        <ele>115.8</ele>
        <time>2014-03-08T13:39:35Z</time>
      </trkpt>
      <trkpt lat="43.61879" lon="6.91742">
        <ele>116.4</ele>
        <time>2014-03-08T13:39:36Z</time>
      </trkpt>
      <trkpt lat="43.61882" lon="6.91742">
        <ele>116.8</ele>
        <time>2014-03-08T13:39:38Z</time>
      </trkpt>
      <trkpt lat="43.61885" lon="6.91742">
        <ele>117.4</ele>
        <time>2014-03-08T13:39:40Z</time>
      </trkpt>
      <trkpt lat="43.61889" lon="6.91743">
        <ele>117.8</ele>
        <time>2014-03-08T13:39:42Z</time>
      </trkpt>
      <trkpt lat="43.61892" lon="6.91744">
        <ele>118.4</ele>
        <time>2014-03-08T13:39:44Z</time>
      </trkpt>
      <trkpt lat="43.61896" lon="6.91746">
        <ele>118.8</ele>
        <time>2014-03-08T13:39:46Z</time>
      </trkpt>
      <trkpt lat="43.61902" lon="6.91749">
        <ele>119.4</ele>
        <time>2014-03-08T13:39:48Z</time>
      </trkpt>
      <trkpt lat="43.61908" lon="6.91751">
        <ele>119.8</ele>
        <time>2014-03-08T13:39:50Z</time>
      </trkpt>
      <trkpt lat="43.61912" lon="6.91753">
        <ele>120.4</ele>
        <time>2014-03-08T13:39:52Z</time>
      </trkpt>
      <trkpt lat="43.61917" lon="6.91756">
        <ele>121</ele>
        <time>2014-03-08T13:39:54Z</time>
      </trkpt>
      <trkpt lat="43.61923" lon="6.9176">
        <ele>121.6</ele>
        <time>2014-03-08T13:39:56Z</time>
      </trkpt>
      <trkpt lat="43.61927" lon="6.91763">
        <ele>122.2</ele>
        <time>2014-03-08T13:39:58Z</time>
      </trkpt>
      <trkpt lat="43.61931" lon="6.91765">
        <ele>122.6</ele>
        <time>2014-03-08T13:40:00Z</time>
      </trkpt>
      <trkpt lat="43.61936" lon="6.91766">
        <ele>123.2</ele>
        <time>2014-03-08T13:40:02Z</time>
      </trkpt>
      <trkpt lat="43.61943" lon="6.91768">
        <ele>123.2</ele>
        <time>2014-03-08T13:40:06Z</time>
      </trkpt>
      <trkpt lat="43.61947" lon="6.91769">
        <ele>123.6</ele>
        <time>2014-03-08T13:40:08Z</time>
      </trkpt>
      <trkpt lat="43.61952" lon="6.91769">
        <ele>124.2</ele>
        <time>2014-03-08T13:40:10Z</time>
      </trkpt>
      <trkpt lat="43.61955" lon="6.9177">
        <ele>124.6</ele>
        <time>2014-03-08T13:40:12Z</time>
      </trkpt>
      <trkpt lat="43.61958" lon="6.91769">
        <ele>125.2</ele>
        <time>2014-03-08T13:40:14Z</time>
      </trkpt>
      <trkpt lat="43.61961" lon="6.91768">
        <ele>126</ele>
        <time>2014-03-08T13:40:16Z</time>
      </trkpt>
      <trkpt lat="43.61964" lon="6.91768">
        <ele>126.6</ele>
        <time>2014-03-08T13:40:18Z</time>
      </trkpt>
      <trkpt lat="43.61968" lon="6.91769">
        <ele>127.2</ele>
        <time>2014-03-08T13:40:20Z</time>
      </trkpt>
      <trkpt lat="43.61971" lon="6.91769">
        <ele>128</ele>
        <time>2014-03-08T13:40:22Z</time>
      </trkpt>
      <trkpt lat="43.61983" lon="6.91772">
        <ele>128</ele>
        <time>2014-03-08T13:40:27Z</time>
      </trkpt>
      <trkpt lat="43.61995" lon="6.91769">
        <ele>128</ele>
        <time>2014-03-08T13:40:33Z</time>
      </trkpt>
      <trkpt lat="43.62006" lon="6.91767">
        <ele>128.4</ele>
        <time>2014-03-08T13:40:39Z</time>
      </trkpt>
      <trkpt lat="43.62008" lon="6.91766">
        <ele>128.4</ele>
        <time>2014-03-08T13:40:40Z</time>
      </trkpt>
      <trkpt lat="43.6201" lon="6.91766">
        <ele>129</ele>
        <time>2014-03-08T13:40:41Z</time>
      </trkpt>
      <trkpt lat="43.62014" lon="6.91767">
        <ele>129.4</ele>
        <time>2014-03-08T13:40:43Z</time>
      </trkpt>
      <trkpt lat="43.62018" lon="6.91768">
        <ele>130</ele>
        <time>2014-03-08T13:40:45Z</time>
      </trkpt>
      <trkpt lat="43.62022" lon="6.9177">
        <ele>130.4</ele>
        <time>2014-03-08T13:40:47Z</time>
      </trkpt>
      <trkpt lat="43.62027" lon="6.9177">
        <ele>131</ele>
        <time>2014-03-08T13:40:49Z</time>
      </trkpt>
      <trkpt lat="43.6203" lon="6.91769">
        <ele>131.4</ele>
        <time>2014-03-08T13:40:51Z</time>
      </trkpt>
      <trkpt lat="43.62032" lon="6.91769">
        <ele>131.4</ele>
        <time>2014-03-08T13:40:52Z</time>
      </trkpt>
      <trkpt lat="43.62034" lon="6.91769">
        <ele>132</ele>
        <time>2014-03-08T13:40:53Z</time>
      </trkpt>
      <trkpt lat="43.62038" lon="6.9177">
        <ele>132.4</ele>
        <time>2014-03-08T13:40:55Z</time>
      </trkpt>
      <trkpt lat="43.62042" lon="6.91771">
        <ele>133</ele>
        <time>2014-03-08T13:40:57Z</time>
      </trkpt>
      <trkpt lat="43.62045" lon="6.91773">
        <ele>133</ele>
        <time>2014-03-08T13:40:59Z</time>
      </trkpt>
      <trkpt lat="43.62048" lon="6.91774">
        <ele>133.4</ele>
        <time>2014-03-08T13:41:01Z</time>
      </trkpt>
      <trkpt lat="43.62051" lon="6.91774">
        <ele>133.8</ele>
        <time>2014-03-08T13:41:03Z</time>
      </trkpt>
      <trkpt lat="43.62055" lon="6.91775">
        <ele>134.4</ele>
        <time>2014-03-08T13:41:05Z</time>
      </trkpt>
      <trkpt lat="43.62057" lon="6.91776">
        <ele>134.4</ele>
        <time>2014-03-08T13:41:06Z</time>
      </trkpt>
      <trkpt lat="43.62059" lon="6.91776">
        <ele>134.8</ele>
        <time>2014-03-08T13:41:07Z</time>
      </trkpt>
      <trkpt lat="43.62063" lon="6.91776">
        <ele>135.2</ele>
        <time>2014-03-08T13:41:09Z</time>
      </trkpt>
      <trkpt lat="43.62071" lon="6.91776">
        <ele>135.8</ele>
        <time>2014-03-08T13:41:13Z</time>
      </trkpt>
      <trkpt lat="43.62075" lon="6.91778">
        <ele>136.2</ele>
        <time>2014-03-08T13:41:15Z</time>
      </trkpt>
      <trkpt lat="43.62078" lon="6.91782">
        <ele>136.8</ele>
        <time>2014-03-08T13:41:17Z</time>
      </trkpt>
      <trkpt lat="43.62081" lon="6.91785">
        <ele>137.2</ele>
        <time>2014-03-08T13:41:19Z</time>
      </trkpt>
      <trkpt lat="43.62083" lon="6.91788">
        <ele>137.6</ele>
        <time>2014-03-08T13:41:21Z</time>
      </trkpt>
      <trkpt lat="43.62084" lon="6.91789">
        <ele>137.6</ele>
        <time>2014-03-08T13:41:22Z</time>
      </trkpt>
      <trkpt lat="43.62086" lon="6.9179">
        <ele>138.2</ele>
        <time>2014-03-08T13:41:23Z</time>
      </trkpt>
      <trkpt lat="43.62087" lon="6.91791">
        <ele>138.2</ele>
        <time>2014-03-08T13:41:24Z</time>
      </trkpt>
      <trkpt lat="43.62089" lon="6.91791">
        <ele>138.6</ele>
        <time>2014-03-08T13:41:25Z</time>
      </trkpt>
      <trkpt lat="43.62093" lon="6.91792">
        <ele>139.2</ele>
        <time>2014-03-08T13:41:27Z</time>
      </trkpt>
      <trkpt lat="43.62097" lon="6.91791">
        <ele>139.6</ele>
        <time>2014-03-08T13:41:29Z</time>
      </trkpt>
      <trkpt lat="43.62101" lon="6.91789">
        <ele>140.2</ele>
        <time>2014-03-08T13:41:31Z</time>
      </trkpt>
      <trkpt lat="43.62104" lon="6.91787">
        <ele>140.6</ele>
        <time>2014-03-08T13:41:33Z</time>
      </trkpt>
      <trkpt lat="43.62108" lon="6.91784">
        <ele>141.2</ele>
        <time>2014-03-08T13:41:35Z</time>
      </trkpt>
      <trkpt lat="43.62113" lon="6.91782">
        <ele>141.6</ele>
        <time>2014-03-08T13:41:37Z</time>
      </trkpt>
      <trkpt lat="43.62117" lon="6.9178">
        <ele>142.2</ele>
        <time>2014-03-08T13:41:39Z</time>
      </trkpt>
      <trkpt lat="43.62122" lon="6.91777">
        <ele>142.8</ele>
        <time>2014-03-08T13:41:41Z</time>
      </trkpt>
      <trkpt lat="43.62126" lon="6.91775">
        <ele>143.2</ele>
        <time>2014-03-08T13:41:43Z</time>
      </trkpt>
      <trkpt lat="43.6213" lon="6.91772">
        <ele>143.6</ele>
        <time>2014-03-08T13:41:45Z</time>
      </trkpt>
      <trkpt lat="43.62134" lon="6.9177">
        <ele>144</ele>
        <time>2014-03-08T13:41:47Z</time>
      </trkpt>
      <trkpt lat="43.62138" lon="6.91767">
        <ele>144.4</ele>
        <time>2014-03-08T13:41:49Z</time>
      </trkpt>
      <trkpt lat="43.6214" lon="6.91766">
        <ele>144.4</ele>
        <time>2014-03-08T13:41:50Z</time>
      </trkpt>
      <trkpt lat="43.62142" lon="6.91764">
        <ele>144.8</ele>
        <time>2014-03-08T13:41:51Z</time>
      </trkpt>
      <trkpt lat="43.6215" lon="6.91758">
        <ele>145.2</ele>
        <time>2014-03-08T13:41:55Z</time>
      </trkpt>
      <trkpt lat="43.62152" lon="6.91757">
        <ele>145.2</ele>
        <time>2014-03-08T13:41:56Z</time>
      </trkpt>
      <trkpt lat="43.62153" lon="6.91756">
        <ele>145.6</ele>
        <time>2014-03-08T13:41:57Z</time>
      </trkpt>
      <trkpt lat="43.62156" lon="6.91754">
        <ele>146</ele>
        <time>2014-03-08T13:41:59Z</time>
      </trkpt>
      <trkpt lat="43.62159" lon="6.9175">
        <ele>146.6</ele>
        <time>2014-03-08T13:42:01Z</time>
      </trkpt>
      <trkpt lat="43.62162" lon="6.91746">
        <ele>147</ele>
        <time>2014-03-08T13:42:03Z</time>
      </trkpt>
      <trkpt lat="43.62166" lon="6.91741">
        <ele>147.4</ele>
        <time>2014-03-08T13:42:05Z</time>
      </trkpt>
      <trkpt lat="43.62169" lon="6.91736">
        <ele>147.8</ele>
        <time>2014-03-08T13:42:07Z</time>
      </trkpt>
      <trkpt lat="43.62174" lon="6.91733">
        <ele>148.4</ele>
        <time>2014-03-08T13:42:09Z</time>
      </trkpt>
      <trkpt lat="43.62179" lon="6.91731">
        <ele>148.8</ele>
        <time>2014-03-08T13:42:11Z</time>
      </trkpt>
      <trkpt lat="43.62184" lon="6.9173">
        <ele>149.2</ele>
        <time>2014-03-08T13:42:13Z</time>
      </trkpt>
      <trkpt lat="43.62188" lon="6.91728">
        <ele>149.8</ele>
        <time>2014-03-08T13:42:15Z</time>
      </trkpt>
      <trkpt lat="43.62193" lon="6.91726">
        <ele>150.2</ele>
        <time>2014-03-08T13:42:17Z</time>
      </trkpt>
      <trkpt lat="43.62196" lon="6.91723">
        <ele>150.8</ele>
        <time>2014-03-08T13:42:19Z</time>
      </trkpt>
      <trkpt lat="43.62198" lon="6.91722">
        <ele>150.8</ele>
        <time>2014-03-08T13:42:20Z</time>
      </trkpt>
      <trkpt lat="43.622" lon="6.9172">
        <ele>151.2</ele>
        <time>2014-03-08T13:42:21Z</time>
      </trkpt>
      <trkpt lat="43.62204" lon="6.91716">
        <ele>151.8</ele>
        <time>2014-03-08T13:42:23Z</time>
      </trkpt>
      <trkpt lat="43.62208" lon="6.91712">
        <ele>152.4</ele>
        <time>2014-03-08T13:42:25Z</time>
      </trkpt>
      <trkpt lat="43.62212" lon="6.91708">
        <ele>152.8</ele>
        <time>2014-03-08T13:42:27Z</time>
      </trkpt>
      <trkpt lat="43.62216" lon="6.91703">
        <ele>153.4</ele>
        <time>2014-03-08T13:42:29Z</time>
      </trkpt>
      <trkpt lat="43.6222" lon="6.91698">
        <ele>153.8</ele>
        <time>2014-03-08T13:42:31Z</time>
      </trkpt>
      <trkpt lat="43.62224" lon="6.91693">
        <ele>154.4</ele>
        <time>2014-03-08T13:42:33Z</time>
      </trkpt>
      <trkpt lat="43.62228" lon="6.91687">
        <ele>154.8</ele>
        <time>2014-03-08T13:42:35Z</time>
      </trkpt>
      <trkpt lat="43.6223" lon="6.91684">
        <ele>154.8</ele>
        <time>2014-03-08T13:42:36Z</time>
      </trkpt>
      <trkpt lat="43.62231" lon="6.91682">
        <ele>155.4</ele>
        <time>2014-03-08T13:42:37Z</time>
      </trkpt>
      <trkpt lat="43.62235" lon="6.91676">
        <ele>156</ele>
        <time>2014-03-08T13:42:39Z</time>
      </trkpt>
      <trkpt lat="43.62244" lon="6.91659">
        <ele>156.4</ele>
        <time>2014-03-08T13:42:45Z</time>
      </trkpt>
      <trkpt lat="43.62248" lon="6.91654">
        <ele>157</ele>
        <time>2014-03-08T13:42:47Z</time>
      </trkpt>
      <trkpt lat="43.62252" lon="6.91648">
        <ele>157.4</ele>
        <time>2014-03-08T13:42:49Z</time>
      </trkpt>
      <trkpt lat="43.62255" lon="6.91643">
        <ele>157.8</ele>
        <time>2014-03-08T13:42:51Z</time>
      </trkpt>
      <trkpt lat="43.62258" lon="6.91637">
        <ele>158.4</ele>
        <time>2014-03-08T13:42:53Z</time>
      </trkpt>
      <trkpt lat="43.62261" lon="6.91631">
        <ele>159</ele>
        <time>2014-03-08T13:42:55Z</time>
      </trkpt>
      <trkpt lat="43.62265" lon="6.91625">
        <ele>159.6</ele>
        <time>2014-03-08T13:42:57Z</time>
      </trkpt>
      <trkpt lat="43.6227" lon="6.9162">
        <ele>160.2</ele>
        <time>2014-03-08T13:42:59Z</time>
      </trkpt>
      <trkpt lat="43.62273" lon="6.91618">
        <ele>160.2</ele>
        <time>2014-03-08T13:43:00Z</time>
      </trkpt>
      <trkpt lat="43.62276" lon="6.91617">
        <ele>160.6</ele>
        <time>2014-03-08T13:43:01Z</time>
      </trkpt>
      <trkpt lat="43.62279" lon="6.91617">
        <ele>160.6</ele>
        <time>2014-03-08T13:43:02Z</time>
      </trkpt>
      <trkpt lat="43.62283" lon="6.91616">
        <ele>161.2</ele>
        <time>2014-03-08T13:43:03Z</time>
      </trkpt>
      <trkpt lat="43.62285" lon="6.91614">
        <ele>161.2</ele>
        <time>2014-03-08T13:43:04Z</time>
      </trkpt>
      <trkpt lat="43.62288" lon="6.91614">
        <ele>161.6</ele>
        <time>2014-03-08T13:43:05Z</time>
      </trkpt>
      <trkpt lat="43.62293" lon="6.91612">
        <ele>162</ele>
        <time>2014-03-08T13:43:07Z</time>
      </trkpt>
      <trkpt lat="43.62298" lon="6.9161">
        <ele>162.4</ele>
        <time>2014-03-08T13:43:09Z</time>
      </trkpt>
      <trkpt lat="43.62301" lon="6.91609">
        <ele>162.4</ele>
        <time>2014-03-08T13:43:10Z</time>
      </trkpt>
      <trkpt lat="43.62304" lon="6.91608">
        <ele>162.8</ele>
        <time>2014-03-08T13:43:11Z</time>
      </trkpt>
      <trkpt lat="43.62317" lon="6.91604">
        <ele>162.8</ele>
        <time>2014-03-08T13:43:16Z</time>
      </trkpt>
      <trkpt lat="43.6232" lon="6.91603">
        <ele>163.2</ele>
        <time>2014-03-08T13:43:17Z</time>
      </trkpt>
      <trkpt lat="43.62325" lon="6.91599">
        <ele>163.8</ele>
        <time>2014-03-08T13:43:19Z</time>
      </trkpt>
      <trkpt lat="43.62331" lon="6.91595">
        <ele>164.2</ele>
        <time>2014-03-08T13:43:21Z</time>
      </trkpt>
      <trkpt lat="43.62336" lon="6.91592">
        <ele>164.6</ele>
        <time>2014-03-08T13:43:23Z</time>
      </trkpt>
      <trkpt lat="43.62341" lon="6.91588">
        <ele>165.2</ele>
        <time>2014-03-08T13:43:25Z</time>
      </trkpt>
      <trkpt lat="43.62346" lon="6.91584">
        <ele>165.6</ele>
        <time>2014-03-08T13:43:27Z</time>
      </trkpt>
      <trkpt lat="43.62349" lon="6.91584">
        <ele>165.6</ele>
        <time>2014-03-08T13:43:28Z</time>
      </trkpt>
      <trkpt lat="43.62352" lon="6.91582">
        <ele>166</ele>
        <time>2014-03-08T13:43:29Z</time>
      </trkpt>
      <trkpt lat="43.62357" lon="6.91579">
        <ele>166.4</ele>
        <time>2014-03-08T13:43:31Z</time>
      </trkpt>
      <trkpt lat="43.62362" lon="6.91573">
        <ele>166.8</ele>
        <time>2014-03-08T13:43:33Z</time>
      </trkpt>
      <trkpt lat="43.62368" lon="6.91568">
        <ele>167.4</ele>
        <time>2014-03-08T13:43:35Z</time>
      </trkpt>
      <trkpt lat="43.62373" lon="6.91565">
        <ele>168</ele>
        <time>2014-03-08T13:43:37Z</time>
      </trkpt>
      <trkpt lat="43.62377" lon="6.91564">
        <ele>168</ele>
        <time>2014-03-08T13:43:38Z</time>
      </trkpt>
      <trkpt lat="43.6238" lon="6.91563">
        <ele>168.6</ele>
        <time>2014-03-08T13:43:39Z</time>
      </trkpt>
      <trkpt lat="43.62387" lon="6.91561">
        <ele>169</ele>
        <time>2014-03-08T13:43:41Z</time>
      </trkpt>
      <trkpt lat="43.62392" lon="6.91559">
        <ele>169.6</ele>
        <time>2014-03-08T13:43:43Z</time>
      </trkpt>
      <trkpt lat="43.62398" lon="6.91556">
        <ele>169.6</ele>
        <time>2014-03-08T13:43:45Z</time>
      </trkpt>
      <trkpt lat="43.62404" lon="6.91553">
        <ele>170</ele>
        <time>2014-03-08T13:43:47Z</time>
      </trkpt>
      <trkpt lat="43.62409" lon="6.91549">
        <ele>170.4</ele>
        <time>2014-03-08T13:43:49Z</time>
      </trkpt>
      <trkpt lat="43.62414" lon="6.91544">
        <ele>170.8</ele>
        <time>2014-03-08T13:43:51Z</time>
      </trkpt>
      <trkpt lat="43.6242" lon="6.91539">
        <ele>171.4</ele>
        <time>2014-03-08T13:43:53Z</time>
      </trkpt>
      <trkpt lat="43.62425" lon="6.91535">
        <ele>172</ele>
        <time>2014-03-08T13:43:55Z</time>
      </trkpt>
      <trkpt lat="43.6243" lon="6.91532">
        <ele>172.6</ele>
        <time>2014-03-08T13:43:57Z</time>
      </trkpt>
      <trkpt lat="43.62435" lon="6.91529">
        <ele>173.2</ele>
        <time>2014-03-08T13:43:59Z</time>
      </trkpt>
      <trkpt lat="43.62441" lon="6.91525">
        <ele>173.8</ele>
        <time>2014-03-08T13:44:01Z</time>
      </trkpt>
      <trkpt lat="43.62446" lon="6.91521">
        <ele>174.4</ele>
        <time>2014-03-08T13:44:03Z</time>
      </trkpt>
      <trkpt lat="43.62449" lon="6.91519">
        <ele>174.4</ele>
        <time>2014-03-08T13:44:04Z</time>
      </trkpt>
      <trkpt lat="43.62452" lon="6.91517">
        <ele>175</ele>
        <time>2014-03-08T13:44:05Z</time>
      </trkpt>
      <trkpt lat="43.62457" lon="6.91514">
        <ele>175.6</ele>
        <time>2014-03-08T13:44:07Z</time>
      </trkpt>
      <trkpt lat="43.6246" lon="6.91513">
        <ele>175.6</ele>
        <time>2014-03-08T13:44:08Z</time>
      </trkpt>
      <trkpt lat="43.62463" lon="6.91511">
        <ele>176.2</ele>
        <time>2014-03-08T13:44:09Z</time>
      </trkpt>
      <trkpt lat="43.62465" lon="6.91509">
        <ele>176.2</ele>
        <time>2014-03-08T13:44:10Z</time>
      </trkpt>
      <trkpt lat="43.6247" lon="6.91505">
        <ele>176.2</ele>
        <time>2014-03-08T13:44:12Z</time>
      </trkpt>
      <trkpt lat="43.62479" lon="6.915">
        <ele>176.8</ele>
        <time>2014-03-08T13:44:15Z</time>
      </trkpt>
      <trkpt lat="43.62482" lon="6.91499">
        <ele>176.8</ele>
        <time>2014-03-08T13:44:16Z</time>
      </trkpt>
      <trkpt lat="43.62485" lon="6.91497">
        <ele>177.2</ele>
        <time>2014-03-08T13:44:17Z</time>
      </trkpt>
      <trkpt lat="43.62491" lon="6.91495">
        <ele>177.6</ele>
        <time>2014-03-08T13:44:19Z</time>
      </trkpt>
      <trkpt lat="43.62498" lon="6.91492">
        <ele>178</ele>
        <time>2014-03-08T13:44:21Z</time>
      </trkpt>
      <trkpt lat="43.62503" lon="6.91489">
        <ele>178.4</ele>
        <time>2014-03-08T13:44:23Z</time>
      </trkpt>
      <trkpt lat="43.62509" lon="6.91487">
        <ele>178.8</ele>
        <time>2014-03-08T13:44:25Z</time>
      </trkpt>
      <trkpt lat="43.62515" lon="6.91485">
        <ele>179.2</ele>
        <time>2014-03-08T13:44:27Z</time>
      </trkpt>
      <trkpt lat="43.62522" lon="6.91483">
        <ele>179.6</ele>
        <time>2014-03-08T13:44:29Z</time>
      </trkpt>
      <trkpt lat="43.62529" lon="6.9148">
        <ele>180.2</ele>
        <time>2014-03-08T13:44:31Z</time>
      </trkpt>
      <trkpt lat="43.62536" lon="6.91477">
        <ele>180.6</ele>
        <time>2014-03-08T13:44:33Z</time>
      </trkpt>
      <trkpt lat="43.62543" lon="6.91474">
        <ele>180.6</ele>
        <time>2014-03-08T13:44:35Z</time>
      </trkpt>
      <trkpt lat="43.62553" lon="6.91469">
        <ele>181</ele>
        <time>2014-03-08T13:44:39Z</time>
      </trkpt>
      <trkpt lat="43.62556" lon="6.91467">
        <ele>181</ele>
        <time>2014-03-08T13:44:40Z</time>
      </trkpt>
      <trkpt lat="43.62559" lon="6.91466">
        <ele>181.4</ele>
        <time>2014-03-08T13:44:41Z</time>
      </trkpt>
      <trkpt lat="43.62566" lon="6.91465">
        <ele>181.8</ele>
        <time>2014-03-08T13:44:43Z</time>
      </trkpt>
      <trkpt lat="43.62573" lon="6.91464">
        <ele>181.8</ele>
        <time>2014-03-08T13:44:45Z</time>
      </trkpt>
      <trkpt lat="43.62583" lon="6.91462">
        <ele>182.2</ele>
        <time>2014-03-08T13:44:48Z</time>
      </trkpt>
      <trkpt lat="43.62589" lon="6.91459">
        <ele>182.6</ele>
        <time>2014-03-08T13:44:50Z</time>
      </trkpt>
      <trkpt lat="43.62596" lon="6.91455">
        <ele>182.6</ele>
        <time>2014-03-08T13:44:52Z</time>
      </trkpt>
      <trkpt lat="43.62603" lon="6.91451">
        <ele>183</ele>
        <time>2014-03-08T13:44:54Z</time>
      </trkpt>
      <trkpt lat="43.62611" lon="6.91447">
        <ele>183.4</ele>
        <time>2014-03-08T13:44:56Z</time>
      </trkpt>
      <trkpt lat="43.62618" lon="6.91443">
        <ele>183.8</ele>
        <time>2014-03-08T13:44:58Z</time>
      </trkpt>
      <trkpt lat="43.62622" lon="6.91441">
        <ele>183.8</ele>
        <time>2014-03-08T13:44:59Z</time>
      </trkpt>
      <trkpt lat="43.62625" lon="6.91439">
        <ele>184.4</ele>
        <time>2014-03-08T13:45:00Z</time>
      </trkpt>
      <trkpt lat="43.62631" lon="6.91435">
        <ele>184.8</ele>
        <time>2014-03-08T13:45:02Z</time>
      </trkpt>
      <trkpt lat="43.6264" lon="6.91429">
        <ele>184.8</ele>
        <time>2014-03-08T13:45:05Z</time>
      </trkpt>
      <trkpt lat="43.62665" lon="6.91418">
        <ele>184.8</ele>
        <time>2014-03-08T13:45:11Z</time>
      </trkpt>
      <trkpt lat="43.62673" lon="6.91414">
        <ele>184.8</ele>
        <time>2014-03-08T13:45:13Z</time>
      </trkpt>
      <trkpt lat="43.62685" lon="6.91409">
        <ele>184.8</ele>
        <time>2014-03-08T13:45:16Z</time>
      </trkpt>
      <trkpt lat="43.62715" lon="6.91395">
        <ele>184.8</ele>
        <time>2014-03-08T13:45:22Z</time>
      </trkpt>
      <trkpt lat="43.6274" lon="6.91384">
        <ele>184.8</ele>
        <time>2014-03-08T13:45:27Z</time>
      </trkpt>
      <trkpt lat="43.62764" lon="6.91372">
        <ele>184.8</ele>
        <time>2014-03-08T13:45:33Z</time>
      </trkpt>
      <trkpt lat="43.62787" lon="6.91361">
        <ele>184.8</ele>
        <time>2014-03-08T13:45:38Z</time>
      </trkpt>
      <trkpt lat="43.62802" lon="6.91354">
        <ele>184.8</ele>
        <time>2014-03-08T13:45:42Z</time>
      </trkpt>
      <trkpt lat="43.62816" lon="6.9135">
        <ele>184.8</ele>
        <time>2014-03-08T13:45:45Z</time>
      </trkpt>
      <trkpt lat="43.6283" lon="6.91345">
        <ele>184.8</ele>
        <time>2014-03-08T13:45:48Z</time>
      </trkpt>
      <trkpt lat="43.62838" lon="6.9134">
        <ele>185.2</ele>
        <time>2014-03-08T13:45:50Z</time>
      </trkpt>
      <trkpt lat="43.62847" lon="6.91335">
        <ele>185.8</ele>
        <time>2014-03-08T13:45:52Z</time>
      </trkpt>
      <trkpt lat="43.62857" lon="6.9133">
        <ele>186.2</ele>
        <time>2014-03-08T13:45:54Z</time>
      </trkpt>
      <trkpt lat="43.62865" lon="6.91328">
        <ele>186.8</ele>
        <time>2014-03-08T13:45:56Z</time>
      </trkpt>
      <trkpt lat="43.62874" lon="6.91325">
        <ele>187.4</ele>
        <time>2014-03-08T13:45:58Z</time>
      </trkpt>
      <trkpt lat="43.62878" lon="6.91323">
        <ele>187.4</ele>
        <time>2014-03-08T13:45:59Z</time>
      </trkpt>
      <trkpt lat="43.62882" lon="6.91322">
        <ele>188</ele>
        <time>2014-03-08T13:46:00Z</time>
      </trkpt>
      <trkpt lat="43.62893" lon="6.91319">
        <ele>188.6</ele>
        <time>2014-03-08T13:46:02Z</time>
      </trkpt>
      <trkpt lat="43.62898" lon="6.91317">
        <ele>188.6</ele>
        <time>2014-03-08T13:46:03Z</time>
      </trkpt>
      <trkpt lat="43.62902" lon="6.91315">
        <ele>189.2</ele>
        <time>2014-03-08T13:46:04Z</time>
      </trkpt>
      <trkpt lat="43.62911" lon="6.91311">
        <ele>189.8</ele>
        <time>2014-03-08T13:46:06Z</time>
      </trkpt>
      <trkpt lat="43.6292" lon="6.91307">
        <ele>189.8</ele>
        <time>2014-03-08T13:46:08Z</time>
      </trkpt>
      <trkpt lat="43.62929" lon="6.91303">
        <ele>190.4</ele>
        <time>2014-03-08T13:46:10Z</time>
      </trkpt>
      <trkpt lat="43.62938" lon="6.91298">
        <ele>190.8</ele>
        <time>2014-03-08T13:46:12Z</time>
      </trkpt>
      <trkpt lat="43.62945" lon="6.91295">
        <ele>190.8</ele>
        <time>2014-03-08T13:46:13Z</time>
      </trkpt>
      <trkpt lat="43.62951" lon="6.91294">
        <ele>191.2</ele>
        <time>2014-03-08T13:46:14Z</time>
      </trkpt>
      <trkpt lat="43.62962" lon="6.91289">
        <ele>191.6</ele>
        <time>2014-03-08T13:46:16Z</time>
      </trkpt>
      <trkpt lat="43.62968" lon="6.91288">
        <ele>191.6</ele>
        <time>2014-03-08T13:46:17Z</time>
      </trkpt>
      <trkpt lat="43.62973" lon="6.91286">
        <ele>192.2</ele>
        <time>2014-03-08T13:46:18Z</time>
      </trkpt>
      <trkpt lat="43.63007" lon="6.91271">
        <ele>192.2</ele>
        <time>2014-03-08T13:46:24Z</time>
      </trkpt>
      <trkpt lat="43.63013" lon="6.91266">
        <ele>192.2</ele>
        <time>2014-03-08T13:46:25Z</time>
      </trkpt>
      <trkpt lat="43.63023" lon="6.91255">
        <ele>192.2</ele>
        <time>2014-03-08T13:46:27Z</time>
      </trkpt>
      <trkpt lat="43.63028" lon="6.91248">
        <ele>191.6</ele>
        <time>2014-03-08T13:46:28Z</time>
      </trkpt>
      <trkpt lat="43.63039" lon="6.91233">
        <ele>191</ele>
        <time>2014-03-08T13:46:30Z</time>
      </trkpt>
      <trkpt lat="43.63052" lon="6.9122">
        <ele>190.6</ele>
        <time>2014-03-08T13:46:32Z</time>
      </trkpt>
      <trkpt lat="43.63065" lon="6.91206">
        <ele>189.8</ele>
        <time>2014-03-08T13:46:34Z</time>
      </trkpt>
      <trkpt lat="43.63072" lon="6.91201">
        <ele>189.8</ele>
        <time>2014-03-08T13:46:35Z</time>
      </trkpt>
      <trkpt lat="43.63078" lon="6.91197">
        <ele>189.2</ele>
        <time>2014-03-08T13:46:36Z</time>
      </trkpt>
      <trkpt lat="43.63085" lon="6.91193">
        <ele>189.2</ele>
        <time>2014-03-08T13:46:37Z</time>
      </trkpt>
      <trkpt lat="43.63092" lon="6.91191">
        <ele>188.6</ele>
        <time>2014-03-08T13:46:38Z</time>
      </trkpt>
      <trkpt lat="43.63106" lon="6.9119">
        <ele>188</ele>
        <time>2014-03-08T13:46:40Z</time>
      </trkpt>
      <trkpt lat="43.63113" lon="6.9119">
        <ele>188</ele>
        <time>2014-03-08T13:46:41Z</time>
      </trkpt>
      <trkpt lat="43.63119" lon="6.91191">
        <ele>187.2</ele>
        <time>2014-03-08T13:46:42Z</time>
      </trkpt>
      <trkpt lat="43.63131" lon="6.91192">
        <ele>187.8</ele>
        <time>2014-03-08T13:46:44Z</time>
      </trkpt>
      <trkpt lat="43.63143" lon="6.91195">
        <ele>188.2</ele>
        <time>2014-03-08T13:46:46Z</time>
      </trkpt>
      <trkpt lat="43.63148" lon="6.91196">
        <ele>188.2</ele>
        <time>2014-03-08T13:46:47Z</time>
      </trkpt>
      <trkpt lat="43.63169" lon="6.91202">
        <ele>189</ele>
        <time>2014-03-08T13:46:51Z</time>
      </trkpt>
      <trkpt lat="43.63177" lon="6.91204">
        <ele>189.4</ele>
        <time>2014-03-08T13:46:53Z</time>
      </trkpt>
      <trkpt lat="43.63181" lon="6.91206">
        <ele>189.4</ele>
        <time>2014-03-08T13:46:54Z</time>
      </trkpt>
      <trkpt lat="43.63185" lon="6.91206">
        <ele>189.4</ele>
        <time>2014-03-08T13:46:55Z</time>
      </trkpt>
      <trkpt lat="43.63203" lon="6.91209">
        <ele>190</ele>
        <time>2014-03-08T13:46:59Z</time>
      </trkpt>
      <trkpt lat="43.63207" lon="6.9121">
        <ele>190</ele>
        <time>2014-03-08T13:47:00Z</time>
      </trkpt>
      <trkpt lat="43.63213" lon="6.91212">
        <ele>190.4</ele>
        <time>2014-03-08T13:47:01Z</time>
      </trkpt>
      <trkpt lat="43.63222" lon="6.91214">
        <ele>191</ele>
        <time>2014-03-08T13:47:03Z</time>
      </trkpt>
      <trkpt lat="43.63231" lon="6.91218">
        <ele>191.6</ele>
        <time>2014-03-08T13:47:05Z</time>
      </trkpt>
      <trkpt lat="43.63238" lon="6.91222">
        <ele>192.4</ele>
        <time>2014-03-08T13:47:07Z</time>
      </trkpt>
      <trkpt lat="43.63246" lon="6.91226">
        <ele>193</ele>
        <time>2014-03-08T13:47:09Z</time>
      </trkpt>
      <trkpt lat="43.63253" lon="6.9123">
        <ele>193.6</ele>
        <time>2014-03-08T13:47:11Z</time>
      </trkpt>
      <trkpt lat="43.63262" lon="6.91233">
        <ele>194.4</ele>
        <time>2014-03-08T13:47:13Z</time>
      </trkpt>
      <trkpt lat="43.63289" lon="6.91243">
        <ele>194.8</ele>
        <time>2014-03-08T13:47:19Z</time>
      </trkpt>
      <trkpt lat="43.63294" lon="6.91245">
        <ele>194.8</ele>
        <time>2014-03-08T13:47:20Z</time>
      </trkpt>
      <trkpt lat="43.63299" lon="6.91246">
        <ele>195.2</ele>
        <time>2014-03-08T13:47:21Z</time>
      </trkpt>
      <trkpt lat="43.63307" lon="6.91247">
        <ele>195.6</ele>
        <time>2014-03-08T13:47:23Z</time>
      </trkpt>
      <trkpt lat="43.63313" lon="6.91249">
        <ele>196</ele>
        <time>2014-03-08T13:47:25Z</time>
      </trkpt>
      <trkpt lat="43.63319" lon="6.9125">
        <ele>196.6</ele>
        <time>2014-03-08T13:47:27Z</time>
      </trkpt>
      <trkpt lat="43.63326" lon="6.9125">
        <ele>197</ele>
        <time>2014-03-08T13:47:29Z</time>
      </trkpt>
      <trkpt lat="43.63333" lon="6.91249">
        <ele>197.6</ele>
        <time>2014-03-08T13:47:31Z</time>
      </trkpt>
      <trkpt lat="43.63339" lon="6.91249">
        <ele>198</ele>
        <time>2014-03-08T13:47:33Z</time>
      </trkpt>
      <trkpt lat="43.63347" lon="6.91249">
        <ele>198.4</ele>
        <time>2014-03-08T13:47:35Z</time>
      </trkpt>
      <trkpt lat="43.63358" lon="6.91247">
        <ele>198.4</ele>
        <time>2014-03-08T13:47:38Z</time>
      </trkpt>
      <trkpt lat="43.63362" lon="6.91246">
        <ele>199</ele>
        <time>2014-03-08T13:47:39Z</time>
      </trkpt>
      <trkpt lat="43.63366" lon="6.91245">
        <ele>199</ele>
        <time>2014-03-08T13:47:40Z</time>
      </trkpt>
      <trkpt lat="43.63371" lon="6.91243">
        <ele>199.4</ele>
        <time>2014-03-08T13:47:41Z</time>
      </trkpt>
      <trkpt lat="43.63378" lon="6.9124">
        <ele>199.8</ele>
        <time>2014-03-08T13:47:43Z</time>
      </trkpt>
      <trkpt lat="43.63385" lon="6.91237">
        <ele>200.2</ele>
        <time>2014-03-08T13:47:45Z</time>
      </trkpt>
      <trkpt lat="43.63393" lon="6.91233">
        <ele>200.6</ele>
        <time>2014-03-08T13:47:47Z</time>
      </trkpt>
      <trkpt lat="43.63398" lon="6.91231">
        <ele>200.6</ele>
        <time>2014-03-08T13:47:48Z</time>
      </trkpt>
      <trkpt lat="43.63421" lon="6.91223">
        <ele>200.6</ele>
        <time>2014-03-08T13:47:52Z</time>
      </trkpt>
      <trkpt lat="43.63435" lon="6.91218">
        <ele>200.6</ele>
        <time>2014-03-08T13:47:54Z</time>
      </trkpt>
      <trkpt lat="43.63459" lon="6.91203">
        <ele>200.6</ele>
        <time>2014-03-08T13:47:58Z</time>
      </trkpt>
      <trkpt lat="43.63471" lon="6.91195">
        <ele>200.6</ele>
        <time>2014-03-08T13:48:00Z</time>
      </trkpt>
      <trkpt lat="43.63478" lon="6.91192">
        <ele>200.2</ele>
        <time>2014-03-08T13:48:01Z</time>
      </trkpt>
      <trkpt lat="43.63485" lon="6.9119">
        <ele>200.2</ele>
        <time>2014-03-08T13:48:02Z</time>
      </trkpt>
      <trkpt lat="43.63492" lon="6.91187">
        <ele>199.6</ele>
        <time>2014-03-08T13:48:03Z</time>
      </trkpt>
      <trkpt lat="43.63504" lon="6.91185">
        <ele>199</ele>
        <time>2014-03-08T13:48:05Z</time>
      </trkpt>
      <trkpt lat="43.63511" lon="6.91185">
        <ele>199</ele>
        <time>2014-03-08T13:48:06Z</time>
      </trkpt>
      <trkpt lat="43.63517" lon="6.91184">
        <ele>198.4</ele>
        <time>2014-03-08T13:48:07Z</time>
      </trkpt>
      <trkpt lat="43.63528" lon="6.91179">
        <ele>198</ele>
        <time>2014-03-08T13:48:09Z</time>
      </trkpt>
      <trkpt lat="43.6354" lon="6.91174">
        <ele>198</ele>
        <time>2014-03-08T13:48:12Z</time>
      </trkpt>
      <trkpt lat="43.63544" lon="6.91173">
        <ele>198</ele>
        <time>2014-03-08T13:48:13Z</time>
      </trkpt>
      <trkpt lat="43.63564" lon="6.91166">
        <ele>198</ele>
        <time>2014-03-08T13:48:17Z</time>
      </trkpt>
      <trkpt lat="43.63598" lon="6.9115">
        <ele>198</ele>
        <time>2014-03-08T13:48:22Z</time>
      </trkpt>
      <trkpt lat="43.63612" lon="6.9114">
        <ele>198</ele>
        <time>2014-03-08T13:48:24Z</time>
      </trkpt>
      <trkpt lat="43.63619" lon="6.91135">
        <ele>197.6</ele>
        <time>2014-03-08T13:48:25Z</time>
      </trkpt>
      <trkpt lat="43.63625" lon="6.91127">
        <ele>197.6</ele>
        <time>2014-03-08T13:48:26Z</time>
      </trkpt>
      <trkpt lat="43.6363" lon="6.91119">
        <ele>197.2</ele>
        <time>2014-03-08T13:48:27Z</time>
      </trkpt>
      <trkpt lat="43.63636" lon="6.911">
        <ele>196.8</ele>
        <time>2014-03-08T13:48:29Z</time>
      </trkpt>
      <trkpt lat="43.63638" lon="6.9109">
        <ele>196.8</ele>
        <time>2014-03-08T13:48:30Z</time>
      </trkpt>
      <trkpt lat="43.6364" lon="6.91081">
        <ele>196.2</ele>
        <time>2014-03-08T13:48:31Z</time>
      </trkpt>
      <trkpt lat="43.63646" lon="6.91062">
        <ele>195.8</ele>
        <time>2014-03-08T13:48:33Z</time>
      </trkpt>
      <trkpt lat="43.63654" lon="6.91046">
        <ele>195.8</ele>
        <time>2014-03-08T13:48:35Z</time>
      </trkpt>
      <trkpt lat="43.63672" lon="6.91026">
        <ele>195.8</ele>
        <time>2014-03-08T13:48:38Z</time>
      </trkpt>
      <trkpt lat="43.63677" lon="6.9102">
        <ele>195.4</ele>
        <time>2014-03-08T13:48:39Z</time>
      </trkpt>
      <trkpt lat="43.63688" lon="6.91009">
        <ele>195</ele>
        <time>2014-03-08T13:48:41Z</time>
      </trkpt>
      <trkpt lat="43.63694" lon="6.91006">
        <ele>195</ele>
        <time>2014-03-08T13:48:42Z</time>
      </trkpt>
      <trkpt lat="43.63701" lon="6.91002">
        <ele>194.4</ele>
        <time>2014-03-08T13:48:43Z</time>
      </trkpt>
      <trkpt lat="43.63716" lon="6.90998">
        <ele>194</ele>
        <time>2014-03-08T13:48:45Z</time>
      </trkpt>
      <trkpt lat="43.63723" lon="6.90997">
        <ele>194</ele>
        <time>2014-03-08T13:48:46Z</time>
      </trkpt>
      <trkpt lat="43.63731" lon="6.90997">
        <ele>193.4</ele>
        <time>2014-03-08T13:48:47Z</time>
      </trkpt>
      <trkpt lat="43.6377" lon="6.90997">
        <ele>193.4</ele>
        <time>2014-03-08T13:48:52Z</time>
      </trkpt>
      <trkpt lat="43.63778" lon="6.90996">
        <ele>193.4</ele>
        <time>2014-03-08T13:48:53Z</time>
      </trkpt>
      <trkpt lat="43.63794" lon="6.90997">
        <ele>193</ele>
        <time>2014-03-08T13:48:55Z</time>
      </trkpt>
      <trkpt lat="43.63802" lon="6.91">
        <ele>193</ele>
        <time>2014-03-08T13:48:56Z</time>
      </trkpt>
      <trkpt lat="43.63808" lon="6.91005">
        <ele>192.6</ele>
        <time>2014-03-08T13:48:57Z</time>
      </trkpt>
      <trkpt lat="43.63818" lon="6.91023">
        <ele>192.2</ele>
        <time>2014-03-08T13:48:59Z</time>
      </trkpt>
      <trkpt lat="43.63823" lon="6.91044">
        <ele>191.8</ele>
        <time>2014-03-08T13:49:01Z</time>
      </trkpt>
      <trkpt lat="43.63824" lon="6.91054">
        <ele>191.8</ele>
        <time>2014-03-08T13:49:02Z</time>
      </trkpt>
      <trkpt lat="43.63825" lon="6.91064">
        <ele>191.4</ele>
        <time>2014-03-08T13:49:03Z</time>
      </trkpt>
      <trkpt lat="43.6383" lon="6.91086">
        <ele>191.4</ele>
        <time>2014-03-08T13:49:06Z</time>
      </trkpt>
      <trkpt lat="43.63833" lon="6.91093">
        <ele>191.4</ele>
        <time>2014-03-08T13:49:07Z</time>
      </trkpt>
      <trkpt lat="43.63843" lon="6.91113">
        <ele>191.4</ele>
        <time>2014-03-08T13:49:10Z</time>
      </trkpt>
      <trkpt lat="43.63847" lon="6.91118">
        <ele>191.8</ele>
        <time>2014-03-08T13:49:11Z</time>
      </trkpt>
      <trkpt lat="43.63853" lon="6.91121">
        <ele>191.8</ele>
        <time>2014-03-08T13:49:12Z</time>
      </trkpt>
      <trkpt lat="43.63858" lon="6.91122">
        <ele>192.2</ele>
        <time>2014-03-08T13:49:13Z</time>
      </trkpt>
      <trkpt lat="43.63868" lon="6.91123">
        <ele>192.6</ele>
        <time>2014-03-08T13:49:15Z</time>
      </trkpt>
      <trkpt lat="43.63873" lon="6.91123">
        <ele>192.6</ele>
        <time>2014-03-08T13:49:16Z</time>
      </trkpt>
      <trkpt lat="43.63877" lon="6.91122">
        <ele>193</ele>
        <time>2014-03-08T13:49:17Z</time>
      </trkpt>
      <trkpt lat="43.63884" lon="6.91121">
        <ele>193.6</ele>
        <time>2014-03-08T13:49:19Z</time>
      </trkpt>
      <trkpt lat="43.63887" lon="6.91121">
        <ele>193.6</ele>
        <time>2014-03-08T13:49:20Z</time>
      </trkpt>
      <trkpt lat="43.63891" lon="6.91121">
        <ele>194</ele>
        <time>2014-03-08T13:49:21Z</time>
      </trkpt>
      <trkpt lat="43.63899" lon="6.91121">
        <ele>194.4</ele>
        <time>2014-03-08T13:49:23Z</time>
      </trkpt>
      <trkpt lat="43.63903" lon="6.91122">
        <ele>194.4</ele>
        <time>2014-03-08T13:49:24Z</time>
      </trkpt>
      <trkpt lat="43.63907" lon="6.91123">
        <ele>194.8</ele>
        <time>2014-03-08T13:49:25Z</time>
      </trkpt>
      <trkpt lat="43.63911" lon="6.91125">
        <ele>194.8</ele>
        <time>2014-03-08T13:49:26Z</time>
      </trkpt>
      <trkpt lat="43.63916" lon="6.91127">
        <ele>195.2</ele>
        <time>2014-03-08T13:49:27Z</time>
      </trkpt>
      <trkpt lat="43.63923" lon="6.91131">
        <ele>195.6</ele>
        <time>2014-03-08T13:49:29Z</time>
      </trkpt>
      <trkpt lat="43.63931" lon="6.91136">
        <ele>196</ele>
        <time>2014-03-08T13:49:31Z</time>
      </trkpt>
      <trkpt lat="43.63932" lon="6.91138">
        <ele>196</ele>
        <time>2014-03-08T13:49:32Z</time>
      </trkpt>
      <trkpt lat="43.63935" lon="6.91142">
        <ele>196.6</ele>
        <time>2014-03-08T13:49:33Z</time>
      </trkpt>
      <trkpt lat="43.63943" lon="6.91148">
        <ele>197</ele>
        <time>2014-03-08T13:49:35Z</time>
      </trkpt>
      <trkpt lat="43.63951" lon="6.91148">
        <ele>197.6</ele>
        <time>2014-03-08T13:49:37Z</time>
      </trkpt>
      <trkpt lat="43.63954" lon="6.91147">
        <ele>197.6</ele>
        <time>2014-03-08T13:49:38Z</time>
      </trkpt>
      <trkpt lat="43.63957" lon="6.91146">
        <ele>198.2</ele>
        <time>2014-03-08T13:49:39Z</time>
      </trkpt>
      <trkpt lat="43.63963" lon="6.91145">
        <ele>198.8</ele>
        <time>2014-03-08T13:49:41Z</time>
      </trkpt>
      <trkpt lat="43.63971" lon="6.91147">
        <ele>199.4</ele>
        <time>2014-03-08T13:49:43Z</time>
      </trkpt>
      <trkpt lat="43.63975" lon="6.91148">
        <ele>199.4</ele>
        <time>2014-03-08T13:49:44Z</time>
      </trkpt>
      <trkpt lat="43.6398" lon="6.91149">
        <ele>199.8</ele>
        <time>2014-03-08T13:49:45Z</time>
      </trkpt>
      <trkpt lat="43.63987" lon="6.91151">
        <ele>200.4</ele>
        <time>2014-03-08T13:49:47Z</time>
      </trkpt>
      <trkpt lat="43.63994" lon="6.91152">
        <ele>201</ele>
        <time>2014-03-08T13:49:49Z</time>
      </trkpt>
      <trkpt lat="43.63997" lon="6.91151">
        <ele>201</ele>
        <time>2014-03-08T13:49:50Z</time>
      </trkpt>
      <trkpt lat="43.64001" lon="6.91151">
        <ele>201.6</ele>
        <time>2014-03-08T13:49:51Z</time>
      </trkpt>
      <trkpt lat="43.64008" lon="6.91152">
        <ele>202.2</ele>
        <time>2014-03-08T13:49:53Z</time>
      </trkpt>
      <trkpt lat="43.64011" lon="6.91152">
        <ele>202.2</ele>
        <time>2014-03-08T13:49:54Z</time>
      </trkpt>
      <trkpt lat="43.64014" lon="6.91152">
        <ele>202.6</ele>
        <time>2014-03-08T13:49:55Z</time>
      </trkpt>
      <trkpt lat="43.64021" lon="6.91151">
        <ele>203.2</ele>
        <time>2014-03-08T13:49:57Z</time>
      </trkpt>
      <trkpt lat="43.64027" lon="6.9115">
        <ele>203.6</ele>
        <time>2014-03-08T13:49:59Z</time>
      </trkpt>
      <trkpt lat="43.64034" lon="6.9115">
        <ele>204.2</ele>
        <time>2014-03-08T13:50:01Z</time>
      </trkpt>
      <trkpt lat="43.64041" lon="6.9115">
        <ele>204.6</ele>
        <time>2014-03-08T13:50:03Z</time>
      </trkpt>
      <trkpt lat="43.64047" lon="6.91151">
        <ele>205</ele>
        <time>2014-03-08T13:50:05Z</time>
      </trkpt>
      <trkpt lat="43.64053" lon="6.91152">
        <ele>205.6</ele>
        <time>2014-03-08T13:50:07Z</time>
      </trkpt>
      <trkpt lat="43.64059" lon="6.91152">
        <ele>206.2</ele>
        <time>2014-03-08T13:50:09Z</time>
      </trkpt>
      <trkpt lat="43.64065" lon="6.91153">
        <ele>206.8</ele>
        <time>2014-03-08T13:50:11Z</time>
      </trkpt>
      <trkpt lat="43.64068" lon="6.91155">
        <ele>206.8</ele>
        <time>2014-03-08T13:50:12Z</time>
      </trkpt>
      <trkpt lat="43.64071" lon="6.91157">
        <ele>207.4</ele>
        <time>2014-03-08T13:50:13Z</time>
      </trkpt>
      <trkpt lat="43.64078" lon="6.9116">
        <ele>208</ele>
        <time>2014-03-08T13:50:15Z</time>
      </trkpt>
      <trkpt lat="43.64081" lon="6.91161">
        <ele>208</ele>
        <time>2014-03-08T13:50:16Z</time>
      </trkpt>
      <trkpt lat="43.64084" lon="6.91162">
        <ele>208.4</ele>
        <time>2014-03-08T13:50:17Z</time>
      </trkpt>
      <trkpt lat="43.64091" lon="6.91163">
        <ele>209</ele>
        <time>2014-03-08T13:50:19Z</time>
      </trkpt>
      <trkpt lat="43.64098" lon="6.91163">
        <ele>209.4</ele>
        <time>2014-03-08T13:50:21Z</time>
      </trkpt>
      <trkpt lat="43.64105" lon="6.91165">
        <ele>210</ele>
        <time>2014-03-08T13:50:23Z</time>
      </trkpt>
      <trkpt lat="43.64108" lon="6.91165">
        <ele>210</ele>
        <time>2014-03-08T13:50:24Z</time>
      </trkpt>
      <trkpt lat="43.64112" lon="6.91166">
        <ele>210.6</ele>
        <time>2014-03-08T13:50:25Z</time>
      </trkpt>
      <trkpt lat="43.64118" lon="6.91167">
        <ele>211.2</ele>
        <time>2014-03-08T13:50:27Z</time>
      </trkpt>
      <trkpt lat="43.64125" lon="6.91167">
        <ele>211.8</ele>
        <time>2014-03-08T13:50:29Z</time>
      </trkpt>
      <trkpt lat="43.6413" lon="6.91165">
        <ele>212.4</ele>
        <time>2014-03-08T13:50:31Z</time>
      </trkpt>
      <trkpt lat="43.64135" lon="6.91161">
        <ele>213</ele>
        <time>2014-03-08T13:50:33Z</time>
      </trkpt>
      <trkpt lat="43.64141" lon="6.91157">
        <ele>213.8</ele>
        <time>2014-03-08T13:50:35Z</time>
      </trkpt>
      <trkpt lat="43.64144" lon="6.91157">
        <ele>213.8</ele>
        <time>2014-03-08T13:50:36Z</time>
      </trkpt>
      <trkpt lat="43.64147" lon="6.91158">
        <ele>214.6</ele>
        <time>2014-03-08T13:50:37Z</time>
      </trkpt>
      <trkpt lat="43.64152" lon="6.91163">
        <ele>215.2</ele>
        <time>2014-03-08T13:50:39Z</time>
      </trkpt>
      <trkpt lat="43.64154" lon="6.91167">
        <ele>215.2</ele>
        <time>2014-03-08T13:50:40Z</time>
      </trkpt>
      <trkpt lat="43.64155" lon="6.91172">
        <ele>216</ele>
        <time>2014-03-08T13:50:41Z</time>
      </trkpt>
      <trkpt lat="43.64156" lon="6.91182">
        <ele>216.6</ele>
        <time>2014-03-08T13:50:43Z</time>
      </trkpt>
      <trkpt lat="43.64156" lon="6.91192">
        <ele>217.4</ele>
        <time>2014-03-08T13:50:45Z</time>
      </trkpt>
      <trkpt lat="43.64156" lon="6.91198">
        <ele>217.4</ele>
        <time>2014-03-08T13:50:46Z</time>
      </trkpt>
      <trkpt lat="43.64156" lon="6.91204">
        <ele>218</ele>
        <time>2014-03-08T13:50:47Z</time>
      </trkpt>
      <trkpt lat="43.64156" lon="6.91211">
        <ele>218</ele>
        <time>2014-03-08T13:50:48Z</time>
      </trkpt>
      <trkpt lat="43.64156" lon="6.91217">
        <ele>218.8</ele>
        <time>2014-03-08T13:50:49Z</time>
      </trkpt>
      <trkpt lat="43.64157" lon="6.9123">
        <ele>219.6</ele>
        <time>2014-03-08T13:50:51Z</time>
      </trkpt>
      <trkpt lat="43.64159" lon="6.91236">
        <ele>219.6</ele>
        <time>2014-03-08T13:50:52Z</time>
      </trkpt>
      <trkpt lat="43.64164" lon="6.91254">
        <ele>219.6</ele>
        <time>2014-03-08T13:50:55Z</time>
      </trkpt>
      <trkpt lat="43.64168" lon="6.91266">
        <ele>219.6</ele>
        <time>2014-03-08T13:50:57Z</time>
      </trkpt>
      <trkpt lat="43.64172" lon="6.91277">
        <ele>219.6</ele>
        <time>2014-03-08T13:50:59Z</time>
      </trkpt>
      <trkpt lat="43.6418" lon="6.91299">
        <ele>219.6</ele>
        <time>2014-03-08T13:51:03Z</time>
      </trkpt>
      <trkpt lat="43.64183" lon="6.91304">
        <ele>219.6</ele>
        <time>2014-03-08T13:51:04Z</time>
      </trkpt>
      <trkpt lat="43.64192" lon="6.91316">
        <ele>219.6</ele>
        <time>2014-03-08T13:51:07Z</time>
      </trkpt>
      <trkpt lat="43.64196" lon="6.91319">
        <ele>219.6</ele>
        <time>2014-03-08T13:51:08Z</time>
      </trkpt>
      <trkpt lat="43.64206" lon="6.91336">
        <ele>220</ele>
        <time>2014-03-08T13:51:12Z</time>
      </trkpt>
      <trkpt lat="43.64212" lon="6.91345">
        <ele>220.4</ele>
        <time>2014-03-08T13:51:14Z</time>
      </trkpt>
      <trkpt lat="43.64219" lon="6.91352">
        <ele>220.8</ele>
        <time>2014-03-08T13:51:16Z</time>
      </trkpt>
      <trkpt lat="43.64224" lon="6.91355">
        <ele>220.8</ele>
        <time>2014-03-08T13:51:17Z</time>
      </trkpt>
      <trkpt lat="43.64228" lon="6.91358">
        <ele>221.4</ele>
        <time>2014-03-08T13:51:18Z</time>
      </trkpt>
      <trkpt lat="43.64237" lon="6.91363">
        <ele>221.8</ele>
        <time>2014-03-08T13:51:20Z</time>
      </trkpt>
      <trkpt lat="43.64249" lon="6.91371">
        <ele>221.8</ele>
        <time>2014-03-08T13:51:23Z</time>
      </trkpt>
      <trkpt lat="43.64264" lon="6.91388">
        <ele>221.8</ele>
        <time>2014-03-08T13:51:27Z</time>
      </trkpt>
      <trkpt lat="43.64268" lon="6.91392">
        <ele>222.2</ele>
        <time>2014-03-08T13:51:28Z</time>
      </trkpt>
      <trkpt lat="43.64275" lon="6.91399">
        <ele>222.6</ele>
        <time>2014-03-08T13:51:30Z</time>
      </trkpt>
      <trkpt lat="43.64282" lon="6.91404">
        <ele>223.2</ele>
        <time>2014-03-08T13:51:32Z</time>
      </trkpt>
      <trkpt lat="43.64288" lon="6.91408">
        <ele>223.6</ele>
        <time>2014-03-08T13:51:34Z</time>
      </trkpt>
      <trkpt lat="43.64291" lon="6.91412">
        <ele>223.6</ele>
        <time>2014-03-08T13:51:35Z</time>
      </trkpt>
      <trkpt lat="43.64295" lon="6.91415">
        <ele>224</ele>
        <time>2014-03-08T13:51:36Z</time>
      </trkpt>
      <trkpt lat="43.64303" lon="6.91424">
        <ele>224</ele>
        <time>2014-03-08T13:51:38Z</time>
      </trkpt>
      <trkpt lat="43.6431" lon="6.91434">
        <ele>224</ele>
        <time>2014-03-08T13:51:40Z</time>
      </trkpt>
      <trkpt lat="43.64313" lon="6.91438">
        <ele>224</ele>
        <time>2014-03-08T13:51:41Z</time>
      </trkpt>
      <trkpt lat="43.6433" lon="6.91466">
        <ele>224</ele>
        <time>2014-03-08T13:51:47Z</time>
      </trkpt>
      <trkpt lat="43.64342" lon="6.9148">
        <ele>224.4</ele>
        <time>2014-03-08T13:51:50Z</time>
      </trkpt>
      <trkpt lat="43.64349" lon="6.91489">
        <ele>225</ele>
        <time>2014-03-08T13:51:52Z</time>
      </trkpt>
      <trkpt lat="43.64353" lon="6.91494">
        <ele>225</ele>
        <time>2014-03-08T13:51:53Z</time>
      </trkpt>
      <trkpt lat="43.64356" lon="6.91498">
        <ele>225.4</ele>
        <time>2014-03-08T13:51:54Z</time>
      </trkpt>
      <trkpt lat="43.64364" lon="6.91506">
        <ele>225.8</ele>
        <time>2014-03-08T13:51:56Z</time>
      </trkpt>
      <trkpt lat="43.64372" lon="6.91512">
        <ele>226.4</ele>
        <time>2014-03-08T13:51:58Z</time>
      </trkpt>
      <trkpt lat="43.64381" lon="6.91518">
        <ele>226.4</ele>
        <time>2014-03-08T13:52:00Z</time>
      </trkpt>
      <trkpt lat="43.64395" lon="6.91529">
        <ele>226.4</ele>
        <time>2014-03-08T13:52:04Z</time>
      </trkpt>
      <trkpt lat="43.64399" lon="6.9153">
        <ele>226.4</ele>
        <time>2014-03-08T13:52:05Z</time>
      </trkpt>
      <trkpt lat="43.6442" lon="6.91537">
        <ele>226.4</ele>
        <time>2014-03-08T13:52:10Z</time>
      </trkpt>
      <trkpt lat="43.64424" lon="6.91539">
        <ele>226.8</ele>
        <time>2014-03-08T13:52:12Z</time>
      </trkpt>
      <trkpt lat="43.64425" lon="6.9154">
        <ele>226.8</ele>
        <time>2014-03-08T13:52:13Z</time>
      </trkpt>
      <trkpt lat="43.64425" lon="6.9154">
        <ele>227.2</ele>
        <time>2014-03-08T13:52:14Z</time>
      </trkpt>
      <trkpt lat="43.64423" lon="6.9154">
        <ele>227.6</ele>
        <time>2014-03-08T13:52:16Z</time>
      </trkpt>
      <trkpt lat="43.64424" lon="6.91541">
        <ele>228.2</ele>
        <time>2014-03-08T13:52:18Z</time>
      </trkpt>
      <trkpt lat="43.64424" lon="6.91542">
        <ele>228.6</ele>
        <time>2014-03-08T13:52:20Z</time>
      </trkpt>
      <trkpt lat="43.64426" lon="6.91543">
        <ele>228.6</ele>
        <time>2014-03-08T13:52:21Z</time>
      </trkpt>
      <trkpt lat="43.64438" lon="6.91546">
        <ele>228.6</ele>
        <time>2014-03-08T13:52:25Z</time>
      </trkpt>
      <trkpt lat="43.64458" lon="6.91546">
        <ele>228.6</ele>
        <time>2014-03-08T13:52:30Z</time>
      </trkpt>
      <trkpt lat="43.6449" lon="6.91551">
        <ele>228.6</ele>
        <time>2014-03-08T13:52:37Z</time>
      </trkpt>
      <trkpt lat="43.64494" lon="6.91551">
        <ele>229</ele>
        <time>2014-03-08T13:52:38Z</time>
      </trkpt>
      <trkpt lat="43.64503" lon="6.91552">
        <ele>229.4</ele>
        <time>2014-03-08T13:52:40Z</time>
      </trkpt>
      <trkpt lat="43.64512" lon="6.91553">
        <ele>229.8</ele>
        <time>2014-03-08T13:52:42Z</time>
      </trkpt>
      <trkpt lat="43.64521" lon="6.91556">
        <ele>230.2</ele>
        <time>2014-03-08T13:52:44Z</time>
      </trkpt>
      <trkpt lat="43.64528" lon="6.9156">
        <ele>230.6</ele>
        <time>2014-03-08T13:52:46Z</time>
      </trkpt>
      <trkpt lat="43.64531" lon="6.91561">
        <ele>230.6</ele>
        <time>2014-03-08T13:52:47Z</time>
      </trkpt>
      <trkpt lat="43.64547" lon="6.91573">
        <ele>230.6</ele>
        <time>2014-03-08T13:52:51Z</time>
      </trkpt>
      <trkpt lat="43.64552" lon="6.91577">
        <ele>231</ele>
        <time>2014-03-08T13:52:52Z</time>
      </trkpt>
      <trkpt lat="43.64559" lon="6.91585">
        <ele>231.4</ele>
        <time>2014-03-08T13:52:54Z</time>
      </trkpt>
      <trkpt lat="43.64566" lon="6.91592">
        <ele>232</ele>
        <time>2014-03-08T13:52:56Z</time>
      </trkpt>
      <trkpt lat="43.64573" lon="6.91601">
        <ele>232</ele>
        <time>2014-03-08T13:52:58Z</time>
      </trkpt>
      <trkpt lat="43.64579" lon="6.91609">
        <ele>232</ele>
        <time>2014-03-08T13:53:00Z</time>
      </trkpt>
      <trkpt lat="43.64582" lon="6.91614">
        <ele>232.4</ele>
        <time>2014-03-08T13:53:01Z</time>
      </trkpt>
      <trkpt lat="43.64586" lon="6.91624">
        <ele>232.8</ele>
        <time>2014-03-08T13:53:03Z</time>
      </trkpt>
      <trkpt lat="43.64588" lon="6.9163">
        <ele>232.8</ele>
        <time>2014-03-08T13:53:04Z</time>
      </trkpt>
      <trkpt lat="43.64592" lon="6.91641">
        <ele>232.8</ele>
        <time>2014-03-08T13:53:06Z</time>
      </trkpt>
      <trkpt lat="43.64596" lon="6.91652">
        <ele>232.8</ele>
        <time>2014-03-08T13:53:08Z</time>
      </trkpt>
      <trkpt lat="43.64598" lon="6.91657">
        <ele>232.8</ele>
        <time>2014-03-08T13:53:09Z</time>
      </trkpt>
      <trkpt lat="43.64606" lon="6.91678">
        <ele>232.8</ele>
        <time>2014-03-08T13:53:13Z</time>
      </trkpt>
      <trkpt lat="43.64607" lon="6.91683">
        <ele>232.8</ele>
        <time>2014-03-08T13:53:14Z</time>
      </trkpt>
      <trkpt lat="43.64612" lon="6.91698">
        <ele>232.8</ele>
        <time>2014-03-08T13:53:17Z</time>
      </trkpt>
      <trkpt lat="43.64613" lon="6.91704">
        <ele>232.8</ele>
        <time>2014-03-08T13:53:18Z</time>
      </trkpt>
      <trkpt lat="43.64614" lon="6.9171">
        <ele>232.8</ele>
        <time>2014-03-08T13:53:19Z</time>
      </trkpt>
      <trkpt lat="43.64616" lon="6.91722">
        <ele>233.2</ele>
        <time>2014-03-08T13:53:21Z</time>
      </trkpt>
      <trkpt lat="43.64617" lon="6.91728">
        <ele>233.2</ele>
        <time>2014-03-08T13:53:22Z</time>
      </trkpt>
      <trkpt lat="43.64619" lon="6.91734">
        <ele>233.6</ele>
        <time>2014-03-08T13:53:23Z</time>
      </trkpt>
      <trkpt lat="43.6462" lon="6.91739">
        <ele>233.6</ele>
        <time>2014-03-08T13:53:24Z</time>
      </trkpt>
      <trkpt lat="43.64622" lon="6.91745">
        <ele>234.2</ele>
        <time>2014-03-08T13:53:25Z</time>
      </trkpt>
      <trkpt lat="43.64625" lon="6.91749">
        <ele>234.2</ele>
        <time>2014-03-08T13:53:26Z</time>
      </trkpt>
      <trkpt lat="43.64628" lon="6.91754">
        <ele>234.6</ele>
        <time>2014-03-08T13:53:27Z</time>
      </trkpt>
      <trkpt lat="43.6463" lon="6.91759">
        <ele>234.6</ele>
        <time>2014-03-08T13:53:28Z</time>
      </trkpt>
      <trkpt lat="43.64633" lon="6.91764">
        <ele>235</ele>
        <time>2014-03-08T13:53:29Z</time>
      </trkpt>
      <trkpt lat="43.64637" lon="6.91776">
        <ele>235</ele>
        <time>2014-03-08T13:53:31Z</time>
      </trkpt>
      <trkpt lat="43.6464" lon="6.91788">
        <ele>235</ele>
        <time>2014-03-08T13:53:33Z</time>
      </trkpt>
      <trkpt lat="43.64642" lon="6.91793">
        <ele>235</ele>
        <time>2014-03-08T13:53:34Z</time>
      </trkpt>
      <trkpt lat="43.64655" lon="6.9181">
        <ele>235</ele>
        <time>2014-03-08T13:53:38Z</time>
      </trkpt>
      <trkpt lat="43.64658" lon="6.91815">
        <ele>235.6</ele>
        <time>2014-03-08T13:53:39Z</time>
      </trkpt>
      <trkpt lat="43.64664" lon="6.91823">
        <ele>236</ele>
        <time>2014-03-08T13:53:41Z</time>
      </trkpt>
      <trkpt lat="43.64667" lon="6.91827">
        <ele>236</ele>
        <time>2014-03-08T13:53:42Z</time>
      </trkpt>
      <trkpt lat="43.64671" lon="6.91832">
        <ele>236.6</ele>
        <time>2014-03-08T13:53:43Z</time>
      </trkpt>
      <trkpt lat="43.64679" lon="6.91839">
        <ele>237</ele>
        <time>2014-03-08T13:53:45Z</time>
      </trkpt>
      <trkpt lat="43.64683" lon="6.91842">
        <ele>237</ele>
        <time>2014-03-08T13:53:46Z</time>
      </trkpt>
      <trkpt lat="43.64687" lon="6.91845">
        <ele>237.4</ele>
        <time>2014-03-08T13:53:47Z</time>
      </trkpt>
      <trkpt lat="43.64699" lon="6.91851">
        <ele>237.4</ele>
        <time>2014-03-08T13:53:50Z</time>
      </trkpt>
      <trkpt lat="43.64714" lon="6.91855">
        <ele>237.4</ele>
        <time>2014-03-08T13:53:53Z</time>
      </trkpt>
      <trkpt lat="43.64724" lon="6.91856">
        <ele>237.4</ele>
        <time>2014-03-08T13:53:55Z</time>
      </trkpt>
      <trkpt lat="43.64741" lon="6.91857">
        <ele>237.4</ele>
        <time>2014-03-08T13:54:00Z</time>
      </trkpt>
      <trkpt lat="43.64736" lon="6.91863">
        <ele>237.4</ele>
        <time>2014-03-08T13:54:02Z</time>
      </trkpt>
      <trkpt lat="43.64722" lon="6.91872">
        <ele>237.4</ele>
        <time>2014-03-08T13:54:04Z</time>
      </trkpt>
      <trkpt lat="43.64715" lon="6.91876">
        <ele>236.6</ele>
        <time>2014-03-08T13:54:05Z</time>
      </trkpt>
      <trkpt lat="43.647" lon="6.91886">
        <ele>235.4</ele>
        <time>2014-03-08T13:54:07Z</time>
      </trkpt>
      <trkpt lat="43.64687" lon="6.91895">
        <ele>234</ele>
        <time>2014-03-08T13:54:09Z</time>
      </trkpt>
      <trkpt lat="43.64674" lon="6.91904">
        <ele>232.8</ele>
        <time>2014-03-08T13:54:11Z</time>
      </trkpt>
      <trkpt lat="43.64659" lon="6.91913">
        <ele>231.6</ele>
        <time>2014-03-08T13:54:13Z</time>
      </trkpt>
      <trkpt lat="43.64645" lon="6.91925">
        <ele>230.8</ele>
        <time>2014-03-08T13:54:15Z</time>
      </trkpt>
      <trkpt lat="43.64632" lon="6.91937">
        <ele>229.6</ele>
        <time>2014-03-08T13:54:17Z</time>
      </trkpt>
      <trkpt lat="43.64625" lon="6.91938">
        <ele>229.6</ele>
        <time>2014-03-08T13:54:18Z</time>
      </trkpt>
      <trkpt lat="43.64619" lon="6.91941">
        <ele>228.4</ele>
        <time>2014-03-08T13:54:19Z</time>
      </trkpt>
      <trkpt lat="43.64608" lon="6.91943">
        <ele>227.4</ele>
        <time>2014-03-08T13:54:21Z</time>
      </trkpt>
      <trkpt lat="43.64603" lon="6.91942">
        <ele>227.4</ele>
        <time>2014-03-08T13:54:22Z</time>
      </trkpt>
      <trkpt lat="43.64599" lon="6.91942">
        <ele>226.2</ele>
        <time>2014-03-08T13:54:23Z</time>
      </trkpt>
      <trkpt lat="43.64591" lon="6.91941">
        <ele>225.2</ele>
        <time>2014-03-08T13:54:25Z</time>
      </trkpt>
      <trkpt lat="43.64583" lon="6.91939">
        <ele>225.2</ele>
        <time>2014-03-08T13:54:27Z</time>
      </trkpt>
      <trkpt lat="43.64579" lon="6.91938">
        <ele>225.2</ele>
        <time>2014-03-08T13:54:28Z</time>
      </trkpt>
      <trkpt lat="43.64572" lon="6.91929">
        <ele>225.2</ele>
        <time>2014-03-08T13:54:31Z</time>
      </trkpt>
      <trkpt lat="43.64574" lon="6.91916">
        <ele>225.2</ele>
        <time>2014-03-08T13:54:34Z</time>
      </trkpt>
      <trkpt lat="43.64575" lon="6.9191">
        <ele>225.6</ele>
        <time>2014-03-08T13:54:35Z</time>
      </trkpt>
      <trkpt lat="43.64578" lon="6.919">
        <ele>226</ele>
        <time>2014-03-08T13:54:37Z</time>
      </trkpt>
      <trkpt lat="43.64578" lon="6.91892">
        <ele>226.6</ele>
        <time>2014-03-08T13:54:39Z</time>
      </trkpt>
      <trkpt lat="43.64576" lon="6.91888">
        <ele>227</ele>
        <time>2014-03-08T13:54:41Z</time>
      </trkpt>
      <trkpt lat="43.64574" lon="6.91883">
        <ele>227.4</ele>
        <time>2014-03-08T13:54:43Z</time>
      </trkpt>
      <trkpt lat="43.64573" lon="6.9188">
        <ele>227.4</ele>
        <time>2014-03-08T13:54:44Z</time>
      </trkpt>
      <trkpt lat="43.64566" lon="6.91863">
        <ele>227.4</ele>
        <time>2014-03-08T13:54:51Z</time>
      </trkpt>
      <trkpt lat="43.64565" lon="6.9186">
        <ele>227.4</ele>
        <time>2014-03-08T13:54:52Z</time>
      </trkpt>
    </trkseg>
  </trk>
</gpx>